<?xml version="1.0" encoding="UTF-8" standalone="no" ?>
<gpx xmlns="http://www.topografix.com/GPX/1/1" xmlns:xsi="http://www.w3.org/2001/XMLSchema-instance" xsi:schemaLocation="http://www.topografix.com/GPX/1/1 http://www.topografix.com/GPX/1/1/gpx.xsd" version="1.1" creator="VisuGPX - https://www.visugpx.com">
  <metadata>
    <name>Maxirace2021 108kms_6600d+</name>
  </metadata>
  <trk>
    <name><![CDATA[10524704-d]]></name>
    <trkseg>
      <trkpt lat="45.90443" lon="6.14808">
        <ele>450</ele>
        <time>2019-09-18T11:22:20Z</time>
      </trkpt>
      <trkpt lat="45.90443" lon="6.14754">
        <ele>452</ele>
        <time>2019-09-18T11:22:39Z</time>
      </trkpt>
      <trkpt lat="45.9046" lon="6.14718">
        <ele>453</ele>
        <time>2019-09-18T11:22:54Z</time>
      </trkpt>
      <trkpt lat="45.90453" lon="6.1465">
        <ele>455</ele>
        <time>2019-09-18T11:23:18Z</time>
      </trkpt>
      <trkpt lat="45.90454" lon="6.14584">
        <ele>454</ele>
        <time>2019-09-18T11:23:41Z</time>
      </trkpt>
      <trkpt lat="45.90462" lon="6.14524">
        <ele>455</ele>
        <time>2019-09-18T11:24:02Z</time>
      </trkpt>
      <trkpt lat="45.90471" lon="6.14481">
        <ele>455</ele>
        <time>2019-09-18T11:24:18Z</time>
      </trkpt>
      <trkpt lat="45.90501" lon="6.14365">
        <ele>453</ele>
        <time>2019-09-18T11:25:01Z</time>
      </trkpt>
      <trkpt lat="45.90506" lon="6.14335">
        <ele>453</ele>
        <time>2019-09-18T11:25:12Z</time>
      </trkpt>
      <trkpt lat="45.90509" lon="6.14292">
        <ele>452</ele>
        <time>2019-09-18T11:25:27Z</time>
      </trkpt>
      <trkpt lat="45.90504" lon="6.14263">
        <ele>451</ele>
        <time>2019-09-18T11:25:37Z</time>
      </trkpt>
      <trkpt lat="45.90463" lon="6.14106">
        <ele>452</ele>
        <time>2019-09-18T11:26:35Z</time>
      </trkpt>
      <trkpt lat="45.90458" lon="6.14065">
        <ele>452</ele>
        <time>2019-09-18T11:26:50Z</time>
      </trkpt>
      <trkpt lat="45.90431" lon="6.13956">
        <ele>453</ele>
        <time>2019-09-18T11:27:30Z</time>
      </trkpt>
      <trkpt lat="45.90426" lon="6.13926">
        <ele>454</ele>
        <time>2019-09-18T11:27:41Z</time>
      </trkpt>
      <trkpt lat="45.90422" lon="6.13912">
        <ele>455</ele>
        <time>2019-09-18T11:27:46Z</time>
      </trkpt>
      <trkpt lat="45.90414" lon="6.13901">
        <ele>455</ele>
        <time>2019-09-18T11:27:52Z</time>
      </trkpt>
      <trkpt lat="45.90399" lon="6.13863">
        <ele>455</ele>
        <time>2019-09-18T11:28:07Z</time>
      </trkpt>
      <trkpt lat="45.90382" lon="6.1381">
        <ele>454</ele>
        <time>2019-09-18T11:28:27Z</time>
      </trkpt>
      <trkpt lat="45.90352" lon="6.13699">
        <ele>452</ele>
        <time>2019-09-18T11:29:09Z</time>
      </trkpt>
      <trkpt lat="45.90336" lon="6.13627">
        <ele>453</ele>
        <time>2019-09-18T11:29:35Z</time>
      </trkpt>
      <trkpt lat="45.90305" lon="6.13524">
        <ele>455</ele>
        <time>2019-09-18T11:30:14Z</time>
      </trkpt>
      <trkpt lat="45.90279" lon="6.13479">
        <ele>455</ele>
        <time>2019-09-18T11:30:35Z</time>
      </trkpt>
      <trkpt lat="45.90227" lon="6.13418">
        <ele>452</ele>
        <time>2019-09-18T11:31:08Z</time>
      </trkpt>
      <trkpt lat="45.90199" lon="6.13379">
        <ele>451</ele>
        <time>2019-09-18T11:31:28Z</time>
      </trkpt>
      <trkpt lat="45.9013" lon="6.13257">
        <ele>451</ele>
        <time>2019-09-18T11:32:22Z</time>
      </trkpt>
      <trkpt lat="45.90076" lon="6.132">
        <ele>449</ele>
        <time>2019-09-18T11:32:56Z</time>
      </trkpt>
      <trkpt lat="45.90065" lon="6.13192">
        <ele>450</ele>
        <time>2019-09-18T11:33:02Z</time>
      </trkpt>
      <trkpt lat="45.90053" lon="6.13179">
        <ele>451</ele>
        <time>2019-09-18T11:33:10Z</time>
      </trkpt>
      <trkpt lat="45.90041" lon="6.13165">
        <ele>453</ele>
        <time>2019-09-18T11:33:17Z</time>
      </trkpt>
      <trkpt lat="45.90028" lon="6.13141">
        <ele>453</ele>
        <time>2019-09-18T11:33:28Z</time>
      </trkpt>
      <trkpt lat="45.90026" lon="6.13139">
        <ele>453</ele>
        <time>2019-09-18T11:33:29Z</time>
      </trkpt>
      <trkpt lat="45.90012" lon="6.13139">
        <ele>455</ele>
        <time>2019-09-18T11:33:36Z</time>
      </trkpt>
      <trkpt lat="45.89998" lon="6.13117">
        <ele>455</ele>
        <time>2019-09-18T11:33:47Z</time>
      </trkpt>
      <trkpt lat="45.89964" lon="6.1308">
        <ele>455</ele>
        <time>2019-09-18T11:34:08Z</time>
      </trkpt>
      <trkpt lat="45.89931" lon="6.13023">
        <ele>455</ele>
        <time>2019-09-18T11:34:34Z</time>
      </trkpt>
      <trkpt lat="45.89924" lon="6.13017">
        <ele>455</ele>
        <time>2019-09-18T11:34:38Z</time>
      </trkpt>
      <trkpt lat="45.89909" lon="6.13019">
        <ele>455</ele>
        <time>2019-09-18T11:34:45Z</time>
      </trkpt>
      <trkpt lat="45.89898" lon="6.13017">
        <ele>454</ele>
        <time>2019-09-18T11:34:51Z</time>
      </trkpt>
      <trkpt lat="45.89879" lon="6.12996">
        <ele>453</ele>
        <time>2019-09-18T11:35:03Z</time>
      </trkpt>
      <trkpt lat="45.89855" lon="6.1296">
        <ele>452</ele>
        <time>2019-09-18T11:35:20Z</time>
      </trkpt>
      <trkpt lat="45.89841" lon="6.12933">
        <ele>451</ele>
        <time>2019-09-18T11:35:32Z</time>
      </trkpt>
      <trkpt lat="45.89838" lon="6.12919">
        <ele>451</ele>
        <time>2019-09-18T11:35:37Z</time>
      </trkpt>
      <trkpt lat="45.89816" lon="6.12919">
        <ele>453</ele>
        <time>2019-09-18T11:35:48Z</time>
      </trkpt>
      <trkpt lat="45.89812" lon="6.12934">
        <ele>453</ele>
        <time>2019-09-18T11:35:54Z</time>
      </trkpt>
      <trkpt lat="45.89812" lon="6.1303">
        <ele>452</ele>
        <time>2019-09-18T11:36:27Z</time>
      </trkpt>
      <trkpt lat="45.89818" lon="6.13087">
        <ele>450</ele>
        <time>2019-09-18T11:36:47Z</time>
      </trkpt>
      <trkpt lat="45.89809" lon="6.13132">
        <ele>450</ele>
        <time>2019-09-18T11:37:04Z</time>
      </trkpt>
      <trkpt lat="45.89804" lon="6.13218">
        <ele>449</ele>
        <time>2019-09-18T11:37:34Z</time>
      </trkpt>
      <trkpt lat="45.89788" lon="6.13276">
        <ele>449</ele>
        <time>2019-09-18T11:37:55Z</time>
      </trkpt>
      <trkpt lat="45.89771" lon="6.13312">
        <ele>450</ele>
        <time>2019-09-18T11:38:10Z</time>
      </trkpt>
      <trkpt lat="45.89762" lon="6.13326">
        <ele>451</ele>
        <time>2019-09-18T11:38:17Z</time>
      </trkpt>
      <trkpt lat="45.89709" lon="6.13391">
        <ele>449</ele>
        <time>2019-09-18T11:38:52Z</time>
      </trkpt>
      <trkpt lat="45.89638" lon="6.13469">
        <ele>448</ele>
        <time>2019-09-18T11:39:37Z</time>
      </trkpt>
      <trkpt lat="45.89629" lon="6.13474">
        <ele>448</ele>
        <time>2019-09-18T11:39:42Z</time>
      </trkpt>
      <trkpt lat="45.89625" lon="6.13473">
        <ele>448</ele>
        <time>2019-09-18T11:39:44Z</time>
      </trkpt>
      <trkpt lat="45.89615" lon="6.13462">
        <ele>448</ele>
        <time>2019-09-18T11:39:50Z</time>
      </trkpt>
      <trkpt lat="45.89584" lon="6.13404">
        <ele>449</ele>
        <time>2019-09-18T11:40:15Z</time>
      </trkpt>
      <trkpt lat="45.89548" lon="6.13348">
        <ele>451</ele>
        <time>2019-09-18T11:40:42Z</time>
      </trkpt>
      <trkpt lat="45.89546" lon="6.13328">
        <ele>452</ele>
        <time>2019-09-18T11:40:49Z</time>
      </trkpt>
      <trkpt lat="45.89555" lon="6.13307">
        <ele>454</ele>
        <time>2019-09-18T11:40:57Z</time>
      </trkpt>
      <trkpt lat="45.89553" lon="6.13297">
        <ele>455</ele>
        <time>2019-09-18T11:41:01Z</time>
      </trkpt>
      <trkpt lat="45.89541" lon="6.13295">
        <ele>456</ele>
        <time>2019-09-18T11:41:07Z</time>
      </trkpt>
      <trkpt lat="45.89519" lon="6.13299">
        <ele>457</ele>
        <time>2019-09-18T11:41:18Z</time>
      </trkpt>
      <trkpt lat="45.89484" lon="6.13326">
        <ele>457</ele>
        <time>2019-09-18T11:41:38Z</time>
      </trkpt>
      <trkpt lat="45.8947" lon="6.13328">
        <ele>458</ele>
        <time>2019-09-18T11:41:45Z</time>
      </trkpt>
      <trkpt lat="45.89451" lon="6.13323">
        <ele>462</ele>
        <time>2019-09-18T11:41:55Z</time>
      </trkpt>
      <trkpt lat="45.89443" lon="6.13316">
        <ele>464</ele>
        <time>2019-09-18T11:42:00Z</time>
      </trkpt>
      <trkpt lat="45.89413" lon="6.13299">
        <ele>469</ele>
        <time>2019-09-18T11:42:16Z</time>
      </trkpt>
      <trkpt lat="45.89382" lon="6.13293">
        <ele>475</ele>
        <time>2019-09-18T11:42:31Z</time>
      </trkpt>
      <trkpt lat="45.89353" lon="6.13271">
        <ele>481</ele>
        <time>2019-09-18T11:42:48Z</time>
      </trkpt>
      <trkpt lat="45.89342" lon="6.13266">
        <ele>483</ele>
        <time>2019-09-18T11:42:54Z</time>
      </trkpt>
      <trkpt lat="45.89331" lon="6.1327">
        <ele>485</ele>
        <time>2019-09-18T11:42:59Z</time>
      </trkpt>
      <trkpt lat="45.89305" lon="6.13268">
        <ele>492</ele>
        <time>2019-09-18T11:43:12Z</time>
      </trkpt>
      <trkpt lat="45.89297" lon="6.1327">
        <ele>493</ele>
        <time>2019-09-18T11:43:16Z</time>
      </trkpt>
      <trkpt lat="45.89278" lon="6.1326">
        <ele>499</ele>
        <time>2019-09-18T11:43:26Z</time>
      </trkpt>
      <trkpt lat="45.8927" lon="6.13261">
        <ele>501</ele>
        <time>2019-09-18T11:43:30Z</time>
      </trkpt>
      <trkpt lat="45.89244" lon="6.1325">
        <ele>508</ele>
        <time>2019-09-18T11:43:44Z</time>
      </trkpt>
      <trkpt lat="45.89237" lon="6.1325">
        <ele>508</ele>
        <time>2019-09-18T11:43:47Z</time>
      </trkpt>
      <trkpt lat="45.89221" lon="6.13257">
        <ele>510</ele>
        <time>2019-09-18T11:43:56Z</time>
      </trkpt>
      <trkpt lat="45.892" lon="6.13279">
        <ele>510</ele>
        <time>2019-09-18T11:44:09Z</time>
      </trkpt>
      <trkpt lat="45.89194" lon="6.13289">
        <ele>510</ele>
        <time>2019-09-18T11:44:13Z</time>
      </trkpt>
      <trkpt lat="45.89185" lon="6.1329">
        <ele>511</ele>
        <time>2019-09-18T11:44:18Z</time>
      </trkpt>
      <trkpt lat="45.89167" lon="6.13276">
        <ele>514</ele>
        <time>2019-09-18T11:44:28Z</time>
      </trkpt>
      <trkpt lat="45.89145" lon="6.13248">
        <ele>518</ele>
        <time>2019-09-18T11:44:43Z</time>
      </trkpt>
      <trkpt lat="45.89136" lon="6.1324">
        <ele>520</ele>
        <time>2019-09-18T11:44:48Z</time>
      </trkpt>
      <trkpt lat="45.89127" lon="6.13236">
        <ele>521</ele>
        <time>2019-09-18T11:44:53Z</time>
      </trkpt>
      <trkpt lat="45.89115" lon="6.13234">
        <ele>522</ele>
        <time>2019-09-18T11:44:59Z</time>
      </trkpt>
      <trkpt lat="45.89104" lon="6.13237">
        <ele>522</ele>
        <time>2019-09-18T11:45:05Z</time>
      </trkpt>
      <trkpt lat="45.89074" lon="6.13233">
        <ele>526</ele>
        <time>2019-09-18T11:45:20Z</time>
      </trkpt>
      <trkpt lat="45.89065" lon="6.13234">
        <ele>529</ele>
        <time>2019-09-18T11:45:24Z</time>
      </trkpt>
      <trkpt lat="45.89056" lon="6.13238">
        <ele>532</ele>
        <time>2019-09-18T11:45:29Z</time>
      </trkpt>
      <trkpt lat="45.89037" lon="6.13253">
        <ele>537</ele>
        <time>2019-09-18T11:45:40Z</time>
      </trkpt>
      <trkpt lat="45.89027" lon="6.13257">
        <ele>540</ele>
        <time>2019-09-18T11:45:45Z</time>
      </trkpt>
      <trkpt lat="45.8902" lon="6.13246">
        <ele>543</ele>
        <time>2019-09-18T11:45:50Z</time>
      </trkpt>
      <trkpt lat="45.89012" lon="6.13216">
        <ele>546</ele>
        <time>2019-09-18T11:46:01Z</time>
      </trkpt>
      <trkpt lat="45.89013" lon="6.13186">
        <ele>546</ele>
        <time>2019-09-18T11:46:12Z</time>
      </trkpt>
      <trkpt lat="45.89005" lon="6.13132">
        <ele>548</ele>
        <time>2019-09-18T11:46:31Z</time>
      </trkpt>
      <trkpt lat="45.89003" lon="6.13102">
        <ele>549</ele>
        <time>2019-09-18T11:46:42Z</time>
      </trkpt>
      <trkpt lat="45.89005" lon="6.13058">
        <ele>551</ele>
        <time>2019-09-18T11:46:57Z</time>
      </trkpt>
      <trkpt lat="45.88994" lon="6.13015">
        <ele>556</ele>
        <time>2019-09-18T11:47:13Z</time>
      </trkpt>
      <trkpt lat="45.89001" lon="6.12971">
        <ele>554</ele>
        <time>2019-09-18T11:47:29Z</time>
      </trkpt>
      <trkpt lat="45.89018" lon="6.12912">
        <ele>549</ele>
        <time>2019-09-18T11:47:51Z</time>
      </trkpt>
      <trkpt lat="45.89019" lon="6.12895">
        <ele>548</ele>
        <time>2019-09-18T11:47:57Z</time>
      </trkpt>
      <trkpt lat="45.89017" lon="6.12881">
        <ele>547</ele>
        <time>2019-09-18T11:48:02Z</time>
      </trkpt>
      <trkpt lat="45.88993" lon="6.12845">
        <ele>550</ele>
        <time>2019-09-18T11:48:19Z</time>
      </trkpt>
      <trkpt lat="45.88989" lon="6.1283">
        <ele>550</ele>
        <time>2019-09-18T11:48:25Z</time>
      </trkpt>
      <trkpt lat="45.88982" lon="6.12774">
        <ele>548</ele>
        <time>2019-09-18T11:48:44Z</time>
      </trkpt>
      <trkpt lat="45.88976" lon="6.12764">
        <ele>549</ele>
        <time>2019-09-18T11:48:49Z</time>
      </trkpt>
      <trkpt lat="45.88939" lon="6.12733">
        <ele>557</ele>
        <time>2019-09-18T11:49:11Z</time>
      </trkpt>
      <trkpt lat="45.88898" lon="6.1269">
        <ele>558</ele>
        <time>2019-09-18T11:49:36Z</time>
      </trkpt>
      <trkpt lat="45.88889" lon="6.12684">
        <ele>559</ele>
        <time>2019-09-18T11:49:41Z</time>
      </trkpt>
      <trkpt lat="45.88879" lon="6.12689">
        <ele>562</ele>
        <time>2019-09-18T11:49:46Z</time>
      </trkpt>
      <trkpt lat="45.88869" lon="6.12688">
        <ele>564</ele>
        <time>2019-09-18T11:49:51Z</time>
      </trkpt>
      <trkpt lat="45.88852" lon="6.12675">
        <ele>565</ele>
        <time>2019-09-18T11:50:01Z</time>
      </trkpt>
      <trkpt lat="45.88846" lon="6.12662">
        <ele>563</ele>
        <time>2019-09-18T11:50:06Z</time>
      </trkpt>
      <trkpt lat="45.88788" lon="6.1259">
        <ele>571</ele>
        <time>2019-09-18T11:50:45Z</time>
      </trkpt>
      <trkpt lat="45.88756" lon="6.1256">
        <ele>577</ele>
        <time>2019-09-18T11:51:04Z</time>
      </trkpt>
      <trkpt lat="45.88735" lon="6.12532">
        <ele>572</ele>
        <time>2019-09-18T11:51:18Z</time>
      </trkpt>
      <trkpt lat="45.88726" lon="6.12528">
        <ele>573</ele>
        <time>2019-09-18T11:51:23Z</time>
      </trkpt>
      <trkpt lat="45.88686" lon="6.12513">
        <ele>579</ele>
        <time>2019-09-18T11:51:43Z</time>
      </trkpt>
      <trkpt lat="45.88678" lon="6.1252">
        <ele>585</ele>
        <time>2019-09-18T11:51:48Z</time>
      </trkpt>
      <trkpt lat="45.88669" lon="6.12524">
        <ele>589</ele>
        <time>2019-09-18T11:51:53Z</time>
      </trkpt>
      <trkpt lat="45.8865" lon="6.12523">
        <ele>595</ele>
        <time>2019-09-18T11:52:02Z</time>
      </trkpt>
      <trkpt lat="45.8864" lon="6.12526">
        <ele>599</ele>
        <time>2019-09-18T11:52:08Z</time>
      </trkpt>
      <trkpt lat="45.88633" lon="6.12535">
        <ele>605</ele>
        <time>2019-09-18T11:52:12Z</time>
      </trkpt>
      <trkpt lat="45.88624" lon="6.12541">
        <ele>610</ele>
        <time>2019-09-18T11:52:17Z</time>
      </trkpt>
      <trkpt lat="45.88604" lon="6.12547">
        <ele>617</ele>
        <time>2019-09-18T11:52:27Z</time>
      </trkpt>
      <trkpt lat="45.88594" lon="6.12547">
        <ele>620</ele>
        <time>2019-09-18T11:52:32Z</time>
      </trkpt>
      <trkpt lat="45.88573" lon="6.1254">
        <ele>625</ele>
        <time>2019-09-18T11:52:43Z</time>
      </trkpt>
      <trkpt lat="45.88555" lon="6.12529">
        <ele>631</ele>
        <time>2019-09-18T11:52:53Z</time>
      </trkpt>
      <trkpt lat="45.88539" lon="6.12512">
        <ele>634</ele>
        <time>2019-09-18T11:53:03Z</time>
      </trkpt>
      <trkpt lat="45.88529" lon="6.12505">
        <ele>638</ele>
        <time>2019-09-18T11:53:09Z</time>
      </trkpt>
      <trkpt lat="45.88499" lon="6.12465">
        <ele>636</ele>
        <time>2019-09-18T11:53:29Z</time>
      </trkpt>
      <trkpt lat="45.88473" lon="6.12444">
        <ele>637</ele>
        <time>2019-09-18T11:53:44Z</time>
      </trkpt>
      <trkpt lat="45.88431" lon="6.12416">
        <ele>643</ele>
        <time>2019-09-18T11:54:07Z</time>
      </trkpt>
      <trkpt lat="45.88402" lon="6.12407">
        <ele>648</ele>
        <time>2019-09-18T11:54:22Z</time>
      </trkpt>
      <trkpt lat="45.88393" lon="6.12407">
        <ele>651</ele>
        <time>2019-09-18T11:54:26Z</time>
      </trkpt>
      <trkpt lat="45.88384" lon="6.12399">
        <ele>648</ele>
        <time>2019-09-18T11:54:32Z</time>
      </trkpt>
      <trkpt lat="45.88295" lon="6.12381">
        <ele>663</ele>
        <time>2019-09-18T11:55:17Z</time>
      </trkpt>
      <trkpt lat="45.88277" lon="6.12372">
        <ele>664</ele>
        <time>2019-09-18T11:55:26Z</time>
      </trkpt>
      <trkpt lat="45.88258" lon="6.12368">
        <ele>668</ele>
        <time>2019-09-18T11:55:36Z</time>
      </trkpt>
      <trkpt lat="45.88248" lon="6.12369">
        <ele>672</ele>
        <time>2019-09-18T11:55:41Z</time>
      </trkpt>
      <trkpt lat="45.88217" lon="6.12362">
        <ele>675</ele>
        <time>2019-09-18T11:55:57Z</time>
      </trkpt>
      <trkpt lat="45.882" lon="6.12351">
        <ele>673</ele>
        <time>2019-09-18T11:56:06Z</time>
      </trkpt>
      <trkpt lat="45.8819" lon="6.12348">
        <ele>674</ele>
        <time>2019-09-18T11:56:11Z</time>
      </trkpt>
      <trkpt lat="45.88162" lon="6.12343">
        <ele>677</ele>
        <time>2019-09-18T11:56:25Z</time>
      </trkpt>
      <trkpt lat="45.88133" lon="6.12341">
        <ele>682</ele>
        <time>2019-09-18T11:56:40Z</time>
      </trkpt>
      <trkpt lat="45.88124" lon="6.12337">
        <ele>682</ele>
        <time>2019-09-18T11:56:44Z</time>
      </trkpt>
      <trkpt lat="45.88102" lon="6.12337">
        <ele>686</ele>
        <time>2019-09-18T11:56:55Z</time>
      </trkpt>
      <trkpt lat="45.88094" lon="6.12333">
        <ele>685</ele>
        <time>2019-09-18T11:57:00Z</time>
      </trkpt>
      <trkpt lat="45.88074" lon="6.12329">
        <ele>687</ele>
        <time>2019-09-18T11:57:10Z</time>
      </trkpt>
      <trkpt lat="45.88063" lon="6.12331">
        <ele>690</ele>
        <time>2019-09-18T11:57:15Z</time>
      </trkpt>
      <trkpt lat="45.88045" lon="6.12339">
        <ele>699</ele>
        <time>2019-09-18T11:57:25Z</time>
      </trkpt>
      <trkpt lat="45.88025" lon="6.12337">
        <ele>702</ele>
        <time>2019-09-18T11:57:35Z</time>
      </trkpt>
      <trkpt lat="45.88003" lon="6.12344">
        <ele>711</ele>
        <time>2019-09-18T11:57:46Z</time>
      </trkpt>
      <trkpt lat="45.87984" lon="6.12347">
        <ele>716</ele>
        <time>2019-09-18T11:57:56Z</time>
      </trkpt>
      <trkpt lat="45.87973" lon="6.12346">
        <ele>717</ele>
        <time>2019-09-18T11:58:01Z</time>
      </trkpt>
      <trkpt lat="45.87945" lon="6.12331">
        <ele>713</ele>
        <time>2019-09-18T11:58:16Z</time>
      </trkpt>
      <trkpt lat="45.87936" lon="6.1233">
        <ele>714</ele>
        <time>2019-09-18T11:58:21Z</time>
      </trkpt>
      <trkpt lat="45.87918" lon="6.12342">
        <ele>724</ele>
        <time>2019-09-18T11:58:31Z</time>
      </trkpt>
      <trkpt lat="45.87908" lon="6.12343">
        <ele>727</ele>
        <time>2019-09-18T11:58:36Z</time>
      </trkpt>
      <trkpt lat="45.87898" lon="6.12339">
        <ele>727</ele>
        <time>2019-09-18T11:58:41Z</time>
      </trkpt>
      <trkpt lat="45.8789" lon="6.12331">
        <ele>724</ele>
        <time>2019-09-18T11:58:46Z</time>
      </trkpt>
      <trkpt lat="45.8787" lon="6.12324">
        <ele>725</ele>
        <time>2019-09-18T11:58:56Z</time>
      </trkpt>
      <trkpt lat="45.87815" lon="6.12291">
        <ele>720</ele>
        <time>2019-09-18T11:59:26Z</time>
      </trkpt>
      <trkpt lat="45.87795" lon="6.12289">
        <ele>726</ele>
        <time>2019-09-18T11:59:36Z</time>
      </trkpt>
      <trkpt lat="45.87776" lon="6.12284">
        <ele>731</ele>
        <time>2019-09-18T11:59:45Z</time>
      </trkpt>
      <trkpt lat="45.87737" lon="6.12266">
        <ele>735</ele>
        <time>2019-09-18T12:00:06Z</time>
      </trkpt>
      <trkpt lat="45.87706" lon="6.12264">
        <ele>751</ele>
        <time>2019-09-18T12:00:21Z</time>
      </trkpt>
      <trkpt lat="45.87688" lon="6.12256">
        <ele>756</ele>
        <time>2019-09-18T12:00:31Z</time>
      </trkpt>
      <trkpt lat="45.87651" lon="6.12234">
        <ele>764</ele>
        <time>2019-09-18T12:00:51Z</time>
      </trkpt>
      <trkpt lat="45.87637" lon="6.12216">
        <ele>761</ele>
        <time>2019-09-18T12:01:00Z</time>
      </trkpt>
      <trkpt lat="45.87628" lon="6.1221">
        <ele>762</ele>
        <time>2019-09-18T12:01:05Z</time>
      </trkpt>
      <trkpt lat="45.87613" lon="6.12194">
        <ele>761</ele>
        <time>2019-09-18T12:01:15Z</time>
      </trkpt>
      <trkpt lat="45.87593" lon="6.12186">
        <ele>766</ele>
        <time>2019-09-18T12:01:25Z</time>
      </trkpt>
      <trkpt lat="45.87575" lon="6.12175">
        <ele>770</ele>
        <time>2019-09-18T12:01:35Z</time>
      </trkpt>
      <trkpt lat="45.87531" lon="6.12136">
        <ele>776</ele>
        <time>2019-09-18T12:02:01Z</time>
      </trkpt>
      <trkpt lat="45.87522" lon="6.12132">
        <ele>779</ele>
        <time>2019-09-18T12:02:05Z</time>
      </trkpt>
      <trkpt lat="45.87514" lon="6.12125">
        <ele>781</ele>
        <time>2019-09-18T12:02:10Z</time>
      </trkpt>
      <trkpt lat="45.87494" lon="6.12117">
        <ele>789</ele>
        <time>2019-09-18T12:02:21Z</time>
      </trkpt>
      <trkpt lat="45.87411" lon="6.12046">
        <ele>799</ele>
        <time>2019-09-18T12:03:09Z</time>
      </trkpt>
      <trkpt lat="45.87397" lon="6.12028">
        <ele>797</ele>
        <time>2019-09-18T12:03:18Z</time>
      </trkpt>
      <trkpt lat="45.87387" lon="6.12026">
        <ele>800</ele>
        <time>2019-09-18T12:03:23Z</time>
      </trkpt>
      <trkpt lat="45.87359" lon="6.12012">
        <ele>808</ele>
        <time>2019-09-18T12:03:38Z</time>
      </trkpt>
      <trkpt lat="45.87336" lon="6.11989">
        <ele>810</ele>
        <time>2019-09-18T12:03:52Z</time>
      </trkpt>
      <trkpt lat="45.87322" lon="6.11971">
        <ele>808</ele>
        <time>2019-09-18T12:04:02Z</time>
      </trkpt>
      <trkpt lat="45.87266" lon="6.11935">
        <ele>815</ele>
        <time>2019-09-18T12:04:32Z</time>
      </trkpt>
      <trkpt lat="45.87257" lon="6.11934">
        <ele>818</ele>
        <time>2019-09-18T12:04:37Z</time>
      </trkpt>
      <trkpt lat="45.8722" lon="6.11912">
        <ele>824</ele>
        <time>2019-09-18T12:04:57Z</time>
      </trkpt>
      <trkpt lat="45.87172" lon="6.11892">
        <ele>832</ele>
        <time>2019-09-18T12:05:22Z</time>
      </trkpt>
      <trkpt lat="45.87163" lon="6.11885">
        <ele>832</ele>
        <time>2019-09-18T12:05:27Z</time>
      </trkpt>
      <trkpt lat="45.87154" lon="6.11883">
        <ele>832</ele>
        <time>2019-09-18T12:05:32Z</time>
      </trkpt>
      <trkpt lat="45.87144" lon="6.11886">
        <ele>836</ele>
        <time>2019-09-18T12:05:37Z</time>
      </trkpt>
      <trkpt lat="45.87137" lon="6.11895">
        <ele>841</ele>
        <time>2019-09-18T12:05:41Z</time>
      </trkpt>
      <trkpt lat="45.8713" lon="6.11921">
        <ele>851</ele>
        <time>2019-09-18T12:05:51Z</time>
      </trkpt>
      <trkpt lat="45.8713" lon="6.11934">
        <ele>852</ele>
        <time>2019-09-18T12:05:56Z</time>
      </trkpt>
      <trkpt lat="45.87121" lon="6.11939">
        <ele>853</ele>
        <time>2019-09-18T12:06:00Z</time>
      </trkpt>
      <trkpt lat="45.87102" lon="6.11928">
        <ele>855</ele>
        <time>2019-09-18T12:06:11Z</time>
      </trkpt>
      <trkpt lat="45.87072" lon="6.11919">
        <ele>858</ele>
        <time>2019-09-18T12:06:26Z</time>
      </trkpt>
      <trkpt lat="45.87034" lon="6.11914">
        <ele>862</ele>
        <time>2019-09-18T12:06:45Z</time>
      </trkpt>
      <trkpt lat="45.87014" lon="6.11905">
        <ele>863</ele>
        <time>2019-09-18T12:06:56Z</time>
      </trkpt>
      <trkpt lat="45.87005" lon="6.11897">
        <ele>863</ele>
        <time>2019-09-18T12:07:01Z</time>
      </trkpt>
      <trkpt lat="45.86976" lon="6.11883">
        <ele>863</ele>
        <time>2019-09-18T12:07:16Z</time>
      </trkpt>
      <trkpt lat="45.86952" lon="6.11855">
        <ele>863</ele>
        <time>2019-09-18T12:07:32Z</time>
      </trkpt>
      <trkpt lat="45.86944" lon="6.11849">
        <ele>864</ele>
        <time>2019-09-18T12:07:36Z</time>
      </trkpt>
      <trkpt lat="45.86922" lon="6.11845">
        <ele>867</ele>
        <time>2019-09-18T12:07:47Z</time>
      </trkpt>
      <trkpt lat="45.86913" lon="6.11848">
        <ele>868</ele>
        <time>2019-09-18T12:07:52Z</time>
      </trkpt>
      <trkpt lat="45.86902" lon="6.11846">
        <ele>868</ele>
        <time>2019-09-18T12:07:57Z</time>
      </trkpt>
      <trkpt lat="45.86892" lon="6.11843">
        <ele>867</ele>
        <time>2019-09-18T12:08:03Z</time>
      </trkpt>
      <trkpt lat="45.86873" lon="6.11831">
        <ele>867</ele>
        <time>2019-09-18T12:08:13Z</time>
      </trkpt>
      <trkpt lat="45.86853" lon="6.11828">
        <ele>866</ele>
        <time>2019-09-18T12:08:23Z</time>
      </trkpt>
      <trkpt lat="45.86833" lon="6.11826">
        <ele>866</ele>
        <time>2019-09-18T12:08:33Z</time>
      </trkpt>
      <trkpt lat="45.86803" lon="6.11834">
        <ele>864</ele>
        <time>2019-09-18T12:08:48Z</time>
      </trkpt>
      <trkpt lat="45.86783" lon="6.11829">
        <ele>861</ele>
        <time>2019-09-18T12:08:58Z</time>
      </trkpt>
      <trkpt lat="45.86772" lon="6.11824">
        <ele>859</ele>
        <time>2019-09-18T12:09:04Z</time>
      </trkpt>
      <trkpt lat="45.86754" lon="6.1179">
        <ele>853</ele>
        <time>2019-09-18T12:09:19Z</time>
      </trkpt>
      <trkpt lat="45.86741" lon="6.11811">
        <ele>855</ele>
        <time>2019-09-18T12:09:29Z</time>
      </trkpt>
      <trkpt lat="45.86732" lon="6.11817">
        <ele>857</ele>
        <time>2019-09-18T12:09:34Z</time>
      </trkpt>
      <trkpt lat="45.86723" lon="6.11818">
        <ele>857</ele>
        <time>2019-09-18T12:09:38Z</time>
      </trkpt>
      <trkpt lat="45.86697" lon="6.11796">
        <ele>856</ele>
        <time>2019-09-18T12:09:53Z</time>
      </trkpt>
      <trkpt lat="45.86666" lon="6.11785">
        <ele>857</ele>
        <time>2019-09-18T12:10:09Z</time>
      </trkpt>
      <trkpt lat="45.86629" lon="6.11758">
        <ele>860</ele>
        <time>2019-09-18T12:10:30Z</time>
      </trkpt>
      <trkpt lat="45.86609" lon="6.11754">
        <ele>863</ele>
        <time>2019-09-18T12:10:40Z</time>
      </trkpt>
      <trkpt lat="45.86599" lon="6.11749">
        <ele>865</ele>
        <time>2019-09-18T12:10:46Z</time>
      </trkpt>
      <trkpt lat="45.86591" lon="6.11737">
        <ele>866</ele>
        <time>2019-09-18T12:10:51Z</time>
      </trkpt>
      <trkpt lat="45.86585" lon="6.11725">
        <ele>868</ele>
        <time>2019-09-18T12:10:57Z</time>
      </trkpt>
      <trkpt lat="45.86582" lon="6.11712">
        <ele>869</ele>
        <time>2019-09-18T12:11:01Z</time>
      </trkpt>
      <trkpt lat="45.86569" lon="6.1169">
        <ele>872</ele>
        <time>2019-09-18T12:11:11Z</time>
      </trkpt>
      <trkpt lat="45.8656" lon="6.1168">
        <ele>874</ele>
        <time>2019-09-18T12:11:17Z</time>
      </trkpt>
      <trkpt lat="45.86551" lon="6.11676">
        <ele>876</ele>
        <time>2019-09-18T12:11:22Z</time>
      </trkpt>
      <trkpt lat="45.86543" lon="6.11667">
        <ele>878</ele>
        <time>2019-09-18T12:11:27Z</time>
      </trkpt>
      <trkpt lat="45.8653" lon="6.11644">
        <ele>876</ele>
        <time>2019-09-18T12:11:37Z</time>
      </trkpt>
      <trkpt lat="45.86509" lon="6.11635">
        <ele>879</ele>
        <time>2019-09-18T12:11:48Z</time>
      </trkpt>
      <trkpt lat="45.86494" lon="6.11616">
        <ele>880</ele>
        <time>2019-09-18T12:11:58Z</time>
      </trkpt>
      <trkpt lat="45.86477" lon="6.11605">
        <ele>882</ele>
        <time>2019-09-18T12:12:08Z</time>
      </trkpt>
      <trkpt lat="45.86456" lon="6.11602">
        <ele>886</ele>
        <time>2019-09-18T12:12:18Z</time>
      </trkpt>
      <trkpt lat="45.86436" lon="6.11612">
        <ele>889</ele>
        <time>2019-09-18T12:12:29Z</time>
      </trkpt>
      <trkpt lat="45.86417" lon="6.11629">
        <ele>892</ele>
        <time>2019-09-18T12:12:40Z</time>
      </trkpt>
      <trkpt lat="45.86406" lon="6.11633">
        <ele>893</ele>
        <time>2019-09-18T12:12:46Z</time>
      </trkpt>
      <trkpt lat="45.86387" lon="6.11639">
        <ele>894</ele>
        <time>2019-09-18T12:12:55Z</time>
      </trkpt>
      <trkpt lat="45.86364" lon="6.11639">
        <ele>896</ele>
        <time>2019-09-18T12:13:07Z</time>
      </trkpt>
      <trkpt lat="45.86342" lon="6.11642">
        <ele>898</ele>
        <time>2019-09-18T12:13:18Z</time>
      </trkpt>
      <trkpt lat="45.86323" lon="6.11649">
        <ele>897</ele>
        <time>2019-09-18T12:13:28Z</time>
      </trkpt>
      <trkpt lat="45.86303" lon="6.11653">
        <ele>896</ele>
        <time>2019-09-18T12:13:38Z</time>
      </trkpt>
      <trkpt lat="45.86282" lon="6.11664">
        <ele>893</ele>
        <time>2019-09-18T12:13:49Z</time>
      </trkpt>
      <trkpt lat="45.86259" lon="6.11668">
        <ele>891</ele>
        <time>2019-09-18T12:14:01Z</time>
      </trkpt>
      <trkpt lat="45.86228" lon="6.11679">
        <ele>888</ele>
        <time>2019-09-18T12:14:17Z</time>
      </trkpt>
      <trkpt lat="45.86208" lon="6.11675">
        <ele>889</ele>
        <time>2019-09-18T12:14:27Z</time>
      </trkpt>
      <trkpt lat="45.86188" lon="6.11666">
        <ele>890</ele>
        <time>2019-09-18T12:14:37Z</time>
      </trkpt>
      <trkpt lat="45.86178" lon="6.11668">
        <ele>890</ele>
        <time>2019-09-18T12:14:42Z</time>
      </trkpt>
      <trkpt lat="45.86169" lon="6.11679">
        <ele>888</ele>
        <time>2019-09-18T12:14:48Z</time>
      </trkpt>
      <trkpt lat="45.86152" lon="6.11721">
        <ele>879</ele>
        <time>2019-09-18T12:15:05Z</time>
      </trkpt>
      <trkpt lat="45.86134" lon="6.1173">
        <ele>878</ele>
        <time>2019-09-18T12:15:15Z</time>
      </trkpt>
      <trkpt lat="45.86101" lon="6.11735">
        <ele>878</ele>
        <time>2019-09-18T12:15:31Z</time>
      </trkpt>
      <trkpt lat="45.86067" lon="6.11732">
        <ele>879</ele>
        <time>2019-09-18T12:15:48Z</time>
      </trkpt>
      <trkpt lat="45.86056" lon="6.11729">
        <ele>879</ele>
        <time>2019-09-18T12:15:54Z</time>
      </trkpt>
      <trkpt lat="45.86036" lon="6.11729">
        <ele>878</ele>
        <time>2019-09-18T12:16:04Z</time>
      </trkpt>
      <trkpt lat="45.86018" lon="6.11734">
        <ele>876</ele>
        <time>2019-09-18T12:16:13Z</time>
      </trkpt>
      <trkpt lat="45.85987" lon="6.11738">
        <ele>874</ele>
        <time>2019-09-18T12:16:29Z</time>
      </trkpt>
      <trkpt lat="45.85958" lon="6.11734">
        <ele>873</ele>
        <time>2019-09-18T12:16:43Z</time>
      </trkpt>
      <trkpt lat="45.85892" lon="6.11779">
        <ele>865</ele>
        <time>2019-09-18T12:17:20Z</time>
      </trkpt>
      <trkpt lat="45.8588" lon="6.11784">
        <ele>864</ele>
        <time>2019-09-18T12:17:26Z</time>
      </trkpt>
      <trkpt lat="45.85856" lon="6.11782">
        <ele>863</ele>
        <time>2019-09-18T12:17:38Z</time>
      </trkpt>
      <trkpt lat="45.85837" lon="6.11793">
        <ele>861</ele>
        <time>2019-09-18T12:17:48Z</time>
      </trkpt>
      <trkpt lat="45.8583" lon="6.11802">
        <ele>861</ele>
        <time>2019-09-18T12:17:53Z</time>
      </trkpt>
      <trkpt lat="45.85829" lon="6.11816">
        <ele>860</ele>
        <time>2019-09-18T12:17:58Z</time>
      </trkpt>
      <trkpt lat="45.85832" lon="6.11846">
        <ele>858</ele>
        <time>2019-09-18T12:18:08Z</time>
      </trkpt>
      <trkpt lat="45.85827" lon="6.11857">
        <ele>857</ele>
        <time>2019-09-18T12:18:13Z</time>
      </trkpt>
      <trkpt lat="45.8579" lon="6.11872">
        <ele>858</ele>
        <time>2019-09-18T12:18:32Z</time>
      </trkpt>
      <trkpt lat="45.85771" lon="6.11867">
        <ele>859</ele>
        <time>2019-09-18T12:18:42Z</time>
      </trkpt>
      <trkpt lat="45.85749" lon="6.11856">
        <ele>860</ele>
        <time>2019-09-18T12:18:54Z</time>
      </trkpt>
      <trkpt lat="45.85739" lon="6.11855">
        <ele>862</ele>
        <time>2019-09-18T12:18:59Z</time>
      </trkpt>
      <trkpt lat="45.85731" lon="6.11863">
        <ele>864</ele>
        <time>2019-09-18T12:19:03Z</time>
      </trkpt>
      <trkpt lat="45.85726" lon="6.11874">
        <ele>864</ele>
        <time>2019-09-18T12:19:08Z</time>
      </trkpt>
      <trkpt lat="45.85718" lon="6.11881">
        <ele>866</ele>
        <time>2019-09-18T12:19:13Z</time>
      </trkpt>
      <trkpt lat="45.85708" lon="6.11885">
        <ele>868</ele>
        <time>2019-09-18T12:19:18Z</time>
      </trkpt>
      <trkpt lat="45.85678" lon="6.11888">
        <ele>873</ele>
        <time>2019-09-18T12:19:33Z</time>
      </trkpt>
      <trkpt lat="45.85639" lon="6.11878">
        <ele>879</ele>
        <time>2019-09-18T12:19:53Z</time>
      </trkpt>
      <trkpt lat="45.85619" lon="6.11868">
        <ele>881</ele>
        <time>2019-09-18T12:20:03Z</time>
      </trkpt>
      <trkpt lat="45.8559" lon="6.11866">
        <ele>884</ele>
        <time>2019-09-18T12:20:18Z</time>
      </trkpt>
      <trkpt lat="45.85581" lon="6.11869">
        <ele>885</ele>
        <time>2019-09-18T12:20:23Z</time>
      </trkpt>
      <trkpt lat="45.85563" lon="6.11857">
        <ele>888</ele>
        <time>2019-09-18T12:20:32Z</time>
      </trkpt>
      <trkpt lat="45.85531" lon="6.11801">
        <ele>890</ele>
        <time>2019-09-18T12:20:58Z</time>
      </trkpt>
      <trkpt lat="45.85523" lon="6.11793">
        <ele>891</ele>
        <time>2019-09-18T12:21:03Z</time>
      </trkpt>
      <trkpt lat="45.85504" lon="6.11787">
        <ele>893</ele>
        <time>2019-09-18T12:21:12Z</time>
      </trkpt>
      <trkpt lat="45.85495" lon="6.11793">
        <ele>895</ele>
        <time>2019-09-18T12:21:17Z</time>
      </trkpt>
      <trkpt lat="45.85476" lon="6.11795">
        <ele>897</ele>
        <time>2019-09-18T12:21:27Z</time>
      </trkpt>
      <trkpt lat="45.85465" lon="6.11799">
        <ele>898</ele>
        <time>2019-09-18T12:21:33Z</time>
      </trkpt>
      <trkpt lat="45.85448" lon="6.11811">
        <ele>900</ele>
        <time>2019-09-18T12:21:42Z</time>
      </trkpt>
      <trkpt lat="45.85419" lon="6.11794">
        <ele>903</ele>
        <time>2019-09-18T12:21:58Z</time>
      </trkpt>
      <trkpt lat="45.85403" lon="6.11778">
        <ele>903</ele>
        <time>2019-09-18T12:22:07Z</time>
      </trkpt>
      <trkpt lat="45.85375" lon="6.11759">
        <ele>904</ele>
        <time>2019-09-18T12:22:23Z</time>
      </trkpt>
      <trkpt lat="45.85365" lon="6.11756">
        <ele>905</ele>
        <time>2019-09-18T12:22:28Z</time>
      </trkpt>
      <trkpt lat="45.8533" lon="6.11729">
        <ele>906</ele>
        <time>2019-09-18T12:22:48Z</time>
      </trkpt>
      <trkpt lat="45.85311" lon="6.11726">
        <ele>908</ele>
        <time>2019-09-18T12:22:58Z</time>
      </trkpt>
      <trkpt lat="45.85289" lon="6.11729">
        <ele>911</ele>
        <time>2019-09-18T12:23:09Z</time>
      </trkpt>
      <trkpt lat="45.8528" lon="6.11728">
        <ele>912</ele>
        <time>2019-09-18T12:23:13Z</time>
      </trkpt>
      <trkpt lat="45.85262" lon="6.11717">
        <ele>913</ele>
        <time>2019-09-18T12:23:23Z</time>
      </trkpt>
      <trkpt lat="45.85222" lon="6.1173">
        <ele>918</ele>
        <time>2019-09-18T12:23:43Z</time>
      </trkpt>
      <trkpt lat="45.85213" lon="6.11736">
        <ele>919</ele>
        <time>2019-09-18T12:23:48Z</time>
      </trkpt>
      <trkpt lat="45.85199" lon="6.11757">
        <ele>922</ele>
        <time>2019-09-18T12:23:58Z</time>
      </trkpt>
      <trkpt lat="45.8519" lon="6.11765">
        <ele>924</ele>
        <time>2019-09-18T12:24:04Z</time>
      </trkpt>
      <trkpt lat="45.8518" lon="6.11769">
        <ele>925</ele>
        <time>2019-09-18T12:24:09Z</time>
      </trkpt>
      <trkpt lat="45.8516" lon="6.1177">
        <ele>927</ele>
        <time>2019-09-18T12:24:19Z</time>
      </trkpt>
      <trkpt lat="45.85142" lon="6.11767">
        <ele>929</ele>
        <time>2019-09-18T12:24:28Z</time>
      </trkpt>
      <trkpt lat="45.85132" lon="6.11774">
        <ele>931</ele>
        <time>2019-09-18T12:24:34Z</time>
      </trkpt>
      <trkpt lat="45.85109" lon="6.11802">
        <ele>936</ele>
        <time>2019-09-18T12:24:49Z</time>
      </trkpt>
      <trkpt lat="45.851" lon="6.11804">
        <ele>937</ele>
        <time>2019-09-18T12:24:53Z</time>
      </trkpt>
      <trkpt lat="45.85092" lon="6.11796">
        <ele>937</ele>
        <time>2019-09-18T12:24:58Z</time>
      </trkpt>
      <trkpt lat="45.85075" lon="6.11787">
        <ele>939</ele>
        <time>2019-09-18T12:25:07Z</time>
      </trkpt>
      <trkpt lat="45.85067" lon="6.11779">
        <ele>940</ele>
        <time>2019-09-18T12:25:12Z</time>
      </trkpt>
      <trkpt lat="45.85058" lon="6.11779">
        <ele>941</ele>
        <time>2019-09-18T12:25:17Z</time>
      </trkpt>
      <trkpt lat="45.85027" lon="6.11768">
        <ele>946</ele>
        <time>2019-09-18T12:25:33Z</time>
      </trkpt>
      <trkpt lat="45.85009" lon="6.11768">
        <ele>949</ele>
        <time>2019-09-18T12:25:42Z</time>
      </trkpt>
      <trkpt lat="45.84991" lon="6.11756">
        <ele>952</ele>
        <time>2019-09-18T12:25:52Z</time>
      </trkpt>
      <trkpt lat="45.84982" lon="6.11756">
        <ele>953</ele>
        <time>2019-09-18T12:25:56Z</time>
      </trkpt>
      <trkpt lat="45.84965" lon="6.11771">
        <ele>958</ele>
        <time>2019-09-18T12:26:06Z</time>
      </trkpt>
      <trkpt lat="45.84956" lon="6.11764">
        <ele>960</ele>
        <time>2019-09-18T12:26:11Z</time>
      </trkpt>
      <trkpt lat="45.84937" lon="6.11728">
        <ele>961</ele>
        <time>2019-09-18T12:26:27Z</time>
      </trkpt>
      <trkpt lat="45.84926" lon="6.1169">
        <ele>962</ele>
        <time>2019-09-18T12:26:41Z</time>
      </trkpt>
      <trkpt lat="45.84908" lon="6.11658">
        <ele>964</ele>
        <time>2019-09-18T12:26:56Z</time>
      </trkpt>
      <trkpt lat="45.84903" lon="6.11642">
        <ele>965</ele>
        <time>2019-09-18T12:27:02Z</time>
      </trkpt>
      <trkpt lat="45.84885" lon="6.11607">
        <ele>966</ele>
        <time>2019-09-18T12:27:17Z</time>
      </trkpt>
      <trkpt lat="45.84852" lon="6.11575">
        <ele>971</ele>
        <time>2019-09-18T12:27:37Z</time>
      </trkpt>
      <trkpt lat="45.84833" lon="6.11538">
        <ele>971</ele>
        <time>2019-09-18T12:27:53Z</time>
      </trkpt>
      <trkpt lat="45.84817" lon="6.11518">
        <ele>971</ele>
        <time>2019-09-18T12:28:03Z</time>
      </trkpt>
      <trkpt lat="45.848" lon="6.11505">
        <ele>972</ele>
        <time>2019-09-18T12:28:13Z</time>
      </trkpt>
      <trkpt lat="45.84789" lon="6.11506">
        <ele>973</ele>
        <time>2019-09-18T12:28:19Z</time>
      </trkpt>
      <trkpt lat="45.84766" lon="6.11501">
        <ele>975</ele>
        <time>2019-09-18T12:28:30Z</time>
      </trkpt>
      <trkpt lat="45.84744" lon="6.11502">
        <ele>978</ele>
        <time>2019-09-18T12:28:41Z</time>
      </trkpt>
      <trkpt lat="45.84735" lon="6.11508">
        <ele>979</ele>
        <time>2019-09-18T12:28:46Z</time>
      </trkpt>
      <trkpt lat="45.84723" lon="6.1153">
        <ele>982</ele>
        <time>2019-09-18T12:28:56Z</time>
      </trkpt>
      <trkpt lat="45.84713" lon="6.11537">
        <ele>984</ele>
        <time>2019-09-18T12:29:01Z</time>
      </trkpt>
      <trkpt lat="45.84702" lon="6.1154">
        <ele>985</ele>
        <time>2019-09-18T12:29:07Z</time>
      </trkpt>
      <trkpt lat="45.84692" lon="6.11538">
        <ele>986</ele>
        <time>2019-09-18T12:29:12Z</time>
      </trkpt>
      <trkpt lat="45.84643" lon="6.11486">
        <ele>986</ele>
        <time>2019-09-18T12:29:43Z</time>
      </trkpt>
      <trkpt lat="45.84632" lon="6.11479">
        <ele>987</ele>
        <time>2019-09-18T12:29:49Z</time>
      </trkpt>
      <trkpt lat="45.84623" lon="6.11478">
        <ele>988</ele>
        <time>2019-09-18T12:29:53Z</time>
      </trkpt>
      <trkpt lat="45.84592" lon="6.11466">
        <ele>990</ele>
        <time>2019-09-18T12:30:09Z</time>
      </trkpt>
      <trkpt lat="45.84561" lon="6.11462">
        <ele>993</ele>
        <time>2019-09-18T12:30:25Z</time>
      </trkpt>
      <trkpt lat="45.84525" lon="6.1143">
        <ele>992</ele>
        <time>2019-09-18T12:30:46Z</time>
      </trkpt>
      <trkpt lat="45.84507" lon="6.11418">
        <ele>992</ele>
        <time>2019-09-18T12:30:56Z</time>
      </trkpt>
      <trkpt lat="45.84487" lon="6.11408">
        <ele>993</ele>
        <time>2019-09-18T12:31:07Z</time>
      </trkpt>
      <trkpt lat="45.84478" lon="6.11406">
        <ele>995</ele>
        <time>2019-09-18T12:31:11Z</time>
      </trkpt>
      <trkpt lat="45.84424" lon="6.11366">
        <ele>1001</ele>
        <time>2019-09-18T12:31:42Z</time>
      </trkpt>
      <trkpt lat="45.84415" lon="6.11358">
        <ele>1002</ele>
        <time>2019-09-18T12:31:47Z</time>
      </trkpt>
      <trkpt lat="45.84409" lon="6.11347">
        <ele>1002</ele>
        <time>2019-09-18T12:31:52Z</time>
      </trkpt>
      <trkpt lat="45.84391" lon="6.11333">
        <ele>1006</ele>
        <time>2019-09-18T12:32:02Z</time>
      </trkpt>
      <trkpt lat="45.84383" lon="6.11321">
        <ele>1007</ele>
        <time>2019-09-18T12:32:08Z</time>
      </trkpt>
      <trkpt lat="45.84372" lon="6.11293">
        <ele>1008</ele>
        <time>2019-09-18T12:32:19Z</time>
      </trkpt>
      <trkpt lat="45.84365" lon="6.11284">
        <ele>1009</ele>
        <time>2019-09-18T12:32:24Z</time>
      </trkpt>
      <trkpt lat="45.84356" lon="6.11281">
        <ele>1011</ele>
        <time>2019-09-18T12:32:28Z</time>
      </trkpt>
      <trkpt lat="45.84345" lon="6.11282">
        <ele>1014</ele>
        <time>2019-09-18T12:32:34Z</time>
      </trkpt>
      <trkpt lat="45.84334" lon="6.11279">
        <ele>1016</ele>
        <time>2019-09-18T12:32:39Z</time>
      </trkpt>
      <trkpt lat="45.84325" lon="6.11273">
        <ele>1018</ele>
        <time>2019-09-18T12:32:44Z</time>
      </trkpt>
      <trkpt lat="45.84317" lon="6.11265">
        <ele>1019</ele>
        <time>2019-09-18T12:32:49Z</time>
      </trkpt>
      <trkpt lat="45.84311" lon="6.11252">
        <ele>1019</ele>
        <time>2019-09-18T12:32:55Z</time>
      </trkpt>
      <trkpt lat="45.84294" lon="6.11234">
        <ele>1022</ele>
        <time>2019-09-18T12:33:05Z</time>
      </trkpt>
      <trkpt lat="45.84285" lon="6.1123">
        <ele>1023</ele>
        <time>2019-09-18T12:33:10Z</time>
      </trkpt>
      <trkpt lat="45.84265" lon="6.1123">
        <ele>1029</ele>
        <time>2019-09-18T12:33:20Z</time>
      </trkpt>
      <trkpt lat="45.8423" lon="6.11213">
        <ele>1035</ele>
        <time>2019-09-18T12:33:38Z</time>
      </trkpt>
      <trkpt lat="45.84211" lon="6.11211">
        <ele>1039</ele>
        <time>2019-09-18T12:33:48Z</time>
      </trkpt>
      <trkpt lat="45.84202" lon="6.11207">
        <ele>1041</ele>
        <time>2019-09-18T12:33:53Z</time>
      </trkpt>
      <trkpt lat="45.84195" lon="6.11197">
        <ele>1041</ele>
        <time>2019-09-18T12:33:58Z</time>
      </trkpt>
      <trkpt lat="45.84187" lon="6.1119">
        <ele>1042</ele>
        <time>2019-09-18T12:34:02Z</time>
      </trkpt>
      <trkpt lat="45.84178" lon="6.11187">
        <ele>1044</ele>
        <time>2019-09-18T12:34:07Z</time>
      </trkpt>
      <trkpt lat="45.84171" lon="6.11178">
        <ele>1044</ele>
        <time>2019-09-18T12:34:12Z</time>
      </trkpt>
      <trkpt lat="45.84162" lon="6.11174">
        <ele>1045</ele>
        <time>2019-09-18T12:34:16Z</time>
      </trkpt>
      <trkpt lat="45.84151" lon="6.11179">
        <ele>1049</ele>
        <time>2019-09-18T12:34:22Z</time>
      </trkpt>
      <trkpt lat="45.84119" lon="6.11154">
        <ele>1052</ele>
        <time>2019-09-18T12:34:40Z</time>
      </trkpt>
      <trkpt lat="45.8411" lon="6.11149">
        <ele>1054</ele>
        <time>2019-09-18T12:34:45Z</time>
      </trkpt>
      <trkpt lat="45.841" lon="6.11147">
        <ele>1056</ele>
        <time>2019-09-18T12:34:50Z</time>
      </trkpt>
      <trkpt lat="45.84091" lon="6.11141">
        <ele>1057</ele>
        <time>2019-09-18T12:34:55Z</time>
      </trkpt>
      <trkpt lat="45.8407" lon="6.11113">
        <ele>1057</ele>
        <time>2019-09-18T12:35:10Z</time>
      </trkpt>
      <trkpt lat="45.84052" lon="6.11102">
        <ele>1060</ele>
        <time>2019-09-18T12:35:19Z</time>
      </trkpt>
      <trkpt lat="45.84026" lon="6.1109">
        <ele>1066</ele>
        <time>2019-09-18T12:35:33Z</time>
      </trkpt>
      <trkpt lat="45.84017" lon="6.11083">
        <ele>1067</ele>
        <time>2019-09-18T12:35:38Z</time>
      </trkpt>
      <trkpt lat="45.83997" lon="6.11079">
        <ele>1073</ele>
        <time>2019-09-18T12:35:48Z</time>
      </trkpt>
      <trkpt lat="45.8397" lon="6.11069">
        <ele>1080</ele>
        <time>2019-09-18T12:36:02Z</time>
      </trkpt>
      <trkpt lat="45.8396" lon="6.1104">
        <ele>1077</ele>
        <time>2019-09-18T12:36:13Z</time>
      </trkpt>
      <trkpt lat="45.8393" lon="6.10996">
        <ele>1077</ele>
        <time>2019-09-18T12:36:35Z</time>
      </trkpt>
      <trkpt lat="45.83922" lon="6.1099">
        <ele>1078</ele>
        <time>2019-09-18T12:36:39Z</time>
      </trkpt>
      <trkpt lat="45.83893" lon="6.10975">
        <ele>1084</ele>
        <time>2019-09-18T12:36:55Z</time>
      </trkpt>
      <trkpt lat="45.83876" lon="6.10963">
        <ele>1086</ele>
        <time>2019-09-18T12:37:04Z</time>
      </trkpt>
      <trkpt lat="45.83867" lon="6.1096">
        <ele>1089</ele>
        <time>2019-09-18T12:37:09Z</time>
      </trkpt>
      <trkpt lat="45.83857" lon="6.10958">
        <ele>1091</ele>
        <time>2019-09-18T12:37:14Z</time>
      </trkpt>
      <trkpt lat="45.83848" lon="6.1096">
        <ele>1095</ele>
        <time>2019-09-18T12:37:19Z</time>
      </trkpt>
      <trkpt lat="45.83818" lon="6.1096">
        <ele>1103</ele>
        <time>2019-09-18T12:37:34Z</time>
      </trkpt>
      <trkpt lat="45.83798" lon="6.10952">
        <ele>1106</ele>
        <time>2019-09-18T12:37:44Z</time>
      </trkpt>
      <trkpt lat="45.8377" lon="6.10947">
        <ele>1112</ele>
        <time>2019-09-18T12:37:58Z</time>
      </trkpt>
      <trkpt lat="45.83745" lon="6.10927">
        <ele>1114</ele>
        <time>2019-09-18T12:38:12Z</time>
      </trkpt>
      <trkpt lat="45.83735" lon="6.10923">
        <ele>1115</ele>
        <time>2019-09-18T12:38:18Z</time>
      </trkpt>
      <trkpt lat="45.83707" lon="6.10927">
        <ele>1124</ele>
        <time>2019-09-18T12:38:32Z</time>
      </trkpt>
      <trkpt lat="45.83682" lon="6.10903">
        <ele>1126</ele>
        <time>2019-09-18T12:38:47Z</time>
      </trkpt>
      <trkpt lat="45.83651" lon="6.109">
        <ele>1133</ele>
        <time>2019-09-18T12:39:02Z</time>
      </trkpt>
      <trkpt lat="45.83618" lon="6.10872">
        <ele>1137</ele>
        <time>2019-09-18T12:39:21Z</time>
      </trkpt>
      <trkpt lat="45.83589" lon="6.10869">
        <ele>1144</ele>
        <time>2019-09-18T12:39:36Z</time>
      </trkpt>
      <trkpt lat="45.8358" lon="6.10876">
        <ele>1147</ele>
        <time>2019-09-18T12:39:41Z</time>
      </trkpt>
      <trkpt lat="45.83559" lon="6.10908">
        <ele>1158</ele>
        <time>2019-09-18T12:39:56Z</time>
      </trkpt>
      <trkpt lat="45.8355" lon="6.10909">
        <ele>1160</ele>
        <time>2019-09-18T12:40:01Z</time>
      </trkpt>
      <trkpt lat="45.83542" lon="6.10904">
        <ele>1161</ele>
        <time>2019-09-18T12:40:05Z</time>
      </trkpt>
      <trkpt lat="45.83537" lon="6.10893">
        <ele>1161</ele>
        <time>2019-09-18T12:40:10Z</time>
      </trkpt>
      <trkpt lat="45.83521" lon="6.10893">
        <ele>1164</ele>
        <time>2019-09-18T12:40:18Z</time>
      </trkpt>
      <trkpt lat="45.83516" lon="6.10882">
        <ele>1164</ele>
        <time>2019-09-18T12:40:23Z</time>
      </trkpt>
      <trkpt lat="45.83506" lon="6.10878">
        <ele>1166</ele>
        <time>2019-09-18T12:40:28Z</time>
      </trkpt>
      <trkpt lat="45.83476" lon="6.10876">
        <ele>1175</ele>
        <time>2019-09-18T12:40:43Z</time>
      </trkpt>
      <trkpt lat="45.83471" lon="6.1088">
        <ele>1177</ele>
        <time>2019-09-18T12:40:46Z</time>
      </trkpt>
      <trkpt lat="45.83475" lon="6.10893">
        <ele>1178</ele>
        <time>2019-09-18T12:40:51Z</time>
      </trkpt>
      <trkpt lat="45.83474" lon="6.10907">
        <ele>1180</ele>
        <time>2019-09-18T12:40:55Z</time>
      </trkpt>
      <trkpt lat="45.83478" lon="6.10936">
        <ele>1183</ele>
        <time>2019-09-18T12:41:06Z</time>
      </trkpt>
      <trkpt lat="45.83475" lon="6.10982">
        <ele>1191</ele>
        <time>2019-09-18T12:41:22Z</time>
      </trkpt>
      <trkpt lat="45.83472" lon="6.10995">
        <ele>1194</ele>
        <time>2019-09-18T12:41:27Z</time>
      </trkpt>
      <trkpt lat="45.83475" lon="6.11009">
        <ele>1194</ele>
        <time>2019-09-18T12:41:32Z</time>
      </trkpt>
      <trkpt lat="45.83466" lon="6.11007">
        <ele>1197</ele>
        <time>2019-09-18T12:41:36Z</time>
      </trkpt>
      <trkpt lat="45.8345" lon="6.10993">
        <ele>1202</ele>
        <time>2019-09-18T12:41:46Z</time>
      </trkpt>
      <trkpt lat="45.83439" lon="6.10993">
        <ele>1206</ele>
        <time>2019-09-18T12:41:51Z</time>
      </trkpt>
      <trkpt lat="45.83421" lon="6.11002">
        <ele>1214</ele>
        <time>2019-09-18T12:42:01Z</time>
      </trkpt>
      <trkpt lat="45.83412" lon="6.11011">
        <ele>1217</ele>
        <time>2019-09-18T12:42:06Z</time>
      </trkpt>
      <trkpt lat="45.83391" lon="6.11013">
        <ele>1222</ele>
        <time>2019-09-18T12:42:17Z</time>
      </trkpt>
      <trkpt lat="45.83382" lon="6.11019">
        <ele>1224</ele>
        <time>2019-09-18T12:42:22Z</time>
      </trkpt>
      <trkpt lat="45.83374" lon="6.11044">
        <ele>1227</ele>
        <time>2019-09-18T12:42:31Z</time>
      </trkpt>
      <trkpt lat="45.83367" lon="6.11052">
        <ele>1228</ele>
        <time>2019-09-18T12:42:36Z</time>
      </trkpt>
      <trkpt lat="45.83366" lon="6.11066">
        <ele>1229</ele>
        <time>2019-09-18T12:42:41Z</time>
      </trkpt>
      <trkpt lat="45.83356" lon="6.11064">
        <ele>1230</ele>
        <time>2019-09-18T12:42:46Z</time>
      </trkpt>
      <trkpt lat="45.83347" lon="6.11037">
        <ele>1232</ele>
        <time>2019-09-18T12:42:56Z</time>
      </trkpt>
      <trkpt lat="45.83335" lon="6.11015">
        <ele>1234</ele>
        <time>2019-09-18T12:43:06Z</time>
      </trkpt>
      <trkpt lat="45.83319" lon="6.1103">
        <ele>1238</ele>
        <time>2019-09-18T12:43:16Z</time>
      </trkpt>
      <trkpt lat="45.83312" lon="6.1104">
        <ele>1240</ele>
        <time>2019-09-18T12:43:20Z</time>
      </trkpt>
      <trkpt lat="45.83309" lon="6.11053">
        <ele>1241</ele>
        <time>2019-09-18T12:43:25Z</time>
      </trkpt>
      <trkpt lat="45.833" lon="6.11052">
        <ele>1244</ele>
        <time>2019-09-18T12:43:30Z</time>
      </trkpt>
      <trkpt lat="45.83294" lon="6.11042">
        <ele>1245</ele>
        <time>2019-09-18T12:43:34Z</time>
      </trkpt>
      <trkpt lat="45.83285" lon="6.11036">
        <ele>1248</ele>
        <time>2019-09-18T12:43:39Z</time>
      </trkpt>
      <trkpt lat="45.83275" lon="6.11037">
        <ele>1250</ele>
        <time>2019-09-18T12:43:44Z</time>
      </trkpt>
      <trkpt lat="45.8326" lon="6.11056">
        <ele>1255</ele>
        <time>2019-09-18T12:43:54Z</time>
      </trkpt>
      <trkpt lat="45.83252" lon="6.1106">
        <ele>1258</ele>
        <time>2019-09-18T12:43:59Z</time>
      </trkpt>
      <trkpt lat="45.83229" lon="6.11087">
        <ele>1265</ele>
        <time>2019-09-18T12:44:13Z</time>
      </trkpt>
      <trkpt lat="45.83211" lon="6.11135">
        <ele>1270</ele>
        <time>2019-09-18T12:44:32Z</time>
      </trkpt>
      <trkpt lat="45.83191" lon="6.112">
        <ele>1275</ele>
        <time>2019-09-18T12:44:57Z</time>
      </trkpt>
      <trkpt lat="45.83184" lon="6.11209">
        <ele>1277</ele>
        <time>2019-09-18T12:45:02Z</time>
      </trkpt>
      <trkpt lat="45.83174" lon="6.11212">
        <ele>1279</ele>
        <time>2019-09-18T12:45:07Z</time>
      </trkpt>
      <trkpt lat="45.83161" lon="6.11176">
        <ele>1282</ele>
        <time>2019-09-18T12:45:21Z</time>
      </trkpt>
      <trkpt lat="45.83154" lon="6.11167">
        <ele>1285</ele>
        <time>2019-09-18T12:45:26Z</time>
      </trkpt>
      <trkpt lat="45.83145" lon="6.11167">
        <ele>1287</ele>
        <time>2019-09-18T12:45:30Z</time>
      </trkpt>
      <trkpt lat="45.83138" lon="6.11177">
        <ele>1289</ele>
        <time>2019-09-18T12:45:35Z</time>
      </trkpt>
      <trkpt lat="45.83115" lon="6.11226">
        <ele>1293</ele>
        <time>2019-09-18T12:45:56Z</time>
      </trkpt>
      <trkpt lat="45.83101" lon="6.11245">
        <ele>1295</ele>
        <time>2019-09-18T12:46:06Z</time>
      </trkpt>
      <trkpt lat="45.83092" lon="6.11251">
        <ele>1297</ele>
        <time>2019-09-18T12:46:11Z</time>
      </trkpt>
      <trkpt lat="45.83066" lon="6.11277">
        <ele>1298</ele>
        <time>2019-09-18T12:46:26Z</time>
      </trkpt>
      <trkpt lat="45.83035" lon="6.11286">
        <ele>1300</ele>
        <time>2019-09-18T12:46:42Z</time>
      </trkpt>
      <trkpt lat="45.83027" lon="6.11279">
        <ele>1302</ele>
        <time>2019-09-18T12:46:47Z</time>
      </trkpt>
      <trkpt lat="45.83023" lon="6.11251">
        <ele>1305</ele>
        <time>2019-09-18T12:46:57Z</time>
      </trkpt>
      <trkpt lat="45.83016" lon="6.11239">
        <ele>1307</ele>
        <time>2019-09-18T12:47:02Z</time>
      </trkpt>
      <trkpt lat="45.82998" lon="6.11234">
        <ele>1310</ele>
        <time>2019-09-18T12:47:12Z</time>
      </trkpt>
      <trkpt lat="45.82989" lon="6.11226">
        <ele>1312</ele>
        <time>2019-09-18T12:47:17Z</time>
      </trkpt>
      <trkpt lat="45.82971" lon="6.11189">
        <ele>1317</ele>
        <time>2019-09-18T12:47:33Z</time>
      </trkpt>
      <trkpt lat="45.82968" lon="6.11176">
        <ele>1319</ele>
        <time>2019-09-18T12:47:37Z</time>
      </trkpt>
      <trkpt lat="45.82951" lon="6.11143">
        <ele>1321</ele>
        <time>2019-09-18T12:47:52Z</time>
      </trkpt>
      <trkpt lat="45.82939" lon="6.11105">
        <ele>1323</ele>
        <time>2019-09-18T12:48:06Z</time>
      </trkpt>
      <trkpt lat="45.8293" lon="6.111">
        <ele>1324</ele>
        <time>2019-09-18T12:48:11Z</time>
      </trkpt>
      <trkpt lat="45.8292" lon="6.11102">
        <ele>1325</ele>
        <time>2019-09-18T12:48:16Z</time>
      </trkpt>
      <trkpt lat="45.82899" lon="6.11109">
        <ele>1328</ele>
        <time>2019-09-18T12:48:27Z</time>
      </trkpt>
      <trkpt lat="45.82891" lon="6.11115">
        <ele>1329</ele>
        <time>2019-09-18T12:48:31Z</time>
      </trkpt>
      <trkpt lat="45.82884" lon="6.11127">
        <ele>1330</ele>
        <time>2019-09-18T12:48:37Z</time>
      </trkpt>
      <trkpt lat="45.82872" lon="6.11164">
        <ele>1331</ele>
        <time>2019-09-18T12:48:51Z</time>
      </trkpt>
      <trkpt lat="45.82866" lon="6.1117">
        <ele>1332</ele>
        <time>2019-09-18T12:48:55Z</time>
      </trkpt>
      <trkpt lat="45.82854" lon="6.11172">
        <ele>1334</ele>
        <time>2019-09-18T12:49:01Z</time>
      </trkpt>
      <trkpt lat="45.82843" lon="6.1117">
        <ele>1336</ele>
        <time>2019-09-18T12:49:06Z</time>
      </trkpt>
      <trkpt lat="45.82825" lon="6.11162">
        <ele>1338</ele>
        <time>2019-09-18T12:49:16Z</time>
      </trkpt>
      <trkpt lat="45.82819" lon="6.11149">
        <ele>1340</ele>
        <time>2019-09-18T12:49:21Z</time>
      </trkpt>
      <trkpt lat="45.82826" lon="6.11121">
        <ele>1339</ele>
        <time>2019-09-18T12:49:32Z</time>
      </trkpt>
      <trkpt lat="45.82826" lon="6.11106">
        <ele>1339</ele>
        <time>2019-09-18T12:49:37Z</time>
      </trkpt>
      <trkpt lat="45.82821" lon="6.11092">
        <ele>1340</ele>
        <time>2019-09-18T12:49:42Z</time>
      </trkpt>
      <trkpt lat="45.82794" lon="6.11048">
        <ele>1343</ele>
        <time>2019-09-18T12:50:03Z</time>
      </trkpt>
      <trkpt lat="45.82785" lon="6.11024">
        <ele>1344</ele>
        <time>2019-09-18T12:50:12Z</time>
      </trkpt>
      <trkpt lat="45.82775" lon="6.1102">
        <ele>1345</ele>
        <time>2019-09-18T12:50:17Z</time>
      </trkpt>
      <trkpt lat="45.82765" lon="6.11024">
        <ele>1346</ele>
        <time>2019-09-18T12:50:23Z</time>
      </trkpt>
      <trkpt lat="45.82756" lon="6.11031">
        <ele>1348</ele>
        <time>2019-09-18T12:50:28Z</time>
      </trkpt>
      <trkpt lat="45.82749" lon="6.11041">
        <ele>1349</ele>
        <time>2019-09-18T12:50:33Z</time>
      </trkpt>
      <trkpt lat="45.82731" lon="6.1111">
        <ele>1353</ele>
        <time>2019-09-18T12:50:58Z</time>
      </trkpt>
      <trkpt lat="45.82726" lon="6.11123">
        <ele>1354</ele>
        <time>2019-09-18T12:51:04Z</time>
      </trkpt>
      <trkpt lat="45.82718" lon="6.1113">
        <ele>1355</ele>
        <time>2019-09-18T12:51:08Z</time>
      </trkpt>
      <trkpt lat="45.82706" lon="6.11155">
        <ele>1356</ele>
        <time>2019-09-18T12:51:19Z</time>
      </trkpt>
      <trkpt lat="45.82697" lon="6.11166">
        <ele>1357</ele>
        <time>2019-09-18T12:51:25Z</time>
      </trkpt>
      <trkpt lat="45.82686" lon="6.11173">
        <ele>1358</ele>
        <time>2019-09-18T12:51:31Z</time>
      </trkpt>
      <trkpt lat="45.82676" lon="6.11178">
        <ele>1359</ele>
        <time>2019-09-18T12:51:36Z</time>
      </trkpt>
      <trkpt lat="45.82656" lon="6.11183">
        <ele>1361</ele>
        <time>2019-09-18T12:51:46Z</time>
      </trkpt>
      <trkpt lat="45.82633" lon="6.11218">
        <ele>1362</ele>
        <time>2019-09-18T12:52:03Z</time>
      </trkpt>
      <trkpt lat="45.82617" lon="6.11235">
        <ele>1363</ele>
        <time>2019-09-18T12:52:13Z</time>
      </trkpt>
      <trkpt lat="45.82611" lon="6.11245">
        <ele>1363</ele>
        <time>2019-09-18T12:52:18Z</time>
      </trkpt>
      <trkpt lat="45.82601" lon="6.11303">
        <ele>1363</ele>
        <time>2019-09-18T12:52:38Z</time>
      </trkpt>
      <trkpt lat="45.82591" lon="6.11329">
        <ele>1363</ele>
        <time>2019-09-18T12:52:49Z</time>
      </trkpt>
      <trkpt lat="45.82583" lon="6.11338">
        <ele>1363</ele>
        <time>2019-09-18T12:52:54Z</time>
      </trkpt>
      <trkpt lat="45.82554" lon="6.11345">
        <ele>1366</ele>
        <time>2019-09-18T12:53:09Z</time>
      </trkpt>
      <trkpt lat="45.82536" lon="6.1136">
        <ele>1368</ele>
        <time>2019-09-18T12:53:19Z</time>
      </trkpt>
      <trkpt lat="45.82515" lon="6.1136">
        <ele>1370</ele>
        <time>2019-09-18T12:53:29Z</time>
      </trkpt>
      <trkpt lat="45.82495" lon="6.11367">
        <ele>1372</ele>
        <time>2019-09-18T12:53:40Z</time>
      </trkpt>
      <trkpt lat="45.82479" lon="6.11387">
        <ele>1373</ele>
        <time>2019-09-18T12:53:50Z</time>
      </trkpt>
      <trkpt lat="45.82475" lon="6.114">
        <ele>1373</ele>
        <time>2019-09-18T12:53:55Z</time>
      </trkpt>
      <trkpt lat="45.82467" lon="6.11407">
        <ele>1373</ele>
        <time>2019-09-18T12:54:00Z</time>
      </trkpt>
      <trkpt lat="45.82455" lon="6.1141">
        <ele>1374</ele>
        <time>2019-09-18T12:54:06Z</time>
      </trkpt>
      <trkpt lat="45.82438" lon="6.11408">
        <ele>1376</ele>
        <time>2019-09-18T12:54:15Z</time>
      </trkpt>
      <trkpt lat="45.82429" lon="6.11399">
        <ele>1378</ele>
        <time>2019-09-18T12:54:20Z</time>
      </trkpt>
      <trkpt lat="45.8242" lon="6.11394">
        <ele>1380</ele>
        <time>2019-09-18T12:54:25Z</time>
      </trkpt>
      <trkpt lat="45.82385" lon="6.11392">
        <ele>1378</ele>
        <time>2019-09-18T12:54:43Z</time>
      </trkpt>
      <trkpt lat="45.82373" lon="6.11379">
        <ele>1378</ele>
        <time>2019-09-18T12:54:50Z</time>
      </trkpt>
      <trkpt lat="45.82363" lon="6.11374">
        <ele>1378</ele>
        <time>2019-09-18T12:54:55Z</time>
      </trkpt>
      <trkpt lat="45.82344" lon="6.11373">
        <ele>1376</ele>
        <time>2019-09-18T12:55:05Z</time>
      </trkpt>
      <trkpt lat="45.82334" lon="6.1137">
        <ele>1376</ele>
        <time>2019-09-18T12:55:10Z</time>
      </trkpt>
      <trkpt lat="45.82328" lon="6.11364">
        <ele>1376</ele>
        <time>2019-09-18T12:55:14Z</time>
      </trkpt>
      <trkpt lat="45.82326" lon="6.11357">
        <ele>1376</ele>
        <time>2019-09-18T12:55:16Z</time>
      </trkpt>
      <trkpt lat="45.82331" lon="6.11327">
        <ele>1377</ele>
        <time>2019-09-18T12:55:27Z</time>
      </trkpt>
      <trkpt lat="45.82323" lon="6.11317">
        <ele>1377</ele>
        <time>2019-09-18T12:55:32Z</time>
      </trkpt>
      <trkpt lat="45.82314" lon="6.11312">
        <ele>1377</ele>
        <time>2019-09-18T12:55:37Z</time>
      </trkpt>
      <trkpt lat="45.82297" lon="6.11327">
        <ele>1377</ele>
        <time>2019-09-18T12:55:47Z</time>
      </trkpt>
      <trkpt lat="45.82293" lon="6.1134">
        <ele>1376</ele>
        <time>2019-09-18T12:55:52Z</time>
      </trkpt>
      <trkpt lat="45.82292" lon="6.11368">
        <ele>1375</ele>
        <time>2019-09-18T12:56:02Z</time>
      </trkpt>
      <trkpt lat="45.82295" lon="6.11383">
        <ele>1375</ele>
        <time>2019-09-18T12:56:07Z</time>
      </trkpt>
      <trkpt lat="45.82286" lon="6.11425">
        <ele>1374</ele>
        <time>2019-09-18T12:56:23Z</time>
      </trkpt>
      <trkpt lat="45.8228" lon="6.11435">
        <ele>1373</ele>
        <time>2019-09-18T12:56:27Z</time>
      </trkpt>
      <trkpt lat="45.82271" lon="6.1144">
        <ele>1373</ele>
        <time>2019-09-18T12:56:32Z</time>
      </trkpt>
      <trkpt lat="45.82262" lon="6.1144">
        <ele>1373</ele>
        <time>2019-09-18T12:56:37Z</time>
      </trkpt>
      <trkpt lat="45.82257" lon="6.11437">
        <ele>1373</ele>
        <time>2019-09-18T12:56:39Z</time>
      </trkpt>
      <trkpt lat="45.82249" lon="6.11425">
        <ele>1374</ele>
        <time>2019-09-18T12:56:45Z</time>
      </trkpt>
      <trkpt lat="45.82232" lon="6.11389">
        <ele>1373</ele>
        <time>2019-09-18T12:57:00Z</time>
      </trkpt>
      <trkpt lat="45.82226" lon="6.11372">
        <ele>1373</ele>
        <time>2019-09-18T12:57:07Z</time>
      </trkpt>
      <trkpt lat="45.82223" lon="6.11342">
        <ele>1373</ele>
        <time>2019-09-18T12:57:17Z</time>
      </trkpt>
      <trkpt lat="45.82213" lon="6.1135">
        <ele>1372</ele>
        <time>2019-09-18T12:57:23Z</time>
      </trkpt>
      <trkpt lat="45.82197" lon="6.11387">
        <ele>1370</ele>
        <time>2019-09-18T12:57:38Z</time>
      </trkpt>
      <trkpt lat="45.82193" lon="6.11448">
        <ele>1368</ele>
        <time>2019-09-18T12:58:00Z</time>
      </trkpt>
      <trkpt lat="45.82176" lon="6.11504">
        <ele>1365</ele>
        <time>2019-09-18T12:58:21Z</time>
      </trkpt>
      <trkpt lat="45.82175" lon="6.11533">
        <ele>1363</ele>
        <time>2019-09-18T12:58:31Z</time>
      </trkpt>
      <trkpt lat="45.82185" lon="6.1156">
        <ele>1363</ele>
        <time>2019-09-18T12:58:42Z</time>
      </trkpt>
      <trkpt lat="45.82186" lon="6.11589">
        <ele>1363</ele>
        <time>2019-09-18T12:58:52Z</time>
      </trkpt>
      <trkpt lat="45.82173" lon="6.11597">
        <ele>1362</ele>
        <time>2019-09-18T12:58:59Z</time>
      </trkpt>
      <trkpt lat="45.82164" lon="6.11592">
        <ele>1362</ele>
        <time>2019-09-18T12:59:04Z</time>
      </trkpt>
      <trkpt lat="45.82149" lon="6.11568">
        <ele>1362</ele>
        <time>2019-09-18T12:59:15Z</time>
      </trkpt>
      <trkpt lat="45.82139" lon="6.11558">
        <ele>1363</ele>
        <time>2019-09-18T12:59:21Z</time>
      </trkpt>
      <trkpt lat="45.82119" lon="6.1155">
        <ele>1363</ele>
        <time>2019-09-18T12:59:32Z</time>
      </trkpt>
      <trkpt lat="45.82093" lon="6.11521">
        <ele>1363</ele>
        <time>2019-09-18T12:59:48Z</time>
      </trkpt>
      <trkpt lat="45.82083" lon="6.11513">
        <ele>1363</ele>
        <time>2019-09-18T12:59:54Z</time>
      </trkpt>
      <trkpt lat="45.82053" lon="6.11497">
        <ele>1364</ele>
        <time>2019-09-18T13:00:10Z</time>
      </trkpt>
      <trkpt lat="45.82046" lon="6.11486">
        <ele>1364</ele>
        <time>2019-09-18T13:00:15Z</time>
      </trkpt>
      <trkpt lat="45.82029" lon="6.11428">
        <ele>1364</ele>
        <time>2019-09-18T13:00:37Z</time>
      </trkpt>
      <trkpt lat="45.82017" lon="6.11402">
        <ele>1365</ele>
        <time>2019-09-18T13:00:48Z</time>
      </trkpt>
      <trkpt lat="45.8201" lon="6.11394">
        <ele>1365</ele>
        <time>2019-09-18T13:00:52Z</time>
      </trkpt>
      <trkpt lat="45.81999" lon="6.11395">
        <ele>1366</ele>
        <time>2019-09-18T13:00:58Z</time>
      </trkpt>
      <trkpt lat="45.81997" lon="6.11408">
        <ele>1366</ele>
        <time>2019-09-18T13:01:02Z</time>
      </trkpt>
      <trkpt lat="45.81984" lon="6.11429">
        <ele>1368</ele>
        <time>2019-09-18T13:01:12Z</time>
      </trkpt>
      <trkpt lat="45.81978" lon="6.11456">
        <ele>1369</ele>
        <time>2019-09-18T13:01:22Z</time>
      </trkpt>
      <trkpt lat="45.81978" lon="6.11486">
        <ele>1369</ele>
        <time>2019-09-18T13:01:33Z</time>
      </trkpt>
      <trkpt lat="45.8197" lon="6.11496">
        <ele>1370</ele>
        <time>2019-09-18T13:01:38Z</time>
      </trkpt>
      <trkpt lat="45.8195" lon="6.11505">
        <ele>1372</ele>
        <time>2019-09-18T13:01:48Z</time>
      </trkpt>
      <trkpt lat="45.81936" lon="6.11495">
        <ele>1375</ele>
        <time>2019-09-18T13:01:56Z</time>
      </trkpt>
      <trkpt lat="45.81927" lon="6.11483">
        <ele>1376</ele>
        <time>2019-09-18T13:02:02Z</time>
      </trkpt>
      <trkpt lat="45.81918" lon="6.11476">
        <ele>1378</ele>
        <time>2019-09-18T13:02:08Z</time>
      </trkpt>
      <trkpt lat="45.81898" lon="6.11465">
        <ele>1380</ele>
        <time>2019-09-18T13:02:18Z</time>
      </trkpt>
      <trkpt lat="45.81872" lon="6.1144">
        <ele>1383</ele>
        <time>2019-09-18T13:02:34Z</time>
      </trkpt>
      <trkpt lat="45.81858" lon="6.11423">
        <ele>1385</ele>
        <time>2019-09-18T13:02:43Z</time>
      </trkpt>
      <trkpt lat="45.81843" lon="6.11421">
        <ele>1387</ele>
        <time>2019-09-18T13:02:51Z</time>
      </trkpt>
      <trkpt lat="45.81835" lon="6.11414">
        <ele>1388</ele>
        <time>2019-09-18T13:02:55Z</time>
      </trkpt>
      <trkpt lat="45.81831" lon="6.11385">
        <ele>1390</ele>
        <time>2019-09-18T13:03:06Z</time>
      </trkpt>
      <trkpt lat="45.81834" lon="6.11377">
        <ele>1390</ele>
        <time>2019-09-18T13:03:09Z</time>
      </trkpt>
      <trkpt lat="45.81837" lon="6.1135">
        <ele>1392</ele>
        <time>2019-09-18T13:03:18Z</time>
      </trkpt>
      <trkpt lat="45.81831" lon="6.11324">
        <ele>1394</ele>
        <time>2019-09-18T13:03:28Z</time>
      </trkpt>
      <trkpt lat="45.81812" lon="6.11317">
        <ele>1398</ele>
        <time>2019-09-18T13:03:38Z</time>
      </trkpt>
      <trkpt lat="45.81799" lon="6.1132">
        <ele>1400</ele>
        <time>2019-09-18T13:03:44Z</time>
      </trkpt>
      <trkpt lat="45.81786" lon="6.11331">
        <ele>1401</ele>
        <time>2019-09-18T13:03:52Z</time>
      </trkpt>
      <trkpt lat="45.81783" lon="6.11331">
        <ele>1402</ele>
        <time>2019-09-18T13:03:53Z</time>
      </trkpt>
      <trkpt lat="45.81761" lon="6.11313">
        <ele>1407</ele>
        <time>2019-09-18T13:04:06Z</time>
      </trkpt>
      <trkpt lat="45.81754" lon="6.11302">
        <ele>1409</ele>
        <time>2019-09-18T13:04:11Z</time>
      </trkpt>
      <trkpt lat="45.81738" lon="6.11286">
        <ele>1412</ele>
        <time>2019-09-18T13:04:21Z</time>
      </trkpt>
      <trkpt lat="45.81701" lon="6.11263">
        <ele>1419</ele>
        <time>2019-09-18T13:04:41Z</time>
      </trkpt>
      <trkpt lat="45.81692" lon="6.1126">
        <ele>1420</ele>
        <time>2019-09-18T13:04:46Z</time>
      </trkpt>
      <trkpt lat="45.81681" lon="6.1126">
        <ele>1421</ele>
        <time>2019-09-18T13:04:51Z</time>
      </trkpt>
      <trkpt lat="45.81657" lon="6.11271">
        <ele>1425</ele>
        <time>2019-09-18T13:05:04Z</time>
      </trkpt>
      <trkpt lat="45.81642" lon="6.11269">
        <ele>1427</ele>
        <time>2019-09-18T13:05:11Z</time>
      </trkpt>
      <trkpt lat="45.81618" lon="6.11242">
        <ele>1432</ele>
        <time>2019-09-18T13:05:27Z</time>
      </trkpt>
      <trkpt lat="45.81606" lon="6.11217">
        <ele>1435</ele>
        <time>2019-09-18T13:05:37Z</time>
      </trkpt>
      <trkpt lat="45.81596" lon="6.11205">
        <ele>1437</ele>
        <time>2019-09-18T13:05:44Z</time>
      </trkpt>
      <trkpt lat="45.81589" lon="6.11185">
        <ele>1439</ele>
        <time>2019-09-18T13:05:52Z</time>
      </trkpt>
      <trkpt lat="45.81561" lon="6.11164">
        <ele>1444</ele>
        <time>2019-09-18T13:06:07Z</time>
      </trkpt>
      <trkpt lat="45.8155" lon="6.11167">
        <ele>1445</ele>
        <time>2019-09-18T13:06:13Z</time>
      </trkpt>
      <trkpt lat="45.81541" lon="6.11166">
        <ele>1447</ele>
        <time>2019-09-18T13:06:18Z</time>
      </trkpt>
      <trkpt lat="45.81534" lon="6.11156">
        <ele>1448</ele>
        <time>2019-09-18T13:06:22Z</time>
      </trkpt>
      <trkpt lat="45.81529" lon="6.11114">
        <ele>1450</ele>
        <time>2019-09-18T13:06:37Z</time>
      </trkpt>
      <trkpt lat="45.81522" lon="6.11087">
        <ele>1452</ele>
        <time>2019-09-18T13:06:47Z</time>
      </trkpt>
      <trkpt lat="45.81522" lon="6.11073">
        <ele>1453</ele>
        <time>2019-09-18T13:06:52Z</time>
      </trkpt>
      <trkpt lat="45.81519" lon="6.1106">
        <ele>1454</ele>
        <time>2019-09-18T13:06:57Z</time>
      </trkpt>
      <trkpt lat="45.81512" lon="6.11049">
        <ele>1455</ele>
        <time>2019-09-18T13:07:02Z</time>
      </trkpt>
      <trkpt lat="45.81493" lon="6.11037">
        <ele>1458</ele>
        <time>2019-09-18T13:07:13Z</time>
      </trkpt>
      <trkpt lat="45.81483" lon="6.11041">
        <ele>1459</ele>
        <time>2019-09-18T13:07:18Z</time>
      </trkpt>
      <trkpt lat="45.81474" lon="6.11039">
        <ele>1460</ele>
        <time>2019-09-18T13:07:22Z</time>
      </trkpt>
      <trkpt lat="45.81466" lon="6.11031">
        <ele>1462</ele>
        <time>2019-09-18T13:07:27Z</time>
      </trkpt>
      <trkpt lat="45.81465" lon="6.11014">
        <ele>1463</ele>
        <time>2019-09-18T13:07:33Z</time>
      </trkpt>
      <trkpt lat="45.8146" lon="6.11007">
        <ele>1464</ele>
        <time>2019-09-18T13:07:37Z</time>
      </trkpt>
      <trkpt lat="45.81434" lon="6.11033">
        <ele>1466</ele>
        <time>2019-09-18T13:07:53Z</time>
      </trkpt>
      <trkpt lat="45.81418" lon="6.11045">
        <ele>1468</ele>
        <time>2019-09-18T13:08:02Z</time>
      </trkpt>
      <trkpt lat="45.81409" lon="6.11047">
        <ele>1469</ele>
        <time>2019-09-18T13:08:06Z</time>
      </trkpt>
      <trkpt lat="45.81404" lon="6.11051">
        <ele>1470</ele>
        <time>2019-09-18T13:08:09Z</time>
      </trkpt>
      <trkpt lat="45.81401" lon="6.11055">
        <ele>1471</ele>
        <time>2019-09-18T13:08:11Z</time>
      </trkpt>
      <trkpt lat="45.8139" lon="6.11091">
        <ele>1471</ele>
        <time>2019-09-18T13:08:25Z</time>
      </trkpt>
      <trkpt lat="45.81379" lon="6.11106">
        <ele>1474</ele>
        <time>2019-09-18T13:08:32Z</time>
      </trkpt>
      <trkpt lat="45.81347" lon="6.11126">
        <ele>1481</ele>
        <time>2019-09-18T13:08:50Z</time>
      </trkpt>
      <trkpt lat="45.81338" lon="6.11134">
        <ele>1484</ele>
        <time>2019-09-18T13:08:55Z</time>
      </trkpt>
      <trkpt lat="45.81327" lon="6.11138">
        <ele>1486</ele>
        <time>2019-09-18T13:09:01Z</time>
      </trkpt>
      <trkpt lat="45.81308" lon="6.11138">
        <ele>1490</ele>
        <time>2019-09-18T13:09:10Z</time>
      </trkpt>
      <trkpt lat="45.81303" lon="6.1114">
        <ele>1491</ele>
        <time>2019-09-18T13:09:13Z</time>
      </trkpt>
      <trkpt lat="45.81295" lon="6.11146">
        <ele>1492</ele>
        <time>2019-09-18T13:09:17Z</time>
      </trkpt>
      <trkpt lat="45.81294" lon="6.11152">
        <ele>1492</ele>
        <time>2019-09-18T13:09:20Z</time>
      </trkpt>
      <trkpt lat="45.81283" lon="6.11169">
        <ele>1494</ele>
        <time>2019-09-18T13:09:28Z</time>
      </trkpt>
      <trkpt lat="45.81259" lon="6.11183">
        <ele>1498</ele>
        <time>2019-09-18T13:09:41Z</time>
      </trkpt>
      <trkpt lat="45.81238" lon="6.1119">
        <ele>1501</ele>
        <time>2019-09-18T13:09:51Z</time>
      </trkpt>
      <trkpt lat="45.81221" lon="6.11203">
        <ele>1503</ele>
        <time>2019-09-18T13:10:01Z</time>
      </trkpt>
      <trkpt lat="45.8121" lon="6.11207">
        <ele>1504</ele>
        <time>2019-09-18T13:10:07Z</time>
      </trkpt>
      <trkpt lat="45.81204" lon="6.11206">
        <ele>1505</ele>
        <time>2019-09-18T13:10:10Z</time>
      </trkpt>
      <trkpt lat="45.81194" lon="6.11213">
        <ele>1506</ele>
        <time>2019-09-18T13:10:15Z</time>
      </trkpt>
      <trkpt lat="45.81172" lon="6.11217">
        <ele>1509</ele>
        <time>2019-09-18T13:10:26Z</time>
      </trkpt>
      <trkpt lat="45.81152" lon="6.11214">
        <ele>1511</ele>
        <time>2019-09-18T13:10:37Z</time>
      </trkpt>
      <trkpt lat="45.81146" lon="6.1121">
        <ele>1511</ele>
        <time>2019-09-18T13:10:40Z</time>
      </trkpt>
      <trkpt lat="45.81118" lon="6.1118">
        <ele>1515</ele>
        <time>2019-09-18T13:10:57Z</time>
      </trkpt>
      <trkpt lat="45.81104" lon="6.11144">
        <ele>1517</ele>
        <time>2019-09-18T13:11:12Z</time>
      </trkpt>
      <trkpt lat="45.81088" lon="6.111">
        <ele>1520</ele>
        <time>2019-09-18T13:11:29Z</time>
      </trkpt>
      <trkpt lat="45.81087" lon="6.1107">
        <ele>1521</ele>
        <time>2019-09-18T13:11:39Z</time>
      </trkpt>
      <trkpt lat="45.81081" lon="6.11038">
        <ele>1522</ele>
        <time>2019-09-18T13:11:51Z</time>
      </trkpt>
      <trkpt lat="45.81064" lon="6.10994">
        <ele>1525</ele>
        <time>2019-09-18T13:12:09Z</time>
      </trkpt>
      <trkpt lat="45.81041" lon="6.1097">
        <ele>1527</ele>
        <time>2019-09-18T13:12:23Z</time>
      </trkpt>
      <trkpt lat="45.81034" lon="6.10958">
        <ele>1528</ele>
        <time>2019-09-18T13:12:28Z</time>
      </trkpt>
      <trkpt lat="45.81018" lon="6.10917">
        <ele>1528</ele>
        <time>2019-09-18T13:12:45Z</time>
      </trkpt>
      <trkpt lat="45.80995" lon="6.10879">
        <ele>1528</ele>
        <time>2019-09-18T13:13:02Z</time>
      </trkpt>
      <trkpt lat="45.80974" lon="6.10853">
        <ele>1531</ele>
        <time>2019-09-18T13:13:16Z</time>
      </trkpt>
      <trkpt lat="45.80964" lon="6.10849">
        <ele>1532</ele>
        <time>2019-09-18T13:13:21Z</time>
      </trkpt>
      <trkpt lat="45.80955" lon="6.10842">
        <ele>1533</ele>
        <time>2019-09-18T13:13:26Z</time>
      </trkpt>
      <trkpt lat="45.80926" lon="6.10804">
        <ele>1535</ele>
        <time>2019-09-18T13:13:46Z</time>
      </trkpt>
      <trkpt lat="45.80903" lon="6.10767">
        <ele>1537</ele>
        <time>2019-09-18T13:14:03Z</time>
      </trkpt>
      <trkpt lat="45.80911" lon="6.10729">
        <ele>1534</ele>
        <time>2019-09-18T13:14:17Z</time>
      </trkpt>
      <trkpt lat="45.80924" lon="6.10692">
        <ele>1531</ele>
        <time>2019-09-18T13:14:32Z</time>
      </trkpt>
      <trkpt lat="45.80919" lon="6.10678">
        <ele>1531</ele>
        <time>2019-09-18T13:14:37Z</time>
      </trkpt>
      <trkpt lat="45.809" lon="6.10644">
        <ele>1532</ele>
        <time>2019-09-18T13:14:52Z</time>
      </trkpt>
      <trkpt lat="45.8088" lon="6.10584">
        <ele>1530</ele>
        <time>2019-09-18T13:15:16Z</time>
      </trkpt>
      <trkpt lat="45.80875" lon="6.10538">
        <ele>1526</ele>
        <time>2019-09-18T13:15:32Z</time>
      </trkpt>
      <trkpt lat="45.80862" lon="6.10476">
        <ele>1521</ele>
        <time>2019-09-18T13:15:54Z</time>
      </trkpt>
      <trkpt lat="45.80859" lon="6.10428">
        <ele>1517</ele>
        <time>2019-09-18T13:16:11Z</time>
      </trkpt>
      <trkpt lat="45.80856" lon="6.10413">
        <ele>1516</ele>
        <time>2019-09-18T13:16:17Z</time>
      </trkpt>
      <trkpt lat="45.80861" lon="6.1036">
        <ele>1511</ele>
        <time>2019-09-18T13:16:35Z</time>
      </trkpt>
      <trkpt lat="45.80871" lon="6.10337">
        <ele>1509</ele>
        <time>2019-09-18T13:16:45Z</time>
      </trkpt>
      <trkpt lat="45.8087" lon="6.10323">
        <ele>1507</ele>
        <time>2019-09-18T13:16:50Z</time>
      </trkpt>
      <trkpt lat="45.80867" lon="6.10311">
        <ele>1506</ele>
        <time>2019-09-18T13:16:54Z</time>
      </trkpt>
      <trkpt lat="45.80851" lon="6.10285">
        <ele>1504</ele>
        <time>2019-09-18T13:17:06Z</time>
      </trkpt>
      <trkpt lat="45.80842" lon="6.10278">
        <ele>1503</ele>
        <time>2019-09-18T13:17:11Z</time>
      </trkpt>
      <trkpt lat="45.80821" lon="6.10283">
        <ele>1504</ele>
        <time>2019-09-18T13:17:22Z</time>
      </trkpt>
      <trkpt lat="45.80799" lon="6.10283">
        <ele>1505</ele>
        <time>2019-09-18T13:17:33Z</time>
      </trkpt>
      <trkpt lat="45.8079" lon="6.10287">
        <ele>1505</ele>
        <time>2019-09-18T13:17:38Z</time>
      </trkpt>
      <trkpt lat="45.8078" lon="6.10294">
        <ele>1506</ele>
        <time>2019-09-18T13:17:43Z</time>
      </trkpt>
      <trkpt lat="45.80771" lon="6.1031">
        <ele>1509</ele>
        <time>2019-09-18T13:17:50Z</time>
      </trkpt>
      <trkpt lat="45.8076" lon="6.10318">
        <ele>1510</ele>
        <time>2019-09-18T13:17:57Z</time>
      </trkpt>
      <trkpt lat="45.8075" lon="6.10319">
        <ele>1511</ele>
        <time>2019-09-18T13:18:02Z</time>
      </trkpt>
      <trkpt lat="45.80735" lon="6.10336">
        <ele>1513</ele>
        <time>2019-09-18T13:18:11Z</time>
      </trkpt>
      <trkpt lat="45.80697" lon="6.10357">
        <ele>1516</ele>
        <time>2019-09-18T13:18:32Z</time>
      </trkpt>
      <trkpt lat="45.8068" lon="6.10369">
        <ele>1519</ele>
        <time>2019-09-18T13:18:41Z</time>
      </trkpt>
      <trkpt lat="45.80656" lon="6.10392">
        <ele>1524</ele>
        <time>2019-09-18T13:18:56Z</time>
      </trkpt>
      <trkpt lat="45.80649" lon="6.10401">
        <ele>1526</ele>
        <time>2019-09-18T13:19:00Z</time>
      </trkpt>
      <trkpt lat="45.80648" lon="6.10442">
        <ele>1532</ele>
        <time>2019-09-18T13:19:15Z</time>
      </trkpt>
      <trkpt lat="45.80642" lon="6.10461">
        <ele>1535</ele>
        <time>2019-09-18T13:19:22Z</time>
      </trkpt>
      <trkpt lat="45.80643" lon="6.10472">
        <ele>1536</ele>
        <time>2019-09-18T13:19:26Z</time>
      </trkpt>
      <trkpt lat="45.80633" lon="6.10491">
        <ele>1541</ele>
        <time>2019-09-18T13:19:34Z</time>
      </trkpt>
      <trkpt lat="45.80622" lon="6.10501">
        <ele>1544</ele>
        <time>2019-09-18T13:19:40Z</time>
      </trkpt>
      <trkpt lat="45.80618" lon="6.10508">
        <ele>1546</ele>
        <time>2019-09-18T13:19:44Z</time>
      </trkpt>
      <trkpt lat="45.80616" lon="6.10523">
        <ele>1548</ele>
        <time>2019-09-18T13:19:49Z</time>
      </trkpt>
      <trkpt lat="45.80602" lon="6.10542">
        <ele>1553</ele>
        <time>2019-09-18T13:19:59Z</time>
      </trkpt>
      <trkpt lat="45.80598" lon="6.10572">
        <ele>1558</ele>
        <time>2019-09-18T13:20:09Z</time>
      </trkpt>
      <trkpt lat="45.80592" lon="6.10576">
        <ele>1559</ele>
        <time>2019-09-18T13:20:13Z</time>
      </trkpt>
      <trkpt lat="45.80585" lon="6.10594">
        <ele>1562</ele>
        <time>2019-09-18T13:20:20Z</time>
      </trkpt>
      <trkpt lat="45.80572" lon="6.1061">
        <ele>1565</ele>
        <time>2019-09-18T13:20:28Z</time>
      </trkpt>
      <trkpt lat="45.80563" lon="6.10616">
        <ele>1567</ele>
        <time>2019-09-18T13:20:33Z</time>
      </trkpt>
      <trkpt lat="45.80533" lon="6.10625">
        <ele>1574</ele>
        <time>2019-09-18T13:20:49Z</time>
      </trkpt>
      <trkpt lat="45.80515" lon="6.1061">
        <ele>1579</ele>
        <time>2019-09-18T13:20:59Z</time>
      </trkpt>
      <trkpt lat="45.80495" lon="6.1061">
        <ele>1584</ele>
        <time>2019-09-18T13:21:09Z</time>
      </trkpt>
      <trkpt lat="45.8048" lon="6.106">
        <ele>1588</ele>
        <time>2019-09-18T13:21:17Z</time>
      </trkpt>
      <trkpt lat="45.80473" lon="6.106">
        <ele>1589</ele>
        <time>2019-09-18T13:21:21Z</time>
      </trkpt>
      <trkpt lat="45.80468" lon="6.10597">
        <ele>1591</ele>
        <time>2019-09-18T13:21:24Z</time>
      </trkpt>
      <trkpt lat="45.80462" lon="6.10589">
        <ele>1592</ele>
        <time>2019-09-18T13:21:28Z</time>
      </trkpt>
      <trkpt lat="45.80446" lon="6.10589">
        <ele>1596</ele>
        <time>2019-09-18T13:21:36Z</time>
      </trkpt>
      <trkpt lat="45.80442" lon="6.10584">
        <ele>1598</ele>
        <time>2019-09-18T13:21:38Z</time>
      </trkpt>
      <trkpt lat="45.80432" lon="6.10585">
        <ele>1600</ele>
        <time>2019-09-18T13:21:43Z</time>
      </trkpt>
      <trkpt lat="45.80426" lon="6.10581">
        <ele>1601</ele>
        <time>2019-09-18T13:21:47Z</time>
      </trkpt>
      <trkpt lat="45.8042" lon="6.10572">
        <ele>1602</ele>
        <time>2019-09-18T13:21:51Z</time>
      </trkpt>
      <trkpt lat="45.80417" lon="6.10572">
        <ele>1603</ele>
        <time>2019-09-18T13:21:52Z</time>
      </trkpt>
      <trkpt lat="45.80408" lon="6.10556">
        <ele>1601</ele>
        <time>2019-09-18T13:22:00Z</time>
      </trkpt>
      <trkpt lat="45.80399" lon="6.10558">
        <ele>1602</ele>
        <time>2019-09-18T13:22:04Z</time>
      </trkpt>
      <trkpt lat="45.8039" lon="6.10564">
        <ele>1604</ele>
        <time>2019-09-18T13:22:09Z</time>
      </trkpt>
      <trkpt lat="45.80369" lon="6.10563">
        <ele>1606</ele>
        <time>2019-09-18T13:22:20Z</time>
      </trkpt>
      <trkpt lat="45.80352" lon="6.10554">
        <ele>1606</ele>
        <time>2019-09-18T13:22:29Z</time>
      </trkpt>
      <trkpt lat="45.80345" lon="6.10556">
        <ele>1607</ele>
        <time>2019-09-18T13:22:32Z</time>
      </trkpt>
      <trkpt lat="45.80339" lon="6.10554">
        <ele>1607</ele>
        <time>2019-09-18T13:22:35Z</time>
      </trkpt>
      <trkpt lat="45.80322" lon="6.10537">
        <ele>1605</ele>
        <time>2019-09-18T13:22:46Z</time>
      </trkpt>
      <trkpt lat="45.80303" lon="6.10526">
        <ele>1604</ele>
        <time>2019-09-18T13:22:56Z</time>
      </trkpt>
      <trkpt lat="45.80294" lon="6.10525">
        <ele>1603</ele>
        <time>2019-09-18T13:23:01Z</time>
      </trkpt>
      <trkpt lat="45.80283" lon="6.10528">
        <ele>1604</ele>
        <time>2019-09-18T13:23:06Z</time>
      </trkpt>
      <trkpt lat="45.80279" lon="6.1054">
        <ele>1604</ele>
        <time>2019-09-18T13:23:11Z</time>
      </trkpt>
      <trkpt lat="45.80275" lon="6.10583">
        <ele>1607</ele>
        <time>2019-09-18T13:23:26Z</time>
      </trkpt>
      <trkpt lat="45.80283" lon="6.1063">
        <ele>1608</ele>
        <time>2019-09-18T13:23:43Z</time>
      </trkpt>
      <trkpt lat="45.80278" lon="6.10647">
        <ele>1608</ele>
        <time>2019-09-18T13:23:49Z</time>
      </trkpt>
      <trkpt lat="45.8027" lon="6.10659">
        <ele>1608</ele>
        <time>2019-09-18T13:23:55Z</time>
      </trkpt>
      <trkpt lat="45.80254" lon="6.10675">
        <ele>1608</ele>
        <time>2019-09-18T13:24:05Z</time>
      </trkpt>
      <trkpt lat="45.80252" lon="6.10711">
        <ele>1608</ele>
        <time>2019-09-18T13:24:17Z</time>
      </trkpt>
      <trkpt lat="45.80246" lon="6.10743">
        <ele>1608</ele>
        <time>2019-09-18T13:24:29Z</time>
      </trkpt>
      <trkpt lat="45.80231" lon="6.10765">
        <ele>1607</ele>
        <time>2019-09-18T13:24:40Z</time>
      </trkpt>
      <trkpt lat="45.80215" lon="6.10779">
        <ele>1607</ele>
        <time>2019-09-18T13:24:49Z</time>
      </trkpt>
      <trkpt lat="45.80207" lon="6.10799">
        <ele>1608</ele>
        <time>2019-09-18T13:24:57Z</time>
      </trkpt>
      <trkpt lat="45.80205" lon="6.10813">
        <ele>1608</ele>
        <time>2019-09-18T13:25:02Z</time>
      </trkpt>
      <trkpt lat="45.80211" lon="6.10853">
        <ele>1610</ele>
        <time>2019-09-18T13:25:16Z</time>
      </trkpt>
      <trkpt lat="45.80209" lon="6.10878">
        <ele>1613</ele>
        <time>2019-09-18T13:25:25Z</time>
      </trkpt>
      <trkpt lat="45.80205" lon="6.10889">
        <ele>1616</ele>
        <time>2019-09-18T13:25:30Z</time>
      </trkpt>
      <trkpt lat="45.80197" lon="6.10897">
        <ele>1619</ele>
        <time>2019-09-18T13:25:34Z</time>
      </trkpt>
      <trkpt lat="45.80187" lon="6.10894">
        <ele>1621</ele>
        <time>2019-09-18T13:25:39Z</time>
      </trkpt>
      <trkpt lat="45.80174" lon="6.10886">
        <ele>1623</ele>
        <time>2019-09-18T13:25:47Z</time>
      </trkpt>
      <trkpt lat="45.80165" lon="6.10877">
        <ele>1623</ele>
        <time>2019-09-18T13:25:52Z</time>
      </trkpt>
      <trkpt lat="45.80146" lon="6.10867">
        <ele>1626</ele>
        <time>2019-09-18T13:26:02Z</time>
      </trkpt>
      <trkpt lat="45.80129" lon="6.1085">
        <ele>1627</ele>
        <time>2019-09-18T13:26:13Z</time>
      </trkpt>
      <trkpt lat="45.8012" lon="6.10845">
        <ele>1629</ele>
        <time>2019-09-18T13:26:17Z</time>
      </trkpt>
      <trkpt lat="45.80101" lon="6.10839">
        <ele>1634</ele>
        <time>2019-09-18T13:26:27Z</time>
      </trkpt>
      <trkpt lat="45.80091" lon="6.10843">
        <ele>1637</ele>
        <time>2019-09-18T13:26:32Z</time>
      </trkpt>
      <trkpt lat="45.80082" lon="6.10843">
        <ele>1639</ele>
        <time>2019-09-18T13:26:37Z</time>
      </trkpt>
      <trkpt lat="45.80074" lon="6.10838">
        <ele>1640</ele>
        <time>2019-09-18T13:26:41Z</time>
      </trkpt>
      <trkpt lat="45.80054" lon="6.10834">
        <ele>1644</ele>
        <time>2019-09-18T13:26:51Z</time>
      </trkpt>
      <trkpt lat="45.80027" lon="6.10811">
        <ele>1643</ele>
        <time>2019-09-18T13:27:07Z</time>
      </trkpt>
      <trkpt lat="45.80003" lon="6.10801">
        <ele>1647</ele>
        <time>2019-09-18T13:27:20Z</time>
      </trkpt>
      <trkpt lat="45.79992" lon="6.10789">
        <ele>1646</ele>
        <time>2019-09-18T13:27:26Z</time>
      </trkpt>
      <trkpt lat="45.79951" lon="6.10757">
        <ele>1649</ele>
        <time>2019-09-18T13:27:50Z</time>
      </trkpt>
      <trkpt lat="45.79932" lon="6.10745">
        <ele>1651</ele>
        <time>2019-09-18T13:28:00Z</time>
      </trkpt>
      <trkpt lat="45.79919" lon="6.10742">
        <ele>1654</ele>
        <time>2019-09-18T13:28:07Z</time>
      </trkpt>
      <trkpt lat="45.79903" lon="6.10724">
        <ele>1654</ele>
        <time>2019-09-18T13:28:17Z</time>
      </trkpt>
      <trkpt lat="45.79879" lon="6.10705">
        <ele>1656</ele>
        <time>2019-09-18T13:28:31Z</time>
      </trkpt>
      <trkpt lat="45.79868" lon="6.10693">
        <ele>1657</ele>
        <time>2019-09-18T13:28:38Z</time>
      </trkpt>
      <trkpt lat="45.79837" lon="6.10673">
        <ele>1665</ele>
        <time>2019-09-18T13:28:55Z</time>
      </trkpt>
      <trkpt lat="45.7983" lon="6.10661">
        <ele>1666</ele>
        <time>2019-09-18T13:29:00Z</time>
      </trkpt>
      <trkpt lat="45.79813" lon="6.10644">
        <ele>1666</ele>
        <time>2019-09-18T13:29:10Z</time>
      </trkpt>
      <trkpt lat="45.79795" lon="6.10619">
        <ele>1668</ele>
        <time>2019-09-18T13:29:23Z</time>
      </trkpt>
      <trkpt lat="45.79784" lon="6.106">
        <ele>1670</ele>
        <time>2019-09-18T13:29:32Z</time>
      </trkpt>
      <trkpt lat="45.79769" lon="6.10564">
        <ele>1673</ele>
        <time>2019-09-18T13:29:46Z</time>
      </trkpt>
      <trkpt lat="45.79759" lon="6.10552">
        <ele>1676</ele>
        <time>2019-09-18T13:29:53Z</time>
      </trkpt>
      <trkpt lat="45.79738" lon="6.10515">
        <ele>1679</ele>
        <time>2019-09-18T13:30:09Z</time>
      </trkpt>
      <trkpt lat="45.79722" lon="6.10481">
        <ele>1679</ele>
        <time>2019-09-18T13:30:24Z</time>
      </trkpt>
      <trkpt lat="45.79715" lon="6.10475">
        <ele>1679</ele>
        <time>2019-09-18T13:30:28Z</time>
      </trkpt>
      <trkpt lat="45.79708" lon="6.10464">
        <ele>1679</ele>
        <time>2019-09-18T13:30:33Z</time>
      </trkpt>
      <trkpt lat="45.7968" lon="6.1044">
        <ele>1683</ele>
        <time>2019-09-18T13:30:49Z</time>
      </trkpt>
      <trkpt lat="45.79667" lon="6.10419">
        <ele>1686</ele>
        <time>2019-09-18T13:30:59Z</time>
      </trkpt>
      <trkpt lat="45.79664" lon="6.10399">
        <ele>1683</ele>
        <time>2019-09-18T13:31:06Z</time>
      </trkpt>
      <trkpt lat="45.79669" lon="6.10329">
        <ele>1673</ele>
        <time>2019-09-18T13:31:31Z</time>
      </trkpt>
      <trkpt lat="45.7966" lon="6.10319">
        <ele>1671</ele>
        <time>2019-09-18T13:31:36Z</time>
      </trkpt>
      <trkpt lat="45.79567" lon="6.10246">
        <ele>1663</ele>
        <time>2019-09-18T13:32:30Z</time>
      </trkpt>
      <trkpt lat="45.79529" lon="6.10232">
        <ele>1659</ele>
        <time>2019-09-18T13:32:49Z</time>
      </trkpt>
      <trkpt lat="45.79484" lon="6.10226">
        <ele>1654</ele>
        <time>2019-09-18T13:33:12Z</time>
      </trkpt>
      <trkpt lat="45.79372" lon="6.10186">
        <ele>1645</ele>
        <time>2019-09-18T13:34:10Z</time>
      </trkpt>
      <trkpt lat="45.79367" lon="6.10187">
        <ele>1644</ele>
        <time>2019-09-18T13:34:12Z</time>
      </trkpt>
      <trkpt lat="45.79363" lon="6.102">
        <ele>1643</ele>
        <time>2019-09-18T13:34:17Z</time>
      </trkpt>
      <trkpt lat="45.79355" lon="6.10205">
        <ele>1643</ele>
        <time>2019-09-18T13:34:21Z</time>
      </trkpt>
      <trkpt lat="45.79343" lon="6.10201">
        <ele>1642</ele>
        <time>2019-09-18T13:34:28Z</time>
      </trkpt>
      <trkpt lat="45.79318" lon="6.10185">
        <ele>1642</ele>
        <time>2019-09-18T13:34:41Z</time>
      </trkpt>
      <trkpt lat="45.7931" lon="6.1019">
        <ele>1641</ele>
        <time>2019-09-18T13:34:46Z</time>
      </trkpt>
      <trkpt lat="45.79307" lon="6.1019">
        <ele>1641</ele>
        <time>2019-09-18T13:34:47Z</time>
      </trkpt>
      <trkpt lat="45.79307" lon="6.10187">
        <ele>1641</ele>
        <time>2019-09-18T13:34:48Z</time>
      </trkpt>
      <trkpt lat="45.79308" lon="6.10193">
        <ele>1641</ele>
        <time>2019-09-18T13:34:50Z</time>
      </trkpt>
      <trkpt lat="45.79305" lon="6.10201">
        <ele>1640</ele>
        <time>2019-09-18T13:34:53Z</time>
      </trkpt>
      <trkpt lat="45.79302" lon="6.102">
        <ele>1640</ele>
        <time>2019-09-18T13:34:55Z</time>
      </trkpt>
      <trkpt lat="45.79292" lon="6.1019">
        <ele>1640</ele>
        <time>2019-09-18T13:35:01Z</time>
      </trkpt>
      <trkpt lat="45.79285" lon="6.10187">
        <ele>1640</ele>
        <time>2019-09-18T13:35:05Z</time>
      </trkpt>
      <trkpt lat="45.79271" lon="6.10175">
        <ele>1640</ele>
        <time>2019-09-18T13:35:13Z</time>
      </trkpt>
      <trkpt lat="45.79226" lon="6.10121">
        <ele>1636</ele>
        <time>2019-09-18T13:35:42Z</time>
      </trkpt>
      <trkpt lat="45.79222" lon="6.1013">
        <ele>1636</ele>
        <time>2019-09-18T13:35:46Z</time>
      </trkpt>
      <trkpt lat="45.79222" lon="6.10138">
        <ele>1636</ele>
        <time>2019-09-18T13:35:49Z</time>
      </trkpt>
      <trkpt lat="45.79236" lon="6.10162">
        <ele>1637</ele>
        <time>2019-09-18T13:36:00Z</time>
      </trkpt>
      <trkpt lat="45.79244" lon="6.1019">
        <ele>1636</ele>
        <time>2019-09-18T13:36:10Z</time>
      </trkpt>
      <trkpt lat="45.7924" lon="6.10226">
        <ele>1633</ele>
        <time>2019-09-18T13:36:23Z</time>
      </trkpt>
      <trkpt lat="45.79247" lon="6.10242">
        <ele>1632</ele>
        <time>2019-09-18T13:36:30Z</time>
      </trkpt>
      <trkpt lat="45.79253" lon="6.10253">
        <ele>1632</ele>
        <time>2019-09-18T13:36:34Z</time>
      </trkpt>
      <trkpt lat="45.79277" lon="6.10279">
        <ele>1630</ele>
        <time>2019-09-18T13:36:50Z</time>
      </trkpt>
      <trkpt lat="45.79292" lon="6.10301">
        <ele>1628</ele>
        <time>2019-09-18T13:37:00Z</time>
      </trkpt>
      <trkpt lat="45.79313" lon="6.10314">
        <ele>1627</ele>
        <time>2019-09-18T13:37:12Z</time>
      </trkpt>
      <trkpt lat="45.79335" lon="6.10334">
        <ele>1626</ele>
        <time>2019-09-18T13:37:25Z</time>
      </trkpt>
      <trkpt lat="45.79351" lon="6.10357">
        <ele>1624</ele>
        <time>2019-09-18T13:37:36Z</time>
      </trkpt>
      <trkpt lat="45.79351" lon="6.10374">
        <ele>1621</ele>
        <time>2019-09-18T13:37:42Z</time>
      </trkpt>
      <trkpt lat="45.79343" lon="6.10399">
        <ele>1616</ele>
        <time>2019-09-18T13:37:52Z</time>
      </trkpt>
      <trkpt lat="45.79339" lon="6.10404">
        <ele>1615</ele>
        <time>2019-09-18T13:37:54Z</time>
      </trkpt>
      <trkpt lat="45.79337" lon="6.10416">
        <ele>1613</ele>
        <time>2019-09-18T13:37:59Z</time>
      </trkpt>
      <trkpt lat="45.79324" lon="6.10429">
        <ele>1609</ele>
        <time>2019-09-18T13:38:07Z</time>
      </trkpt>
      <trkpt lat="45.79268" lon="6.10457">
        <ele>1600</ele>
        <time>2019-09-18T13:38:36Z</time>
      </trkpt>
      <trkpt lat="45.79237" lon="6.10456">
        <ele>1598</ele>
        <time>2019-09-18T13:38:52Z</time>
      </trkpt>
      <trkpt lat="45.79225" lon="6.10462">
        <ele>1596</ele>
        <time>2019-09-18T13:38:58Z</time>
      </trkpt>
      <trkpt lat="45.79197" lon="6.10469">
        <ele>1593</ele>
        <time>2019-09-18T13:39:12Z</time>
      </trkpt>
      <trkpt lat="45.79174" lon="6.1048">
        <ele>1590</ele>
        <time>2019-09-18T13:39:24Z</time>
      </trkpt>
      <trkpt lat="45.79095" lon="6.10494">
        <ele>1582</ele>
        <time>2019-09-18T13:40:04Z</time>
      </trkpt>
      <trkpt lat="45.79068" lon="6.10502">
        <ele>1578</ele>
        <time>2019-09-18T13:40:18Z</time>
      </trkpt>
      <trkpt lat="45.79049" lon="6.10513">
        <ele>1577</ele>
        <time>2019-09-18T13:40:28Z</time>
      </trkpt>
      <trkpt lat="45.7895" lon="6.10583">
        <ele>1570</ele>
        <time>2019-09-18T13:41:24Z</time>
      </trkpt>
      <trkpt lat="45.78937" lon="6.106">
        <ele>1569</ele>
        <time>2019-09-18T13:41:32Z</time>
      </trkpt>
      <trkpt lat="45.7892" lon="6.10611">
        <ele>1567</ele>
        <time>2019-09-18T13:41:42Z</time>
      </trkpt>
      <trkpt lat="45.78902" lon="6.10611">
        <ele>1565</ele>
        <time>2019-09-18T13:41:51Z</time>
      </trkpt>
      <trkpt lat="45.78881" lon="6.10599">
        <ele>1562</ele>
        <time>2019-09-18T13:42:02Z</time>
      </trkpt>
      <trkpt lat="45.7887" lon="6.10596">
        <ele>1560</ele>
        <time>2019-09-18T13:42:08Z</time>
      </trkpt>
      <trkpt lat="45.78824" lon="6.10607">
        <ele>1555</ele>
        <time>2019-09-18T13:42:31Z</time>
      </trkpt>
      <trkpt lat="45.78786" lon="6.106">
        <ele>1547</ele>
        <time>2019-09-18T13:42:50Z</time>
      </trkpt>
      <trkpt lat="45.78756" lon="6.10606">
        <ele>1542</ele>
        <time>2019-09-18T13:43:05Z</time>
      </trkpt>
      <trkpt lat="45.78723" lon="6.10619">
        <ele>1539</ele>
        <time>2019-09-18T13:43:22Z</time>
      </trkpt>
      <trkpt lat="45.78686" lon="6.10619">
        <ele>1533</ele>
        <time>2019-09-18T13:43:41Z</time>
      </trkpt>
      <trkpt lat="45.78651" lon="6.10613">
        <ele>1523</ele>
        <time>2019-09-18T13:43:59Z</time>
      </trkpt>
      <trkpt lat="45.7864" lon="6.10617">
        <ele>1521</ele>
        <time>2019-09-18T13:44:04Z</time>
      </trkpt>
      <trkpt lat="45.78631" lon="6.10624">
        <ele>1521</ele>
        <time>2019-09-18T13:44:09Z</time>
      </trkpt>
      <trkpt lat="45.78612" lon="6.10631">
        <ele>1517</ele>
        <time>2019-09-18T13:44:19Z</time>
      </trkpt>
      <trkpt lat="45.78594" lon="6.10648">
        <ele>1517</ele>
        <time>2019-09-18T13:44:30Z</time>
      </trkpt>
      <trkpt lat="45.78586" lon="6.10661">
        <ele>1518</ele>
        <time>2019-09-18T13:44:36Z</time>
      </trkpt>
      <trkpt lat="45.78545" lon="6.1071">
        <ele>1508</ele>
        <time>2019-09-18T13:45:03Z</time>
      </trkpt>
      <trkpt lat="45.78514" lon="6.10779">
        <ele>1505</ele>
        <time>2019-09-18T13:45:31Z</time>
      </trkpt>
      <trkpt lat="45.78479" lon="6.1083">
        <ele>1499</ele>
        <time>2019-09-18T13:45:56Z</time>
      </trkpt>
      <trkpt lat="45.78473" lon="6.10842">
        <ele>1498</ele>
        <time>2019-09-18T13:46:01Z</time>
      </trkpt>
      <trkpt lat="45.78459" lon="6.10857">
        <ele>1494</ele>
        <time>2019-09-18T13:46:10Z</time>
      </trkpt>
      <trkpt lat="45.78452" lon="6.1087">
        <ele>1492</ele>
        <time>2019-09-18T13:46:16Z</time>
      </trkpt>
      <trkpt lat="45.78444" lon="6.10898">
        <ele>1493</ele>
        <time>2019-09-18T13:46:27Z</time>
      </trkpt>
      <trkpt lat="45.78437" lon="6.10907">
        <ele>1492</ele>
        <time>2019-09-18T13:46:31Z</time>
      </trkpt>
      <trkpt lat="45.78427" lon="6.10908">
        <ele>1490</ele>
        <time>2019-09-18T13:46:36Z</time>
      </trkpt>
      <trkpt lat="45.78397" lon="6.10888">
        <ele>1483</ele>
        <time>2019-09-18T13:46:53Z</time>
      </trkpt>
      <trkpt lat="45.78375" lon="6.10869">
        <ele>1478</ele>
        <time>2019-09-18T13:47:06Z</time>
      </trkpt>
      <trkpt lat="45.78366" lon="6.10866">
        <ele>1476</ele>
        <time>2019-09-18T13:47:10Z</time>
      </trkpt>
      <trkpt lat="45.78319" lon="6.10877">
        <ele>1470</ele>
        <time>2019-09-18T13:47:34Z</time>
      </trkpt>
      <trkpt lat="45.78288" lon="6.10895">
        <ele>1463</ele>
        <time>2019-09-18T13:47:51Z</time>
      </trkpt>
      <trkpt lat="45.78281" lon="6.10909">
        <ele>1464</ele>
        <time>2019-09-18T13:47:57Z</time>
      </trkpt>
      <trkpt lat="45.78263" lon="6.10923">
        <ele>1461</ele>
        <time>2019-09-18T13:48:07Z</time>
      </trkpt>
      <trkpt lat="45.78249" lon="6.10942">
        <ele>1459</ele>
        <time>2019-09-18T13:48:17Z</time>
      </trkpt>
      <trkpt lat="45.78229" lon="6.10963">
        <ele>1458</ele>
        <time>2019-09-18T13:48:29Z</time>
      </trkpt>
      <trkpt lat="45.78187" lon="6.10995">
        <ele>1455</ele>
        <time>2019-09-18T13:48:53Z</time>
      </trkpt>
      <trkpt lat="45.78168" lon="6.10994">
        <ele>1452</ele>
        <time>2019-09-18T13:49:02Z</time>
      </trkpt>
      <trkpt lat="45.78142" lon="6.10987">
        <ele>1449</ele>
        <time>2019-09-18T13:49:16Z</time>
      </trkpt>
      <trkpt lat="45.78127" lon="6.10976">
        <ele>1446</ele>
        <time>2019-09-18T13:49:24Z</time>
      </trkpt>
      <trkpt lat="45.78103" lon="6.10944">
        <ele>1441</ele>
        <time>2019-09-18T13:49:41Z</time>
      </trkpt>
      <trkpt lat="45.78096" lon="6.10939">
        <ele>1440</ele>
        <time>2019-09-18T13:49:44Z</time>
      </trkpt>
      <trkpt lat="45.78087" lon="6.1094">
        <ele>1439</ele>
        <time>2019-09-18T13:49:49Z</time>
      </trkpt>
      <trkpt lat="45.78081" lon="6.10953">
        <ele>1439</ele>
        <time>2019-09-18T13:49:54Z</time>
      </trkpt>
      <trkpt lat="45.78053" lon="6.10993">
        <ele>1435</ele>
        <time>2019-09-18T13:50:14Z</time>
      </trkpt>
      <trkpt lat="45.78029" lon="6.11044">
        <ele>1428</ele>
        <time>2019-09-18T13:50:36Z</time>
      </trkpt>
      <trkpt lat="45.78021" lon="6.11055">
        <ele>1426</ele>
        <time>2019-09-18T13:50:41Z</time>
      </trkpt>
      <trkpt lat="45.78018" lon="6.11069">
        <ele>1425</ele>
        <time>2019-09-18T13:50:46Z</time>
      </trkpt>
      <trkpt lat="45.78011" lon="6.11082">
        <ele>1424</ele>
        <time>2019-09-18T13:50:52Z</time>
      </trkpt>
      <trkpt lat="45.78008" lon="6.11097">
        <ele>1423</ele>
        <time>2019-09-18T13:50:57Z</time>
      </trkpt>
      <trkpt lat="45.78001" lon="6.11108">
        <ele>1422</ele>
        <time>2019-09-18T13:51:03Z</time>
      </trkpt>
      <trkpt lat="45.77988" lon="6.11114">
        <ele>1420</ele>
        <time>2019-09-18T13:51:10Z</time>
      </trkpt>
      <trkpt lat="45.77965" lon="6.11116">
        <ele>1416</ele>
        <time>2019-09-18T13:51:21Z</time>
      </trkpt>
      <trkpt lat="45.77944" lon="6.11147">
        <ele>1414</ele>
        <time>2019-09-18T13:51:36Z</time>
      </trkpt>
      <trkpt lat="45.77935" lon="6.11186">
        <ele>1412</ele>
        <time>2019-09-18T13:51:50Z</time>
      </trkpt>
      <trkpt lat="45.77936" lon="6.11231">
        <ele>1410</ele>
        <time>2019-09-18T13:52:06Z</time>
      </trkpt>
      <trkpt lat="45.77927" lon="6.11241">
        <ele>1408</ele>
        <time>2019-09-18T13:52:12Z</time>
      </trkpt>
      <trkpt lat="45.7791" lon="6.11254">
        <ele>1404</ele>
        <time>2019-09-18T13:52:22Z</time>
      </trkpt>
      <trkpt lat="45.77906" lon="6.11282">
        <ele>1401</ele>
        <time>2019-09-18T13:52:32Z</time>
      </trkpt>
      <trkpt lat="45.77887" lon="6.11291">
        <ele>1396</ele>
        <time>2019-09-18T13:52:42Z</time>
      </trkpt>
      <trkpt lat="45.77869" lon="6.11293">
        <ele>1392</ele>
        <time>2019-09-18T13:52:51Z</time>
      </trkpt>
      <trkpt lat="45.77859" lon="6.1129">
        <ele>1390</ele>
        <time>2019-09-18T13:52:56Z</time>
      </trkpt>
      <trkpt lat="45.7785" lon="6.11294">
        <ele>1387</ele>
        <time>2019-09-18T13:53:00Z</time>
      </trkpt>
      <trkpt lat="45.77833" lon="6.11327">
        <ele>1381</ele>
        <time>2019-09-18T13:53:15Z</time>
      </trkpt>
      <trkpt lat="45.77824" lon="6.11335">
        <ele>1378</ele>
        <time>2019-09-18T13:53:20Z</time>
      </trkpt>
      <trkpt lat="45.77791" lon="6.11355">
        <ele>1368</ele>
        <time>2019-09-18T13:53:38Z</time>
      </trkpt>
      <trkpt lat="45.77783" lon="6.1137">
        <ele>1365</ele>
        <time>2019-09-18T13:53:45Z</time>
      </trkpt>
      <trkpt lat="45.77779" lon="6.11387">
        <ele>1362</ele>
        <time>2019-09-18T13:53:51Z</time>
      </trkpt>
      <trkpt lat="45.77781" lon="6.11433">
        <ele>1356</ele>
        <time>2019-09-18T13:54:07Z</time>
      </trkpt>
      <trkpt lat="45.77796" lon="6.11492">
        <ele>1346</ele>
        <time>2019-09-18T13:54:29Z</time>
      </trkpt>
      <trkpt lat="45.77824" lon="6.11514">
        <ele>1344</ele>
        <time>2019-09-18T13:54:45Z</time>
      </trkpt>
      <trkpt lat="45.77819" lon="6.11525">
        <ele>1339</ele>
        <time>2019-09-18T13:54:49Z</time>
      </trkpt>
      <trkpt lat="45.77798" lon="6.11534">
        <ele>1332</ele>
        <time>2019-09-18T13:55:00Z</time>
      </trkpt>
      <trkpt lat="45.77797" lon="6.11549">
        <ele>1327</ele>
        <time>2019-09-18T13:55:06Z</time>
      </trkpt>
      <trkpt lat="45.77802" lon="6.11564">
        <ele>1322</ele>
        <time>2019-09-18T13:55:11Z</time>
      </trkpt>
      <trkpt lat="45.77826" lon="6.11566">
        <ele>1325</ele>
        <time>2019-09-18T13:55:23Z</time>
      </trkpt>
      <trkpt lat="45.77849" lon="6.11575">
        <ele>1325</ele>
        <time>2019-09-18T13:55:35Z</time>
      </trkpt>
      <trkpt lat="45.77856" lon="6.11585">
        <ele>1322</ele>
        <time>2019-09-18T13:55:40Z</time>
      </trkpt>
      <trkpt lat="45.77851" lon="6.11598">
        <ele>1316</ele>
        <time>2019-09-18T13:55:45Z</time>
      </trkpt>
      <trkpt lat="45.7783" lon="6.11606">
        <ele>1309</ele>
        <time>2019-09-18T13:55:56Z</time>
      </trkpt>
      <trkpt lat="45.7783" lon="6.1162">
        <ele>1303</ele>
        <time>2019-09-18T13:56:01Z</time>
      </trkpt>
      <trkpt lat="45.77839" lon="6.11622">
        <ele>1304</ele>
        <time>2019-09-18T13:56:06Z</time>
      </trkpt>
      <trkpt lat="45.77865" lon="6.11643">
        <ele>1300</ele>
        <time>2019-09-18T13:56:21Z</time>
      </trkpt>
      <trkpt lat="45.77885" lon="6.11673">
        <ele>1291</ele>
        <time>2019-09-18T13:56:35Z</time>
      </trkpt>
      <trkpt lat="45.77876" lon="6.11681">
        <ele>1285</ele>
        <time>2019-09-18T13:56:40Z</time>
      </trkpt>
      <trkpt lat="45.77867" lon="6.11677">
        <ele>1285</ele>
        <time>2019-09-18T13:56:45Z</time>
      </trkpt>
      <trkpt lat="45.77856" lon="6.11676">
        <ele>1284</ele>
        <time>2019-09-18T13:56:51Z</time>
      </trkpt>
      <trkpt lat="45.77855" lon="6.11689">
        <ele>1278</ele>
        <time>2019-09-18T13:56:55Z</time>
      </trkpt>
      <trkpt lat="45.77872" lon="6.11706">
        <ele>1274</ele>
        <time>2019-09-18T13:57:06Z</time>
      </trkpt>
      <trkpt lat="45.77877" lon="6.11716">
        <ele>1270</ele>
        <time>2019-09-18T13:57:10Z</time>
      </trkpt>
      <trkpt lat="45.77919" lon="6.11752">
        <ele>1264</ele>
        <time>2019-09-18T13:57:34Z</time>
      </trkpt>
      <trkpt lat="45.77909" lon="6.11756">
        <ele>1260</ele>
        <time>2019-09-18T13:57:40Z</time>
      </trkpt>
      <trkpt lat="45.77901" lon="6.11764">
        <ele>1255</ele>
        <time>2019-09-18T13:57:45Z</time>
      </trkpt>
      <trkpt lat="45.77905" lon="6.11776">
        <ele>1251</ele>
        <time>2019-09-18T13:57:49Z</time>
      </trkpt>
      <trkpt lat="45.77915" lon="6.11781">
        <ele>1251</ele>
        <time>2019-09-18T13:57:54Z</time>
      </trkpt>
      <trkpt lat="45.77967" lon="6.11828">
        <ele>1249</ele>
        <time>2019-09-18T13:58:25Z</time>
      </trkpt>
      <trkpt lat="45.77983" lon="6.11869">
        <ele>1236</ele>
        <time>2019-09-18T13:58:42Z</time>
      </trkpt>
      <trkpt lat="45.77995" lon="6.11889">
        <ele>1230</ele>
        <time>2019-09-18T13:58:51Z</time>
      </trkpt>
      <trkpt lat="45.77985" lon="6.11892">
        <ele>1226</ele>
        <time>2019-09-18T13:58:56Z</time>
      </trkpt>
      <trkpt lat="45.78003" lon="6.11926">
        <ele>1216</ele>
        <time>2019-09-18T13:59:11Z</time>
      </trkpt>
      <trkpt lat="45.78034" lon="6.11971">
        <ele>1208</ele>
        <time>2019-09-18T13:59:33Z</time>
      </trkpt>
      <trkpt lat="45.78045" lon="6.11998">
        <ele>1200</ele>
        <time>2019-09-18T13:59:44Z</time>
      </trkpt>
      <trkpt lat="45.78036" lon="6.12005">
        <ele>1195</ele>
        <time>2019-09-18T13:59:49Z</time>
      </trkpt>
      <trkpt lat="45.78016" lon="6.12006">
        <ele>1190</ele>
        <time>2019-09-18T13:59:59Z</time>
      </trkpt>
      <trkpt lat="45.78005" lon="6.12005">
        <ele>1188</ele>
        <time>2019-09-18T14:00:04Z</time>
      </trkpt>
      <trkpt lat="45.77993" lon="6.11999">
        <ele>1187</ele>
        <time>2019-09-18T14:00:11Z</time>
      </trkpt>
      <trkpt lat="45.7797" lon="6.11997">
        <ele>1183</ele>
        <time>2019-09-18T14:00:22Z</time>
      </trkpt>
      <trkpt lat="45.77941" lon="6.11987">
        <ele>1179</ele>
        <time>2019-09-18T14:00:37Z</time>
      </trkpt>
      <trkpt lat="45.77889" lon="6.1199">
        <ele>1167</ele>
        <time>2019-09-18T14:01:03Z</time>
      </trkpt>
      <trkpt lat="45.77858" lon="6.12002">
        <ele>1157</ele>
        <time>2019-09-18T14:01:19Z</time>
      </trkpt>
      <trkpt lat="45.7785" lon="6.1201">
        <ele>1152</ele>
        <time>2019-09-18T14:01:24Z</time>
      </trkpt>
      <trkpt lat="45.7784" lon="6.12015">
        <ele>1149</ele>
        <time>2019-09-18T14:01:30Z</time>
      </trkpt>
      <trkpt lat="45.77834" lon="6.12026">
        <ele>1144</ele>
        <time>2019-09-18T14:01:34Z</time>
      </trkpt>
      <trkpt lat="45.77825" lon="6.12023">
        <ele>1143</ele>
        <time>2019-09-18T14:01:39Z</time>
      </trkpt>
      <trkpt lat="45.77825" lon="6.12037">
        <ele>1138</ele>
        <time>2019-09-18T14:01:44Z</time>
      </trkpt>
      <trkpt lat="45.77822" lon="6.1205">
        <ele>1133</ele>
        <time>2019-09-18T14:01:49Z</time>
      </trkpt>
      <trkpt lat="45.77812" lon="6.12047">
        <ele>1131</ele>
        <time>2019-09-18T14:01:54Z</time>
      </trkpt>
      <trkpt lat="45.77804" lon="6.12051">
        <ele>1128</ele>
        <time>2019-09-18T14:01:58Z</time>
      </trkpt>
      <trkpt lat="45.77787" lon="6.12066">
        <ele>1118</ele>
        <time>2019-09-18T14:02:08Z</time>
      </trkpt>
      <trkpt lat="45.77776" lon="6.12071">
        <ele>1114</ele>
        <time>2019-09-18T14:02:14Z</time>
      </trkpt>
      <trkpt lat="45.77754" lon="6.12074">
        <ele>1107</ele>
        <time>2019-09-18T14:02:25Z</time>
      </trkpt>
      <trkpt lat="45.77746" lon="6.12083">
        <ele>1101</ele>
        <time>2019-09-18T14:02:30Z</time>
      </trkpt>
      <trkpt lat="45.77748" lon="6.12096">
        <ele>1098</ele>
        <time>2019-09-18T14:02:35Z</time>
      </trkpt>
      <trkpt lat="45.77756" lon="6.12104">
        <ele>1098</ele>
        <time>2019-09-18T14:02:40Z</time>
      </trkpt>
      <trkpt lat="45.77749" lon="6.12115">
        <ele>1093</ele>
        <time>2019-09-18T14:02:45Z</time>
      </trkpt>
      <trkpt lat="45.77717" lon="6.12125">
        <ele>1084</ele>
        <time>2019-09-18T14:03:01Z</time>
      </trkpt>
      <trkpt lat="45.77719" lon="6.1217">
        <ele>1072</ele>
        <time>2019-09-18T14:03:17Z</time>
      </trkpt>
      <trkpt lat="45.77717" lon="6.12184">
        <ele>1067</ele>
        <time>2019-09-18T14:03:22Z</time>
      </trkpt>
      <trkpt lat="45.77724" lon="6.12227">
        <ele>1056</ele>
        <time>2019-09-18T14:03:37Z</time>
      </trkpt>
      <trkpt lat="45.77733" lon="6.12237">
        <ele>1054</ele>
        <time>2019-09-18T14:03:43Z</time>
      </trkpt>
      <trkpt lat="45.77738" lon="6.12251">
        <ele>1051</ele>
        <time>2019-09-18T14:03:48Z</time>
      </trkpt>
      <trkpt lat="45.77767" lon="6.123">
        <ele>1044</ele>
        <time>2019-09-18T14:04:11Z</time>
      </trkpt>
      <trkpt lat="45.77777" lon="6.12301">
        <ele>1046</ele>
        <time>2019-09-18T14:04:16Z</time>
      </trkpt>
      <trkpt lat="45.77806" lon="6.12316">
        <ele>1047</ele>
        <time>2019-09-18T14:04:31Z</time>
      </trkpt>
      <trkpt lat="45.77824" lon="6.12331">
        <ele>1045</ele>
        <time>2019-09-18T14:04:42Z</time>
      </trkpt>
      <trkpt lat="45.77835" lon="6.12331">
        <ele>1047</ele>
        <time>2019-09-18T14:04:47Z</time>
      </trkpt>
      <trkpt lat="45.77862" lon="6.12309">
        <ele>1053</ele>
        <time>2019-09-18T14:05:03Z</time>
      </trkpt>
      <trkpt lat="45.77872" lon="6.12305">
        <ele>1054</ele>
        <time>2019-09-18T14:05:08Z</time>
      </trkpt>
      <trkpt lat="45.77884" lon="6.12304">
        <ele>1055</ele>
        <time>2019-09-18T14:05:14Z</time>
      </trkpt>
      <trkpt lat="45.77917" lon="6.12306">
        <ele>1054</ele>
        <time>2019-09-18T14:05:31Z</time>
      </trkpt>
      <trkpt lat="45.77937" lon="6.12324">
        <ele>1050</ele>
        <time>2019-09-18T14:05:42Z</time>
      </trkpt>
      <trkpt lat="45.77947" lon="6.12328">
        <ele>1050</ele>
        <time>2019-09-18T14:05:48Z</time>
      </trkpt>
      <trkpt lat="45.77955" lon="6.12341">
        <ele>1047</ele>
        <time>2019-09-18T14:05:54Z</time>
      </trkpt>
      <trkpt lat="45.77959" lon="6.12359">
        <ele>1042</ele>
        <time>2019-09-18T14:06:00Z</time>
      </trkpt>
      <trkpt lat="45.77958" lon="6.12376">
        <ele>1037</ele>
        <time>2019-09-18T14:06:06Z</time>
      </trkpt>
      <trkpt lat="45.77966" lon="6.124">
        <ele>1031</ele>
        <time>2019-09-18T14:06:15Z</time>
      </trkpt>
      <trkpt lat="45.77982" lon="6.1242">
        <ele>1027</ele>
        <time>2019-09-18T14:06:26Z</time>
      </trkpt>
      <trkpt lat="45.77987" lon="6.12433">
        <ele>1023</ele>
        <time>2019-09-18T14:06:31Z</time>
      </trkpt>
      <trkpt lat="45.77994" lon="6.12443">
        <ele>1020</ele>
        <time>2019-09-18T14:06:36Z</time>
      </trkpt>
      <trkpt lat="45.78004" lon="6.12445">
        <ele>1020</ele>
        <time>2019-09-18T14:06:41Z</time>
      </trkpt>
      <trkpt lat="45.78012" lon="6.1244">
        <ele>1022</ele>
        <time>2019-09-18T14:06:46Z</time>
      </trkpt>
      <trkpt lat="45.78023" lon="6.12439">
        <ele>1023</ele>
        <time>2019-09-18T14:06:51Z</time>
      </trkpt>
      <trkpt lat="45.78033" lon="6.12444">
        <ele>1022</ele>
        <time>2019-09-18T14:06:56Z</time>
      </trkpt>
      <trkpt lat="45.7805" lon="6.12464">
        <ele>1017</ele>
        <time>2019-09-18T14:07:07Z</time>
      </trkpt>
      <trkpt lat="45.7806" lon="6.12466">
        <ele>1018</ele>
        <time>2019-09-18T14:07:12Z</time>
      </trkpt>
      <trkpt lat="45.7807" lon="6.12464">
        <ele>1019</ele>
        <time>2019-09-18T14:07:18Z</time>
      </trkpt>
      <trkpt lat="45.7809" lon="6.12467">
        <ele>1020</ele>
        <time>2019-09-18T14:07:28Z</time>
      </trkpt>
      <trkpt lat="45.78103" lon="6.12463">
        <ele>1021</ele>
        <time>2019-09-18T14:07:34Z</time>
      </trkpt>
      <trkpt lat="45.78125" lon="6.12465">
        <ele>1021</ele>
        <time>2019-09-18T14:07:45Z</time>
      </trkpt>
      <trkpt lat="45.78137" lon="6.1247">
        <ele>1020</ele>
        <time>2019-09-18T14:07:52Z</time>
      </trkpt>
      <trkpt lat="45.78145" lon="6.12477">
        <ele>1018</ele>
        <time>2019-09-18T14:07:56Z</time>
      </trkpt>
      <trkpt lat="45.78178" lon="6.12488">
        <ele>1016</ele>
        <time>2019-09-18T14:08:13Z</time>
      </trkpt>
      <trkpt lat="45.78205" lon="6.12508">
        <ele>1013</ele>
        <time>2019-09-18T14:08:28Z</time>
      </trkpt>
      <trkpt lat="45.78211" lon="6.12521">
        <ele>1010</ele>
        <time>2019-09-18T14:08:34Z</time>
      </trkpt>
      <trkpt lat="45.7822" lon="6.1253">
        <ele>1008</ele>
        <time>2019-09-18T14:08:39Z</time>
      </trkpt>
      <trkpt lat="45.7826" lon="6.12558">
        <ele>1002</ele>
        <time>2019-09-18T14:09:02Z</time>
      </trkpt>
      <trkpt lat="45.78283" lon="6.12589">
        <ele>993</ele>
        <time>2019-09-18T14:09:17Z</time>
      </trkpt>
      <trkpt lat="45.78301" lon="6.12601">
        <ele>991</ele>
        <time>2019-09-18T14:09:27Z</time>
      </trkpt>
      <trkpt lat="45.7832" lon="6.12624">
        <ele>985</ele>
        <time>2019-09-18T14:09:40Z</time>
      </trkpt>
      <trkpt lat="45.78336" lon="6.12668">
        <ele>973</ele>
        <time>2019-09-18T14:09:57Z</time>
      </trkpt>
      <trkpt lat="45.78336" lon="6.12718">
        <ele>962</ele>
        <time>2019-09-18T14:10:15Z</time>
      </trkpt>
      <trkpt lat="45.78347" lon="6.12719">
        <ele>962</ele>
        <time>2019-09-18T14:10:20Z</time>
      </trkpt>
      <trkpt lat="45.78366" lon="6.12714">
        <ele>964</ele>
        <time>2019-09-18T14:10:30Z</time>
      </trkpt>
      <trkpt lat="45.78407" lon="6.12713">
        <ele>966</ele>
        <time>2019-09-18T14:10:50Z</time>
      </trkpt>
      <trkpt lat="45.78417" lon="6.12718">
        <ele>966</ele>
        <time>2019-09-18T14:10:56Z</time>
      </trkpt>
      <trkpt lat="45.78432" lon="6.12739">
        <ele>962</ele>
        <time>2019-09-18T14:11:06Z</time>
      </trkpt>
      <trkpt lat="45.78443" lon="6.12748">
        <ele>961</ele>
        <time>2019-09-18T14:11:12Z</time>
      </trkpt>
      <trkpt lat="45.78466" lon="6.12755">
        <ele>960</ele>
        <time>2019-09-18T14:11:24Z</time>
      </trkpt>
      <trkpt lat="45.78487" lon="6.12769">
        <ele>959</ele>
        <time>2019-09-18T14:11:36Z</time>
      </trkpt>
      <trkpt lat="45.78503" lon="6.1277">
        <ele>959</ele>
        <time>2019-09-18T14:11:44Z</time>
      </trkpt>
      <trkpt lat="45.78529" lon="6.12778">
        <ele>960</ele>
        <time>2019-09-18T14:11:57Z</time>
      </trkpt>
      <trkpt lat="45.78545" lon="6.12772">
        <ele>962</ele>
        <time>2019-09-18T14:12:05Z</time>
      </trkpt>
      <trkpt lat="45.78567" lon="6.12741">
        <ele>970</ele>
        <time>2019-09-18T14:12:21Z</time>
      </trkpt>
      <trkpt lat="45.7859" lon="6.12672">
        <ele>987</ele>
        <time>2019-09-18T14:12:47Z</time>
      </trkpt>
      <trkpt lat="45.78598" lon="6.12663">
        <ele>990</ele>
        <time>2019-09-18T14:12:53Z</time>
      </trkpt>
      <trkpt lat="45.78618" lon="6.12664">
        <ele>992</ele>
        <time>2019-09-18T14:13:03Z</time>
      </trkpt>
      <trkpt lat="45.78629" lon="6.12662">
        <ele>994</ele>
        <time>2019-09-18T14:13:08Z</time>
      </trkpt>
      <trkpt lat="45.78692" lon="6.12673">
        <ele>995</ele>
        <time>2019-09-18T14:13:40Z</time>
      </trkpt>
      <trkpt lat="45.78731" lon="6.12662">
        <ele>999</ele>
        <time>2019-09-18T14:14:00Z</time>
      </trkpt>
      <trkpt lat="45.78751" lon="6.1266">
        <ele>1000</ele>
        <time>2019-09-18T14:14:10Z</time>
      </trkpt>
      <trkpt lat="45.78759" lon="6.12655">
        <ele>1002</ele>
        <time>2019-09-18T14:14:14Z</time>
      </trkpt>
      <trkpt lat="45.78813" lon="6.12653">
        <ele>1006</ele>
        <time>2019-09-18T14:14:41Z</time>
      </trkpt>
      <trkpt lat="45.78834" lon="6.12657">
        <ele>1006</ele>
        <time>2019-09-18T14:14:52Z</time>
      </trkpt>
      <trkpt lat="45.78862" lon="6.12654">
        <ele>1009</ele>
        <time>2019-09-18T14:15:06Z</time>
      </trkpt>
      <trkpt lat="45.78883" lon="6.12659">
        <ele>1008</ele>
        <time>2019-09-18T14:15:16Z</time>
      </trkpt>
      <trkpt lat="45.78923" lon="6.12653">
        <ele>1013</ele>
        <time>2019-09-18T14:15:37Z</time>
      </trkpt>
      <trkpt lat="45.78944" lon="6.12657">
        <ele>1014</ele>
        <time>2019-09-18T14:15:47Z</time>
      </trkpt>
      <trkpt lat="45.78953" lon="6.12662">
        <ele>1014</ele>
        <time>2019-09-18T14:15:52Z</time>
      </trkpt>
      <trkpt lat="45.78982" lon="6.12666">
        <ele>1016</ele>
        <time>2019-09-18T14:16:07Z</time>
      </trkpt>
      <trkpt lat="45.79001" lon="6.12672">
        <ele>1017</ele>
        <time>2019-09-18T14:16:16Z</time>
      </trkpt>
      <trkpt lat="45.7903" lon="6.127">
        <ele>1011</ele>
        <time>2019-09-18T14:16:34Z</time>
      </trkpt>
      <trkpt lat="45.7905" lon="6.1271">
        <ele>1010</ele>
        <time>2019-09-18T14:16:44Z</time>
      </trkpt>
      <trkpt lat="45.79095" lon="6.12724">
        <ele>1011</ele>
        <time>2019-09-18T14:17:07Z</time>
      </trkpt>
      <trkpt lat="45.79125" lon="6.1274">
        <ele>1008</ele>
        <time>2019-09-18T14:17:23Z</time>
      </trkpt>
      <trkpt lat="45.79159" lon="6.12766">
        <ele>1003</ele>
        <time>2019-09-18T14:17:43Z</time>
      </trkpt>
      <trkpt lat="45.79182" lon="6.128">
        <ele>995</ele>
        <time>2019-09-18T14:17:59Z</time>
      </trkpt>
      <trkpt lat="45.7919" lon="6.12827">
        <ele>988</ele>
        <time>2019-09-18T14:18:10Z</time>
      </trkpt>
      <trkpt lat="45.79186" lon="6.12871">
        <ele>980</ele>
        <time>2019-09-18T14:18:25Z</time>
      </trkpt>
      <trkpt lat="45.79165" lon="6.12906">
        <ele>974</ele>
        <time>2019-09-18T14:18:41Z</time>
      </trkpt>
      <trkpt lat="45.79146" lon="6.12921">
        <ele>969</ele>
        <time>2019-09-18T14:18:52Z</time>
      </trkpt>
      <trkpt lat="45.79137" lon="6.12925">
        <ele>967</ele>
        <time>2019-09-18T14:18:57Z</time>
      </trkpt>
      <trkpt lat="45.7913" lon="6.12935">
        <ele>965</ele>
        <time>2019-09-18T14:19:02Z</time>
      </trkpt>
      <trkpt lat="45.79119" lon="6.1296">
        <ele>959</ele>
        <time>2019-09-18T14:19:12Z</time>
      </trkpt>
      <trkpt lat="45.7911" lon="6.12969">
        <ele>956</ele>
        <time>2019-09-18T14:19:17Z</time>
      </trkpt>
      <trkpt lat="45.79083" lon="6.13006">
        <ele>947</ele>
        <time>2019-09-18T14:19:36Z</time>
      </trkpt>
      <trkpt lat="45.79062" lon="6.13019">
        <ele>940</ele>
        <time>2019-09-18T14:19:48Z</time>
      </trkpt>
      <trkpt lat="45.79056" lon="6.13028">
        <ele>937</ele>
        <time>2019-09-18T14:19:52Z</time>
      </trkpt>
      <trkpt lat="45.79046" lon="6.13032">
        <ele>935</ele>
        <time>2019-09-18T14:19:57Z</time>
      </trkpt>
      <trkpt lat="45.79062" lon="6.13045">
        <ele>935</ele>
        <time>2019-09-18T14:20:06Z</time>
      </trkpt>
      <trkpt lat="45.79071" lon="6.13043">
        <ele>937</ele>
        <time>2019-09-18T14:20:11Z</time>
      </trkpt>
      <trkpt lat="45.7909" lon="6.1303">
        <ele>942</ele>
        <time>2019-09-18T14:20:21Z</time>
      </trkpt>
      <trkpt lat="45.79098" lon="6.13018">
        <ele>946</ele>
        <time>2019-09-18T14:20:27Z</time>
      </trkpt>
      <trkpt lat="45.79107" lon="6.13012">
        <ele>948</ele>
        <time>2019-09-18T14:20:32Z</time>
      </trkpt>
      <trkpt lat="45.79117" lon="6.13012">
        <ele>949</ele>
        <time>2019-09-18T14:20:37Z</time>
      </trkpt>
      <trkpt lat="45.79176" lon="6.13041">
        <ele>947</ele>
        <time>2019-09-18T14:21:08Z</time>
      </trkpt>
      <trkpt lat="45.79194" lon="6.13053">
        <ele>945</ele>
        <time>2019-09-18T14:21:18Z</time>
      </trkpt>
      <trkpt lat="45.79232" lon="6.13061">
        <ele>944</ele>
        <time>2019-09-18T14:21:38Z</time>
      </trkpt>
      <trkpt lat="45.7925" lon="6.13058">
        <ele>946</ele>
        <time>2019-09-18T14:21:47Z</time>
      </trkpt>
      <trkpt lat="45.79272" lon="6.13065">
        <ele>941</ele>
        <time>2019-09-18T14:21:58Z</time>
      </trkpt>
      <trkpt lat="45.79274" lon="6.13064">
        <ele>941</ele>
        <time>2019-09-18T14:21:59Z</time>
      </trkpt>
      <trkpt lat="45.79264" lon="6.13063">
        <ele>943</ele>
        <time>2019-09-18T14:22:04Z</time>
      </trkpt>
      <trkpt lat="45.79263" lon="6.1306">
        <ele>944</ele>
        <time>2019-09-18T14:22:05Z</time>
      </trkpt>
      <trkpt lat="45.79265" lon="6.13057">
        <ele>944</ele>
        <time>2019-09-18T14:22:07Z</time>
      </trkpt>
      <trkpt lat="45.79272" lon="6.13055">
        <ele>944</ele>
        <time>2019-09-18T14:22:10Z</time>
      </trkpt>
      <trkpt lat="45.79323" lon="6.13066">
        <ele>933</ele>
        <time>2019-09-18T14:22:36Z</time>
      </trkpt>
      <trkpt lat="45.79334" lon="6.13063">
        <ele>933</ele>
        <time>2019-09-18T14:22:42Z</time>
      </trkpt>
      <trkpt lat="45.79355" lon="6.13065">
        <ele>933</ele>
        <time>2019-09-18T14:22:52Z</time>
      </trkpt>
      <trkpt lat="45.79364" lon="6.1307">
        <ele>932</ele>
        <time>2019-09-18T14:22:57Z</time>
      </trkpt>
      <trkpt lat="45.79374" lon="6.13072">
        <ele>931</ele>
        <time>2019-09-18T14:23:02Z</time>
      </trkpt>
      <trkpt lat="45.79395" lon="6.13067">
        <ele>934</ele>
        <time>2019-09-18T14:23:13Z</time>
      </trkpt>
      <trkpt lat="45.79404" lon="6.13071">
        <ele>933</ele>
        <time>2019-09-18T14:23:17Z</time>
      </trkpt>
      <trkpt lat="45.79412" lon="6.13078">
        <ele>931</ele>
        <time>2019-09-18T14:23:22Z</time>
      </trkpt>
      <trkpt lat="45.79431" lon="6.13081">
        <ele>930</ele>
        <time>2019-09-18T14:23:32Z</time>
      </trkpt>
      <trkpt lat="45.79441" lon="6.13085">
        <ele>930</ele>
        <time>2019-09-18T14:23:37Z</time>
      </trkpt>
      <trkpt lat="45.7945" lon="6.1308">
        <ele>932</ele>
        <time>2019-09-18T14:23:42Z</time>
      </trkpt>
      <trkpt lat="45.79459" lon="6.13087">
        <ele>930</ele>
        <time>2019-09-18T14:23:47Z</time>
      </trkpt>
      <trkpt lat="45.79477" lon="6.13094">
        <ele>929</ele>
        <time>2019-09-18T14:23:56Z</time>
      </trkpt>
      <trkpt lat="45.79486" lon="6.13102">
        <ele>926</ele>
        <time>2019-09-18T14:24:01Z</time>
      </trkpt>
      <trkpt lat="45.79495" lon="6.13105">
        <ele>926</ele>
        <time>2019-09-18T14:24:06Z</time>
      </trkpt>
      <trkpt lat="45.79512" lon="6.13117">
        <ele>922</ele>
        <time>2019-09-18T14:24:15Z</time>
      </trkpt>
      <trkpt lat="45.79519" lon="6.13127">
        <ele>920</ele>
        <time>2019-09-18T14:24:20Z</time>
      </trkpt>
      <trkpt lat="45.79536" lon="6.13141">
        <ele>916</ele>
        <time>2019-09-18T14:24:30Z</time>
      </trkpt>
      <trkpt lat="45.79536" lon="6.13155">
        <ele>911</ele>
        <time>2019-09-18T14:24:35Z</time>
      </trkpt>
      <trkpt lat="45.79529" lon="6.13167">
        <ele>907</ele>
        <time>2019-09-18T14:24:41Z</time>
      </trkpt>
      <trkpt lat="45.7952" lon="6.13174">
        <ele>905</ele>
        <time>2019-09-18T14:24:46Z</time>
      </trkpt>
      <trkpt lat="45.79502" lon="6.13182">
        <ele>902</ele>
        <time>2019-09-18T14:24:55Z</time>
      </trkpt>
      <trkpt lat="45.79503" lon="6.13197">
        <ele>899</ele>
        <time>2019-09-18T14:25:00Z</time>
      </trkpt>
      <trkpt lat="45.795" lon="6.1323">
        <ele>891</ele>
        <time>2019-09-18T14:25:12Z</time>
      </trkpt>
      <trkpt lat="45.79491" lon="6.13239">
        <ele>891</ele>
        <time>2019-09-18T14:25:17Z</time>
      </trkpt>
      <trkpt lat="45.79473" lon="6.13245">
        <ele>892</ele>
        <time>2019-09-18T14:25:27Z</time>
      </trkpt>
      <trkpt lat="45.79455" lon="6.1326">
        <ele>890</ele>
        <time>2019-09-18T14:25:37Z</time>
      </trkpt>
      <trkpt lat="45.79426" lon="6.13301">
        <ele>882</ele>
        <time>2019-09-18T14:25:58Z</time>
      </trkpt>
      <trkpt lat="45.79417" lon="6.13308">
        <ele>880</ele>
        <time>2019-09-18T14:26:03Z</time>
      </trkpt>
      <trkpt lat="45.79418" lon="6.13321">
        <ele>876</ele>
        <time>2019-09-18T14:26:07Z</time>
      </trkpt>
      <trkpt lat="45.79428" lon="6.13326">
        <ele>874</ele>
        <time>2019-09-18T14:26:13Z</time>
      </trkpt>
      <trkpt lat="45.79436" lon="6.13321">
        <ele>875</ele>
        <time>2019-09-18T14:26:17Z</time>
      </trkpt>
      <trkpt lat="45.79456" lon="6.13328">
        <ele>873</ele>
        <time>2019-09-18T14:26:27Z</time>
      </trkpt>
      <trkpt lat="45.79479" lon="6.13341">
        <ele>870</ele>
        <time>2019-09-18T14:26:40Z</time>
      </trkpt>
      <trkpt lat="45.79492" lon="6.13341">
        <ele>870</ele>
        <time>2019-09-18T14:26:46Z</time>
      </trkpt>
      <trkpt lat="45.79503" lon="6.13348">
        <ele>868</ele>
        <time>2019-09-18T14:26:52Z</time>
      </trkpt>
      <trkpt lat="45.79513" lon="6.13351">
        <ele>868</ele>
        <time>2019-09-18T14:26:57Z</time>
      </trkpt>
      <trkpt lat="45.7954" lon="6.13341">
        <ele>870</ele>
        <time>2019-09-18T14:27:11Z</time>
      </trkpt>
      <trkpt lat="45.79553" lon="6.13351">
        <ele>868</ele>
        <time>2019-09-18T14:27:19Z</time>
      </trkpt>
      <trkpt lat="45.79562" lon="6.13375">
        <ele>865</ele>
        <time>2019-09-18T14:27:28Z</time>
      </trkpt>
      <trkpt lat="45.79572" lon="6.13376">
        <ele>866</ele>
        <time>2019-09-18T14:27:33Z</time>
      </trkpt>
      <trkpt lat="45.79602" lon="6.13371">
        <ele>868</ele>
        <time>2019-09-18T14:27:48Z</time>
      </trkpt>
      <trkpt lat="45.79611" lon="6.13368">
        <ele>869</ele>
        <time>2019-09-18T14:27:53Z</time>
      </trkpt>
      <trkpt lat="45.79619" lon="6.13362">
        <ele>871</ele>
        <time>2019-09-18T14:27:57Z</time>
      </trkpt>
      <trkpt lat="45.7963" lon="6.13364">
        <ele>872</ele>
        <time>2019-09-18T14:28:03Z</time>
      </trkpt>
      <trkpt lat="45.79659" lon="6.13387">
        <ele>870</ele>
        <time>2019-09-18T14:28:19Z</time>
      </trkpt>
      <trkpt lat="45.79677" lon="6.13398">
        <ele>868</ele>
        <time>2019-09-18T14:28:29Z</time>
      </trkpt>
      <trkpt lat="45.79686" lon="6.13399">
        <ele>867</ele>
        <time>2019-09-18T14:28:34Z</time>
      </trkpt>
      <trkpt lat="45.79696" lon="6.13394">
        <ele>867</ele>
        <time>2019-09-18T14:28:39Z</time>
      </trkpt>
      <trkpt lat="45.79707" lon="6.13395">
        <ele>865</ele>
        <time>2019-09-18T14:28:45Z</time>
      </trkpt>
      <trkpt lat="45.79717" lon="6.13392">
        <ele>865</ele>
        <time>2019-09-18T14:28:50Z</time>
      </trkpt>
      <trkpt lat="45.79737" lon="6.13397">
        <ele>862</ele>
        <time>2019-09-18T14:29:00Z</time>
      </trkpt>
      <trkpt lat="45.79747" lon="6.13396">
        <ele>861</ele>
        <time>2019-09-18T14:29:05Z</time>
      </trkpt>
      <trkpt lat="45.79774" lon="6.1341">
        <ele>858</ele>
        <time>2019-09-18T14:29:19Z</time>
      </trkpt>
      <trkpt lat="45.79806" lon="6.13444">
        <ele>850</ele>
        <time>2019-09-18T14:29:39Z</time>
      </trkpt>
      <trkpt lat="45.79816" lon="6.13443">
        <ele>850</ele>
        <time>2019-09-18T14:29:44Z</time>
      </trkpt>
      <trkpt lat="45.79845" lon="6.13431">
        <ele>851</ele>
        <time>2019-09-18T14:29:59Z</time>
      </trkpt>
      <trkpt lat="45.79855" lon="6.13432">
        <ele>851</ele>
        <time>2019-09-18T14:30:04Z</time>
      </trkpt>
      <trkpt lat="45.79883" lon="6.1345">
        <ele>847</ele>
        <time>2019-09-18T14:30:20Z</time>
      </trkpt>
      <trkpt lat="45.79897" lon="6.13469">
        <ele>843</ele>
        <time>2019-09-18T14:30:29Z</time>
      </trkpt>
      <trkpt lat="45.79915" lon="6.13483">
        <ele>839</ele>
        <time>2019-09-18T14:30:40Z</time>
      </trkpt>
      <trkpt lat="45.79944" lon="6.13492">
        <ele>836</ele>
        <time>2019-09-18T14:30:54Z</time>
      </trkpt>
      <trkpt lat="45.79962" lon="6.13503">
        <ele>833</ele>
        <time>2019-09-18T14:31:04Z</time>
      </trkpt>
      <trkpt lat="45.79971" lon="6.13498">
        <ele>834</ele>
        <time>2019-09-18T14:31:09Z</time>
      </trkpt>
      <trkpt lat="45.7998" lon="6.135">
        <ele>833</ele>
        <time>2019-09-18T14:31:14Z</time>
      </trkpt>
      <trkpt lat="45.79998" lon="6.13518">
        <ele>830</ele>
        <time>2019-09-18T14:31:25Z</time>
      </trkpt>
      <trkpt lat="45.80017" lon="6.13522">
        <ele>830</ele>
        <time>2019-09-18T14:31:34Z</time>
      </trkpt>
      <trkpt lat="45.80034" lon="6.13535">
        <ele>828</ele>
        <time>2019-09-18T14:31:44Z</time>
      </trkpt>
      <trkpt lat="45.80043" lon="6.13545">
        <ele>827</ele>
        <time>2019-09-18T14:31:50Z</time>
      </trkpt>
      <trkpt lat="45.80053" lon="6.13567">
        <ele>823</ele>
        <time>2019-09-18T14:31:59Z</time>
      </trkpt>
      <trkpt lat="45.80062" lon="6.13575">
        <ele>822</ele>
        <time>2019-09-18T14:32:04Z</time>
      </trkpt>
      <trkpt lat="45.80068" lon="6.13588">
        <ele>820</ele>
        <time>2019-09-18T14:32:09Z</time>
      </trkpt>
      <trkpt lat="45.80076" lon="6.13596">
        <ele>818</ele>
        <time>2019-09-18T14:32:14Z</time>
      </trkpt>
      <trkpt lat="45.80101" lon="6.13636">
        <ele>812</ele>
        <time>2019-09-18T14:32:33Z</time>
      </trkpt>
      <trkpt lat="45.80118" lon="6.13647">
        <ele>810</ele>
        <time>2019-09-18T14:32:42Z</time>
      </trkpt>
      <trkpt lat="45.80132" lon="6.1366">
        <ele>808</ele>
        <time>2019-09-18T14:32:51Z</time>
      </trkpt>
      <trkpt lat="45.80136" lon="6.13672">
        <ele>806</ele>
        <time>2019-09-18T14:32:55Z</time>
      </trkpt>
      <trkpt lat="45.80143" lon="6.13683">
        <ele>803</ele>
        <time>2019-09-18T14:33:01Z</time>
      </trkpt>
      <trkpt lat="45.80152" lon="6.13688">
        <ele>802</ele>
        <time>2019-09-18T14:33:05Z</time>
      </trkpt>
      <trkpt lat="45.80161" lon="6.13689">
        <ele>802</ele>
        <time>2019-09-18T14:33:10Z</time>
      </trkpt>
      <trkpt lat="45.80169" lon="6.13695">
        <ele>800</ele>
        <time>2019-09-18T14:33:14Z</time>
      </trkpt>
      <trkpt lat="45.80188" lon="6.13702">
        <ele>795</ele>
        <time>2019-09-18T14:33:24Z</time>
      </trkpt>
      <trkpt lat="45.80219" lon="6.13697">
        <ele>790</ele>
        <time>2019-09-18T14:33:40Z</time>
      </trkpt>
      <trkpt lat="45.80237" lon="6.13681">
        <ele>790</ele>
        <time>2019-09-18T14:33:50Z</time>
      </trkpt>
      <trkpt lat="45.80255" lon="6.13674">
        <ele>788</ele>
        <time>2019-09-18T14:34:00Z</time>
      </trkpt>
      <trkpt lat="45.80278" lon="6.13646">
        <ele>788</ele>
        <time>2019-09-18T14:34:15Z</time>
      </trkpt>
      <trkpt lat="45.80288" lon="6.13644">
        <ele>786</ele>
        <time>2019-09-18T14:34:20Z</time>
      </trkpt>
      <trkpt lat="45.80307" lon="6.13643">
        <ele>781</ele>
        <time>2019-09-18T14:34:29Z</time>
      </trkpt>
      <trkpt lat="45.80327" lon="6.13649">
        <ele>775</ele>
        <time>2019-09-18T14:34:40Z</time>
      </trkpt>
      <trkpt lat="45.80335" lon="6.13657">
        <ele>771</ele>
        <time>2019-09-18T14:34:45Z</time>
      </trkpt>
      <trkpt lat="45.80344" lon="6.13653">
        <ele>770</ele>
        <time>2019-09-18T14:34:49Z</time>
      </trkpt>
      <trkpt lat="45.80364" lon="6.13654">
        <ele>765</ele>
        <time>2019-09-18T14:34:59Z</time>
      </trkpt>
      <trkpt lat="45.80394" lon="6.13642">
        <ele>760</ele>
        <time>2019-09-18T14:35:15Z</time>
      </trkpt>
      <trkpt lat="45.80403" lon="6.13646">
        <ele>757</ele>
        <time>2019-09-18T14:35:20Z</time>
      </trkpt>
      <trkpt lat="45.80398" lon="6.13657">
        <ele>757</ele>
        <time>2019-09-18T14:35:24Z</time>
      </trkpt>
      <trkpt lat="45.80405" lon="6.13666">
        <ele>754</ele>
        <time>2019-09-18T14:35:29Z</time>
      </trkpt>
      <trkpt lat="45.80414" lon="6.13668">
        <ele>751</ele>
        <time>2019-09-18T14:35:33Z</time>
      </trkpt>
      <trkpt lat="45.80423" lon="6.13665">
        <ele>750</ele>
        <time>2019-09-18T14:35:38Z</time>
      </trkpt>
      <trkpt lat="45.80453" lon="6.13665">
        <ele>747</ele>
        <time>2019-09-18T14:35:53Z</time>
      </trkpt>
      <trkpt lat="45.80473" lon="6.13657">
        <ele>746</ele>
        <time>2019-09-18T14:36:03Z</time>
      </trkpt>
      <trkpt lat="45.80483" lon="6.13656">
        <ele>745</ele>
        <time>2019-09-18T14:36:08Z</time>
      </trkpt>
      <trkpt lat="45.80492" lon="6.13651">
        <ele>744</ele>
        <time>2019-09-18T14:36:13Z</time>
      </trkpt>
      <trkpt lat="45.80501" lon="6.13651">
        <ele>743</ele>
        <time>2019-09-18T14:36:18Z</time>
      </trkpt>
      <trkpt lat="45.8051" lon="6.13654">
        <ele>742</ele>
        <time>2019-09-18T14:36:22Z</time>
      </trkpt>
      <trkpt lat="45.80529" lon="6.13669">
        <ele>737</ele>
        <time>2019-09-18T14:36:33Z</time>
      </trkpt>
      <trkpt lat="45.80534" lon="6.1368">
        <ele>735</ele>
        <time>2019-09-18T14:36:38Z</time>
      </trkpt>
      <trkpt lat="45.80547" lon="6.13736">
        <ele>725</ele>
        <time>2019-09-18T14:36:58Z</time>
      </trkpt>
      <trkpt lat="45.80555" lon="6.13744">
        <ele>722</ele>
        <time>2019-09-18T14:37:03Z</time>
      </trkpt>
      <trkpt lat="45.80584" lon="6.13738">
        <ele>719</ele>
        <time>2019-09-18T14:37:18Z</time>
      </trkpt>
      <trkpt lat="45.80601" lon="6.13759">
        <ele>713</ele>
        <time>2019-09-18T14:37:29Z</time>
      </trkpt>
      <trkpt lat="45.80611" lon="6.13765">
        <ele>711</ele>
        <time>2019-09-18T14:37:35Z</time>
      </trkpt>
      <trkpt lat="45.80611" lon="6.13794">
        <ele>708</ele>
        <time>2019-09-18T14:37:45Z</time>
      </trkpt>
      <trkpt lat="45.80599" lon="6.13814">
        <ele>707</ele>
        <time>2019-09-18T14:37:54Z</time>
      </trkpt>
      <trkpt lat="45.80603" lon="6.1384">
        <ele>704</ele>
        <time>2019-09-18T14:38:03Z</time>
      </trkpt>
      <trkpt lat="45.80609" lon="6.13851">
        <ele>702</ele>
        <time>2019-09-18T14:38:08Z</time>
      </trkpt>
      <trkpt lat="45.80619" lon="6.13854">
        <ele>700</ele>
        <time>2019-09-18T14:38:13Z</time>
      </trkpt>
      <trkpt lat="45.80626" lon="6.13866">
        <ele>697</ele>
        <time>2019-09-18T14:38:19Z</time>
      </trkpt>
      <trkpt lat="45.80629" lon="6.13921">
        <ele>692</ele>
        <time>2019-09-18T14:38:38Z</time>
      </trkpt>
      <trkpt lat="45.80651" lon="6.13967">
        <ele>684</ele>
        <time>2019-09-18T14:38:57Z</time>
      </trkpt>
      <trkpt lat="45.80652" lon="6.1398">
        <ele>683</ele>
        <time>2019-09-18T14:39:02Z</time>
      </trkpt>
      <trkpt lat="45.8066" lon="6.14004">
        <ele>679</ele>
        <time>2019-09-18T14:39:11Z</time>
      </trkpt>
      <trkpt lat="45.80668" lon="6.14013">
        <ele>675</ele>
        <time>2019-09-18T14:39:16Z</time>
      </trkpt>
      <trkpt lat="45.80678" lon="6.14012">
        <ele>673</ele>
        <time>2019-09-18T14:39:21Z</time>
      </trkpt>
      <trkpt lat="45.80679" lon="6.14025">
        <ele>671</ele>
        <time>2019-09-18T14:39:26Z</time>
      </trkpt>
      <trkpt lat="45.8067" lon="6.14051">
        <ele>668</ele>
        <time>2019-09-18T14:39:36Z</time>
      </trkpt>
      <trkpt lat="45.80654" lon="6.14066">
        <ele>669</ele>
        <time>2019-09-18T14:39:46Z</time>
      </trkpt>
      <trkpt lat="45.80641" lon="6.14086">
        <ele>668</ele>
        <time>2019-09-18T14:39:55Z</time>
      </trkpt>
      <trkpt lat="45.80633" lon="6.14092">
        <ele>668</ele>
        <time>2019-09-18T14:40:00Z</time>
      </trkpt>
      <trkpt lat="45.80604" lon="6.14104">
        <ele>671</ele>
        <time>2019-09-18T14:40:15Z</time>
      </trkpt>
      <trkpt lat="45.80594" lon="6.14104">
        <ele>673</ele>
        <time>2019-09-18T14:40:20Z</time>
      </trkpt>
      <trkpt lat="45.80554" lon="6.14117">
        <ele>679</ele>
        <time>2019-09-18T14:40:40Z</time>
      </trkpt>
      <trkpt lat="45.80545" lon="6.14122">
        <ele>680</ele>
        <time>2019-09-18T14:40:45Z</time>
      </trkpt>
      <trkpt lat="45.8052" lon="6.14146">
        <ele>680</ele>
        <time>2019-09-18T14:41:00Z</time>
      </trkpt>
      <trkpt lat="45.8051" lon="6.14147">
        <ele>682</ele>
        <time>2019-09-18T14:41:05Z</time>
      </trkpt>
      <trkpt lat="45.80492" lon="6.14154">
        <ele>684</ele>
        <time>2019-09-18T14:41:14Z</time>
      </trkpt>
      <trkpt lat="45.80484" lon="6.14162">
        <ele>684</ele>
        <time>2019-09-18T14:41:19Z</time>
      </trkpt>
      <trkpt lat="45.80473" lon="6.14168">
        <ele>684</ele>
        <time>2019-09-18T14:41:25Z</time>
      </trkpt>
      <trkpt lat="45.80462" lon="6.14165">
        <ele>686</ele>
        <time>2019-09-18T14:41:31Z</time>
      </trkpt>
      <trkpt lat="45.80421" lon="6.14171">
        <ele>691</ele>
        <time>2019-09-18T14:41:51Z</time>
      </trkpt>
      <trkpt lat="45.80346" lon="6.14148">
        <ele>705</ele>
        <time>2019-09-18T14:42:30Z</time>
      </trkpt>
      <trkpt lat="45.80337" lon="6.14147">
        <ele>706</ele>
        <time>2019-09-18T14:42:34Z</time>
      </trkpt>
      <trkpt lat="45.80313" lon="6.14152">
        <ele>707</ele>
        <time>2019-09-18T14:42:47Z</time>
      </trkpt>
      <trkpt lat="45.80293" lon="6.14161">
        <ele>707</ele>
        <time>2019-09-18T14:42:57Z</time>
      </trkpt>
      <trkpt lat="45.80275" lon="6.14173">
        <ele>707</ele>
        <time>2019-09-18T14:43:07Z</time>
      </trkpt>
      <trkpt lat="45.80255" lon="6.14173">
        <ele>708</ele>
        <time>2019-09-18T14:43:17Z</time>
      </trkpt>
      <trkpt lat="45.8022" lon="6.14156">
        <ele>711</ele>
        <time>2019-09-18T14:43:35Z</time>
      </trkpt>
      <trkpt lat="45.80198" lon="6.14161">
        <ele>710</ele>
        <time>2019-09-18T14:43:47Z</time>
      </trkpt>
      <trkpt lat="45.8019" lon="6.14166">
        <ele>710</ele>
        <time>2019-09-18T14:43:51Z</time>
      </trkpt>
      <trkpt lat="45.80158" lon="6.14175">
        <ele>709</ele>
        <time>2019-09-18T14:44:07Z</time>
      </trkpt>
      <trkpt lat="45.80148" lon="6.14181">
        <ele>708</ele>
        <time>2019-09-18T14:44:13Z</time>
      </trkpt>
      <trkpt lat="45.80126" lon="6.14183">
        <ele>707</ele>
        <time>2019-09-18T14:44:24Z</time>
      </trkpt>
      <trkpt lat="45.80116" lon="6.14182">
        <ele>707</ele>
        <time>2019-09-18T14:44:29Z</time>
      </trkpt>
      <trkpt lat="45.80095" lon="6.14172">
        <ele>708</ele>
        <time>2019-09-18T14:44:40Z</time>
      </trkpt>
      <trkpt lat="45.80085" lon="6.14172">
        <ele>708</ele>
        <time>2019-09-18T14:44:45Z</time>
      </trkpt>
      <trkpt lat="45.80077" lon="6.14165">
        <ele>708</ele>
        <time>2019-09-18T14:44:50Z</time>
      </trkpt>
      <trkpt lat="45.80071" lon="6.14154">
        <ele>709</ele>
        <time>2019-09-18T14:44:54Z</time>
      </trkpt>
      <trkpt lat="45.80066" lon="6.14114">
        <ele>714</ele>
        <time>2019-09-18T14:45:09Z</time>
      </trkpt>
      <trkpt lat="45.80059" lon="6.14104">
        <ele>714</ele>
        <time>2019-09-18T14:45:14Z</time>
      </trkpt>
      <trkpt lat="45.80049" lon="6.14096">
        <ele>715</ele>
        <time>2019-09-18T14:45:19Z</time>
      </trkpt>
      <trkpt lat="45.80039" lon="6.14095">
        <ele>714</ele>
        <time>2019-09-18T14:45:24Z</time>
      </trkpt>
      <trkpt lat="45.80021" lon="6.1411">
        <ele>710</ele>
        <time>2019-09-18T14:45:35Z</time>
      </trkpt>
      <trkpt lat="45.80012" lon="6.14112">
        <ele>709</ele>
        <time>2019-09-18T14:45:39Z</time>
      </trkpt>
      <trkpt lat="45.79992" lon="6.14076">
        <ele>714</ele>
        <time>2019-09-18T14:45:55Z</time>
      </trkpt>
      <trkpt lat="45.79983" lon="6.1407">
        <ele>714</ele>
        <time>2019-09-18T14:46:00Z</time>
      </trkpt>
      <trkpt lat="45.79963" lon="6.14061">
        <ele>715</ele>
        <time>2019-09-18T14:46:11Z</time>
      </trkpt>
      <trkpt lat="45.79942" lon="6.14055">
        <ele>714</ele>
        <time>2019-09-18T14:46:21Z</time>
      </trkpt>
      <trkpt lat="45.79921" lon="6.14055">
        <ele>712</ele>
        <time>2019-09-18T14:46:32Z</time>
      </trkpt>
      <trkpt lat="45.79898" lon="6.14062">
        <ele>716</ele>
        <time>2019-09-18T14:46:44Z</time>
      </trkpt>
      <trkpt lat="45.79885" lon="6.14082">
        <ele>717</ele>
        <time>2019-09-18T14:46:53Z</time>
      </trkpt>
      <trkpt lat="45.79881" lon="6.14128">
        <ele>712</ele>
        <time>2019-09-18T14:47:09Z</time>
      </trkpt>
      <trkpt lat="45.79877" lon="6.14142">
        <ele>711</ele>
        <time>2019-09-18T14:47:15Z</time>
      </trkpt>
      <trkpt lat="45.79869" lon="6.14151">
        <ele>711</ele>
        <time>2019-09-18T14:47:20Z</time>
      </trkpt>
      <trkpt lat="45.79861" lon="6.14155">
        <ele>712</ele>
        <time>2019-09-18T14:47:24Z</time>
      </trkpt>
      <trkpt lat="45.79849" lon="6.14156">
        <ele>715</ele>
        <time>2019-09-18T14:47:30Z</time>
      </trkpt>
      <trkpt lat="45.79829" lon="6.14148">
        <ele>719</ele>
        <time>2019-09-18T14:47:40Z</time>
      </trkpt>
      <trkpt lat="45.79808" lon="6.1415">
        <ele>718</ele>
        <time>2019-09-18T14:47:51Z</time>
      </trkpt>
      <trkpt lat="45.79798" lon="6.14154">
        <ele>717</ele>
        <time>2019-09-18T14:47:56Z</time>
      </trkpt>
      <trkpt lat="45.7979" lon="6.14162">
        <ele>715</ele>
        <time>2019-09-18T14:48:01Z</time>
      </trkpt>
      <trkpt lat="45.79781" lon="6.14164">
        <ele>714</ele>
        <time>2019-09-18T14:48:06Z</time>
      </trkpt>
      <trkpt lat="45.79778" lon="6.14151">
        <ele>717</ele>
        <time>2019-09-18T14:48:10Z</time>
      </trkpt>
      <trkpt lat="45.79772" lon="6.14142">
        <ele>719</ele>
        <time>2019-09-18T14:48:15Z</time>
      </trkpt>
      <trkpt lat="45.79762" lon="6.14142">
        <ele>718</ele>
        <time>2019-09-18T14:48:20Z</time>
      </trkpt>
      <trkpt lat="45.79758" lon="6.14156">
        <ele>715</ele>
        <time>2019-09-18T14:48:25Z</time>
      </trkpt>
      <trkpt lat="45.7976" lon="6.1417">
        <ele>712</ele>
        <time>2019-09-18T14:48:30Z</time>
      </trkpt>
      <trkpt lat="45.79755" lon="6.14182">
        <ele>709</ele>
        <time>2019-09-18T14:48:35Z</time>
      </trkpt>
      <trkpt lat="45.79737" lon="6.14178">
        <ele>710</ele>
        <time>2019-09-18T14:48:44Z</time>
      </trkpt>
      <trkpt lat="45.79717" lon="6.14185">
        <ele>709</ele>
        <time>2019-09-18T14:48:54Z</time>
      </trkpt>
      <trkpt lat="45.79727" lon="6.14225">
        <ele>699</ele>
        <time>2019-09-18T14:49:09Z</time>
      </trkpt>
      <trkpt lat="45.79726" lon="6.14238">
        <ele>696</ele>
        <time>2019-09-18T14:49:14Z</time>
      </trkpt>
      <trkpt lat="45.79716" lon="6.14262">
        <ele>691</ele>
        <time>2019-09-18T14:49:23Z</time>
      </trkpt>
      <trkpt lat="45.797" lon="6.14279">
        <ele>689</ele>
        <time>2019-09-18T14:49:33Z</time>
      </trkpt>
      <trkpt lat="45.79692" lon="6.14282">
        <ele>689</ele>
        <time>2019-09-18T14:49:38Z</time>
      </trkpt>
      <trkpt lat="45.79683" lon="6.1429">
        <ele>689</ele>
        <time>2019-09-18T14:49:43Z</time>
      </trkpt>
      <trkpt lat="45.79655" lon="6.14303">
        <ele>690</ele>
        <time>2019-09-18T14:49:58Z</time>
      </trkpt>
      <trkpt lat="45.79645" lon="6.14298">
        <ele>691</ele>
        <time>2019-09-18T14:50:03Z</time>
      </trkpt>
      <trkpt lat="45.79638" lon="6.14287">
        <ele>691</ele>
        <time>2019-09-18T14:50:08Z</time>
      </trkpt>
      <trkpt lat="45.79622" lon="6.14272">
        <ele>692</ele>
        <time>2019-09-18T14:50:18Z</time>
      </trkpt>
      <trkpt lat="45.79615" lon="6.14262">
        <ele>692</ele>
        <time>2019-09-18T14:50:23Z</time>
      </trkpt>
      <trkpt lat="45.79605" lon="6.14257">
        <ele>692</ele>
        <time>2019-09-18T14:50:28Z</time>
      </trkpt>
      <trkpt lat="45.79589" lon="6.14273">
        <ele>694</ele>
        <time>2019-09-18T14:50:38Z</time>
      </trkpt>
      <trkpt lat="45.79576" lon="6.14279">
        <ele>696</ele>
        <time>2019-09-18T14:50:44Z</time>
      </trkpt>
      <trkpt lat="45.79547" lon="6.14299">
        <ele>699</ele>
        <time>2019-09-18T14:51:01Z</time>
      </trkpt>
      <trkpt lat="45.79523" lon="6.14327">
        <ele>701</ele>
        <time>2019-09-18T14:51:16Z</time>
      </trkpt>
      <trkpt lat="45.79508" lon="6.1436">
        <ele>705</ele>
        <time>2019-09-18T14:51:30Z</time>
      </trkpt>
      <trkpt lat="45.79504" lon="6.14375">
        <ele>707</ele>
        <time>2019-09-18T14:51:35Z</time>
      </trkpt>
      <trkpt lat="45.79511" lon="6.14366">
        <ele>706</ele>
        <time>2019-09-18T14:51:40Z</time>
      </trkpt>
      <trkpt lat="45.79542" lon="6.14366">
        <ele>705</ele>
        <time>2019-09-18T14:51:56Z</time>
      </trkpt>
      <trkpt lat="45.79561" lon="6.1437">
        <ele>706</ele>
        <time>2019-09-18T14:52:05Z</time>
      </trkpt>
      <trkpt lat="45.79571" lon="6.14368">
        <ele>705</ele>
        <time>2019-09-18T14:52:10Z</time>
      </trkpt>
      <trkpt lat="45.79581" lon="6.14373">
        <ele>706</ele>
        <time>2019-09-18T14:52:16Z</time>
      </trkpt>
      <trkpt lat="45.79625" lon="6.14409">
        <ele>709</ele>
        <time>2019-09-18T14:52:41Z</time>
      </trkpt>
      <trkpt lat="45.79633" lon="6.1442">
        <ele>710</ele>
        <time>2019-09-18T14:52:46Z</time>
      </trkpt>
      <trkpt lat="45.79644" lon="6.14461">
        <ele>714</ele>
        <time>2019-09-18T14:53:02Z</time>
      </trkpt>
      <trkpt lat="45.79642" lon="6.14491">
        <ele>717</ele>
        <time>2019-09-18T14:53:12Z</time>
      </trkpt>
      <trkpt lat="45.79635" lon="6.1452">
        <ele>720</ele>
        <time>2019-09-18T14:53:23Z</time>
      </trkpt>
      <trkpt lat="45.79634" lon="6.14551">
        <ele>721</ele>
        <time>2019-09-18T14:53:34Z</time>
      </trkpt>
      <trkpt lat="45.79627" lon="6.14577">
        <ele>723</ele>
        <time>2019-09-18T14:53:44Z</time>
      </trkpt>
      <trkpt lat="45.79631" lon="6.14645">
        <ele>725</ele>
        <time>2019-09-18T14:54:07Z</time>
      </trkpt>
      <trkpt lat="45.79636" lon="6.1467">
        <ele>725</ele>
        <time>2019-09-18T14:54:16Z</time>
      </trkpt>
      <trkpt lat="45.79635" lon="6.1468">
        <ele>726</ele>
        <time>2019-09-18T14:54:20Z</time>
      </trkpt>
      <trkpt lat="45.79613" lon="6.1475">
        <ele>729</ele>
        <time>2019-09-18T14:54:47Z</time>
      </trkpt>
      <trkpt lat="45.79613" lon="6.14763">
        <ele>729</ele>
        <time>2019-09-18T14:54:51Z</time>
      </trkpt>
      <trkpt lat="45.79617" lon="6.14779">
        <ele>729</ele>
        <time>2019-09-18T14:54:57Z</time>
      </trkpt>
      <trkpt lat="45.79628" lon="6.14804">
        <ele>728</ele>
        <time>2019-09-18T14:55:08Z</time>
      </trkpt>
      <trkpt lat="45.79626" lon="6.14819">
        <ele>728</ele>
        <time>2019-09-18T14:55:13Z</time>
      </trkpt>
      <trkpt lat="45.79615" lon="6.14842">
        <ele>729</ele>
        <time>2019-09-18T14:55:23Z</time>
      </trkpt>
      <trkpt lat="45.79603" lon="6.14857">
        <ele>730</ele>
        <time>2019-09-18T14:55:31Z</time>
      </trkpt>
      <trkpt lat="45.79565" lon="6.14842">
        <ele>734</ele>
        <time>2019-09-18T14:55:50Z</time>
      </trkpt>
      <trkpt lat="45.7955" lon="6.14849">
        <ele>735</ele>
        <time>2019-09-18T14:55:58Z</time>
      </trkpt>
      <trkpt lat="45.79533" lon="6.14845">
        <ele>737</ele>
        <time>2019-09-18T14:56:07Z</time>
      </trkpt>
      <trkpt lat="45.79442" lon="6.14855">
        <ele>749</ele>
        <time>2019-09-18T14:56:53Z</time>
      </trkpt>
      <trkpt lat="45.79423" lon="6.1486">
        <ele>753</ele>
        <time>2019-09-18T14:57:02Z</time>
      </trkpt>
      <trkpt lat="45.79404" lon="6.1487">
        <ele>755</ele>
        <time>2019-09-18T14:57:12Z</time>
      </trkpt>
      <trkpt lat="45.79372" lon="6.14879">
        <ele>761</ele>
        <time>2019-09-18T14:57:29Z</time>
      </trkpt>
      <trkpt lat="45.79363" lon="6.14876">
        <ele>762</ele>
        <time>2019-09-18T14:57:33Z</time>
      </trkpt>
      <trkpt lat="45.79352" lon="6.14877">
        <ele>764</ele>
        <time>2019-09-18T14:57:39Z</time>
      </trkpt>
      <trkpt lat="45.79342" lon="6.14875">
        <ele>766</ele>
        <time>2019-09-18T14:57:44Z</time>
      </trkpt>
      <trkpt lat="45.79323" lon="6.14867">
        <ele>769</ele>
        <time>2019-09-18T14:57:54Z</time>
      </trkpt>
      <trkpt lat="45.79295" lon="6.14867">
        <ele>773</ele>
        <time>2019-09-18T14:58:08Z</time>
      </trkpt>
      <trkpt lat="45.79287" lon="6.14873">
        <ele>774</ele>
        <time>2019-09-18T14:58:12Z</time>
      </trkpt>
      <trkpt lat="45.79271" lon="6.14891">
        <ele>775</ele>
        <time>2019-09-18T14:58:22Z</time>
      </trkpt>
      <trkpt lat="45.79258" lon="6.14914">
        <ele>776</ele>
        <time>2019-09-18T14:58:33Z</time>
      </trkpt>
      <trkpt lat="45.79253" lon="6.14929">
        <ele>777</ele>
        <time>2019-09-18T14:58:39Z</time>
      </trkpt>
      <trkpt lat="45.79254" lon="6.14951">
        <ele>777</ele>
        <time>2019-09-18T14:58:46Z</time>
      </trkpt>
      <trkpt lat="45.79249" lon="6.14973">
        <ele>779</ele>
        <time>2019-09-18T14:58:54Z</time>
      </trkpt>
      <trkpt lat="45.79231" lon="6.15012">
        <ele>783</ele>
        <time>2019-09-18T14:59:11Z</time>
      </trkpt>
      <trkpt lat="45.79224" lon="6.15039">
        <ele>784</ele>
        <time>2019-09-18T14:59:21Z</time>
      </trkpt>
      <trkpt lat="45.79208" lon="6.15075">
        <ele>788</ele>
        <time>2019-09-18T14:59:36Z</time>
      </trkpt>
      <trkpt lat="45.79182" lon="6.1512">
        <ele>794</ele>
        <time>2019-09-18T14:59:56Z</time>
      </trkpt>
      <trkpt lat="45.79159" lon="6.1515">
        <ele>797</ele>
        <time>2019-09-18T15:00:12Z</time>
      </trkpt>
      <trkpt lat="45.79134" lon="6.15199">
        <ele>804</ele>
        <time>2019-09-18T15:00:33Z</time>
      </trkpt>
      <trkpt lat="45.79133" lon="6.15213">
        <ele>805</ele>
        <time>2019-09-18T15:00:38Z</time>
      </trkpt>
      <trkpt lat="45.79148" lon="6.15232">
        <ele>803</ele>
        <time>2019-09-18T15:00:48Z</time>
      </trkpt>
      <trkpt lat="45.79176" lon="6.15248">
        <ele>800</ele>
        <time>2019-09-18T15:01:03Z</time>
      </trkpt>
      <trkpt lat="45.79196" lon="6.15246">
        <ele>798</ele>
        <time>2019-09-18T15:01:13Z</time>
      </trkpt>
      <trkpt lat="45.79205" lon="6.1525">
        <ele>797</ele>
        <time>2019-09-18T15:01:17Z</time>
      </trkpt>
      <trkpt lat="45.79213" lon="6.15259">
        <ele>799</ele>
        <time>2019-09-18T15:01:23Z</time>
      </trkpt>
      <trkpt lat="45.79233" lon="6.15262">
        <ele>797</ele>
        <time>2019-09-18T15:01:33Z</time>
      </trkpt>
      <trkpt lat="45.7926" lon="6.15279">
        <ele>800</ele>
        <time>2019-09-18T15:01:47Z</time>
      </trkpt>
      <trkpt lat="45.7929" lon="6.15317">
        <ele>810</ele>
        <time>2019-09-18T15:02:07Z</time>
      </trkpt>
      <trkpt lat="45.793" lon="6.15343">
        <ele>815</ele>
        <time>2019-09-18T15:02:18Z</time>
      </trkpt>
      <trkpt lat="45.79308" lon="6.15351">
        <ele>817</ele>
        <time>2019-09-18T15:02:23Z</time>
      </trkpt>
      <trkpt lat="45.79312" lon="6.15365">
        <ele>819</ele>
        <time>2019-09-18T15:02:28Z</time>
      </trkpt>
      <trkpt lat="45.79322" lon="6.15369">
        <ele>820</ele>
        <time>2019-09-18T15:02:33Z</time>
      </trkpt>
      <trkpt lat="45.7934" lon="6.15361">
        <ele>818</ele>
        <time>2019-09-18T15:02:43Z</time>
      </trkpt>
      <trkpt lat="45.7935" lon="6.15363">
        <ele>817</ele>
        <time>2019-09-18T15:02:48Z</time>
      </trkpt>
      <trkpt lat="45.7937" lon="6.15375">
        <ele>816</ele>
        <time>2019-09-18T15:02:58Z</time>
      </trkpt>
      <trkpt lat="45.79418" lon="6.15424">
        <ele>809</ele>
        <time>2019-09-18T15:03:28Z</time>
      </trkpt>
      <trkpt lat="45.79422" lon="6.15439">
        <ele>807</ele>
        <time>2019-09-18T15:03:34Z</time>
      </trkpt>
      <trkpt lat="45.7942" lon="6.15452">
        <ele>808</ele>
        <time>2019-09-18T15:03:38Z</time>
      </trkpt>
      <trkpt lat="45.79421" lon="6.15467">
        <ele>807</ele>
        <time>2019-09-18T15:03:43Z</time>
      </trkpt>
      <trkpt lat="45.79428" lon="6.15505">
        <ele>804</ele>
        <time>2019-09-18T15:03:57Z</time>
      </trkpt>
      <trkpt lat="45.79416" lon="6.1555">
        <ele>807</ele>
        <time>2019-09-18T15:04:14Z</time>
      </trkpt>
      <trkpt lat="45.79415" lon="6.15567">
        <ele>808</ele>
        <time>2019-09-18T15:04:20Z</time>
      </trkpt>
      <trkpt lat="45.7942" lon="6.15623">
        <ele>809</ele>
        <time>2019-09-18T15:04:40Z</time>
      </trkpt>
      <trkpt lat="45.79428" lon="6.15617">
        <ele>808</ele>
        <time>2019-09-18T15:04:44Z</time>
      </trkpt>
      <trkpt lat="45.79441" lon="6.15596">
        <ele>805</ele>
        <time>2019-09-18T15:04:54Z</time>
      </trkpt>
      <trkpt lat="45.7945" lon="6.15592">
        <ele>803</ele>
        <time>2019-09-18T15:04:59Z</time>
      </trkpt>
      <trkpt lat="45.79471" lon="6.15596">
        <ele>801</ele>
        <time>2019-09-18T15:05:09Z</time>
      </trkpt>
      <trkpt lat="45.79489" lon="6.15583">
        <ele>797</ele>
        <time>2019-09-18T15:05:19Z</time>
      </trkpt>
      <trkpt lat="45.795" lon="6.15581">
        <ele>795</ele>
        <time>2019-09-18T15:05:25Z</time>
      </trkpt>
      <trkpt lat="45.79508" lon="6.15586">
        <ele>796</ele>
        <time>2019-09-18T15:05:29Z</time>
      </trkpt>
      <trkpt lat="45.79517" lon="6.15587">
        <ele>797</ele>
        <time>2019-09-18T15:05:34Z</time>
      </trkpt>
      <trkpt lat="45.79526" lon="6.15582">
        <ele>797</ele>
        <time>2019-09-18T15:05:39Z</time>
      </trkpt>
      <trkpt lat="45.79547" lon="6.1558">
        <ele>798</ele>
        <time>2019-09-18T15:05:49Z</time>
      </trkpt>
      <trkpt lat="45.79556" lon="6.15576">
        <ele>798</ele>
        <time>2019-09-18T15:05:54Z</time>
      </trkpt>
      <trkpt lat="45.79567" lon="6.15575">
        <ele>799</ele>
        <time>2019-09-18T15:05:59Z</time>
      </trkpt>
      <trkpt lat="45.79585" lon="6.15581">
        <ele>801</ele>
        <time>2019-09-18T15:06:09Z</time>
      </trkpt>
      <trkpt lat="45.79593" lon="6.15588">
        <ele>802</ele>
        <time>2019-09-18T15:06:13Z</time>
      </trkpt>
      <trkpt lat="45.79589" lon="6.156">
        <ele>805</ele>
        <time>2019-09-18T15:06:18Z</time>
      </trkpt>
      <trkpt lat="45.79574" lon="6.15621">
        <ele>810</ele>
        <time>2019-09-18T15:06:28Z</time>
      </trkpt>
      <trkpt lat="45.79565" lon="6.15645">
        <ele>815</ele>
        <time>2019-09-18T15:06:38Z</time>
      </trkpt>
      <trkpt lat="45.79551" lon="6.15667">
        <ele>820</ele>
        <time>2019-09-18T15:06:48Z</time>
      </trkpt>
      <trkpt lat="45.79549" lon="6.1568">
        <ele>823</ele>
        <time>2019-09-18T15:06:53Z</time>
      </trkpt>
      <trkpt lat="45.79541" lon="6.15689">
        <ele>825</ele>
        <time>2019-09-18T15:06:58Z</time>
      </trkpt>
      <trkpt lat="45.79532" lon="6.15694">
        <ele>826</ele>
        <time>2019-09-18T15:07:03Z</time>
      </trkpt>
      <trkpt lat="45.79525" lon="6.15703">
        <ele>829</ele>
        <time>2019-09-18T15:07:08Z</time>
      </trkpt>
      <trkpt lat="45.79498" lon="6.15721">
        <ele>833</ele>
        <time>2019-09-18T15:07:23Z</time>
      </trkpt>
      <trkpt lat="45.79473" lon="6.15746">
        <ele>837</ele>
        <time>2019-09-18T15:07:38Z</time>
      </trkpt>
      <trkpt lat="45.79466" lon="6.15758">
        <ele>839</ele>
        <time>2019-09-18T15:07:43Z</time>
      </trkpt>
      <trkpt lat="45.79465" lon="6.15772">
        <ele>842</ele>
        <time>2019-09-18T15:07:48Z</time>
      </trkpt>
      <trkpt lat="45.79451" lon="6.15814">
        <ele>851</ele>
        <time>2019-09-18T15:08:04Z</time>
      </trkpt>
      <trkpt lat="45.79419" lon="6.15884">
        <ele>863</ele>
        <time>2019-09-18T15:08:34Z</time>
      </trkpt>
      <trkpt lat="45.79395" lon="6.15904">
        <ele>865</ele>
        <time>2019-09-18T15:08:47Z</time>
      </trkpt>
      <trkpt lat="45.79373" lon="6.1591">
        <ele>863</ele>
        <time>2019-09-18T15:08:59Z</time>
      </trkpt>
      <trkpt lat="45.79367" lon="6.1592">
        <ele>865</ele>
        <time>2019-09-18T15:09:03Z</time>
      </trkpt>
      <trkpt lat="45.79358" lon="6.15926">
        <ele>866</ele>
        <time>2019-09-18T15:09:08Z</time>
      </trkpt>
      <trkpt lat="45.79348" lon="6.15927">
        <ele>865</ele>
        <time>2019-09-18T15:09:13Z</time>
      </trkpt>
      <trkpt lat="45.79332" lon="6.15943">
        <ele>868</ele>
        <time>2019-09-18T15:09:23Z</time>
      </trkpt>
      <trkpt lat="45.79322" lon="6.15948">
        <ele>869</ele>
        <time>2019-09-18T15:09:28Z</time>
      </trkpt>
      <trkpt lat="45.79313" lon="6.15948">
        <ele>869</ele>
        <time>2019-09-18T15:09:33Z</time>
      </trkpt>
      <trkpt lat="45.79303" lon="6.15952">
        <ele>869</ele>
        <time>2019-09-18T15:09:38Z</time>
      </trkpt>
      <trkpt lat="45.79286" lon="6.15964">
        <ele>871</ele>
        <time>2019-09-18T15:09:48Z</time>
      </trkpt>
      <trkpt lat="45.7927" lon="6.15984">
        <ele>876</ele>
        <time>2019-09-18T15:09:58Z</time>
      </trkpt>
      <trkpt lat="45.79261" lon="6.15991">
        <ele>877</ele>
        <time>2019-09-18T15:10:03Z</time>
      </trkpt>
      <trkpt lat="45.79232" lon="6.16028">
        <ele>886</ele>
        <time>2019-09-18T15:10:23Z</time>
      </trkpt>
      <trkpt lat="45.79214" lon="6.16077">
        <ele>898</ele>
        <time>2019-09-18T15:10:42Z</time>
      </trkpt>
      <trkpt lat="45.79213" lon="6.16103">
        <ele>905</ele>
        <time>2019-09-18T15:10:51Z</time>
      </trkpt>
      <trkpt lat="45.7922" lon="6.16093">
        <ele>902</ele>
        <time>2019-09-18T15:10:56Z</time>
      </trkpt>
      <trkpt lat="45.7923" lon="6.16091">
        <ele>902</ele>
        <time>2019-09-18T15:11:01Z</time>
      </trkpt>
      <trkpt lat="45.7924" lon="6.16084">
        <ele>900</ele>
        <time>2019-09-18T15:11:07Z</time>
      </trkpt>
      <trkpt lat="45.79288" lon="6.16073">
        <ele>903</ele>
        <time>2019-09-18T15:11:31Z</time>
      </trkpt>
      <trkpt lat="45.7934" lon="6.16054">
        <ele>904</ele>
        <time>2019-09-18T15:11:58Z</time>
      </trkpt>
      <trkpt lat="45.7939" lon="6.16045">
        <ele>905</ele>
        <time>2019-09-18T15:12:23Z</time>
      </trkpt>
      <trkpt lat="45.79432" lon="6.16044">
        <ele>904</ele>
        <time>2019-09-18T15:12:44Z</time>
      </trkpt>
      <trkpt lat="45.79451" lon="6.1605">
        <ele>902</ele>
        <time>2019-09-18T15:12:54Z</time>
      </trkpt>
      <trkpt lat="45.79466" lon="6.16071">
        <ele>901</ele>
        <time>2019-09-18T15:13:04Z</time>
      </trkpt>
      <trkpt lat="45.79473" lon="6.16087">
        <ele>901</ele>
        <time>2019-09-18T15:13:11Z</time>
      </trkpt>
      <trkpt lat="45.79473" lon="6.16116">
        <ele>903</ele>
        <time>2019-09-18T15:13:21Z</time>
      </trkpt>
      <trkpt lat="45.79469" lon="6.16132">
        <ele>905</ele>
        <time>2019-09-18T15:13:27Z</time>
      </trkpt>
      <trkpt lat="45.79474" lon="6.16159">
        <ele>905</ele>
        <time>2019-09-18T15:13:37Z</time>
      </trkpt>
      <trkpt lat="45.79479" lon="6.16171">
        <ele>903</ele>
        <time>2019-09-18T15:13:42Z</time>
      </trkpt>
      <trkpt lat="45.7948" lon="6.16186">
        <ele>902</ele>
        <time>2019-09-18T15:13:47Z</time>
      </trkpt>
      <trkpt lat="45.79471" lon="6.16233">
        <ele>903</ele>
        <time>2019-09-18T15:14:04Z</time>
      </trkpt>
      <trkpt lat="45.79469" lon="6.16264">
        <ele>902</ele>
        <time>2019-09-18T15:14:15Z</time>
      </trkpt>
      <trkpt lat="45.79473" lon="6.16278">
        <ele>900</ele>
        <time>2019-09-18T15:14:20Z</time>
      </trkpt>
      <trkpt lat="45.79486" lon="6.16306">
        <ele>895</ele>
        <time>2019-09-18T15:14:32Z</time>
      </trkpt>
      <trkpt lat="45.79505" lon="6.1632">
        <ele>889</ele>
        <time>2019-09-18T15:14:42Z</time>
      </trkpt>
      <trkpt lat="45.79523" lon="6.16341">
        <ele>885</ele>
        <time>2019-09-18T15:14:54Z</time>
      </trkpt>
      <trkpt lat="45.79529" lon="6.16352">
        <ele>884</ele>
        <time>2019-09-18T15:14:59Z</time>
      </trkpt>
      <trkpt lat="45.79548" lon="6.1635">
        <ele>880</ele>
        <time>2019-09-18T15:15:08Z</time>
      </trkpt>
      <trkpt lat="45.79563" lon="6.16329">
        <ele>875</ele>
        <time>2019-09-18T15:15:19Z</time>
      </trkpt>
      <trkpt lat="45.79573" lon="6.1632">
        <ele>873</ele>
        <time>2019-09-18T15:15:25Z</time>
      </trkpt>
      <trkpt lat="45.79582" lon="6.16318">
        <ele>871</ele>
        <time>2019-09-18T15:15:29Z</time>
      </trkpt>
      <trkpt lat="45.79603" lon="6.1633">
        <ele>866</ele>
        <time>2019-09-18T15:15:41Z</time>
      </trkpt>
      <trkpt lat="45.79612" lon="6.16338">
        <ele>865</ele>
        <time>2019-09-18T15:15:46Z</time>
      </trkpt>
      <trkpt lat="45.79626" lon="6.16363">
        <ele>864</ele>
        <time>2019-09-18T15:15:57Z</time>
      </trkpt>
      <trkpt lat="45.79637" lon="6.16404">
        <ele>865</ele>
        <time>2019-09-18T15:16:12Z</time>
      </trkpt>
      <trkpt lat="45.79641" lon="6.16435">
        <ele>869</ele>
        <time>2019-09-18T15:16:23Z</time>
      </trkpt>
      <trkpt lat="45.79647" lon="6.16446">
        <ele>870</ele>
        <time>2019-09-18T15:16:28Z</time>
      </trkpt>
      <trkpt lat="45.79675" lon="6.16434">
        <ele>864</ele>
        <time>2019-09-18T15:16:43Z</time>
      </trkpt>
      <trkpt lat="45.79713" lon="6.16408">
        <ele>852</ele>
        <time>2019-09-18T15:17:04Z</time>
      </trkpt>
      <trkpt lat="45.79723" lon="6.16408">
        <ele>851</ele>
        <time>2019-09-18T15:17:09Z</time>
      </trkpt>
      <trkpt lat="45.79753" lon="6.16417">
        <ele>848</ele>
        <time>2019-09-18T15:17:24Z</time>
      </trkpt>
      <trkpt lat="45.79757" lon="6.16433">
        <ele>851</ele>
        <time>2019-09-18T15:17:30Z</time>
      </trkpt>
      <trkpt lat="45.79755" lon="6.16446">
        <ele>854</ele>
        <time>2019-09-18T15:17:35Z</time>
      </trkpt>
      <trkpt lat="45.79756" lon="6.1646">
        <ele>857</ele>
        <time>2019-09-18T15:17:40Z</time>
      </trkpt>
      <trkpt lat="45.79745" lon="6.16483">
        <ele>864</ele>
        <time>2019-09-18T15:17:50Z</time>
      </trkpt>
      <trkpt lat="45.79749" lon="6.16496">
        <ele>866</ele>
        <time>2019-09-18T15:17:55Z</time>
      </trkpt>
      <trkpt lat="45.79748" lon="6.1651">
        <ele>869</ele>
        <time>2019-09-18T15:17:59Z</time>
      </trkpt>
      <trkpt lat="45.79743" lon="6.16524">
        <ele>873</ele>
        <time>2019-09-18T15:18:05Z</time>
      </trkpt>
      <trkpt lat="45.79743" lon="6.16538">
        <ele>876</ele>
        <time>2019-09-18T15:18:10Z</time>
      </trkpt>
      <trkpt lat="45.7973" lon="6.16559">
        <ele>881</ele>
        <time>2019-09-18T15:18:20Z</time>
      </trkpt>
      <trkpt lat="45.79714" lon="6.16577">
        <ele>886</ele>
        <time>2019-09-18T15:18:30Z</time>
      </trkpt>
      <trkpt lat="45.79683" lon="6.16632">
        <ele>898</ele>
        <time>2019-09-18T15:18:55Z</time>
      </trkpt>
      <trkpt lat="45.79675" lon="6.16642">
        <ele>900</ele>
        <time>2019-09-18T15:19:00Z</time>
      </trkpt>
      <trkpt lat="45.79668" lon="6.16712">
        <ele>912</ele>
        <time>2019-09-18T15:19:24Z</time>
      </trkpt>
      <trkpt lat="45.79671" lon="6.16727">
        <ele>914</ele>
        <time>2019-09-18T15:19:30Z</time>
      </trkpt>
      <trkpt lat="45.7967" lon="6.16741">
        <ele>917</ele>
        <time>2019-09-18T15:19:35Z</time>
      </trkpt>
      <trkpt lat="45.79664" lon="6.16752">
        <ele>919</ele>
        <time>2019-09-18T15:19:40Z</time>
      </trkpt>
      <trkpt lat="45.79646" lon="6.16767">
        <ele>923</ele>
        <time>2019-09-18T15:19:50Z</time>
      </trkpt>
      <trkpt lat="45.7963" lon="6.16801">
        <ele>932</ele>
        <time>2019-09-18T15:20:04Z</time>
      </trkpt>
      <trkpt lat="45.79632" lon="6.16829">
        <ele>938</ele>
        <time>2019-09-18T15:20:14Z</time>
      </trkpt>
      <trkpt lat="45.7962" lon="6.16852">
        <ele>945</ele>
        <time>2019-09-18T15:20:24Z</time>
      </trkpt>
      <trkpt lat="45.79617" lon="6.16864">
        <ele>949</ele>
        <time>2019-09-18T15:20:29Z</time>
      </trkpt>
      <trkpt lat="45.79609" lon="6.16872">
        <ele>952</ele>
        <time>2019-09-18T15:20:34Z</time>
      </trkpt>
      <trkpt lat="45.79599" lon="6.16877">
        <ele>954</ele>
        <time>2019-09-18T15:20:39Z</time>
      </trkpt>
      <trkpt lat="45.79593" lon="6.16886">
        <ele>957</ele>
        <time>2019-09-18T15:20:43Z</time>
      </trkpt>
      <trkpt lat="45.7959" lon="6.16899">
        <ele>961</ele>
        <time>2019-09-18T15:20:48Z</time>
      </trkpt>
      <trkpt lat="45.79584" lon="6.1691">
        <ele>964</ele>
        <time>2019-09-18T15:20:53Z</time>
      </trkpt>
      <trkpt lat="45.79583" lon="6.16937">
        <ele>970</ele>
        <time>2019-09-18T15:21:02Z</time>
      </trkpt>
      <trkpt lat="45.79576" lon="6.16947">
        <ele>974</ele>
        <time>2019-09-18T15:21:07Z</time>
      </trkpt>
      <trkpt lat="45.79564" lon="6.16984">
        <ele>984</ele>
        <time>2019-09-18T15:21:22Z</time>
      </trkpt>
      <trkpt lat="45.79556" lon="6.16991">
        <ele>988</ele>
        <time>2019-09-18T15:21:26Z</time>
      </trkpt>
      <trkpt lat="45.79551" lon="6.17018">
        <ele>995</ele>
        <time>2019-09-18T15:21:36Z</time>
      </trkpt>
      <trkpt lat="45.79552" lon="6.17032">
        <ele>997</ele>
        <time>2019-09-18T15:21:41Z</time>
      </trkpt>
      <trkpt lat="45.7956" lon="6.17041">
        <ele>996</ele>
        <time>2019-09-18T15:21:46Z</time>
      </trkpt>
      <trkpt lat="45.79546" lon="6.17057">
        <ele>1004</ele>
        <time>2019-09-18T15:21:55Z</time>
      </trkpt>
      <trkpt lat="45.7954" lon="6.17068">
        <ele>1008</ele>
        <time>2019-09-18T15:22:00Z</time>
      </trkpt>
      <trkpt lat="45.79519" lon="6.17074">
        <ele>1016</ele>
        <time>2019-09-18T15:22:11Z</time>
      </trkpt>
      <trkpt lat="45.79505" lon="6.17056">
        <ele>1018</ele>
        <time>2019-09-18T15:22:20Z</time>
      </trkpt>
      <trkpt lat="45.79495" lon="6.17054">
        <ele>1021</ele>
        <time>2019-09-18T15:22:25Z</time>
      </trkpt>
      <trkpt lat="45.79503" lon="6.17049">
        <ele>1018</ele>
        <time>2019-09-18T15:22:29Z</time>
      </trkpt>
      <trkpt lat="45.79497" lon="6.1706">
        <ele>1022</ele>
        <time>2019-09-18T15:22:34Z</time>
      </trkpt>
      <trkpt lat="45.79488" lon="6.17065">
        <ele>1026</ele>
        <time>2019-09-18T15:22:39Z</time>
      </trkpt>
      <trkpt lat="45.79484" lon="6.17077">
        <ele>1030</ele>
        <time>2019-09-18T15:22:44Z</time>
      </trkpt>
      <trkpt lat="45.79485" lon="6.17091">
        <ele>1032</ele>
        <time>2019-09-18T15:22:49Z</time>
      </trkpt>
      <trkpt lat="45.79495" lon="6.17097">
        <ele>1030</ele>
        <time>2019-09-18T15:22:54Z</time>
      </trkpt>
      <trkpt lat="45.79505" lon="6.17096">
        <ele>1026</ele>
        <time>2019-09-18T15:22:59Z</time>
      </trkpt>
      <trkpt lat="45.79514" lon="6.17099">
        <ele>1023</ele>
        <time>2019-09-18T15:23:04Z</time>
      </trkpt>
      <trkpt lat="45.79524" lon="6.17109">
        <ele>1022</ele>
        <time>2019-09-18T15:23:10Z</time>
      </trkpt>
      <trkpt lat="45.79538" lon="6.17129">
        <ele>1021</ele>
        <time>2019-09-18T15:23:20Z</time>
      </trkpt>
      <trkpt lat="45.79557" lon="6.1713">
        <ele>1015</ele>
        <time>2019-09-18T15:23:29Z</time>
      </trkpt>
      <trkpt lat="45.79587" lon="6.17139">
        <ele>1008</ele>
        <time>2019-09-18T15:23:44Z</time>
      </trkpt>
      <trkpt lat="45.79598" lon="6.17162">
        <ele>1014</ele>
        <time>2019-09-18T15:23:54Z</time>
      </trkpt>
      <trkpt lat="45.79606" lon="6.17167">
        <ele>1016</ele>
        <time>2019-09-18T15:23:59Z</time>
      </trkpt>
      <trkpt lat="45.79615" lon="6.17161">
        <ele>1015</ele>
        <time>2019-09-18T15:24:04Z</time>
      </trkpt>
      <trkpt lat="45.79662" lon="6.17147">
        <ele>1015</ele>
        <time>2019-09-18T15:24:28Z</time>
      </trkpt>
      <trkpt lat="45.79681" lon="6.17153">
        <ele>1019</ele>
        <time>2019-09-18T15:24:37Z</time>
      </trkpt>
      <trkpt lat="45.79711" lon="6.17147">
        <ele>1022</ele>
        <time>2019-09-18T15:24:52Z</time>
      </trkpt>
      <trkpt lat="45.79721" lon="6.17142">
        <ele>1022</ele>
        <time>2019-09-18T15:24:58Z</time>
      </trkpt>
      <trkpt lat="45.79741" lon="6.17141">
        <ele>1025</ele>
        <time>2019-09-18T15:25:08Z</time>
      </trkpt>
      <trkpt lat="45.79751" lon="6.17146">
        <ele>1028</ele>
        <time>2019-09-18T15:25:13Z</time>
      </trkpt>
      <trkpt lat="45.79754" lon="6.1716">
        <ele>1031</ele>
        <time>2019-09-18T15:25:18Z</time>
      </trkpt>
      <trkpt lat="45.79751" lon="6.17228">
        <ele>1053</ele>
        <time>2019-09-18T15:25:42Z</time>
      </trkpt>
      <trkpt lat="45.79761" lon="6.17232">
        <ele>1054</ele>
        <time>2019-09-18T15:25:47Z</time>
      </trkpt>
      <trkpt lat="45.79765" lon="6.17244">
        <ele>1057</ele>
        <time>2019-09-18T15:25:52Z</time>
      </trkpt>
      <trkpt lat="45.79774" lon="6.17249">
        <ele>1059</ele>
        <time>2019-09-18T15:25:57Z</time>
      </trkpt>
      <trkpt lat="45.79783" lon="6.17246">
        <ele>1058</ele>
        <time>2019-09-18T15:26:01Z</time>
      </trkpt>
      <trkpt lat="45.79791" lon="6.17238">
        <ele>1055</ele>
        <time>2019-09-18T15:26:06Z</time>
      </trkpt>
      <trkpt lat="45.798" lon="6.17244">
        <ele>1056</ele>
        <time>2019-09-18T15:26:11Z</time>
      </trkpt>
      <trkpt lat="45.79812" lon="6.17266">
        <ele>1063</ele>
        <time>2019-09-18T15:26:21Z</time>
      </trkpt>
      <trkpt lat="45.79803" lon="6.17271">
        <ele>1065</ele>
        <time>2019-09-18T15:26:26Z</time>
      </trkpt>
      <trkpt lat="45.79793" lon="6.17271">
        <ele>1066</ele>
        <time>2019-09-18T15:26:31Z</time>
      </trkpt>
      <trkpt lat="45.79793" lon="6.17285">
        <ele>1071</ele>
        <time>2019-09-18T15:26:36Z</time>
      </trkpt>
      <trkpt lat="45.798" lon="6.17295">
        <ele>1074</ele>
        <time>2019-09-18T15:26:41Z</time>
      </trkpt>
      <trkpt lat="45.79809" lon="6.17319">
        <ele>1081</ele>
        <time>2019-09-18T15:26:50Z</time>
      </trkpt>
      <trkpt lat="45.79838" lon="6.17359">
        <ele>1091</ele>
        <time>2019-09-18T15:27:10Z</time>
      </trkpt>
      <trkpt lat="45.79837" lon="6.17374">
        <ele>1097</ele>
        <time>2019-09-18T15:27:15Z</time>
      </trkpt>
      <trkpt lat="45.79852" lon="6.1739">
        <ele>1101</ele>
        <time>2019-09-18T15:27:25Z</time>
      </trkpt>
      <trkpt lat="45.79857" lon="6.17401">
        <ele>1104</ele>
        <time>2019-09-18T15:27:29Z</time>
      </trkpt>
      <trkpt lat="45.79866" lon="6.17407">
        <ele>1104</ele>
        <time>2019-09-18T15:27:34Z</time>
      </trkpt>
      <trkpt lat="45.7989" lon="6.17433">
        <ele>1108</ele>
        <time>2019-09-18T15:27:49Z</time>
      </trkpt>
      <trkpt lat="45.799" lon="6.17438">
        <ele>1107</ele>
        <time>2019-09-18T15:27:55Z</time>
      </trkpt>
      <trkpt lat="45.79898" lon="6.17451">
        <ele>1112</ele>
        <time>2019-09-18T15:27:59Z</time>
      </trkpt>
      <trkpt lat="45.79888" lon="6.17452">
        <ele>1115</ele>
        <time>2019-09-18T15:28:04Z</time>
      </trkpt>
      <trkpt lat="45.7986" lon="6.17461">
        <ele>1125</ele>
        <time>2019-09-18T15:28:19Z</time>
      </trkpt>
      <trkpt lat="45.79841" lon="6.17463">
        <ele>1130</ele>
        <time>2019-09-18T15:28:28Z</time>
      </trkpt>
      <trkpt lat="45.79851" lon="6.17461">
        <ele>1127</ele>
        <time>2019-09-18T15:28:33Z</time>
      </trkpt>
      <trkpt lat="45.7986" lon="6.17467">
        <ele>1127</ele>
        <time>2019-09-18T15:28:38Z</time>
      </trkpt>
      <trkpt lat="45.79867" lon="6.17476">
        <ele>1128</ele>
        <time>2019-09-18T15:28:43Z</time>
      </trkpt>
      <trkpt lat="45.79877" lon="6.17481">
        <ele>1128</ele>
        <time>2019-09-18T15:28:48Z</time>
      </trkpt>
      <trkpt lat="45.79884" lon="6.1749">
        <ele>1129</ele>
        <time>2019-09-18T15:28:53Z</time>
      </trkpt>
      <trkpt lat="45.79888" lon="6.17503">
        <ele>1133</ele>
        <time>2019-09-18T15:28:58Z</time>
      </trkpt>
      <trkpt lat="45.79904" lon="6.1752">
        <ele>1134</ele>
        <time>2019-09-18T15:29:08Z</time>
      </trkpt>
      <trkpt lat="45.79917" lon="6.17539">
        <ele>1136</ele>
        <time>2019-09-18T15:29:17Z</time>
      </trkpt>
      <trkpt lat="45.79912" lon="6.17566">
        <ele>1144</ele>
        <time>2019-09-18T15:29:27Z</time>
      </trkpt>
      <trkpt lat="45.79918" lon="6.17575">
        <ele>1145</ele>
        <time>2019-09-18T15:29:31Z</time>
      </trkpt>
      <trkpt lat="45.79943" lon="6.17597">
        <ele>1147</ele>
        <time>2019-09-18T15:29:46Z</time>
      </trkpt>
      <trkpt lat="45.79952" lon="6.17636">
        <ele>1159</ele>
        <time>2019-09-18T15:30:00Z</time>
      </trkpt>
      <trkpt lat="45.79959" lon="6.17646">
        <ele>1161</ele>
        <time>2019-09-18T15:30:05Z</time>
      </trkpt>
      <trkpt lat="45.79967" lon="6.17651">
        <ele>1160</ele>
        <time>2019-09-18T15:30:10Z</time>
      </trkpt>
      <trkpt lat="45.79982" lon="6.17672">
        <ele>1164</ele>
        <time>2019-09-18T15:30:20Z</time>
      </trkpt>
      <trkpt lat="45.79982" lon="6.17686">
        <ele>1170</ele>
        <time>2019-09-18T15:30:25Z</time>
      </trkpt>
      <trkpt lat="45.79985" lon="6.17699">
        <ele>1174</ele>
        <time>2019-09-18T15:30:30Z</time>
      </trkpt>
      <trkpt lat="45.80011" lon="6.17724">
        <ele>1175</ele>
        <time>2019-09-18T15:30:45Z</time>
      </trkpt>
      <trkpt lat="45.80019" lon="6.17735">
        <ele>1177</ele>
        <time>2019-09-18T15:30:51Z</time>
      </trkpt>
      <trkpt lat="45.80023" lon="6.17748">
        <ele>1180</ele>
        <time>2019-09-18T15:30:56Z</time>
      </trkpt>
      <trkpt lat="45.80032" lon="6.17758">
        <ele>1182</ele>
        <time>2019-09-18T15:31:02Z</time>
      </trkpt>
      <trkpt lat="45.80037" lon="6.17771">
        <ele>1186</ele>
        <time>2019-09-18T15:31:07Z</time>
      </trkpt>
      <trkpt lat="45.80044" lon="6.17779">
        <ele>1188</ele>
        <time>2019-09-18T15:31:11Z</time>
      </trkpt>
      <trkpt lat="45.80072" lon="6.17835">
        <ele>1208</ele>
        <time>2019-09-18T15:31:35Z</time>
      </trkpt>
      <trkpt lat="45.80066" lon="6.17845">
        <ele>1216</ele>
        <time>2019-09-18T15:31:40Z</time>
      </trkpt>
      <trkpt lat="45.80026" lon="6.17839">
        <ele>1224</ele>
        <time>2019-09-18T15:32:00Z</time>
      </trkpt>
      <trkpt lat="45.80007" lon="6.1783">
        <ele>1224</ele>
        <time>2019-09-18T15:32:10Z</time>
      </trkpt>
      <trkpt lat="45.79988" lon="6.17834">
        <ele>1233</ele>
        <time>2019-09-18T15:32:20Z</time>
      </trkpt>
      <trkpt lat="45.79969" lon="6.17834">
        <ele>1241</ele>
        <time>2019-09-18T15:32:29Z</time>
      </trkpt>
      <trkpt lat="45.79961" lon="6.17827">
        <ele>1240</ele>
        <time>2019-09-18T15:32:34Z</time>
      </trkpt>
      <trkpt lat="45.79944" lon="6.17818">
        <ele>1242</ele>
        <time>2019-09-18T15:32:43Z</time>
      </trkpt>
      <trkpt lat="45.79925" lon="6.17817">
        <ele>1249</ele>
        <time>2019-09-18T15:32:52Z</time>
      </trkpt>
      <trkpt lat="45.79917" lon="6.1781">
        <ele>1248</ele>
        <time>2019-09-18T15:32:57Z</time>
      </trkpt>
      <trkpt lat="45.79889" lon="6.17809">
        <ele>1255</ele>
        <time>2019-09-18T15:33:11Z</time>
      </trkpt>
      <trkpt lat="45.79868" lon="6.17804">
        <ele>1257</ele>
        <time>2019-09-18T15:33:22Z</time>
      </trkpt>
      <trkpt lat="45.79859" lon="6.17807">
        <ele>1261</ele>
        <time>2019-09-18T15:33:26Z</time>
      </trkpt>
      <trkpt lat="45.79839" lon="6.17806">
        <ele>1266</ele>
        <time>2019-09-18T15:33:36Z</time>
      </trkpt>
      <trkpt lat="45.79831" lon="6.17802">
        <ele>1265</ele>
        <time>2019-09-18T15:33:41Z</time>
      </trkpt>
      <trkpt lat="45.79803" lon="6.17812">
        <ele>1275</ele>
        <time>2019-09-18T15:33:55Z</time>
      </trkpt>
      <trkpt lat="45.79774" lon="6.17816">
        <ele>1281</ele>
        <time>2019-09-18T15:34:10Z</time>
      </trkpt>
      <trkpt lat="45.79716" lon="6.17813">
        <ele>1286</ele>
        <time>2019-09-18T15:34:39Z</time>
      </trkpt>
      <trkpt lat="45.79697" lon="6.17826">
        <ele>1293</ele>
        <time>2019-09-18T15:34:49Z</time>
      </trkpt>
      <trkpt lat="45.79697" lon="6.1784">
        <ele>1296</ele>
        <time>2019-09-18T15:34:54Z</time>
      </trkpt>
      <trkpt lat="45.79702" lon="6.17851">
        <ele>1297</ele>
        <time>2019-09-18T15:34:59Z</time>
      </trkpt>
      <trkpt lat="45.79703" lon="6.17865">
        <ele>1298</ele>
        <time>2019-09-18T15:35:04Z</time>
      </trkpt>
      <trkpt lat="45.79713" lon="6.17889">
        <ele>1301</ele>
        <time>2019-09-18T15:35:13Z</time>
      </trkpt>
      <trkpt lat="45.7973" lon="6.17897">
        <ele>1305</ele>
        <time>2019-09-18T15:35:22Z</time>
      </trkpt>
      <trkpt lat="45.79758" lon="6.17901">
        <ele>1310</ele>
        <time>2019-09-18T15:35:36Z</time>
      </trkpt>
      <trkpt lat="45.79766" lon="6.17906">
        <ele>1312</ele>
        <time>2019-09-18T15:35:41Z</time>
      </trkpt>
      <trkpt lat="45.79776" lon="6.17907">
        <ele>1313</ele>
        <time>2019-09-18T15:35:46Z</time>
      </trkpt>
      <trkpt lat="45.79794" lon="6.17918">
        <ele>1317</ele>
        <time>2019-09-18T15:35:56Z</time>
      </trkpt>
      <trkpt lat="45.79804" lon="6.17918">
        <ele>1318</ele>
        <time>2019-09-18T15:36:01Z</time>
      </trkpt>
      <trkpt lat="45.79811" lon="6.17927">
        <ele>1317</ele>
        <time>2019-09-18T15:36:05Z</time>
      </trkpt>
      <trkpt lat="45.7982" lon="6.17933">
        <ele>1317</ele>
        <time>2019-09-18T15:36:10Z</time>
      </trkpt>
      <trkpt lat="45.7983" lon="6.17931">
        <ele>1319</ele>
        <time>2019-09-18T15:36:15Z</time>
      </trkpt>
      <trkpt lat="45.79848" lon="6.17938">
        <ele>1316</ele>
        <time>2019-09-18T15:36:25Z</time>
      </trkpt>
      <trkpt lat="45.79871" lon="6.17965">
        <ele>1314</ele>
        <time>2019-09-18T15:36:40Z</time>
      </trkpt>
      <trkpt lat="45.79918" lon="6.1799">
        <ele>1313</ele>
        <time>2019-09-18T15:37:05Z</time>
      </trkpt>
      <trkpt lat="45.79929" lon="6.17993">
        <ele>1313</ele>
        <time>2019-09-18T15:37:10Z</time>
      </trkpt>
      <trkpt lat="45.79948" lon="6.1799">
        <ele>1311</ele>
        <time>2019-09-18T15:37:20Z</time>
      </trkpt>
      <trkpt lat="45.79967" lon="6.17995">
        <ele>1312</ele>
        <time>2019-09-18T15:37:29Z</time>
      </trkpt>
      <trkpt lat="45.79995" lon="6.17995">
        <ele>1311</ele>
        <time>2019-09-18T15:37:43Z</time>
      </trkpt>
      <trkpt lat="45.80013" lon="6.18005">
        <ele>1309</ele>
        <time>2019-09-18T15:37:53Z</time>
      </trkpt>
      <trkpt lat="45.80024" lon="6.18002">
        <ele>1310</ele>
        <time>2019-09-18T15:37:59Z</time>
      </trkpt>
      <trkpt lat="45.80042" lon="6.17992">
        <ele>1306</ele>
        <time>2019-09-18T15:38:08Z</time>
      </trkpt>
      <trkpt lat="45.80051" lon="6.17993">
        <ele>1306</ele>
        <time>2019-09-18T15:38:13Z</time>
      </trkpt>
      <trkpt lat="45.80112" lon="6.18011">
        <ele>1297</ele>
        <time>2019-09-18T15:38:44Z</time>
      </trkpt>
      <trkpt lat="45.80162" lon="6.1802">
        <ele>1287</ele>
        <time>2019-09-18T15:39:09Z</time>
      </trkpt>
      <trkpt lat="45.80172" lon="6.18025">
        <ele>1285</ele>
        <time>2019-09-18T15:39:15Z</time>
      </trkpt>
      <trkpt lat="45.80183" lon="6.18024">
        <ele>1281</ele>
        <time>2019-09-18T15:39:20Z</time>
      </trkpt>
      <trkpt lat="45.80202" lon="6.18031">
        <ele>1276</ele>
        <time>2019-09-18T15:39:30Z</time>
      </trkpt>
      <trkpt lat="45.80212" lon="6.18032">
        <ele>1274</ele>
        <time>2019-09-18T15:39:35Z</time>
      </trkpt>
      <trkpt lat="45.80248" lon="6.1805">
        <ele>1267</ele>
        <time>2019-09-18T15:39:54Z</time>
      </trkpt>
      <trkpt lat="45.80269" lon="6.18054">
        <ele>1262</ele>
        <time>2019-09-18T15:40:05Z</time>
      </trkpt>
      <trkpt lat="45.80287" lon="6.18061">
        <ele>1260</ele>
        <time>2019-09-18T15:40:14Z</time>
      </trkpt>
      <trkpt lat="45.80319" lon="6.18067">
        <ele>1255</ele>
        <time>2019-09-18T15:40:30Z</time>
      </trkpt>
      <trkpt lat="45.80343" lon="6.18095">
        <ele>1255</ele>
        <time>2019-09-18T15:40:46Z</time>
      </trkpt>
      <trkpt lat="45.80354" lon="6.18093">
        <ele>1250</ele>
        <time>2019-09-18T15:40:51Z</time>
      </trkpt>
      <trkpt lat="45.80373" lon="6.18096">
        <ele>1243</ele>
        <time>2019-09-18T15:41:01Z</time>
      </trkpt>
      <trkpt lat="45.80393" lon="6.18107">
        <ele>1235</ele>
        <time>2019-09-18T15:41:11Z</time>
      </trkpt>
      <trkpt lat="45.80424" lon="6.18118">
        <ele>1226</ele>
        <time>2019-09-18T15:41:27Z</time>
      </trkpt>
      <trkpt lat="45.80471" lon="6.1813">
        <ele>1214</ele>
        <time>2019-09-18T15:41:51Z</time>
      </trkpt>
      <trkpt lat="45.80482" lon="6.18129">
        <ele>1210</ele>
        <time>2019-09-18T15:41:57Z</time>
      </trkpt>
      <trkpt lat="45.80502" lon="6.18134">
        <ele>1206</ele>
        <time>2019-09-18T15:42:07Z</time>
      </trkpt>
      <trkpt lat="45.80532" lon="6.18144">
        <ele>1197</ele>
        <time>2019-09-18T15:42:22Z</time>
      </trkpt>
      <trkpt lat="45.80542" lon="6.18151">
        <ele>1197</ele>
        <time>2019-09-18T15:42:28Z</time>
      </trkpt>
      <trkpt lat="45.80553" lon="6.18153">
        <ele>1193</ele>
        <time>2019-09-18T15:42:33Z</time>
      </trkpt>
      <trkpt lat="45.80561" lon="6.18161">
        <ele>1194</ele>
        <time>2019-09-18T15:42:38Z</time>
      </trkpt>
      <trkpt lat="45.80571" lon="6.18163">
        <ele>1192</ele>
        <time>2019-09-18T15:42:43Z</time>
      </trkpt>
      <trkpt lat="45.80578" lon="6.18173">
        <ele>1190</ele>
        <time>2019-09-18T15:42:48Z</time>
      </trkpt>
      <trkpt lat="45.80587" lon="6.18179">
        <ele>1185</ele>
        <time>2019-09-18T15:42:53Z</time>
      </trkpt>
      <trkpt lat="45.80597" lon="6.18176">
        <ele>1181</ele>
        <time>2019-09-18T15:42:58Z</time>
      </trkpt>
      <trkpt lat="45.8062" lon="6.1818">
        <ele>1171</ele>
        <time>2019-09-18T15:43:10Z</time>
      </trkpt>
      <trkpt lat="45.80637" lon="6.18191">
        <ele>1165</ele>
        <time>2019-09-18T15:43:19Z</time>
      </trkpt>
      <trkpt lat="45.80646" lon="6.18194">
        <ele>1162</ele>
        <time>2019-09-18T15:43:24Z</time>
      </trkpt>
      <trkpt lat="45.80666" lon="6.18223">
        <ele>1163</ele>
        <time>2019-09-18T15:43:38Z</time>
      </trkpt>
      <trkpt lat="45.80669" lon="6.18236">
        <ele>1165</ele>
        <time>2019-09-18T15:43:43Z</time>
      </trkpt>
      <trkpt lat="45.807" lon="6.18237">
        <ele>1156</ele>
        <time>2019-09-18T15:43:59Z</time>
      </trkpt>
      <trkpt lat="45.80718" lon="6.18246">
        <ele>1155</ele>
        <time>2019-09-18T15:44:08Z</time>
      </trkpt>
      <trkpt lat="45.80726" lon="6.18255">
        <ele>1151</ele>
        <time>2019-09-18T15:44:13Z</time>
      </trkpt>
      <trkpt lat="45.80769" lon="6.18263">
        <ele>1134</ele>
        <time>2019-09-18T15:44:35Z</time>
      </trkpt>
      <trkpt lat="45.80798" lon="6.18277">
        <ele>1120</ele>
        <time>2019-09-18T15:44:50Z</time>
      </trkpt>
      <trkpt lat="45.80818" lon="6.18272">
        <ele>1113</ele>
        <time>2019-09-18T15:45:00Z</time>
      </trkpt>
      <trkpt lat="45.80827" lon="6.18277">
        <ele>1110</ele>
        <time>2019-09-18T15:45:05Z</time>
      </trkpt>
      <trkpt lat="45.80842" lon="6.183">
        <ele>1107</ele>
        <time>2019-09-18T15:45:16Z</time>
      </trkpt>
      <trkpt lat="45.80852" lon="6.18306">
        <ele>1104</ele>
        <time>2019-09-18T15:45:22Z</time>
      </trkpt>
      <trkpt lat="45.80859" lon="6.18316">
        <ele>1103</ele>
        <time>2019-09-18T15:45:26Z</time>
      </trkpt>
      <trkpt lat="45.8087" lon="6.18315">
        <ele>1099</ele>
        <time>2019-09-18T15:45:32Z</time>
      </trkpt>
      <trkpt lat="45.80878" lon="6.18323">
        <ele>1098</ele>
        <time>2019-09-18T15:45:37Z</time>
      </trkpt>
      <trkpt lat="45.80896" lon="6.18331">
        <ele>1095</ele>
        <time>2019-09-18T15:45:46Z</time>
      </trkpt>
      <trkpt lat="45.80907" lon="6.18355">
        <ele>1085</ele>
        <time>2019-09-18T15:45:56Z</time>
      </trkpt>
      <trkpt lat="45.80916" lon="6.18362">
        <ele>1081</ele>
        <time>2019-09-18T15:46:01Z</time>
      </trkpt>
      <trkpt lat="45.80925" lon="6.18362">
        <ele>1078</ele>
        <time>2019-09-18T15:46:06Z</time>
      </trkpt>
      <trkpt lat="45.80931" lon="6.18372">
        <ele>1074</ele>
        <time>2019-09-18T15:46:11Z</time>
      </trkpt>
      <trkpt lat="45.80949" lon="6.18381">
        <ele>1068</ele>
        <time>2019-09-18T15:46:20Z</time>
      </trkpt>
      <trkpt lat="45.80957" lon="6.18389">
        <ele>1066</ele>
        <time>2019-09-18T15:46:25Z</time>
      </trkpt>
      <trkpt lat="45.80967" lon="6.18395">
        <ele>1065</ele>
        <time>2019-09-18T15:46:30Z</time>
      </trkpt>
      <trkpt lat="45.81015" lon="6.18401">
        <ele>1057</ele>
        <time>2019-09-18T15:46:55Z</time>
      </trkpt>
      <trkpt lat="45.81044" lon="6.1842">
        <ele>1052</ele>
        <time>2019-09-18T15:47:10Z</time>
      </trkpt>
      <trkpt lat="45.81053" lon="6.18422">
        <ele>1048</ele>
        <time>2019-09-18T15:47:15Z</time>
      </trkpt>
      <trkpt lat="45.81063" lon="6.1842">
        <ele>1046</ele>
        <time>2019-09-18T15:47:20Z</time>
      </trkpt>
      <trkpt lat="45.81071" lon="6.18427">
        <ele>1042</ele>
        <time>2019-09-18T15:47:25Z</time>
      </trkpt>
      <trkpt lat="45.81077" lon="6.18438">
        <ele>1038</ele>
        <time>2019-09-18T15:47:30Z</time>
      </trkpt>
      <trkpt lat="45.81098" lon="6.1845">
        <ele>1030</ele>
        <time>2019-09-18T15:47:41Z</time>
      </trkpt>
      <trkpt lat="45.81111" lon="6.18471">
        <ele>1027</ele>
        <time>2019-09-18T15:47:51Z</time>
      </trkpt>
      <trkpt lat="45.81129" lon="6.18484">
        <ele>1024</ele>
        <time>2019-09-18T15:48:01Z</time>
      </trkpt>
      <trkpt lat="45.81136" lon="6.18493">
        <ele>1025</ele>
        <time>2019-09-18T15:48:06Z</time>
      </trkpt>
      <trkpt lat="45.81179" lon="6.1851">
        <ele>1013</ele>
        <time>2019-09-18T15:48:28Z</time>
      </trkpt>
      <trkpt lat="45.81212" lon="6.18512">
        <ele>995</ele>
        <time>2019-09-18T15:48:44Z</time>
      </trkpt>
      <trkpt lat="45.8122" lon="6.1852">
        <ele>990</ele>
        <time>2019-09-18T15:48:49Z</time>
      </trkpt>
      <trkpt lat="45.8124" lon="6.1855">
        <ele>986</ele>
        <time>2019-09-18T15:49:04Z</time>
      </trkpt>
      <trkpt lat="45.8126" lon="6.18565">
        <ele>980</ele>
        <time>2019-09-18T15:49:15Z</time>
      </trkpt>
      <trkpt lat="45.81275" lon="6.18586">
        <ele>975</ele>
        <time>2019-09-18T15:49:26Z</time>
      </trkpt>
      <trkpt lat="45.81284" lon="6.18593">
        <ele>968</ele>
        <time>2019-09-18T15:49:31Z</time>
      </trkpt>
      <trkpt lat="45.81302" lon="6.18603">
        <ele>957</ele>
        <time>2019-09-18T15:49:40Z</time>
      </trkpt>
      <trkpt lat="45.81309" lon="6.1861">
        <ele>952</ele>
        <time>2019-09-18T15:49:45Z</time>
      </trkpt>
      <trkpt lat="45.81347" lon="6.18629">
        <ele>935</ele>
        <time>2019-09-18T15:50:05Z</time>
      </trkpt>
      <trkpt lat="45.81363" lon="6.18641">
        <ele>928</ele>
        <time>2019-09-18T15:50:14Z</time>
      </trkpt>
      <trkpt lat="45.81373" lon="6.18638">
        <ele>922</ele>
        <time>2019-09-18T15:50:19Z</time>
      </trkpt>
      <trkpt lat="45.81381" lon="6.18648">
        <ele>920</ele>
        <time>2019-09-18T15:50:24Z</time>
      </trkpt>
      <trkpt lat="45.81407" lon="6.18667">
        <ele>916</ele>
        <time>2019-09-18T15:50:39Z</time>
      </trkpt>
      <trkpt lat="45.81421" lon="6.18686">
        <ele>905</ele>
        <time>2019-09-18T15:50:48Z</time>
      </trkpt>
      <trkpt lat="45.8143" lon="6.18694">
        <ele>899</ele>
        <time>2019-09-18T15:50:54Z</time>
      </trkpt>
      <trkpt lat="45.81437" lon="6.18707">
        <ele>894</ele>
        <time>2019-09-18T15:50:59Z</time>
      </trkpt>
      <trkpt lat="45.81454" lon="6.18721">
        <ele>887</ele>
        <time>2019-09-18T15:51:09Z</time>
      </trkpt>
      <trkpt lat="45.81464" lon="6.18724">
        <ele>884</ele>
        <time>2019-09-18T15:51:14Z</time>
      </trkpt>
      <trkpt lat="45.81472" lon="6.18713">
        <ele>879</ele>
        <time>2019-09-18T15:51:20Z</time>
      </trkpt>
      <trkpt lat="45.81482" lon="6.1872">
        <ele>877</ele>
        <time>2019-09-18T15:51:25Z</time>
      </trkpt>
      <trkpt lat="45.81495" lon="6.18739">
        <ele>880</ele>
        <time>2019-09-18T15:51:35Z</time>
      </trkpt>
      <trkpt lat="45.81504" lon="6.18747">
        <ele>880</ele>
        <time>2019-09-18T15:51:40Z</time>
      </trkpt>
      <trkpt lat="45.81522" lon="6.18783">
        <ele>863</ele>
        <time>2019-09-18T15:51:56Z</time>
      </trkpt>
      <trkpt lat="45.81562" lon="6.18793">
        <ele>845</ele>
        <time>2019-09-18T15:52:16Z</time>
      </trkpt>
      <trkpt lat="45.81571" lon="6.18787">
        <ele>840</ele>
        <time>2019-09-18T15:52:21Z</time>
      </trkpt>
      <trkpt lat="45.81581" lon="6.18812">
        <ele>841</ele>
        <time>2019-09-18T15:52:31Z</time>
      </trkpt>
      <trkpt lat="45.81582" lon="6.18825">
        <ele>844</ele>
        <time>2019-09-18T15:52:35Z</time>
      </trkpt>
      <trkpt lat="45.81595" lon="6.1886">
        <ele>831</ele>
        <time>2019-09-18T15:52:49Z</time>
      </trkpt>
      <trkpt lat="45.81598" lon="6.18876">
        <ele>825</ele>
        <time>2019-09-18T15:52:55Z</time>
      </trkpt>
      <trkpt lat="45.81589" lon="6.18885">
        <ele>827</ele>
        <time>2019-09-18T15:53:01Z</time>
      </trkpt>
      <trkpt lat="45.8157" lon="6.18892">
        <ele>827</ele>
        <time>2019-09-18T15:53:10Z</time>
      </trkpt>
      <trkpt lat="45.81562" lon="6.18898">
        <ele>825</ele>
        <time>2019-09-18T15:53:15Z</time>
      </trkpt>
      <trkpt lat="45.81549" lon="6.18919">
        <ele>817</ele>
        <time>2019-09-18T15:53:25Z</time>
      </trkpt>
      <trkpt lat="45.81532" lon="6.18931">
        <ele>811</ele>
        <time>2019-09-18T15:53:34Z</time>
      </trkpt>
      <trkpt lat="45.81522" lon="6.18937">
        <ele>808</ele>
        <time>2019-09-18T15:53:40Z</time>
      </trkpt>
      <trkpt lat="45.81502" lon="6.18944">
        <ele>804</ele>
        <time>2019-09-18T15:53:50Z</time>
      </trkpt>
      <trkpt lat="45.81485" lon="6.18957">
        <ele>796</ele>
        <time>2019-09-18T15:54:00Z</time>
      </trkpt>
      <trkpt lat="45.81447" lon="6.18978">
        <ele>781</ele>
        <time>2019-09-18T15:54:20Z</time>
      </trkpt>
      <trkpt lat="45.81436" lon="6.18977">
        <ele>781</ele>
        <time>2019-09-18T15:54:25Z</time>
      </trkpt>
      <trkpt lat="45.81418" lon="6.18969">
        <ele>783</ele>
        <time>2019-09-18T15:54:35Z</time>
      </trkpt>
      <trkpt lat="45.81403" lon="6.18986">
        <ele>773</ele>
        <time>2019-09-18T15:54:44Z</time>
      </trkpt>
      <trkpt lat="45.81384" lon="6.18993">
        <ele>767</ele>
        <time>2019-09-18T15:54:54Z</time>
      </trkpt>
      <trkpt lat="45.81375" lon="6.19002">
        <ele>762</ele>
        <time>2019-09-18T15:55:00Z</time>
      </trkpt>
      <trkpt lat="45.81363" lon="6.19006">
        <ele>759</ele>
        <time>2019-09-18T15:55:06Z</time>
      </trkpt>
      <trkpt lat="45.81343" lon="6.19001">
        <ele>759</ele>
        <time>2019-09-18T15:55:16Z</time>
      </trkpt>
      <trkpt lat="45.81334" lon="6.19003">
        <ele>757</ele>
        <time>2019-09-18T15:55:21Z</time>
      </trkpt>
      <trkpt lat="45.81325" lon="6.18998">
        <ele>758</ele>
        <time>2019-09-18T15:55:25Z</time>
      </trkpt>
      <trkpt lat="45.81316" lon="6.18997">
        <ele>758</ele>
        <time>2019-09-18T15:55:30Z</time>
      </trkpt>
      <trkpt lat="45.81296" lon="6.19005">
        <ele>753</ele>
        <time>2019-09-18T15:55:40Z</time>
      </trkpt>
      <trkpt lat="45.8128" lon="6.19023">
        <ele>744</ele>
        <time>2019-09-18T15:55:51Z</time>
      </trkpt>
      <trkpt lat="45.81275" lon="6.19035">
        <ele>739</ele>
        <time>2019-09-18T15:55:55Z</time>
      </trkpt>
      <trkpt lat="45.81275" lon="6.19048">
        <ele>734</ele>
        <time>2019-09-18T15:56:00Z</time>
      </trkpt>
      <trkpt lat="45.81265" lon="6.19074">
        <ele>723</ele>
        <time>2019-09-18T15:56:10Z</time>
      </trkpt>
      <trkpt lat="45.81256" lon="6.19075">
        <ele>722</ele>
        <time>2019-09-18T15:56:15Z</time>
      </trkpt>
      <trkpt lat="45.81256" lon="6.19092">
        <ele>717</ele>
        <time>2019-09-18T15:56:21Z</time>
      </trkpt>
      <trkpt lat="45.81249" lon="6.19117">
        <ele>709</ele>
        <time>2019-09-18T15:56:30Z</time>
      </trkpt>
      <trkpt lat="45.81243" lon="6.19128">
        <ele>705</ele>
        <time>2019-09-18T15:56:35Z</time>
      </trkpt>
      <trkpt lat="45.81224" lon="6.19135">
        <ele>702</ele>
        <time>2019-09-18T15:56:45Z</time>
      </trkpt>
      <trkpt lat="45.81221" lon="6.19148">
        <ele>697</ele>
        <time>2019-09-18T15:56:50Z</time>
      </trkpt>
      <trkpt lat="45.81205" lon="6.19166">
        <ele>690</ele>
        <time>2019-09-18T15:57:00Z</time>
      </trkpt>
      <trkpt lat="45.81185" lon="6.1917">
        <ele>687</ele>
        <time>2019-09-18T15:57:10Z</time>
      </trkpt>
      <trkpt lat="45.81169" lon="6.19192">
        <ele>680</ele>
        <time>2019-09-18T15:57:21Z</time>
      </trkpt>
      <trkpt lat="45.81166" lon="6.19206">
        <ele>676</ele>
        <time>2019-09-18T15:57:26Z</time>
      </trkpt>
      <trkpt lat="45.81155" lon="6.1923">
        <ele>671</ele>
        <time>2019-09-18T15:57:36Z</time>
      </trkpt>
      <trkpt lat="45.81138" lon="6.19249">
        <ele>666</ele>
        <time>2019-09-18T15:57:47Z</time>
      </trkpt>
      <trkpt lat="45.81129" lon="6.19252">
        <ele>666</ele>
        <time>2019-09-18T15:57:51Z</time>
      </trkpt>
      <trkpt lat="45.8112" lon="6.1926">
        <ele>665</ele>
        <time>2019-09-18T15:57:57Z</time>
      </trkpt>
      <trkpt lat="45.8111" lon="6.19264">
        <ele>665</ele>
        <time>2019-09-18T15:58:02Z</time>
      </trkpt>
      <trkpt lat="45.81085" lon="6.19292">
        <ele>662</ele>
        <time>2019-09-18T15:58:18Z</time>
      </trkpt>
      <trkpt lat="45.81065" lon="6.19305">
        <ele>662</ele>
        <time>2019-09-18T15:58:29Z</time>
      </trkpt>
      <trkpt lat="45.81047" lon="6.19303">
        <ele>663</ele>
        <time>2019-09-18T15:58:38Z</time>
      </trkpt>
      <trkpt lat="45.81041" lon="6.19288">
        <ele>666</ele>
        <time>2019-09-18T15:58:44Z</time>
      </trkpt>
      <trkpt lat="45.81042" lon="6.19286">
        <ele>666</ele>
        <time>2019-09-18T15:58:45Z</time>
      </trkpt>
      <trkpt lat="45.8104" lon="6.19286">
        <ele>666</ele>
        <time>2019-09-18T15:58:46Z</time>
      </trkpt>
      <trkpt lat="45.8101" lon="6.19314">
        <ele>663</ele>
        <time>2019-09-18T15:59:04Z</time>
      </trkpt>
      <trkpt lat="45.80982" lon="6.19334">
        <ele>663</ele>
        <time>2019-09-18T15:59:19Z</time>
      </trkpt>
      <trkpt lat="45.80972" lon="6.19332">
        <ele>665</ele>
        <time>2019-09-18T15:59:24Z</time>
      </trkpt>
      <trkpt lat="45.80963" lon="6.19324">
        <ele>668</ele>
        <time>2019-09-18T15:59:30Z</time>
      </trkpt>
      <trkpt lat="45.80953" lon="6.19321">
        <ele>671</ele>
        <time>2019-09-18T15:59:35Z</time>
      </trkpt>
      <trkpt lat="45.80934" lon="6.19327">
        <ele>673</ele>
        <time>2019-09-18T15:59:45Z</time>
      </trkpt>
      <trkpt lat="45.8091" lon="6.19347">
        <ele>675</ele>
        <time>2019-09-18T15:59:58Z</time>
      </trkpt>
      <trkpt lat="45.80894" lon="6.19364">
        <ele>676</ele>
        <time>2019-09-18T16:00:08Z</time>
      </trkpt>
      <trkpt lat="45.80886" lon="6.19369">
        <ele>677</ele>
        <time>2019-09-18T16:00:13Z</time>
      </trkpt>
      <trkpt lat="45.80833" lon="6.19388">
        <ele>685</ele>
        <time>2019-09-18T16:00:40Z</time>
      </trkpt>
      <trkpt lat="45.80828" lon="6.19399">
        <ele>684</ele>
        <time>2019-09-18T16:00:45Z</time>
      </trkpt>
      <trkpt lat="45.80799" lon="6.19407">
        <ele>687</ele>
        <time>2019-09-18T16:00:59Z</time>
      </trkpt>
      <trkpt lat="45.80771" lon="6.19412">
        <ele>690</ele>
        <time>2019-09-18T16:01:14Z</time>
      </trkpt>
      <trkpt lat="45.80762" lon="6.19416">
        <ele>691</ele>
        <time>2019-09-18T16:01:18Z</time>
      </trkpt>
      <trkpt lat="45.80741" lon="6.19413">
        <ele>695</ele>
        <time>2019-09-18T16:01:29Z</time>
      </trkpt>
      <trkpt lat="45.8073" lon="6.19407">
        <ele>697</ele>
        <time>2019-09-18T16:01:35Z</time>
      </trkpt>
      <trkpt lat="45.80699" lon="6.19406">
        <ele>702</ele>
        <time>2019-09-18T16:01:50Z</time>
      </trkpt>
      <trkpt lat="45.80679" lon="6.19399">
        <ele>705</ele>
        <time>2019-09-18T16:02:01Z</time>
      </trkpt>
      <trkpt lat="45.80669" lon="6.19398">
        <ele>706</ele>
        <time>2019-09-18T16:02:06Z</time>
      </trkpt>
      <trkpt lat="45.8066" lon="6.194">
        <ele>707</ele>
        <time>2019-09-18T16:02:10Z</time>
      </trkpt>
      <trkpt lat="45.80652" lon="6.19408">
        <ele>709</ele>
        <time>2019-09-18T16:02:15Z</time>
      </trkpt>
      <trkpt lat="45.80642" lon="6.19411">
        <ele>711</ele>
        <time>2019-09-18T16:02:20Z</time>
      </trkpt>
      <trkpt lat="45.80632" lon="6.19419">
        <ele>714</ele>
        <time>2019-09-18T16:02:26Z</time>
      </trkpt>
      <trkpt lat="45.80629" lon="6.19431">
        <ele>718</ele>
        <time>2019-09-18T16:02:30Z</time>
      </trkpt>
      <trkpt lat="45.80637" lon="6.19441">
        <ele>719</ele>
        <time>2019-09-18T16:02:36Z</time>
      </trkpt>
      <trkpt lat="45.8064" lon="6.19454">
        <ele>722</ele>
        <time>2019-09-18T16:02:40Z</time>
      </trkpt>
      <trkpt lat="45.80647" lon="6.19462">
        <ele>723</ele>
        <time>2019-09-18T16:02:45Z</time>
      </trkpt>
      <trkpt lat="45.80652" lon="6.19473">
        <ele>725</ele>
        <time>2019-09-18T16:02:49Z</time>
      </trkpt>
      <trkpt lat="45.80654" lon="6.19486">
        <ele>728</ele>
        <time>2019-09-18T16:02:54Z</time>
      </trkpt>
      <trkpt lat="45.80645" lon="6.19488">
        <ele>730</ele>
        <time>2019-09-18T16:02:59Z</time>
      </trkpt>
      <trkpt lat="45.80645" lon="6.19501">
        <ele>733</ele>
        <time>2019-09-18T16:03:03Z</time>
      </trkpt>
      <trkpt lat="45.8065" lon="6.19526">
        <ele>740</ele>
        <time>2019-09-18T16:03:12Z</time>
      </trkpt>
      <trkpt lat="45.80641" lon="6.19529">
        <ele>742</ele>
        <time>2019-09-18T16:03:17Z</time>
      </trkpt>
      <trkpt lat="45.80632" lon="6.19526">
        <ele>743</ele>
        <time>2019-09-18T16:03:21Z</time>
      </trkpt>
      <trkpt lat="45.80612" lon="6.19526">
        <ele>746</ele>
        <time>2019-09-18T16:03:32Z</time>
      </trkpt>
      <trkpt lat="45.80633" lon="6.19557">
        <ele>751</ele>
        <time>2019-09-18T16:03:47Z</time>
      </trkpt>
      <trkpt lat="45.80643" lon="6.19595">
        <ele>759</ele>
        <time>2019-09-18T16:04:01Z</time>
      </trkpt>
      <trkpt lat="45.80653" lon="6.19597">
        <ele>758</ele>
        <time>2019-09-18T16:04:06Z</time>
      </trkpt>
      <trkpt lat="45.80675" lon="6.19607">
        <ele>757</ele>
        <time>2019-09-18T16:04:17Z</time>
      </trkpt>
      <trkpt lat="45.80685" lon="6.19607">
        <ele>756</ele>
        <time>2019-09-18T16:04:22Z</time>
      </trkpt>
      <trkpt lat="45.80697" lon="6.19611">
        <ele>755</ele>
        <time>2019-09-18T16:04:29Z</time>
      </trkpt>
      <trkpt lat="45.80759" lon="6.19668">
        <ele>761</ele>
        <time>2019-09-18T16:05:05Z</time>
      </trkpt>
      <trkpt lat="45.80765" lon="6.1968">
        <ele>758</ele>
        <time>2019-09-18T16:05:11Z</time>
      </trkpt>
      <trkpt lat="45.80764" lon="6.19693">
        <ele>757</ele>
        <time>2019-09-18T16:05:15Z</time>
      </trkpt>
      <trkpt lat="45.80757" lon="6.19701">
        <ele>759</ele>
        <time>2019-09-18T16:05:20Z</time>
      </trkpt>
      <trkpt lat="45.80748" lon="6.19703">
        <ele>760</ele>
        <time>2019-09-18T16:05:24Z</time>
      </trkpt>
      <trkpt lat="45.80728" lon="6.19693">
        <ele>762</ele>
        <time>2019-09-18T16:05:35Z</time>
      </trkpt>
      <trkpt lat="45.80719" lon="6.19691">
        <ele>762</ele>
        <time>2019-09-18T16:05:39Z</time>
      </trkpt>
      <trkpt lat="45.80692" lon="6.19671">
        <ele>767</ele>
        <time>2019-09-18T16:05:54Z</time>
      </trkpt>
      <trkpt lat="45.80651" lon="6.19654">
        <ele>769</ele>
        <time>2019-09-18T16:06:16Z</time>
      </trkpt>
      <trkpt lat="45.80609" lon="6.19647">
        <ele>772</ele>
        <time>2019-09-18T16:06:37Z</time>
      </trkpt>
      <trkpt lat="45.8057" lon="6.19634">
        <ele>775</ele>
        <time>2019-09-18T16:06:57Z</time>
      </trkpt>
      <trkpt lat="45.8056" lon="6.19634">
        <ele>776</ele>
        <time>2019-09-18T16:07:02Z</time>
      </trkpt>
      <trkpt lat="45.80543" lon="6.19628">
        <ele>778</ele>
        <time>2019-09-18T16:07:11Z</time>
      </trkpt>
      <trkpt lat="45.80523" lon="6.19626">
        <ele>782</ele>
        <time>2019-09-18T16:07:21Z</time>
      </trkpt>
      <trkpt lat="45.80486" lon="6.1961">
        <ele>788</ele>
        <time>2019-09-18T16:07:40Z</time>
      </trkpt>
      <trkpt lat="45.80477" lon="6.19612">
        <ele>789</ele>
        <time>2019-09-18T16:07:45Z</time>
      </trkpt>
      <trkpt lat="45.80467" lon="6.19608">
        <ele>791</ele>
        <time>2019-09-18T16:07:50Z</time>
      </trkpt>
      <trkpt lat="45.80458" lon="6.19609">
        <ele>792</ele>
        <time>2019-09-18T16:07:54Z</time>
      </trkpt>
      <trkpt lat="45.80438" lon="6.19604">
        <ele>795</ele>
        <time>2019-09-18T16:08:05Z</time>
      </trkpt>
      <trkpt lat="45.80383" lon="6.19583">
        <ele>807</ele>
        <time>2019-09-18T16:08:33Z</time>
      </trkpt>
      <trkpt lat="45.80373" lon="6.19581">
        <ele>808</ele>
        <time>2019-09-18T16:08:38Z</time>
      </trkpt>
      <trkpt lat="45.80352" lon="6.19582">
        <ele>813</ele>
        <time>2019-09-18T16:08:49Z</time>
      </trkpt>
      <trkpt lat="45.80324" lon="6.19575">
        <ele>816</ele>
        <time>2019-09-18T16:09:03Z</time>
      </trkpt>
      <trkpt lat="45.80306" lon="6.19567">
        <ele>816</ele>
        <time>2019-09-18T16:09:12Z</time>
      </trkpt>
      <trkpt lat="45.80296" lon="6.19567">
        <ele>817</ele>
        <time>2019-09-18T16:09:17Z</time>
      </trkpt>
      <trkpt lat="45.80255" lon="6.19559">
        <ele>822</ele>
        <time>2019-09-18T16:09:38Z</time>
      </trkpt>
      <trkpt lat="45.80225" lon="6.19548">
        <ele>821</ele>
        <time>2019-09-18T16:09:54Z</time>
      </trkpt>
      <trkpt lat="45.80196" lon="6.19548">
        <ele>821</ele>
        <time>2019-09-18T16:10:08Z</time>
      </trkpt>
      <trkpt lat="45.80168" lon="6.19543">
        <ele>822</ele>
        <time>2019-09-18T16:10:22Z</time>
      </trkpt>
      <trkpt lat="45.80111" lon="6.19526">
        <ele>819</ele>
        <time>2019-09-18T16:10:51Z</time>
      </trkpt>
      <trkpt lat="45.80071" lon="6.19517">
        <ele>820</ele>
        <time>2019-09-18T16:11:12Z</time>
      </trkpt>
      <trkpt lat="45.80063" lon="6.19509">
        <ele>822</ele>
        <time>2019-09-18T16:11:16Z</time>
      </trkpt>
      <trkpt lat="45.80044" lon="6.195">
        <ele>824</ele>
        <time>2019-09-18T16:11:26Z</time>
      </trkpt>
      <trkpt lat="45.80029" lon="6.19481">
        <ele>820</ele>
        <time>2019-09-18T16:11:36Z</time>
      </trkpt>
      <trkpt lat="45.80001" lon="6.19458">
        <ele>815</ele>
        <time>2019-09-18T16:11:53Z</time>
      </trkpt>
      <trkpt lat="45.7998" lon="6.1945">
        <ele>815</ele>
        <time>2019-09-18T16:12:03Z</time>
      </trkpt>
      <trkpt lat="45.79957" lon="6.19425">
        <ele>810</ele>
        <time>2019-09-18T16:12:18Z</time>
      </trkpt>
      <trkpt lat="45.79925" lon="6.19415">
        <ele>810</ele>
        <time>2019-09-18T16:12:34Z</time>
      </trkpt>
      <trkpt lat="45.79881" lon="6.19388">
        <ele>805</ele>
        <time>2019-09-18T16:12:58Z</time>
      </trkpt>
      <trkpt lat="45.79871" lon="6.19385">
        <ele>804</ele>
        <time>2019-09-18T16:13:03Z</time>
      </trkpt>
      <trkpt lat="45.79852" lon="6.1939">
        <ele>806</ele>
        <time>2019-09-18T16:13:13Z</time>
      </trkpt>
      <trkpt lat="45.79842" lon="6.19388">
        <ele>806</ele>
        <time>2019-09-18T16:13:18Z</time>
      </trkpt>
      <trkpt lat="45.79832" lon="6.1939">
        <ele>807</ele>
        <time>2019-09-18T16:13:23Z</time>
      </trkpt>
      <trkpt lat="45.79824" lon="6.19397">
        <ele>810</ele>
        <time>2019-09-18T16:13:28Z</time>
      </trkpt>
      <trkpt lat="45.79804" lon="6.19402">
        <ele>813</ele>
        <time>2019-09-18T16:13:38Z</time>
      </trkpt>
      <trkpt lat="45.79794" lon="6.19401">
        <ele>814</ele>
        <time>2019-09-18T16:13:43Z</time>
      </trkpt>
      <trkpt lat="45.79784" lon="6.19405">
        <ele>816</ele>
        <time>2019-09-18T16:13:48Z</time>
      </trkpt>
      <trkpt lat="45.79775" lon="6.19397">
        <ele>815</ele>
        <time>2019-09-18T16:13:53Z</time>
      </trkpt>
      <trkpt lat="45.79754" lon="6.19394">
        <ele>816</ele>
        <time>2019-09-18T16:14:04Z</time>
      </trkpt>
      <trkpt lat="45.79744" lon="6.19395">
        <ele>818</ele>
        <time>2019-09-18T16:14:09Z</time>
      </trkpt>
      <trkpt lat="45.79726" lon="6.19384">
        <ele>818</ele>
        <time>2019-09-18T16:14:19Z</time>
      </trkpt>
      <trkpt lat="45.79717" lon="6.19386">
        <ele>820</ele>
        <time>2019-09-18T16:14:23Z</time>
      </trkpt>
      <trkpt lat="45.79698" lon="6.19385">
        <ele>823</ele>
        <time>2019-09-18T16:14:33Z</time>
      </trkpt>
      <trkpt lat="45.79678" lon="6.19391">
        <ele>827</ele>
        <time>2019-09-18T16:14:43Z</time>
      </trkpt>
      <trkpt lat="45.79649" lon="6.19378">
        <ele>828</ele>
        <time>2019-09-18T16:14:58Z</time>
      </trkpt>
      <trkpt lat="45.79631" lon="6.19377">
        <ele>831</ele>
        <time>2019-09-18T16:15:07Z</time>
      </trkpt>
      <trkpt lat="45.79622" lon="6.19382">
        <ele>833</ele>
        <time>2019-09-18T16:15:12Z</time>
      </trkpt>
      <trkpt lat="45.79613" lon="6.19383">
        <ele>835</ele>
        <time>2019-09-18T16:15:17Z</time>
      </trkpt>
      <trkpt lat="45.79604" lon="6.19379">
        <ele>835</ele>
        <time>2019-09-18T16:15:21Z</time>
      </trkpt>
      <trkpt lat="45.79584" lon="6.19386">
        <ele>840</ele>
        <time>2019-09-18T16:15:32Z</time>
      </trkpt>
      <trkpt lat="45.79577" lon="6.19378">
        <ele>839</ele>
        <time>2019-09-18T16:15:36Z</time>
      </trkpt>
      <trkpt lat="45.79565" lon="6.19355">
        <ele>837</ele>
        <time>2019-09-18T16:15:46Z</time>
      </trkpt>
      <trkpt lat="45.79537" lon="6.19343">
        <ele>841</ele>
        <time>2019-09-18T16:16:01Z</time>
      </trkpt>
      <trkpt lat="45.79517" lon="6.1934">
        <ele>845</ele>
        <time>2019-09-18T16:16:11Z</time>
      </trkpt>
      <trkpt lat="45.79508" lon="6.19334">
        <ele>846</ele>
        <time>2019-09-18T16:16:16Z</time>
      </trkpt>
      <trkpt lat="45.79487" lon="6.19332">
        <ele>849</ele>
        <time>2019-09-18T16:16:26Z</time>
      </trkpt>
      <trkpt lat="45.79467" lon="6.19333">
        <ele>853</ele>
        <time>2019-09-18T16:16:36Z</time>
      </trkpt>
      <trkpt lat="45.79459" lon="6.1934">
        <ele>855</ele>
        <time>2019-09-18T16:16:41Z</time>
      </trkpt>
      <trkpt lat="45.79458" lon="6.19354">
        <ele>857</ele>
        <time>2019-09-18T16:16:46Z</time>
      </trkpt>
      <trkpt lat="45.79444" lon="6.19375">
        <ele>861</ele>
        <time>2019-09-18T16:16:56Z</time>
      </trkpt>
      <trkpt lat="45.79436" lon="6.19381">
        <ele>862</ele>
        <time>2019-09-18T16:17:01Z</time>
      </trkpt>
      <trkpt lat="45.79416" lon="6.19388">
        <ele>865</ele>
        <time>2019-09-18T16:17:11Z</time>
      </trkpt>
      <trkpt lat="45.79386" lon="6.19379">
        <ele>864</ele>
        <time>2019-09-18T16:17:26Z</time>
      </trkpt>
      <trkpt lat="45.79386" lon="6.19365">
        <ele>863</ele>
        <time>2019-09-18T16:17:31Z</time>
      </trkpt>
      <trkpt lat="45.7938" lon="6.19354">
        <ele>862</ele>
        <time>2019-09-18T16:17:36Z</time>
      </trkpt>
      <trkpt lat="45.79352" lon="6.19341">
        <ele>861</ele>
        <time>2019-09-18T16:17:51Z</time>
      </trkpt>
      <trkpt lat="45.79343" lon="6.1934">
        <ele>861</ele>
        <time>2019-09-18T16:17:55Z</time>
      </trkpt>
      <trkpt lat="45.79325" lon="6.19346">
        <ele>861</ele>
        <time>2019-09-18T16:18:05Z</time>
      </trkpt>
      <trkpt lat="45.79295" lon="6.19342">
        <ele>861</ele>
        <time>2019-09-18T16:18:20Z</time>
      </trkpt>
      <trkpt lat="45.79243" lon="6.1934">
        <ele>859</ele>
        <time>2019-09-18T16:18:46Z</time>
      </trkpt>
      <trkpt lat="45.79233" lon="6.19337">
        <ele>859</ele>
        <time>2019-09-18T16:18:51Z</time>
      </trkpt>
      <trkpt lat="45.79193" lon="6.19339">
        <ele>856</ele>
        <time>2019-09-18T16:19:11Z</time>
      </trkpt>
      <trkpt lat="45.79173" lon="6.19336">
        <ele>855</ele>
        <time>2019-09-18T16:19:21Z</time>
      </trkpt>
      <trkpt lat="45.79156" lon="6.19348">
        <ele>854</ele>
        <time>2019-09-18T16:19:30Z</time>
      </trkpt>
      <trkpt lat="45.79137" lon="6.19355">
        <ele>853</ele>
        <time>2019-09-18T16:19:40Z</time>
      </trkpt>
      <trkpt lat="45.79125" lon="6.19355">
        <ele>852</ele>
        <time>2019-09-18T16:19:46Z</time>
      </trkpt>
      <trkpt lat="45.79095" lon="6.19371">
        <ele>850</ele>
        <time>2019-09-18T16:20:02Z</time>
      </trkpt>
      <trkpt lat="45.79075" lon="6.19371">
        <ele>850</ele>
        <time>2019-09-18T16:20:12Z</time>
      </trkpt>
      <trkpt lat="45.79055" lon="6.19365">
        <ele>851</ele>
        <time>2019-09-18T16:20:22Z</time>
      </trkpt>
      <trkpt lat="45.79024" lon="6.19371">
        <ele>852</ele>
        <time>2019-09-18T16:20:38Z</time>
      </trkpt>
      <trkpt lat="45.79015" lon="6.19369">
        <ele>852</ele>
        <time>2019-09-18T16:20:43Z</time>
      </trkpt>
      <trkpt lat="45.79006" lon="6.19365">
        <ele>853</ele>
        <time>2019-09-18T16:20:47Z</time>
      </trkpt>
      <trkpt lat="45.7898" lon="6.19333">
        <ele>857</ele>
        <time>2019-09-18T16:21:05Z</time>
      </trkpt>
      <trkpt lat="45.78972" lon="6.19327">
        <ele>856</ele>
        <time>2019-09-18T16:21:09Z</time>
      </trkpt>
      <trkpt lat="45.78963" lon="6.19322">
        <ele>855</ele>
        <time>2019-09-18T16:21:14Z</time>
      </trkpt>
      <trkpt lat="45.78953" lon="6.19324">
        <ele>856</ele>
        <time>2019-09-18T16:21:19Z</time>
      </trkpt>
      <trkpt lat="45.78942" lon="6.19323">
        <ele>856</ele>
        <time>2019-09-18T16:21:24Z</time>
      </trkpt>
      <trkpt lat="45.78932" lon="6.19319">
        <ele>855</ele>
        <time>2019-09-18T16:21:30Z</time>
      </trkpt>
      <trkpt lat="45.78922" lon="6.19293">
        <ele>853</ele>
        <time>2019-09-18T16:21:40Z</time>
      </trkpt>
      <trkpt lat="45.78914" lon="6.19283">
        <ele>851</ele>
        <time>2019-09-18T16:21:45Z</time>
      </trkpt>
      <trkpt lat="45.78896" lon="6.19269">
        <ele>848</ele>
        <time>2019-09-18T16:21:56Z</time>
      </trkpt>
      <trkpt lat="45.78888" lon="6.19258">
        <ele>847</ele>
        <time>2019-09-18T16:22:01Z</time>
      </trkpt>
      <trkpt lat="45.78888" lon="6.19244">
        <ele>845</ele>
        <time>2019-09-18T16:22:06Z</time>
      </trkpt>
      <trkpt lat="45.78878" lon="6.19238">
        <ele>843</ele>
        <time>2019-09-18T16:22:11Z</time>
      </trkpt>
      <trkpt lat="45.78869" lon="6.19243">
        <ele>844</ele>
        <time>2019-09-18T16:22:16Z</time>
      </trkpt>
      <trkpt lat="45.78859" lon="6.19242">
        <ele>843</ele>
        <time>2019-09-18T16:22:21Z</time>
      </trkpt>
      <trkpt lat="45.78822" lon="6.19211">
        <ele>838</ele>
        <time>2019-09-18T16:22:43Z</time>
      </trkpt>
      <trkpt lat="45.78814" lon="6.19201">
        <ele>837</ele>
        <time>2019-09-18T16:22:48Z</time>
      </trkpt>
      <trkpt lat="45.78808" lon="6.19187">
        <ele>836</ele>
        <time>2019-09-18T16:22:54Z</time>
      </trkpt>
      <trkpt lat="45.78789" lon="6.19172">
        <ele>835</ele>
        <time>2019-09-18T16:23:05Z</time>
      </trkpt>
      <trkpt lat="45.78783" lon="6.19163">
        <ele>835</ele>
        <time>2019-09-18T16:23:09Z</time>
      </trkpt>
      <trkpt lat="45.78779" lon="6.19116">
        <ele>838</ele>
        <time>2019-09-18T16:23:25Z</time>
      </trkpt>
      <trkpt lat="45.78788" lon="6.19074">
        <ele>840</ele>
        <time>2019-09-18T16:23:41Z</time>
      </trkpt>
      <trkpt lat="45.7881" lon="6.1907">
        <ele>839</ele>
        <time>2019-09-18T16:23:52Z</time>
      </trkpt>
      <trkpt lat="45.7883" lon="6.1906">
        <ele>838</ele>
        <time>2019-09-18T16:24:03Z</time>
      </trkpt>
      <trkpt lat="45.78862" lon="6.19058">
        <ele>834</ele>
        <time>2019-09-18T16:24:19Z</time>
      </trkpt>
      <trkpt lat="45.78883" lon="6.19051">
        <ele>831</ele>
        <time>2019-09-18T16:24:29Z</time>
      </trkpt>
      <trkpt lat="45.78913" lon="6.19035">
        <ele>828</ele>
        <time>2019-09-18T16:24:45Z</time>
      </trkpt>
      <trkpt lat="45.78931" lon="6.1902">
        <ele>828</ele>
        <time>2019-09-18T16:24:56Z</time>
      </trkpt>
      <trkpt lat="45.78938" lon="6.1901">
        <ele>827</ele>
        <time>2019-09-18T16:25:01Z</time>
      </trkpt>
      <trkpt lat="45.78931" lon="6.19002">
        <ele>829</ele>
        <time>2019-09-18T16:25:05Z</time>
      </trkpt>
      <trkpt lat="45.78922" lon="6.18999">
        <ele>830</ele>
        <time>2019-09-18T16:25:10Z</time>
      </trkpt>
      <trkpt lat="45.78912" lon="6.18992">
        <ele>831</ele>
        <time>2019-09-18T16:25:15Z</time>
      </trkpt>
      <trkpt lat="45.78883" lon="6.18988">
        <ele>835</ele>
        <time>2019-09-18T16:25:30Z</time>
      </trkpt>
      <trkpt lat="45.78875" lon="6.18996">
        <ele>836</ele>
        <time>2019-09-18T16:25:35Z</time>
      </trkpt>
      <trkpt lat="45.78854" lon="6.19009">
        <ele>839</ele>
        <time>2019-09-18T16:25:46Z</time>
      </trkpt>
      <trkpt lat="45.78832" lon="6.1901">
        <ele>842</ele>
        <time>2019-09-18T16:25:57Z</time>
      </trkpt>
      <trkpt lat="45.7876" lon="6.18995">
        <ele>854</ele>
        <time>2019-09-18T16:26:34Z</time>
      </trkpt>
      <trkpt lat="45.78742" lon="6.18982">
        <ele>856</ele>
        <time>2019-09-18T16:26:44Z</time>
      </trkpt>
      <trkpt lat="45.78692" lon="6.18969">
        <ele>864</ele>
        <time>2019-09-18T16:27:09Z</time>
      </trkpt>
      <trkpt lat="45.78684" lon="6.18978">
        <ele>866</ele>
        <time>2019-09-18T16:27:14Z</time>
      </trkpt>
      <trkpt lat="45.7868" lon="6.18992">
        <ele>867</ele>
        <time>2019-09-18T16:27:20Z</time>
      </trkpt>
      <trkpt lat="45.78653" lon="6.19">
        <ele>872</ele>
        <time>2019-09-18T16:27:33Z</time>
      </trkpt>
      <trkpt lat="45.78599" lon="6.19">
        <ele>879</ele>
        <time>2019-09-18T16:28:00Z</time>
      </trkpt>
      <trkpt lat="45.78561" lon="6.19012">
        <ele>881</ele>
        <time>2019-09-18T16:28:20Z</time>
      </trkpt>
      <trkpt lat="45.7854" lon="6.19014">
        <ele>882</ele>
        <time>2019-09-18T16:28:30Z</time>
      </trkpt>
      <trkpt lat="45.78532" lon="6.19021">
        <ele>882</ele>
        <time>2019-09-18T16:28:35Z</time>
      </trkpt>
      <trkpt lat="45.78512" lon="6.1903">
        <ele>884</ele>
        <time>2019-09-18T16:28:46Z</time>
      </trkpt>
      <trkpt lat="45.78495" lon="6.19045">
        <ele>885</ele>
        <time>2019-09-18T16:28:56Z</time>
      </trkpt>
      <trkpt lat="45.78487" lon="6.19039">
        <ele>886</ele>
        <time>2019-09-18T16:29:00Z</time>
      </trkpt>
      <trkpt lat="45.78474" lon="6.1902">
        <ele>889</ele>
        <time>2019-09-18T16:29:09Z</time>
      </trkpt>
      <trkpt lat="45.78455" lon="6.19014">
        <ele>892</ele>
        <time>2019-09-18T16:29:19Z</time>
      </trkpt>
      <trkpt lat="45.78445" lon="6.19019">
        <ele>894</ele>
        <time>2019-09-18T16:29:24Z</time>
      </trkpt>
      <trkpt lat="45.78436" lon="6.19019">
        <ele>895</ele>
        <time>2019-09-18T16:29:29Z</time>
      </trkpt>
      <trkpt lat="45.78416" lon="6.19025">
        <ele>898</ele>
        <time>2019-09-18T16:29:39Z</time>
      </trkpt>
      <trkpt lat="45.78383" lon="6.19049">
        <ele>901</ele>
        <time>2019-09-18T16:29:58Z</time>
      </trkpt>
      <trkpt lat="45.78371" lon="6.19049">
        <ele>903</ele>
        <time>2019-09-18T16:30:04Z</time>
      </trkpt>
      <trkpt lat="45.78363" lon="6.1904">
        <ele>904</ele>
        <time>2019-09-18T16:30:09Z</time>
      </trkpt>
      <trkpt lat="45.78356" lon="6.19026">
        <ele>905</ele>
        <time>2019-09-18T16:30:15Z</time>
      </trkpt>
      <trkpt lat="45.78347" lon="6.18984">
        <ele>906</ele>
        <time>2019-09-18T16:30:30Z</time>
      </trkpt>
      <trkpt lat="45.78326" lon="6.18952">
        <ele>908</ele>
        <time>2019-09-18T16:30:45Z</time>
      </trkpt>
      <trkpt lat="45.78322" lon="6.1894">
        <ele>908</ele>
        <time>2019-09-18T16:30:50Z</time>
      </trkpt>
      <trkpt lat="45.78308" lon="6.1892">
        <ele>911</ele>
        <time>2019-09-18T16:31:00Z</time>
      </trkpt>
      <trkpt lat="45.783" lon="6.18915">
        <ele>912</ele>
        <time>2019-09-18T16:31:04Z</time>
      </trkpt>
      <trkpt lat="45.78292" lon="6.18906">
        <ele>913</ele>
        <time>2019-09-18T16:31:09Z</time>
      </trkpt>
      <trkpt lat="45.78271" lon="6.18893">
        <ele>917</ele>
        <time>2019-09-18T16:31:21Z</time>
      </trkpt>
      <trkpt lat="45.78254" lon="6.18875">
        <ele>919</ele>
        <time>2019-09-18T16:31:31Z</time>
      </trkpt>
      <trkpt lat="45.78235" lon="6.18861">
        <ele>920</ele>
        <time>2019-09-18T16:31:42Z</time>
      </trkpt>
      <trkpt lat="45.78215" lon="6.18854">
        <ele>921</ele>
        <time>2019-09-18T16:31:52Z</time>
      </trkpt>
      <trkpt lat="45.78186" lon="6.18836">
        <ele>922</ele>
        <time>2019-09-18T16:32:08Z</time>
      </trkpt>
      <trkpt lat="45.78164" lon="6.18831">
        <ele>923</ele>
        <time>2019-09-18T16:32:19Z</time>
      </trkpt>
      <trkpt lat="45.78143" lon="6.18822">
        <ele>924</ele>
        <time>2019-09-18T16:32:30Z</time>
      </trkpt>
      <trkpt lat="45.78133" lon="6.18813">
        <ele>925</ele>
        <time>2019-09-18T16:32:36Z</time>
      </trkpt>
      <trkpt lat="45.78124" lon="6.1881">
        <ele>925</ele>
        <time>2019-09-18T16:32:41Z</time>
      </trkpt>
      <trkpt lat="45.78077" lon="6.18849">
        <ele>926</ele>
        <time>2019-09-18T16:33:08Z</time>
      </trkpt>
      <trkpt lat="45.78064" lon="6.18872">
        <ele>927</ele>
        <time>2019-09-18T16:33:18Z</time>
      </trkpt>
      <trkpt lat="45.78056" lon="6.18881">
        <ele>929</ele>
        <time>2019-09-18T16:33:23Z</time>
      </trkpt>
      <trkpt lat="45.78047" lon="6.18885">
        <ele>931</ele>
        <time>2019-09-18T16:33:28Z</time>
      </trkpt>
      <trkpt lat="45.7803" lon="6.18899">
        <ele>934</ele>
        <time>2019-09-18T16:33:38Z</time>
      </trkpt>
      <trkpt lat="45.78012" lon="6.1891">
        <ele>938</ele>
        <time>2019-09-18T16:33:48Z</time>
      </trkpt>
      <trkpt lat="45.77973" lon="6.18929">
        <ele>948</ele>
        <time>2019-09-18T16:34:08Z</time>
      </trkpt>
      <trkpt lat="45.77931" lon="6.18928">
        <ele>961</ele>
        <time>2019-09-18T16:34:29Z</time>
      </trkpt>
      <trkpt lat="45.77922" lon="6.18925">
        <ele>964</ele>
        <time>2019-09-18T16:34:34Z</time>
      </trkpt>
      <trkpt lat="45.77911" lon="6.18964">
        <ele>964</ele>
        <time>2019-09-18T16:34:49Z</time>
      </trkpt>
      <trkpt lat="45.77912" lon="6.18978">
        <ele>963</ele>
        <time>2019-09-18T16:34:54Z</time>
      </trkpt>
      <trkpt lat="45.7791" lon="6.18991">
        <ele>962</ele>
        <time>2019-09-18T16:34:58Z</time>
      </trkpt>
      <trkpt lat="45.77896" lon="6.19015">
        <ele>965</ele>
        <time>2019-09-18T16:35:09Z</time>
      </trkpt>
      <trkpt lat="45.77892" lon="6.19027">
        <ele>964</ele>
        <time>2019-09-18T16:35:14Z</time>
      </trkpt>
      <trkpt lat="45.77877" lon="6.19042">
        <ele>966</ele>
        <time>2019-09-18T16:35:23Z</time>
      </trkpt>
      <trkpt lat="45.77857" lon="6.19043">
        <ele>971</ele>
        <time>2019-09-18T16:35:33Z</time>
      </trkpt>
      <trkpt lat="45.77805" lon="6.19062">
        <ele>974</ele>
        <time>2019-09-18T16:36:00Z</time>
      </trkpt>
      <trkpt lat="45.77794" lon="6.19062">
        <ele>975</ele>
        <time>2019-09-18T16:36:05Z</time>
      </trkpt>
      <trkpt lat="45.77774" lon="6.19067">
        <ele>975</ele>
        <time>2019-09-18T16:36:16Z</time>
      </trkpt>
      <trkpt lat="45.77754" lon="6.19064">
        <ele>978</ele>
        <time>2019-09-18T16:36:26Z</time>
      </trkpt>
      <trkpt lat="45.77745" lon="6.19058">
        <ele>981</ele>
        <time>2019-09-18T16:36:31Z</time>
      </trkpt>
      <trkpt lat="45.77726" lon="6.19055">
        <ele>983</ele>
        <time>2019-09-18T16:36:40Z</time>
      </trkpt>
      <trkpt lat="45.77717" lon="6.1905">
        <ele>986</ele>
        <time>2019-09-18T16:36:45Z</time>
      </trkpt>
      <trkpt lat="45.77678" lon="6.19045">
        <ele>989</ele>
        <time>2019-09-18T16:37:05Z</time>
      </trkpt>
      <trkpt lat="45.77647" lon="6.19025">
        <ele>995</ele>
        <time>2019-09-18T16:37:22Z</time>
      </trkpt>
      <trkpt lat="45.77637" lon="6.19024">
        <ele>994</ele>
        <time>2019-09-18T16:37:27Z</time>
      </trkpt>
      <trkpt lat="45.77628" lon="6.19019">
        <ele>995</ele>
        <time>2019-09-18T16:37:31Z</time>
      </trkpt>
      <trkpt lat="45.7762" lon="6.1901">
        <ele>998</ele>
        <time>2019-09-18T16:37:37Z</time>
      </trkpt>
      <trkpt lat="45.77615" lon="6.18999">
        <ele>1002</ele>
        <time>2019-09-18T16:37:41Z</time>
      </trkpt>
      <trkpt lat="45.77645" lon="6.18987">
        <ele>1007</ele>
        <time>2019-09-18T16:37:57Z</time>
      </trkpt>
      <trkpt lat="45.77723" lon="6.18916">
        <ele>1021</ele>
        <time>2019-09-18T16:38:43Z</time>
      </trkpt>
      <trkpt lat="45.77726" lon="6.18903">
        <ele>1023</ele>
        <time>2019-09-18T16:38:48Z</time>
      </trkpt>
      <trkpt lat="45.77724" lon="6.1889">
        <ele>1026</ele>
        <time>2019-09-18T16:38:52Z</time>
      </trkpt>
      <trkpt lat="45.77714" lon="6.18885">
        <ele>1028</ele>
        <time>2019-09-18T16:38:58Z</time>
      </trkpt>
      <trkpt lat="45.77704" lon="6.18885">
        <ele>1030</ele>
        <time>2019-09-18T16:39:03Z</time>
      </trkpt>
      <trkpt lat="45.77665" lon="6.18872">
        <ele>1039</ele>
        <time>2019-09-18T16:39:23Z</time>
      </trkpt>
      <trkpt lat="45.77649" lon="6.18858">
        <ele>1043</ele>
        <time>2019-09-18T16:39:32Z</time>
      </trkpt>
      <trkpt lat="45.7764" lon="6.18855">
        <ele>1044</ele>
        <time>2019-09-18T16:39:37Z</time>
      </trkpt>
      <trkpt lat="45.77624" lon="6.1884">
        <ele>1049</ele>
        <time>2019-09-18T16:39:46Z</time>
      </trkpt>
      <trkpt lat="45.77606" lon="6.18833">
        <ele>1052</ele>
        <time>2019-09-18T16:39:56Z</time>
      </trkpt>
      <trkpt lat="45.77597" lon="6.18824">
        <ele>1055</ele>
        <time>2019-09-18T16:40:01Z</time>
      </trkpt>
      <trkpt lat="45.77577" lon="6.1882">
        <ele>1057</ele>
        <time>2019-09-18T16:40:11Z</time>
      </trkpt>
      <trkpt lat="45.77568" lon="6.18823">
        <ele>1056</ele>
        <time>2019-09-18T16:40:16Z</time>
      </trkpt>
      <trkpt lat="45.77557" lon="6.18814">
        <ele>1058</ele>
        <time>2019-09-18T16:40:22Z</time>
      </trkpt>
      <trkpt lat="45.77557" lon="6.18801">
        <ele>1061</ele>
        <time>2019-09-18T16:40:27Z</time>
      </trkpt>
      <trkpt lat="45.77565" lon="6.18794">
        <ele>1064</ele>
        <time>2019-09-18T16:40:31Z</time>
      </trkpt>
      <trkpt lat="45.77574" lon="6.1879">
        <ele>1065</ele>
        <time>2019-09-18T16:40:36Z</time>
      </trkpt>
      <trkpt lat="45.77582" lon="6.18781">
        <ele>1068</ele>
        <time>2019-09-18T16:40:41Z</time>
      </trkpt>
      <trkpt lat="45.7759" lon="6.18776">
        <ele>1068</ele>
        <time>2019-09-18T16:40:46Z</time>
      </trkpt>
      <trkpt lat="45.776" lon="6.18773">
        <ele>1068</ele>
        <time>2019-09-18T16:40:51Z</time>
      </trkpt>
      <trkpt lat="45.77628" lon="6.18758">
        <ele>1069</ele>
        <time>2019-09-18T16:41:06Z</time>
      </trkpt>
      <trkpt lat="45.77634" lon="6.18747">
        <ele>1071</ele>
        <time>2019-09-18T16:41:10Z</time>
      </trkpt>
      <trkpt lat="45.7763" lon="6.18735">
        <ele>1071</ele>
        <time>2019-09-18T16:41:15Z</time>
      </trkpt>
      <trkpt lat="45.776" lon="6.18734">
        <ele>1075</ele>
        <time>2019-09-18T16:41:30Z</time>
      </trkpt>
      <trkpt lat="45.77573" lon="6.18742">
        <ele>1077</ele>
        <time>2019-09-18T16:41:44Z</time>
      </trkpt>
      <trkpt lat="45.77544" lon="6.18739">
        <ele>1077</ele>
        <time>2019-09-18T16:41:59Z</time>
      </trkpt>
      <trkpt lat="45.77536" lon="6.18734">
        <ele>1078</ele>
        <time>2019-09-18T16:42:03Z</time>
      </trkpt>
      <trkpt lat="45.7753" lon="6.18721">
        <ele>1081</ele>
        <time>2019-09-18T16:42:08Z</time>
      </trkpt>
      <trkpt lat="45.77534" lon="6.18707">
        <ele>1084</ele>
        <time>2019-09-18T16:42:14Z</time>
      </trkpt>
      <trkpt lat="45.77544" lon="6.18702">
        <ele>1085</ele>
        <time>2019-09-18T16:42:19Z</time>
      </trkpt>
      <trkpt lat="45.77564" lon="6.18708">
        <ele>1082</ele>
        <time>2019-09-18T16:42:29Z</time>
      </trkpt>
      <trkpt lat="45.77572" lon="6.18701">
        <ele>1082</ele>
        <time>2019-09-18T16:42:34Z</time>
      </trkpt>
      <trkpt lat="45.77575" lon="6.18688">
        <ele>1084</ele>
        <time>2019-09-18T16:42:39Z</time>
      </trkpt>
      <trkpt lat="45.77576" lon="6.18661">
        <ele>1086</ele>
        <time>2019-09-18T16:42:48Z</time>
      </trkpt>
      <trkpt lat="45.77566" lon="6.18636">
        <ele>1087</ele>
        <time>2019-09-18T16:42:58Z</time>
      </trkpt>
      <trkpt lat="45.7756" lon="6.18627">
        <ele>1089</ele>
        <time>2019-09-18T16:43:02Z</time>
      </trkpt>
      <trkpt lat="45.7754" lon="6.1861">
        <ele>1094</ele>
        <time>2019-09-18T16:43:14Z</time>
      </trkpt>
      <trkpt lat="45.7753" lon="6.18585">
        <ele>1098</ele>
        <time>2019-09-18T16:43:24Z</time>
      </trkpt>
      <trkpt lat="45.77524" lon="6.18553">
        <ele>1097</ele>
        <time>2019-09-18T16:43:36Z</time>
      </trkpt>
      <trkpt lat="45.77516" lon="6.18543">
        <ele>1098</ele>
        <time>2019-09-18T16:43:41Z</time>
      </trkpt>
      <trkpt lat="45.775" lon="6.18509">
        <ele>1097</ele>
        <time>2019-09-18T16:43:55Z</time>
      </trkpt>
      <trkpt lat="45.775" lon="6.18495">
        <ele>1096</ele>
        <time>2019-09-18T16:44:00Z</time>
      </trkpt>
      <trkpt lat="45.77495" lon="6.18469">
        <ele>1096</ele>
        <time>2019-09-18T16:44:10Z</time>
      </trkpt>
      <trkpt lat="45.77495" lon="6.18423">
        <ele>1095</ele>
        <time>2019-09-18T16:44:26Z</time>
      </trkpt>
      <trkpt lat="45.77492" lon="6.18408">
        <ele>1095</ele>
        <time>2019-09-18T16:44:31Z</time>
      </trkpt>
      <trkpt lat="45.77475" lon="6.1839">
        <ele>1098</ele>
        <time>2019-09-18T16:44:42Z</time>
      </trkpt>
      <trkpt lat="45.77461" lon="6.18367">
        <ele>1102</ele>
        <time>2019-09-18T16:44:52Z</time>
      </trkpt>
      <trkpt lat="45.77458" lon="6.18353">
        <ele>1102</ele>
        <time>2019-09-18T16:44:57Z</time>
      </trkpt>
      <trkpt lat="45.77452" lon="6.18343">
        <ele>1104</ele>
        <time>2019-09-18T16:45:02Z</time>
      </trkpt>
      <trkpt lat="45.77444" lon="6.18337">
        <ele>1106</ele>
        <time>2019-09-18T16:45:07Z</time>
      </trkpt>
      <trkpt lat="45.7743" lon="6.18316">
        <ele>1111</ele>
        <time>2019-09-18T16:45:17Z</time>
      </trkpt>
      <trkpt lat="45.77426" lon="6.18301">
        <ele>1112</ele>
        <time>2019-09-18T16:45:22Z</time>
      </trkpt>
      <trkpt lat="45.77427" lon="6.18288">
        <ele>1111</ele>
        <time>2019-09-18T16:45:27Z</time>
      </trkpt>
      <trkpt lat="45.77421" lon="6.18261">
        <ele>1113</ele>
        <time>2019-09-18T16:45:37Z</time>
      </trkpt>
      <trkpt lat="45.77403" lon="6.18243">
        <ele>1116</ele>
        <time>2019-09-18T16:45:48Z</time>
      </trkpt>
      <trkpt lat="45.77389" lon="6.18204">
        <ele>1118</ele>
        <time>2019-09-18T16:46:03Z</time>
      </trkpt>
      <trkpt lat="45.77383" lon="6.18176">
        <ele>1118</ele>
        <time>2019-09-18T16:46:13Z</time>
      </trkpt>
      <trkpt lat="45.77386" lon="6.18147">
        <ele>1117</ele>
        <time>2019-09-18T16:46:24Z</time>
      </trkpt>
      <trkpt lat="45.77381" lon="6.18136">
        <ele>1117</ele>
        <time>2019-09-18T16:46:28Z</time>
      </trkpt>
      <trkpt lat="45.77348" lon="6.18099">
        <ele>1123</ele>
        <time>2019-09-18T16:46:49Z</time>
      </trkpt>
      <trkpt lat="45.77331" lon="6.18085">
        <ele>1126</ele>
        <time>2019-09-18T16:46:59Z</time>
      </trkpt>
      <trkpt lat="45.77312" lon="6.18074">
        <ele>1127</ele>
        <time>2019-09-18T16:47:09Z</time>
      </trkpt>
      <trkpt lat="45.77297" lon="6.18056">
        <ele>1128</ele>
        <time>2019-09-18T16:47:19Z</time>
      </trkpt>
      <trkpt lat="45.77287" lon="6.18053">
        <ele>1128</ele>
        <time>2019-09-18T16:47:24Z</time>
      </trkpt>
      <trkpt lat="45.77257" lon="6.18037">
        <ele>1131</ele>
        <time>2019-09-18T16:47:40Z</time>
      </trkpt>
      <trkpt lat="45.7725" lon="6.1803">
        <ele>1132</ele>
        <time>2019-09-18T16:47:44Z</time>
      </trkpt>
      <trkpt lat="45.7724" lon="6.18026">
        <ele>1132</ele>
        <time>2019-09-18T16:47:50Z</time>
      </trkpt>
      <trkpt lat="45.77174" lon="6.18013">
        <ele>1129</ele>
        <time>2019-09-18T16:48:23Z</time>
      </trkpt>
      <trkpt lat="45.77124" lon="6.17989">
        <ele>1126</ele>
        <time>2019-09-18T16:48:49Z</time>
      </trkpt>
      <trkpt lat="45.77105" lon="6.17977">
        <ele>1126</ele>
        <time>2019-09-18T16:49:00Z</time>
      </trkpt>
      <trkpt lat="45.77083" lon="6.1797">
        <ele>1125</ele>
        <time>2019-09-18T16:49:11Z</time>
      </trkpt>
      <trkpt lat="45.77051" lon="6.17971">
        <ele>1120</ele>
        <time>2019-09-18T16:49:27Z</time>
      </trkpt>
      <trkpt lat="45.77029" lon="6.17978">
        <ele>1115</ele>
        <time>2019-09-18T16:49:38Z</time>
      </trkpt>
      <trkpt lat="45.77018" lon="6.17977">
        <ele>1114</ele>
        <time>2019-09-18T16:49:44Z</time>
      </trkpt>
      <trkpt lat="45.77007" lon="6.17972">
        <ele>1114</ele>
        <time>2019-09-18T16:49:50Z</time>
      </trkpt>
      <trkpt lat="45.76982" lon="6.17953">
        <ele>1114</ele>
        <time>2019-09-18T16:50:04Z</time>
      </trkpt>
      <trkpt lat="45.7697" lon="6.17952">
        <ele>1111</ele>
        <time>2019-09-18T16:50:10Z</time>
      </trkpt>
      <trkpt lat="45.76959" lon="6.17947">
        <ele>1109</ele>
        <time>2019-09-18T16:50:15Z</time>
      </trkpt>
      <trkpt lat="45.76941" lon="6.17924">
        <ele>1109</ele>
        <time>2019-09-18T16:50:28Z</time>
      </trkpt>
      <trkpt lat="45.76936" lon="6.1791">
        <ele>1110</ele>
        <time>2019-09-18T16:50:33Z</time>
      </trkpt>
      <trkpt lat="45.76922" lon="6.1789">
        <ele>1109</ele>
        <time>2019-09-18T16:50:43Z</time>
      </trkpt>
      <trkpt lat="45.76881" lon="6.17869">
        <ele>1106</ele>
        <time>2019-09-18T16:51:05Z</time>
      </trkpt>
      <trkpt lat="45.76871" lon="6.17872">
        <ele>1104</ele>
        <time>2019-09-18T16:51:10Z</time>
      </trkpt>
      <trkpt lat="45.76848" lon="6.17901">
        <ele>1098</ele>
        <time>2019-09-18T16:51:25Z</time>
      </trkpt>
      <trkpt lat="45.76839" lon="6.17909">
        <ele>1096</ele>
        <time>2019-09-18T16:51:30Z</time>
      </trkpt>
      <trkpt lat="45.76828" lon="6.17909">
        <ele>1095</ele>
        <time>2019-09-18T16:51:36Z</time>
      </trkpt>
      <trkpt lat="45.76818" lon="6.17907">
        <ele>1094</ele>
        <time>2019-09-18T16:51:41Z</time>
      </trkpt>
      <trkpt lat="45.76796" lon="6.17897">
        <ele>1094</ele>
        <time>2019-09-18T16:51:53Z</time>
      </trkpt>
      <trkpt lat="45.76769" lon="6.17892">
        <ele>1093</ele>
        <time>2019-09-18T16:52:06Z</time>
      </trkpt>
      <trkpt lat="45.7675" lon="6.17883">
        <ele>1093</ele>
        <time>2019-09-18T16:52:16Z</time>
      </trkpt>
      <trkpt lat="45.76728" lon="6.17882">
        <ele>1095</ele>
        <time>2019-09-18T16:52:27Z</time>
      </trkpt>
      <trkpt lat="45.76696" lon="6.17885">
        <ele>1097</ele>
        <time>2019-09-18T16:52:43Z</time>
      </trkpt>
      <trkpt lat="45.76675" lon="6.17874">
        <ele>1101</ele>
        <time>2019-09-18T16:52:54Z</time>
      </trkpt>
      <trkpt lat="45.76621" lon="6.17839">
        <ele>1107</ele>
        <time>2019-09-18T16:53:24Z</time>
      </trkpt>
      <trkpt lat="45.76599" lon="6.17832">
        <ele>1108</ele>
        <time>2019-09-18T16:53:35Z</time>
      </trkpt>
      <trkpt lat="45.7658" lon="6.17835">
        <ele>1108</ele>
        <time>2019-09-18T16:53:45Z</time>
      </trkpt>
      <trkpt lat="45.7657" lon="6.1783">
        <ele>1109</ele>
        <time>2019-09-18T16:53:50Z</time>
      </trkpt>
      <trkpt lat="45.76559" lon="6.17823">
        <ele>1110</ele>
        <time>2019-09-18T16:53:56Z</time>
      </trkpt>
      <trkpt lat="45.76544" lon="6.17806">
        <ele>1112</ele>
        <time>2019-09-18T16:54:06Z</time>
      </trkpt>
      <trkpt lat="45.76518" lon="6.17784">
        <ele>1115</ele>
        <time>2019-09-18T16:54:21Z</time>
      </trkpt>
      <trkpt lat="45.7651" lon="6.17778">
        <ele>1116</ele>
        <time>2019-09-18T16:54:25Z</time>
      </trkpt>
      <trkpt lat="45.765" lon="6.17775">
        <ele>1117</ele>
        <time>2019-09-18T16:54:31Z</time>
      </trkpt>
      <trkpt lat="45.76491" lon="6.17777">
        <ele>1118</ele>
        <time>2019-09-18T16:54:35Z</time>
      </trkpt>
      <trkpt lat="45.76461" lon="6.17795">
        <ele>1120</ele>
        <time>2019-09-18T16:54:51Z</time>
      </trkpt>
      <trkpt lat="45.76452" lon="6.17798">
        <ele>1121</ele>
        <time>2019-09-18T16:54:56Z</time>
      </trkpt>
      <trkpt lat="45.76442" lon="6.17797">
        <ele>1123</ele>
        <time>2019-09-18T16:55:01Z</time>
      </trkpt>
      <trkpt lat="45.76433" lon="6.17789">
        <ele>1124</ele>
        <time>2019-09-18T16:55:06Z</time>
      </trkpt>
      <trkpt lat="45.76426" lon="6.17778">
        <ele>1126</ele>
        <time>2019-09-18T16:55:12Z</time>
      </trkpt>
      <trkpt lat="45.76434" lon="6.17735">
        <ele>1128</ele>
        <time>2019-09-18T16:55:27Z</time>
      </trkpt>
      <trkpt lat="45.76437" lon="6.17677">
        <ele>1137</ele>
        <time>2019-09-18T16:55:47Z</time>
      </trkpt>
      <trkpt lat="45.76427" lon="6.1767">
        <ele>1138</ele>
        <time>2019-09-18T16:55:53Z</time>
      </trkpt>
      <trkpt lat="45.76415" lon="6.17671">
        <ele>1138</ele>
        <time>2019-09-18T16:55:59Z</time>
      </trkpt>
      <trkpt lat="45.76394" lon="6.1768">
        <ele>1138</ele>
        <time>2019-09-18T16:56:10Z</time>
      </trkpt>
      <trkpt lat="45.76373" lon="6.17685">
        <ele>1139</ele>
        <time>2019-09-18T16:56:21Z</time>
      </trkpt>
      <trkpt lat="45.76342" lon="6.17705">
        <ele>1142</ele>
        <time>2019-09-18T16:56:38Z</time>
      </trkpt>
      <trkpt lat="45.76332" lon="6.17705">
        <ele>1143</ele>
        <time>2019-09-18T16:56:43Z</time>
      </trkpt>
      <trkpt lat="45.76322" lon="6.17697">
        <ele>1144</ele>
        <time>2019-09-18T16:56:48Z</time>
      </trkpt>
      <trkpt lat="45.76308" lon="6.17676">
        <ele>1145</ele>
        <time>2019-09-18T16:56:58Z</time>
      </trkpt>
      <trkpt lat="45.76292" lon="6.17659">
        <ele>1148</ele>
        <time>2019-09-18T16:57:08Z</time>
      </trkpt>
      <trkpt lat="45.76288" lon="6.17646">
        <ele>1151</ele>
        <time>2019-09-18T16:57:13Z</time>
      </trkpt>
      <trkpt lat="45.76295" lon="6.17638">
        <ele>1151</ele>
        <time>2019-09-18T16:57:18Z</time>
      </trkpt>
      <trkpt lat="45.76287" lon="6.17651">
        <ele>1150</ele>
        <time>2019-09-18T16:57:24Z</time>
      </trkpt>
      <trkpt lat="45.76285" lon="6.17647">
        <ele>1151</ele>
        <time>2019-09-18T16:57:26Z</time>
      </trkpt>
      <trkpt lat="45.76287" lon="6.17646">
        <ele>1151</ele>
        <time>2019-09-18T16:57:27Z</time>
      </trkpt>
      <trkpt lat="45.76268" lon="6.17665">
        <ele>1151</ele>
        <time>2019-09-18T16:57:38Z</time>
      </trkpt>
      <trkpt lat="45.76258" lon="6.17669">
        <ele>1152</ele>
        <time>2019-09-18T16:57:43Z</time>
      </trkpt>
      <trkpt lat="45.7625" lon="6.17663">
        <ele>1153</ele>
        <time>2019-09-18T16:57:48Z</time>
      </trkpt>
      <trkpt lat="45.7624" lon="6.17662">
        <ele>1156</ele>
        <time>2019-09-18T16:57:53Z</time>
      </trkpt>
      <trkpt lat="45.76223" lon="6.1765">
        <ele>1160</ele>
        <time>2019-09-18T16:58:02Z</time>
      </trkpt>
      <trkpt lat="45.76204" lon="6.17651">
        <ele>1164</ele>
        <time>2019-09-18T16:58:12Z</time>
      </trkpt>
      <trkpt lat="45.76186" lon="6.17644">
        <ele>1168</ele>
        <time>2019-09-18T16:58:21Z</time>
      </trkpt>
      <trkpt lat="45.76178" lon="6.17638">
        <ele>1170</ele>
        <time>2019-09-18T16:58:26Z</time>
      </trkpt>
      <trkpt lat="45.76168" lon="6.17638">
        <ele>1172</ele>
        <time>2019-09-18T16:58:31Z</time>
      </trkpt>
      <trkpt lat="45.76141" lon="6.17625">
        <ele>1176</ele>
        <time>2019-09-18T16:58:45Z</time>
      </trkpt>
      <trkpt lat="45.76131" lon="6.17623">
        <ele>1177</ele>
        <time>2019-09-18T16:58:50Z</time>
      </trkpt>
      <trkpt lat="45.76113" lon="6.17609">
        <ele>1179</ele>
        <time>2019-09-18T16:59:00Z</time>
      </trkpt>
      <trkpt lat="45.76103" lon="6.17605">
        <ele>1180</ele>
        <time>2019-09-18T16:59:06Z</time>
      </trkpt>
      <trkpt lat="45.76086" lon="6.1759">
        <ele>1181</ele>
        <time>2019-09-18T16:59:16Z</time>
      </trkpt>
      <trkpt lat="45.76067" lon="6.17586">
        <ele>1185</ele>
        <time>2019-09-18T16:59:25Z</time>
      </trkpt>
      <trkpt lat="45.76049" lon="6.17573">
        <ele>1189</ele>
        <time>2019-09-18T16:59:35Z</time>
      </trkpt>
      <trkpt lat="45.7604" lon="6.17572">
        <ele>1191</ele>
        <time>2019-09-18T16:59:40Z</time>
      </trkpt>
      <trkpt lat="45.76031" lon="6.17577">
        <ele>1193</ele>
        <time>2019-09-18T16:59:45Z</time>
      </trkpt>
      <trkpt lat="45.76013" lon="6.17567">
        <ele>1197</ele>
        <time>2019-09-18T16:59:54Z</time>
      </trkpt>
      <trkpt lat="45.75999" lon="6.17546">
        <ele>1200</ele>
        <time>2019-09-18T17:00:04Z</time>
      </trkpt>
      <trkpt lat="45.75981" lon="6.17554">
        <ele>1204</ele>
        <time>2019-09-18T17:00:14Z</time>
      </trkpt>
      <trkpt lat="45.75961" lon="6.17547">
        <ele>1209</ele>
        <time>2019-09-18T17:00:24Z</time>
      </trkpt>
      <trkpt lat="45.75952" lon="6.17547">
        <ele>1211</ele>
        <time>2019-09-18T17:00:29Z</time>
      </trkpt>
      <trkpt lat="45.75923" lon="6.17536">
        <ele>1218</ele>
        <time>2019-09-18T17:00:44Z</time>
      </trkpt>
      <trkpt lat="45.75904" lon="6.17538">
        <ele>1223</ele>
        <time>2019-09-18T17:00:53Z</time>
      </trkpt>
      <trkpt lat="45.75893" lon="6.17537">
        <ele>1227</ele>
        <time>2019-09-18T17:00:59Z</time>
      </trkpt>
      <trkpt lat="45.75884" lon="6.17533">
        <ele>1229</ele>
        <time>2019-09-18T17:01:03Z</time>
      </trkpt>
      <trkpt lat="45.75864" lon="6.17535">
        <ele>1235</ele>
        <time>2019-09-18T17:01:13Z</time>
      </trkpt>
      <trkpt lat="45.75855" lon="6.17531">
        <ele>1238</ele>
        <time>2019-09-18T17:01:18Z</time>
      </trkpt>
      <trkpt lat="45.75846" lon="6.17532">
        <ele>1240</ele>
        <time>2019-09-18T17:01:23Z</time>
      </trkpt>
      <trkpt lat="45.75848" lon="6.17519">
        <ele>1240</ele>
        <time>2019-09-18T17:01:27Z</time>
      </trkpt>
      <trkpt lat="45.75838" lon="6.17518">
        <ele>1242</ele>
        <time>2019-09-18T17:01:32Z</time>
      </trkpt>
      <trkpt lat="45.75827" lon="6.17521">
        <ele>1246</ele>
        <time>2019-09-18T17:01:38Z</time>
      </trkpt>
      <trkpt lat="45.75821" lon="6.17509">
        <ele>1247</ele>
        <time>2019-09-18T17:01:43Z</time>
      </trkpt>
      <trkpt lat="45.75813" lon="6.17504">
        <ele>1249</ele>
        <time>2019-09-18T17:01:48Z</time>
      </trkpt>
      <trkpt lat="45.75806" lon="6.17494">
        <ele>1251</ele>
        <time>2019-09-18T17:01:52Z</time>
      </trkpt>
      <trkpt lat="45.75802" lon="6.1748">
        <ele>1254</ele>
        <time>2019-09-18T17:01:58Z</time>
      </trkpt>
      <trkpt lat="45.75794" lon="6.17473">
        <ele>1256</ele>
        <time>2019-09-18T17:02:02Z</time>
      </trkpt>
      <trkpt lat="45.75786" lon="6.17482">
        <ele>1258</ele>
        <time>2019-09-18T17:02:08Z</time>
      </trkpt>
      <trkpt lat="45.75784" lon="6.17495">
        <ele>1258</ele>
        <time>2019-09-18T17:02:12Z</time>
      </trkpt>
      <trkpt lat="45.75775" lon="6.17501">
        <ele>1260</ele>
        <time>2019-09-18T17:02:17Z</time>
      </trkpt>
      <trkpt lat="45.75767" lon="6.17528">
        <ele>1263</ele>
        <time>2019-09-18T17:02:27Z</time>
      </trkpt>
      <trkpt lat="45.7576" lon="6.17538">
        <ele>1266</ele>
        <time>2019-09-18T17:02:32Z</time>
      </trkpt>
      <trkpt lat="45.7575" lon="6.17537">
        <ele>1269</ele>
        <time>2019-09-18T17:02:37Z</time>
      </trkpt>
      <trkpt lat="45.75742" lon="6.17528">
        <ele>1270</ele>
        <time>2019-09-18T17:02:42Z</time>
      </trkpt>
      <trkpt lat="45.75733" lon="6.17523">
        <ele>1273</ele>
        <time>2019-09-18T17:02:47Z</time>
      </trkpt>
      <trkpt lat="45.7572" lon="6.17502">
        <ele>1274</ele>
        <time>2019-09-18T17:02:57Z</time>
      </trkpt>
      <trkpt lat="45.75709" lon="6.17497">
        <ele>1277</ele>
        <time>2019-09-18T17:03:03Z</time>
      </trkpt>
      <trkpt lat="45.7569" lon="6.17501">
        <ele>1282</ele>
        <time>2019-09-18T17:03:12Z</time>
      </trkpt>
      <trkpt lat="45.75673" lon="6.17512">
        <ele>1287</ele>
        <time>2019-09-18T17:03:22Z</time>
      </trkpt>
      <trkpt lat="45.7566" lon="6.1751">
        <ele>1290</ele>
        <time>2019-09-18T17:03:28Z</time>
      </trkpt>
      <trkpt lat="45.75651" lon="6.17512">
        <ele>1292</ele>
        <time>2019-09-18T17:03:33Z</time>
      </trkpt>
      <trkpt lat="45.75631" lon="6.17504">
        <ele>1295</ele>
        <time>2019-09-18T17:03:43Z</time>
      </trkpt>
      <trkpt lat="45.75622" lon="6.17503">
        <ele>1297</ele>
        <time>2019-09-18T17:03:48Z</time>
      </trkpt>
      <trkpt lat="45.75612" lon="6.17506">
        <ele>1300</ele>
        <time>2019-09-18T17:03:53Z</time>
      </trkpt>
      <trkpt lat="45.75603" lon="6.17512">
        <ele>1303</ele>
        <time>2019-09-18T17:03:58Z</time>
      </trkpt>
      <trkpt lat="45.75614" lon="6.1758">
        <ele>1311</ele>
        <time>2019-09-18T17:04:22Z</time>
      </trkpt>
      <trkpt lat="45.75614" lon="6.17595">
        <ele>1314</ele>
        <time>2019-09-18T17:04:27Z</time>
      </trkpt>
      <trkpt lat="45.75608" lon="6.17606">
        <ele>1318</ele>
        <time>2019-09-18T17:04:32Z</time>
      </trkpt>
      <trkpt lat="45.75599" lon="6.1761">
        <ele>1321</ele>
        <time>2019-09-18T17:04:37Z</time>
      </trkpt>
      <trkpt lat="45.75589" lon="6.17606">
        <ele>1323</ele>
        <time>2019-09-18T17:04:42Z</time>
      </trkpt>
      <trkpt lat="45.75569" lon="6.1761">
        <ele>1330</ele>
        <time>2019-09-18T17:04:52Z</time>
      </trkpt>
      <trkpt lat="45.75561" lon="6.17603">
        <ele>1331</ele>
        <time>2019-09-18T17:04:57Z</time>
      </trkpt>
      <trkpt lat="45.75558" lon="6.17589">
        <ele>1329</ele>
        <time>2019-09-18T17:05:02Z</time>
      </trkpt>
      <trkpt lat="45.7554" lon="6.17583">
        <ele>1333</ele>
        <time>2019-09-18T17:05:11Z</time>
      </trkpt>
      <trkpt lat="45.75531" lon="6.17577">
        <ele>1334</ele>
        <time>2019-09-18T17:05:16Z</time>
      </trkpt>
      <trkpt lat="45.75512" lon="6.17573">
        <ele>1339</ele>
        <time>2019-09-18T17:05:26Z</time>
      </trkpt>
      <trkpt lat="45.75489" lon="6.17551">
        <ele>1340</ele>
        <time>2019-09-18T17:05:40Z</time>
      </trkpt>
      <trkpt lat="45.7547" lon="6.17543">
        <ele>1342</ele>
        <time>2019-09-18T17:05:50Z</time>
      </trkpt>
      <trkpt lat="45.75459" lon="6.17542">
        <ele>1344</ele>
        <time>2019-09-18T17:05:55Z</time>
      </trkpt>
      <trkpt lat="45.75431" lon="6.17525">
        <ele>1347</ele>
        <time>2019-09-18T17:06:10Z</time>
      </trkpt>
      <trkpt lat="45.7542" lon="6.17526">
        <ele>1349</ele>
        <time>2019-09-18T17:06:16Z</time>
      </trkpt>
      <trkpt lat="45.754" lon="6.17523">
        <ele>1354</ele>
        <time>2019-09-18T17:06:26Z</time>
      </trkpt>
      <trkpt lat="45.75381" lon="6.17511">
        <ele>1356</ele>
        <time>2019-09-18T17:06:36Z</time>
      </trkpt>
      <trkpt lat="45.75372" lon="6.1751">
        <ele>1358</ele>
        <time>2019-09-18T17:06:41Z</time>
      </trkpt>
      <trkpt lat="45.75364" lon="6.17504">
        <ele>1358</ele>
        <time>2019-09-18T17:06:45Z</time>
      </trkpt>
      <trkpt lat="45.75355" lon="6.17503">
        <ele>1360</ele>
        <time>2019-09-18T17:06:50Z</time>
      </trkpt>
      <trkpt lat="45.75347" lon="6.17498">
        <ele>1361</ele>
        <time>2019-09-18T17:06:54Z</time>
      </trkpt>
      <trkpt lat="45.75323" lon="6.17469">
        <ele>1363</ele>
        <time>2019-09-18T17:07:10Z</time>
      </trkpt>
      <trkpt lat="45.75305" lon="6.17433">
        <ele>1363</ele>
        <time>2019-09-18T17:07:26Z</time>
      </trkpt>
      <trkpt lat="45.75296" lon="6.17425">
        <ele>1364</ele>
        <time>2019-09-18T17:07:31Z</time>
      </trkpt>
      <trkpt lat="45.7529" lon="6.17414">
        <ele>1364</ele>
        <time>2019-09-18T17:07:36Z</time>
      </trkpt>
      <trkpt lat="45.75281" lon="6.17409">
        <ele>1367</ele>
        <time>2019-09-18T17:07:41Z</time>
      </trkpt>
      <trkpt lat="45.75274" lon="6.17399">
        <ele>1369</ele>
        <time>2019-09-18T17:07:46Z</time>
      </trkpt>
      <trkpt lat="45.75255" lon="6.17395">
        <ele>1374</ele>
        <time>2019-09-18T17:07:55Z</time>
      </trkpt>
      <trkpt lat="45.75209" lon="6.17369">
        <ele>1380</ele>
        <time>2019-09-18T17:08:20Z</time>
      </trkpt>
      <trkpt lat="45.75175" lon="6.1734">
        <ele>1381</ele>
        <time>2019-09-18T17:08:40Z</time>
      </trkpt>
      <trkpt lat="45.75155" lon="6.17336">
        <ele>1381</ele>
        <time>2019-09-18T17:08:50Z</time>
      </trkpt>
      <trkpt lat="45.75145" lon="6.17331">
        <ele>1380</ele>
        <time>2019-09-18T17:08:55Z</time>
      </trkpt>
      <trkpt lat="45.75134" lon="6.17332">
        <ele>1379</ele>
        <time>2019-09-18T17:09:01Z</time>
      </trkpt>
      <trkpt lat="45.75093" lon="6.17345">
        <ele>1379</ele>
        <time>2019-09-18T17:09:22Z</time>
      </trkpt>
      <trkpt lat="45.75073" lon="6.17355">
        <ele>1380</ele>
        <time>2019-09-18T17:09:32Z</time>
      </trkpt>
      <trkpt lat="45.75052" lon="6.17355">
        <ele>1379</ele>
        <time>2019-09-18T17:09:43Z</time>
      </trkpt>
      <trkpt lat="45.75041" lon="6.17352">
        <ele>1378</ele>
        <time>2019-09-18T17:09:48Z</time>
      </trkpt>
      <trkpt lat="45.7502" lon="6.17359">
        <ele>1378</ele>
        <time>2019-09-18T17:09:59Z</time>
      </trkpt>
      <trkpt lat="45.75001" lon="6.17371">
        <ele>1380</ele>
        <time>2019-09-18T17:10:09Z</time>
      </trkpt>
      <trkpt lat="45.74993" lon="6.1738">
        <ele>1381</ele>
        <time>2019-09-18T17:10:15Z</time>
      </trkpt>
      <trkpt lat="45.74982" lon="6.17385">
        <ele>1381</ele>
        <time>2019-09-18T17:10:20Z</time>
      </trkpt>
      <trkpt lat="45.74954" lon="6.17404">
        <ele>1383</ele>
        <time>2019-09-18T17:10:36Z</time>
      </trkpt>
      <trkpt lat="45.74935" lon="6.17408">
        <ele>1383</ele>
        <time>2019-09-18T17:10:45Z</time>
      </trkpt>
      <trkpt lat="45.74903" lon="6.17403">
        <ele>1379</ele>
        <time>2019-09-18T17:11:02Z</time>
      </trkpt>
      <trkpt lat="45.74854" lon="6.17422">
        <ele>1379</ele>
        <time>2019-09-18T17:11:27Z</time>
      </trkpt>
      <trkpt lat="45.74844" lon="6.17423">
        <ele>1379</ele>
        <time>2019-09-18T17:11:32Z</time>
      </trkpt>
      <trkpt lat="45.74834" lon="6.17416">
        <ele>1376</ele>
        <time>2019-09-18T17:11:38Z</time>
      </trkpt>
      <trkpt lat="45.74824" lon="6.17421">
        <ele>1377</ele>
        <time>2019-09-18T17:11:43Z</time>
      </trkpt>
      <trkpt lat="45.74816" lon="6.17429">
        <ele>1379</ele>
        <time>2019-09-18T17:11:48Z</time>
      </trkpt>
      <trkpt lat="45.74768" lon="6.17409">
        <ele>1374</ele>
        <time>2019-09-18T17:12:13Z</time>
      </trkpt>
      <trkpt lat="45.74748" lon="6.17397">
        <ele>1371</ele>
        <time>2019-09-18T17:12:24Z</time>
      </trkpt>
      <trkpt lat="45.74718" lon="6.17395">
        <ele>1369</ele>
        <time>2019-09-18T17:12:39Z</time>
      </trkpt>
      <trkpt lat="45.74708" lon="6.17401">
        <ele>1369</ele>
        <time>2019-09-18T17:12:44Z</time>
      </trkpt>
      <trkpt lat="45.74669" lon="6.17389">
        <ele>1363</ele>
        <time>2019-09-18T17:13:04Z</time>
      </trkpt>
      <trkpt lat="45.7466" lon="6.17384">
        <ele>1361</ele>
        <time>2019-09-18T17:13:09Z</time>
      </trkpt>
      <trkpt lat="45.74638" lon="6.17356">
        <ele>1351</ele>
        <time>2019-09-18T17:13:24Z</time>
      </trkpt>
      <trkpt lat="45.74617" lon="6.17349">
        <ele>1346</ele>
        <time>2019-09-18T17:13:34Z</time>
      </trkpt>
      <trkpt lat="45.74604" lon="6.17326">
        <ele>1338</ele>
        <time>2019-09-18T17:13:45Z</time>
      </trkpt>
      <trkpt lat="45.74594" lon="6.1732">
        <ele>1336</ele>
        <time>2019-09-18T17:13:50Z</time>
      </trkpt>
      <trkpt lat="45.7458" lon="6.17294">
        <ele>1330</ele>
        <time>2019-09-18T17:14:02Z</time>
      </trkpt>
      <trkpt lat="45.74578" lon="6.17281">
        <ele>1328</ele>
        <time>2019-09-18T17:14:06Z</time>
      </trkpt>
      <trkpt lat="45.74569" lon="6.17285">
        <ele>1328</ele>
        <time>2019-09-18T17:14:11Z</time>
      </trkpt>
      <trkpt lat="45.7456" lon="6.17294">
        <ele>1328</ele>
        <time>2019-09-18T17:14:16Z</time>
      </trkpt>
      <trkpt lat="45.74549" lon="6.17298">
        <ele>1328</ele>
        <time>2019-09-18T17:14:22Z</time>
      </trkpt>
      <trkpt lat="45.74528" lon="6.17298">
        <ele>1326</ele>
        <time>2019-09-18T17:14:33Z</time>
      </trkpt>
      <trkpt lat="45.74517" lon="6.17292">
        <ele>1324</ele>
        <time>2019-09-18T17:14:39Z</time>
      </trkpt>
      <trkpt lat="45.74504" lon="6.17268">
        <ele>1318</ele>
        <time>2019-09-18T17:14:49Z</time>
      </trkpt>
      <trkpt lat="45.74474" lon="6.1723">
        <ele>1306</ele>
        <time>2019-09-18T17:15:09Z</time>
      </trkpt>
      <trkpt lat="45.74464" lon="6.17232">
        <ele>1304</ele>
        <time>2019-09-18T17:15:14Z</time>
      </trkpt>
      <trkpt lat="45.74454" lon="6.17238">
        <ele>1302</ele>
        <time>2019-09-18T17:15:20Z</time>
      </trkpt>
      <trkpt lat="45.74452" lon="6.17252">
        <ele>1304</ele>
        <time>2019-09-18T17:15:25Z</time>
      </trkpt>
      <trkpt lat="45.74455" lon="6.17267">
        <ele>1308</ele>
        <time>2019-09-18T17:15:30Z</time>
      </trkpt>
      <trkpt lat="45.74461" lon="6.17277">
        <ele>1312</ele>
        <time>2019-09-18T17:15:35Z</time>
      </trkpt>
      <trkpt lat="45.7446" lon="6.17291">
        <ele>1315</ele>
        <time>2019-09-18T17:15:40Z</time>
      </trkpt>
      <trkpt lat="45.74452" lon="6.17301">
        <ele>1317</ele>
        <time>2019-09-18T17:15:45Z</time>
      </trkpt>
      <trkpt lat="45.74442" lon="6.1731">
        <ele>1317</ele>
        <time>2019-09-18T17:15:51Z</time>
      </trkpt>
      <trkpt lat="45.74423" lon="6.17318">
        <ele>1317</ele>
        <time>2019-09-18T17:16:01Z</time>
      </trkpt>
      <trkpt lat="45.74404" lon="6.17316">
        <ele>1313</ele>
        <time>2019-09-18T17:16:10Z</time>
      </trkpt>
      <trkpt lat="45.74394" lon="6.17323">
        <ele>1314</ele>
        <time>2019-09-18T17:16:16Z</time>
      </trkpt>
      <trkpt lat="45.7435" lon="6.17361">
        <ele>1326</ele>
        <time>2019-09-18T17:16:42Z</time>
      </trkpt>
      <trkpt lat="45.74331" lon="6.17388">
        <ele>1337</ele>
        <time>2019-09-18T17:16:55Z</time>
      </trkpt>
      <trkpt lat="45.7432" lon="6.1739">
        <ele>1337</ele>
        <time>2019-09-18T17:17:00Z</time>
      </trkpt>
      <trkpt lat="45.74291" lon="6.17379">
        <ele>1329</ele>
        <time>2019-09-18T17:17:16Z</time>
      </trkpt>
      <trkpt lat="45.74281" lon="6.17379">
        <ele>1328</ele>
        <time>2019-09-18T17:17:21Z</time>
      </trkpt>
      <trkpt lat="45.74272" lon="6.17376">
        <ele>1326</ele>
        <time>2019-09-18T17:17:25Z</time>
      </trkpt>
      <trkpt lat="45.74252" lon="6.17379">
        <ele>1326</ele>
        <time>2019-09-18T17:17:35Z</time>
      </trkpt>
      <trkpt lat="45.74233" lon="6.17386">
        <ele>1329</ele>
        <time>2019-09-18T17:17:45Z</time>
      </trkpt>
      <trkpt lat="45.74181" lon="6.1738">
        <ele>1324</ele>
        <time>2019-09-18T17:18:11Z</time>
      </trkpt>
      <trkpt lat="45.74161" lon="6.17381">
        <ele>1325</ele>
        <time>2019-09-18T17:18:21Z</time>
      </trkpt>
      <trkpt lat="45.74153" lon="6.17388">
        <ele>1328</ele>
        <time>2019-09-18T17:18:26Z</time>
      </trkpt>
      <trkpt lat="45.74134" lon="6.1739">
        <ele>1329</ele>
        <time>2019-09-18T17:18:35Z</time>
      </trkpt>
      <trkpt lat="45.74126" lon="6.17398">
        <ele>1332</ele>
        <time>2019-09-18T17:18:40Z</time>
      </trkpt>
      <trkpt lat="45.74121" lon="6.17409">
        <ele>1337</ele>
        <time>2019-09-18T17:18:45Z</time>
      </trkpt>
      <trkpt lat="45.74111" lon="6.17416">
        <ele>1340</ele>
        <time>2019-09-18T17:18:50Z</time>
      </trkpt>
      <trkpt lat="45.74089" lon="6.17461">
        <ele>1359</ele>
        <time>2019-09-18T17:19:10Z</time>
      </trkpt>
      <trkpt lat="45.74069" lon="6.1746">
        <ele>1359</ele>
        <time>2019-09-18T17:19:20Z</time>
      </trkpt>
      <trkpt lat="45.74061" lon="6.17468">
        <ele>1363</ele>
        <time>2019-09-18T17:19:24Z</time>
      </trkpt>
      <trkpt lat="45.74051" lon="6.17468">
        <ele>1364</ele>
        <time>2019-09-18T17:19:29Z</time>
      </trkpt>
      <trkpt lat="45.74019" lon="6.17459">
        <ele>1363</ele>
        <time>2019-09-18T17:19:46Z</time>
      </trkpt>
      <trkpt lat="45.74" lon="6.17463">
        <ele>1366</ele>
        <time>2019-09-18T17:19:55Z</time>
      </trkpt>
      <trkpt lat="45.73991" lon="6.1747">
        <ele>1369</ele>
        <time>2019-09-18T17:20:01Z</time>
      </trkpt>
      <trkpt lat="45.73982" lon="6.17473">
        <ele>1371</ele>
        <time>2019-09-18T17:20:05Z</time>
      </trkpt>
      <trkpt lat="45.73977" lon="6.17485">
        <ele>1377</ele>
        <time>2019-09-18T17:20:10Z</time>
      </trkpt>
      <trkpt lat="45.73951" lon="6.17505">
        <ele>1388</ele>
        <time>2019-09-18T17:20:25Z</time>
      </trkpt>
      <trkpt lat="45.73941" lon="6.17505">
        <ele>1388</ele>
        <time>2019-09-18T17:20:30Z</time>
      </trkpt>
      <trkpt lat="45.73932" lon="6.1751">
        <ele>1391</ele>
        <time>2019-09-18T17:20:35Z</time>
      </trkpt>
      <trkpt lat="45.73927" lon="6.17523">
        <ele>1400</ele>
        <time>2019-09-18T17:20:40Z</time>
      </trkpt>
      <trkpt lat="45.73917" lon="6.17519">
        <ele>1397</ele>
        <time>2019-09-18T17:20:45Z</time>
      </trkpt>
      <trkpt lat="45.7388" lon="6.17532">
        <ele>1409</ele>
        <time>2019-09-18T17:21:04Z</time>
      </trkpt>
      <trkpt lat="45.73861" lon="6.17531">
        <ele>1411</ele>
        <time>2019-09-18T17:21:14Z</time>
      </trkpt>
      <trkpt lat="45.73833" lon="6.17549">
        <ele>1422</ele>
        <time>2019-09-18T17:21:29Z</time>
      </trkpt>
      <trkpt lat="45.73823" lon="6.17546">
        <ele>1422</ele>
        <time>2019-09-18T17:21:34Z</time>
      </trkpt>
      <trkpt lat="45.73833" lon="6.17568">
        <ele>1431</ele>
        <time>2019-09-18T17:21:43Z</time>
      </trkpt>
      <trkpt lat="45.73836" lon="6.17581">
        <ele>1437</ele>
        <time>2019-09-18T17:21:48Z</time>
      </trkpt>
      <trkpt lat="45.73841" lon="6.17571">
        <ele>1432</ele>
        <time>2019-09-18T17:21:52Z</time>
      </trkpt>
      <trkpt lat="45.73845" lon="6.17584">
        <ele>1438</ele>
        <time>2019-09-18T17:21:57Z</time>
      </trkpt>
      <trkpt lat="45.73839" lon="6.17613">
        <ele>1445</ele>
        <time>2019-09-18T17:22:08Z</time>
      </trkpt>
      <trkpt lat="45.73834" lon="6.17624">
        <ele>1447</ele>
        <time>2019-09-18T17:22:12Z</time>
      </trkpt>
      <trkpt lat="45.73825" lon="6.17629">
        <ele>1449</ele>
        <time>2019-09-18T17:22:17Z</time>
      </trkpt>
      <trkpt lat="45.73824" lon="6.17632">
        <ele>1449</ele>
        <time>2019-09-18T17:22:18Z</time>
      </trkpt>
      <trkpt lat="45.73818" lon="6.17633">
        <ele>1450</ele>
        <time>2019-09-18T17:22:21Z</time>
      </trkpt>
      <trkpt lat="45.73811" lon="6.1763">
        <ele>1450</ele>
        <time>2019-09-18T17:22:25Z</time>
      </trkpt>
      <trkpt lat="45.73803" lon="6.17622">
        <ele>1448</ele>
        <time>2019-09-18T17:22:30Z</time>
      </trkpt>
      <trkpt lat="45.73793" lon="6.17617">
        <ele>1448</ele>
        <time>2019-09-18T17:22:35Z</time>
      </trkpt>
      <trkpt lat="45.73782" lon="6.17615">
        <ele>1448</ele>
        <time>2019-09-18T17:22:41Z</time>
      </trkpt>
      <trkpt lat="45.73764" lon="6.17603">
        <ele>1448</ele>
        <time>2019-09-18T17:22:51Z</time>
      </trkpt>
      <trkpt lat="45.73733" lon="6.17591">
        <ele>1449</ele>
        <time>2019-09-18T17:23:07Z</time>
      </trkpt>
      <trkpt lat="45.73712" lon="6.1758">
        <ele>1450</ele>
        <time>2019-09-18T17:23:18Z</time>
      </trkpt>
      <trkpt lat="45.73698" lon="6.17565">
        <ele>1448</ele>
        <time>2019-09-18T17:23:27Z</time>
      </trkpt>
      <trkpt lat="45.7366" lon="6.17547">
        <ele>1450</ele>
        <time>2019-09-18T17:23:47Z</time>
      </trkpt>
      <trkpt lat="45.73655" lon="6.1757">
        <ele>1456</ele>
        <time>2019-09-18T17:23:55Z</time>
      </trkpt>
      <trkpt lat="45.73649" lon="6.17581">
        <ele>1458</ele>
        <time>2019-09-18T17:24:00Z</time>
      </trkpt>
      <trkpt lat="45.7364" lon="6.17589">
        <ele>1459</ele>
        <time>2019-09-18T17:24:05Z</time>
      </trkpt>
      <trkpt lat="45.73637" lon="6.17598">
        <ele>1459</ele>
        <time>2019-09-18T17:24:09Z</time>
      </trkpt>
      <trkpt lat="45.73638" lon="6.17602">
        <ele>1458</ele>
        <time>2019-09-18T17:24:10Z</time>
      </trkpt>
      <trkpt lat="45.73675" lon="6.17638">
        <ele>1455</ele>
        <time>2019-09-18T17:24:33Z</time>
      </trkpt>
      <trkpt lat="45.73687" lon="6.17648">
        <ele>1455</ele>
        <time>2019-09-18T17:24:40Z</time>
      </trkpt>
      <trkpt lat="45.73701" lon="6.17655">
        <ele>1455</ele>
        <time>2019-09-18T17:24:47Z</time>
      </trkpt>
      <trkpt lat="45.73725" lon="6.17679">
        <ele>1454</ele>
        <time>2019-09-18T17:25:02Z</time>
      </trkpt>
      <trkpt lat="45.73741" lon="6.17703">
        <ele>1451</ele>
        <time>2019-09-18T17:25:13Z</time>
      </trkpt>
      <trkpt lat="45.73746" lon="6.17732">
        <ele>1447</ele>
        <time>2019-09-18T17:25:24Z</time>
      </trkpt>
      <trkpt lat="45.7375" lon="6.17739">
        <ele>1447</ele>
        <time>2019-09-18T17:25:27Z</time>
      </trkpt>
      <trkpt lat="45.7377" lon="6.17754">
        <ele>1447</ele>
        <time>2019-09-18T17:25:38Z</time>
      </trkpt>
      <trkpt lat="45.73787" lon="6.17771">
        <ele>1444</ele>
        <time>2019-09-18T17:25:49Z</time>
      </trkpt>
      <trkpt lat="45.73838" lon="6.17792">
        <ele>1447</ele>
        <time>2019-09-18T17:26:15Z</time>
      </trkpt>
      <trkpt lat="45.73848" lon="6.17801">
        <ele>1447</ele>
        <time>2019-09-18T17:26:21Z</time>
      </trkpt>
      <trkpt lat="45.73862" lon="6.17827">
        <ele>1444</ele>
        <time>2019-09-18T17:26:33Z</time>
      </trkpt>
      <trkpt lat="45.7387" lon="6.17837">
        <ele>1443</ele>
        <time>2019-09-18T17:26:38Z</time>
      </trkpt>
      <trkpt lat="45.73849" lon="6.17842">
        <ele>1434</ele>
        <time>2019-09-18T17:26:49Z</time>
      </trkpt>
      <trkpt lat="45.73839" lon="6.17848">
        <ele>1429</ele>
        <time>2019-09-18T17:26:54Z</time>
      </trkpt>
      <trkpt lat="45.73829" lon="6.1785">
        <ele>1425</ele>
        <time>2019-09-18T17:26:59Z</time>
      </trkpt>
      <trkpt lat="45.73798" lon="6.1784">
        <ele>1422</ele>
        <time>2019-09-18T17:27:15Z</time>
      </trkpt>
      <trkpt lat="45.73772" lon="6.17818">
        <ele>1424</ele>
        <time>2019-09-18T17:27:30Z</time>
      </trkpt>
      <trkpt lat="45.73742" lon="6.17826">
        <ele>1414</ele>
        <time>2019-09-18T17:27:45Z</time>
      </trkpt>
      <trkpt lat="45.73708" lon="6.17842">
        <ele>1402</ele>
        <time>2019-09-18T17:28:03Z</time>
      </trkpt>
      <trkpt lat="45.73656" lon="6.17853">
        <ele>1389</ele>
        <time>2019-09-18T17:28:29Z</time>
      </trkpt>
      <trkpt lat="45.73659" lon="6.17867">
        <ele>1385</ele>
        <time>2019-09-18T17:28:35Z</time>
      </trkpt>
      <trkpt lat="45.73671" lon="6.17875">
        <ele>1385</ele>
        <time>2019-09-18T17:28:41Z</time>
      </trkpt>
      <trkpt lat="45.73676" lon="6.17884">
        <ele>1383</ele>
        <time>2019-09-18T17:28:45Z</time>
      </trkpt>
      <trkpt lat="45.73704" lon="6.17981">
        <ele>1354</ele>
        <time>2019-09-18T17:29:22Z</time>
      </trkpt>
      <trkpt lat="45.737" lon="6.18009">
        <ele>1346</ele>
        <time>2019-09-18T17:29:32Z</time>
      </trkpt>
      <trkpt lat="45.73693" lon="6.18022">
        <ele>1344</ele>
        <time>2019-09-18T17:29:38Z</time>
      </trkpt>
      <trkpt lat="45.73684" lon="6.18031">
        <ele>1343</ele>
        <time>2019-09-18T17:29:43Z</time>
      </trkpt>
      <trkpt lat="45.73671" lon="6.18051">
        <ele>1342</ele>
        <time>2019-09-18T17:29:53Z</time>
      </trkpt>
      <trkpt lat="45.73649" lon="6.1809">
        <ele>1338</ele>
        <time>2019-09-18T17:30:10Z</time>
      </trkpt>
      <trkpt lat="45.7364" lon="6.18101">
        <ele>1335</ele>
        <time>2019-09-18T17:30:16Z</time>
      </trkpt>
      <trkpt lat="45.73629" lon="6.18108">
        <ele>1334</ele>
        <time>2019-09-18T17:30:22Z</time>
      </trkpt>
      <trkpt lat="45.73608" lon="6.18105">
        <ele>1336</ele>
        <time>2019-09-18T17:30:33Z</time>
      </trkpt>
      <trkpt lat="45.73597" lon="6.18107">
        <ele>1336</ele>
        <time>2019-09-18T17:30:38Z</time>
      </trkpt>
      <trkpt lat="45.73569" lon="6.18122">
        <ele>1334</ele>
        <time>2019-09-18T17:30:53Z</time>
      </trkpt>
      <trkpt lat="45.73548" lon="6.18128">
        <ele>1335</ele>
        <time>2019-09-18T17:31:04Z</time>
      </trkpt>
      <trkpt lat="45.73522" lon="6.18146">
        <ele>1336</ele>
        <time>2019-09-18T17:31:18Z</time>
      </trkpt>
      <trkpt lat="45.73502" lon="6.18154">
        <ele>1338</ele>
        <time>2019-09-18T17:31:29Z</time>
      </trkpt>
      <trkpt lat="45.7345" lon="6.18142">
        <ele>1336</ele>
        <time>2019-09-18T17:31:55Z</time>
      </trkpt>
      <trkpt lat="45.73426" lon="6.18142">
        <ele>1335</ele>
        <time>2019-09-18T17:32:07Z</time>
      </trkpt>
      <trkpt lat="45.73388" lon="6.18132">
        <ele>1329</ele>
        <time>2019-09-18T17:32:26Z</time>
      </trkpt>
      <trkpt lat="45.73343" lon="6.18146">
        <ele>1324</ele>
        <time>2019-09-18T17:32:49Z</time>
      </trkpt>
      <trkpt lat="45.7332" lon="6.18149">
        <ele>1319</ele>
        <time>2019-09-18T17:33:01Z</time>
      </trkpt>
      <trkpt lat="45.73303" lon="6.18183">
        <ele>1316</ele>
        <time>2019-09-18T17:33:16Z</time>
      </trkpt>
      <trkpt lat="45.73312" lon="6.18218">
        <ele>1316</ele>
        <time>2019-09-18T17:33:29Z</time>
      </trkpt>
      <trkpt lat="45.73337" lon="6.18259">
        <ele>1318</ele>
        <time>2019-09-18T17:33:48Z</time>
      </trkpt>
      <trkpt lat="45.7334" lon="6.18294">
        <ele>1312</ele>
        <time>2019-09-18T17:34:00Z</time>
      </trkpt>
      <trkpt lat="45.73324" lon="6.18331">
        <ele>1306</ele>
        <time>2019-09-18T17:34:15Z</time>
      </trkpt>
      <trkpt lat="45.73272" lon="6.18349">
        <ele>1304</ele>
        <time>2019-09-18T17:34:42Z</time>
      </trkpt>
      <trkpt lat="45.73242" lon="6.1839">
        <ele>1309</ele>
        <time>2019-09-18T17:35:03Z</time>
      </trkpt>
      <trkpt lat="45.73225" lon="6.18318">
        <ele>1302</ele>
        <time>2019-09-18T17:35:29Z</time>
      </trkpt>
      <trkpt lat="45.73221" lon="6.18237">
        <ele>1300</ele>
        <time>2019-09-18T17:35:58Z</time>
      </trkpt>
      <trkpt lat="45.73173" lon="6.18155">
        <ele>1291</ele>
        <time>2019-09-18T17:36:35Z</time>
      </trkpt>
      <trkpt lat="45.73167" lon="6.18128">
        <ele>1286</ele>
        <time>2019-09-18T17:36:45Z</time>
      </trkpt>
      <trkpt lat="45.73178" lon="6.18068">
        <ele>1278</ele>
        <time>2019-09-18T17:37:07Z</time>
      </trkpt>
      <trkpt lat="45.7317" lon="6.18022">
        <ele>1269</ele>
        <time>2019-09-18T17:37:23Z</time>
      </trkpt>
      <trkpt lat="45.73167" lon="6.17971">
        <ele>1263</ele>
        <time>2019-09-18T17:37:41Z</time>
      </trkpt>
      <trkpt lat="45.73153" lon="6.17943">
        <ele>1261</ele>
        <time>2019-09-18T17:37:53Z</time>
      </trkpt>
      <trkpt lat="45.7313" lon="6.17925">
        <ele>1259</ele>
        <time>2019-09-18T17:38:06Z</time>
      </trkpt>
      <trkpt lat="45.73083" lon="6.17847">
        <ele>1247</ele>
        <time>2019-09-18T17:38:42Z</time>
      </trkpt>
      <trkpt lat="45.73045" lon="6.17831">
        <ele>1249</ele>
        <time>2019-09-18T17:39:02Z</time>
      </trkpt>
      <trkpt lat="45.73032" lon="6.17812">
        <ele>1248</ele>
        <time>2019-09-18T17:39:11Z</time>
      </trkpt>
      <trkpt lat="45.72993" lon="6.17767">
        <ele>1243</ele>
        <time>2019-09-18T17:39:36Z</time>
      </trkpt>
      <trkpt lat="45.72978" lon="6.17761">
        <ele>1243</ele>
        <time>2019-09-18T17:39:44Z</time>
      </trkpt>
      <trkpt lat="45.72961" lon="6.17732">
        <ele>1241</ele>
        <time>2019-09-18T17:39:57Z</time>
      </trkpt>
      <trkpt lat="45.72918" lon="6.17631">
        <ele>1233</ele>
        <time>2019-09-18T17:40:39Z</time>
      </trkpt>
      <trkpt lat="45.72901" lon="6.17626">
        <ele>1228</ele>
        <time>2019-09-18T17:40:47Z</time>
      </trkpt>
      <trkpt lat="45.72868" lon="6.17645">
        <ele>1222</ele>
        <time>2019-09-18T17:41:05Z</time>
      </trkpt>
      <trkpt lat="45.72832" lon="6.17652">
        <ele>1214</ele>
        <time>2019-09-18T17:41:23Z</time>
      </trkpt>
      <trkpt lat="45.72778" lon="6.1767">
        <ele>1210</ele>
        <time>2019-09-18T17:41:51Z</time>
      </trkpt>
      <trkpt lat="45.72752" lon="6.17689">
        <ele>1209</ele>
        <time>2019-09-18T17:42:06Z</time>
      </trkpt>
      <trkpt lat="45.72746" lon="6.17717">
        <ele>1212</ele>
        <time>2019-09-18T17:42:16Z</time>
      </trkpt>
      <trkpt lat="45.72737" lon="6.17731">
        <ele>1214</ele>
        <time>2019-09-18T17:42:23Z</time>
      </trkpt>
      <trkpt lat="45.72742" lon="6.1769">
        <ele>1208</ele>
        <time>2019-09-18T17:42:37Z</time>
      </trkpt>
      <trkpt lat="45.72737" lon="6.17662">
        <ele>1204</ele>
        <time>2019-09-18T17:42:47Z</time>
      </trkpt>
      <trkpt lat="45.72712" lon="6.17616">
        <ele>1199</ele>
        <time>2019-09-18T17:43:08Z</time>
      </trkpt>
      <trkpt lat="45.72731" lon="6.17559">
        <ele>1192</ele>
        <time>2019-09-18T17:43:30Z</time>
      </trkpt>
      <trkpt lat="45.72769" lon="6.17534">
        <ele>1190</ele>
        <time>2019-09-18T17:43:51Z</time>
      </trkpt>
      <trkpt lat="45.72764" lon="6.17486">
        <ele>1187</ele>
        <time>2019-09-18T17:44:08Z</time>
      </trkpt>
      <trkpt lat="45.72755" lon="6.17469">
        <ele>1185</ele>
        <time>2019-09-18T17:44:15Z</time>
      </trkpt>
      <trkpt lat="45.72747" lon="6.17443">
        <ele>1185</ele>
        <time>2019-09-18T17:44:25Z</time>
      </trkpt>
      <trkpt lat="45.72733" lon="6.17427">
        <ele>1187</ele>
        <time>2019-09-18T17:44:34Z</time>
      </trkpt>
      <trkpt lat="45.72723" lon="6.17424">
        <ele>1189</ele>
        <time>2019-09-18T17:44:39Z</time>
      </trkpt>
      <trkpt lat="45.72704" lon="6.17437">
        <ele>1194</ele>
        <time>2019-09-18T17:44:50Z</time>
      </trkpt>
      <trkpt lat="45.72694" lon="6.17441">
        <ele>1196</ele>
        <time>2019-09-18T17:44:55Z</time>
      </trkpt>
      <trkpt lat="45.72685" lon="6.17441">
        <ele>1197</ele>
        <time>2019-09-18T17:44:59Z</time>
      </trkpt>
      <trkpt lat="45.72666" lon="6.17447">
        <ele>1201</ele>
        <time>2019-09-18T17:45:09Z</time>
      </trkpt>
      <trkpt lat="45.72646" lon="6.17447">
        <ele>1205</ele>
        <time>2019-09-18T17:45:19Z</time>
      </trkpt>
      <trkpt lat="45.72627" lon="6.17451">
        <ele>1209</ele>
        <time>2019-09-18T17:45:29Z</time>
      </trkpt>
      <trkpt lat="45.72598" lon="6.17463">
        <ele>1213</ele>
        <time>2019-09-18T17:45:44Z</time>
      </trkpt>
      <trkpt lat="45.72569" lon="6.17468">
        <ele>1218</ele>
        <time>2019-09-18T17:45:58Z</time>
      </trkpt>
      <trkpt lat="45.72561" lon="6.17476">
        <ele>1219</ele>
        <time>2019-09-18T17:46:03Z</time>
      </trkpt>
      <trkpt lat="45.72531" lon="6.17492">
        <ele>1223</ele>
        <time>2019-09-18T17:46:19Z</time>
      </trkpt>
      <trkpt lat="45.72521" lon="6.17493">
        <ele>1225</ele>
        <time>2019-09-18T17:46:24Z</time>
      </trkpt>
      <trkpt lat="45.72503" lon="6.17504">
        <ele>1227</ele>
        <time>2019-09-18T17:46:34Z</time>
      </trkpt>
      <trkpt lat="45.72493" lon="6.17503">
        <ele>1229</ele>
        <time>2019-09-18T17:46:39Z</time>
      </trkpt>
      <trkpt lat="45.72484" lon="6.17505">
        <ele>1231</ele>
        <time>2019-09-18T17:46:44Z</time>
      </trkpt>
      <trkpt lat="45.72477" lon="6.17513">
        <ele>1233</ele>
        <time>2019-09-18T17:46:48Z</time>
      </trkpt>
      <trkpt lat="45.72459" lon="6.17525">
        <ele>1236</ele>
        <time>2019-09-18T17:46:58Z</time>
      </trkpt>
      <trkpt lat="45.7245" lon="6.17528">
        <ele>1238</ele>
        <time>2019-09-18T17:47:03Z</time>
      </trkpt>
      <trkpt lat="45.72432" lon="6.17542">
        <ele>1240</ele>
        <time>2019-09-18T17:47:13Z</time>
      </trkpt>
      <trkpt lat="45.72422" lon="6.17546">
        <ele>1242</ele>
        <time>2019-09-18T17:47:18Z</time>
      </trkpt>
      <trkpt lat="45.72379" lon="6.17579">
        <ele>1246</ele>
        <time>2019-09-18T17:47:42Z</time>
      </trkpt>
      <trkpt lat="45.7237" lon="6.17594">
        <ele>1247</ele>
        <time>2019-09-18T17:47:49Z</time>
      </trkpt>
      <trkpt lat="45.72347" lon="6.17599">
        <ele>1249</ele>
        <time>2019-09-18T17:48:01Z</time>
      </trkpt>
      <trkpt lat="45.72327" lon="6.17609">
        <ele>1252</ele>
        <time>2019-09-18T17:48:12Z</time>
      </trkpt>
      <trkpt lat="45.72318" lon="6.1761">
        <ele>1254</ele>
        <time>2019-09-18T17:48:16Z</time>
      </trkpt>
      <trkpt lat="45.72284" lon="6.17636">
        <ele>1261</ele>
        <time>2019-09-18T17:48:35Z</time>
      </trkpt>
      <trkpt lat="45.72286" lon="6.17682">
        <ele>1260</ele>
        <time>2019-09-18T17:48:52Z</time>
      </trkpt>
      <trkpt lat="45.72257" lon="6.17674">
        <ele>1266</ele>
        <time>2019-09-18T17:49:06Z</time>
      </trkpt>
      <trkpt lat="45.7224" lon="6.17663">
        <ele>1270</ele>
        <time>2019-09-18T17:49:16Z</time>
      </trkpt>
      <trkpt lat="45.72219" lon="6.17661">
        <ele>1274</ele>
        <time>2019-09-18T17:49:26Z</time>
      </trkpt>
      <trkpt lat="45.72211" lon="6.17655">
        <ele>1275</ele>
        <time>2019-09-18T17:49:31Z</time>
      </trkpt>
      <trkpt lat="45.72192" lon="6.17655">
        <ele>1279</ele>
        <time>2019-09-18T17:49:40Z</time>
      </trkpt>
      <trkpt lat="45.72161" lon="6.17648">
        <ele>1285</ele>
        <time>2019-09-18T17:49:56Z</time>
      </trkpt>
      <trkpt lat="45.72155" lon="6.17639">
        <ele>1286</ele>
        <time>2019-09-18T17:50:00Z</time>
      </trkpt>
      <trkpt lat="45.72144" lon="6.17641">
        <ele>1287</ele>
        <time>2019-09-18T17:50:06Z</time>
      </trkpt>
      <trkpt lat="45.72115" lon="6.17639">
        <ele>1291</ele>
        <time>2019-09-18T17:50:20Z</time>
      </trkpt>
      <trkpt lat="45.72096" lon="6.17648">
        <ele>1292</ele>
        <time>2019-09-18T17:50:30Z</time>
      </trkpt>
      <trkpt lat="45.72087" lon="6.17656">
        <ele>1291</ele>
        <time>2019-09-18T17:50:36Z</time>
      </trkpt>
      <trkpt lat="45.72068" lon="6.17667">
        <ele>1291</ele>
        <time>2019-09-18T17:50:46Z</time>
      </trkpt>
      <trkpt lat="45.72058" lon="6.17669">
        <ele>1292</ele>
        <time>2019-09-18T17:50:51Z</time>
      </trkpt>
      <trkpt lat="45.7205" lon="6.17675">
        <ele>1293</ele>
        <time>2019-09-18T17:50:56Z</time>
      </trkpt>
      <trkpt lat="45.72049" lon="6.1769">
        <ele>1293</ele>
        <time>2019-09-18T17:51:01Z</time>
      </trkpt>
      <trkpt lat="45.72055" lon="6.17703">
        <ele>1292</ele>
        <time>2019-09-18T17:51:06Z</time>
      </trkpt>
      <trkpt lat="45.72057" lon="6.17717">
        <ele>1292</ele>
        <time>2019-09-18T17:51:11Z</time>
      </trkpt>
      <trkpt lat="45.72054" lon="6.1773">
        <ele>1292</ele>
        <time>2019-09-18T17:51:16Z</time>
      </trkpt>
      <trkpt lat="45.72044" lon="6.17738">
        <ele>1293</ele>
        <time>2019-09-18T17:51:22Z</time>
      </trkpt>
      <trkpt lat="45.72006" lon="6.17722">
        <ele>1297</ele>
        <time>2019-09-18T17:51:42Z</time>
      </trkpt>
      <trkpt lat="45.71995" lon="6.1772">
        <ele>1298</ele>
        <time>2019-09-18T17:51:47Z</time>
      </trkpt>
      <trkpt lat="45.71957" lon="6.17724">
        <ele>1304</ele>
        <time>2019-09-18T17:52:06Z</time>
      </trkpt>
      <trkpt lat="45.71937" lon="6.1773">
        <ele>1308</ele>
        <time>2019-09-18T17:52:16Z</time>
      </trkpt>
      <trkpt lat="45.71928" lon="6.17728">
        <ele>1309</ele>
        <time>2019-09-18T17:52:21Z</time>
      </trkpt>
      <trkpt lat="45.71919" lon="6.17737">
        <ele>1311</ele>
        <time>2019-09-18T17:52:26Z</time>
      </trkpt>
      <trkpt lat="45.71901" lon="6.1773">
        <ele>1314</ele>
        <time>2019-09-18T17:52:36Z</time>
      </trkpt>
      <trkpt lat="45.71892" lon="6.1773">
        <ele>1315</ele>
        <time>2019-09-18T17:52:40Z</time>
      </trkpt>
      <trkpt lat="45.71846" lon="6.17741">
        <ele>1322</ele>
        <time>2019-09-18T17:53:04Z</time>
      </trkpt>
      <trkpt lat="45.71834" lon="6.17737">
        <ele>1324</ele>
        <time>2019-09-18T17:53:10Z</time>
      </trkpt>
      <trkpt lat="45.71809" lon="6.17735">
        <ele>1326</ele>
        <time>2019-09-18T17:53:22Z</time>
      </trkpt>
      <trkpt lat="45.71796" lon="6.17737">
        <ele>1327</ele>
        <time>2019-09-18T17:53:29Z</time>
      </trkpt>
      <trkpt lat="45.71779" lon="6.17744">
        <ele>1329</ele>
        <time>2019-09-18T17:53:38Z</time>
      </trkpt>
      <trkpt lat="45.71768" lon="6.17743">
        <ele>1330</ele>
        <time>2019-09-18T17:53:43Z</time>
      </trkpt>
      <trkpt lat="45.71764" lon="6.17773">
        <ele>1332</ele>
        <time>2019-09-18T17:53:54Z</time>
      </trkpt>
      <trkpt lat="45.7178" lon="6.17793">
        <ele>1332</ele>
        <time>2019-09-18T17:54:05Z</time>
      </trkpt>
      <trkpt lat="45.71802" lon="6.17853">
        <ele>1337</ele>
        <time>2019-09-18T17:54:28Z</time>
      </trkpt>
      <trkpt lat="45.71807" lon="6.1789">
        <ele>1341</ele>
        <time>2019-09-18T17:54:41Z</time>
      </trkpt>
      <trkpt lat="45.71804" lon="6.17922">
        <ele>1346</ele>
        <time>2019-09-18T17:54:53Z</time>
      </trkpt>
      <trkpt lat="45.71819" lon="6.17956">
        <ele>1350</ele>
        <time>2019-09-18T17:55:07Z</time>
      </trkpt>
      <trkpt lat="45.71809" lon="6.18068">
        <ele>1371</ele>
        <time>2019-09-18T17:55:46Z</time>
      </trkpt>
      <trkpt lat="45.71822" lon="6.18154">
        <ele>1380</ele>
        <time>2019-09-18T17:56:17Z</time>
      </trkpt>
      <trkpt lat="45.71813" lon="6.18182">
        <ele>1385</ele>
        <time>2019-09-18T17:56:28Z</time>
      </trkpt>
      <trkpt lat="45.7184" lon="6.18235">
        <ele>1387</ele>
        <time>2019-09-18T17:56:51Z</time>
      </trkpt>
      <trkpt lat="45.71848" lon="6.18272">
        <ele>1392</ele>
        <time>2019-09-18T17:57:04Z</time>
      </trkpt>
      <trkpt lat="45.71849" lon="6.1829">
        <ele>1395</ele>
        <time>2019-09-18T17:57:10Z</time>
      </trkpt>
      <trkpt lat="45.71857" lon="6.18315">
        <ele>1399</ele>
        <time>2019-09-18T17:57:20Z</time>
      </trkpt>
      <trkpt lat="45.71871" lon="6.18318">
        <ele>1397</ele>
        <time>2019-09-18T17:57:27Z</time>
      </trkpt>
      <trkpt lat="45.7188" lon="6.18322">
        <ele>1396</ele>
        <time>2019-09-18T17:57:32Z</time>
      </trkpt>
      <trkpt lat="45.71885" lon="6.18327">
        <ele>1396</ele>
        <time>2019-09-18T17:57:35Z</time>
      </trkpt>
      <trkpt lat="45.71897" lon="6.18351">
        <ele>1399</ele>
        <time>2019-09-18T17:57:45Z</time>
      </trkpt>
      <trkpt lat="45.71907" lon="6.18378">
        <ele>1404</ele>
        <time>2019-09-18T17:57:56Z</time>
      </trkpt>
      <trkpt lat="45.71916" lon="6.1839">
        <ele>1405</ele>
        <time>2019-09-18T17:58:02Z</time>
      </trkpt>
      <trkpt lat="45.7193" lon="6.18403">
        <ele>1406</ele>
        <time>2019-09-18T17:58:10Z</time>
      </trkpt>
      <trkpt lat="45.71953" lon="6.18437">
        <ele>1410</ele>
        <time>2019-09-18T17:58:27Z</time>
      </trkpt>
      <trkpt lat="45.71956" lon="6.1844">
        <ele>1410</ele>
        <time>2019-09-18T17:58:29Z</time>
      </trkpt>
      <trkpt lat="45.71962" lon="6.18441">
        <ele>1409</ele>
        <time>2019-09-18T17:58:32Z</time>
      </trkpt>
      <trkpt lat="45.71988" lon="6.18434">
        <ele>1402</ele>
        <time>2019-09-18T17:58:45Z</time>
      </trkpt>
      <trkpt lat="45.72005" lon="6.18462">
        <ele>1407</ele>
        <time>2019-09-18T17:58:58Z</time>
      </trkpt>
      <trkpt lat="45.72027" lon="6.18482">
        <ele>1411</ele>
        <time>2019-09-18T17:59:11Z</time>
      </trkpt>
      <trkpt lat="45.72046" lon="6.18484">
        <ele>1410</ele>
        <time>2019-09-18T17:59:21Z</time>
      </trkpt>
      <trkpt lat="45.72095" lon="6.18477">
        <ele>1405</ele>
        <time>2019-09-18T17:59:45Z</time>
      </trkpt>
      <trkpt lat="45.72113" lon="6.18477">
        <ele>1406</ele>
        <time>2019-09-18T17:59:54Z</time>
      </trkpt>
      <trkpt lat="45.72139" lon="6.18482">
        <ele>1409</ele>
        <time>2019-09-18T18:00:07Z</time>
      </trkpt>
      <trkpt lat="45.72172" lon="6.18481">
        <ele>1410</ele>
        <time>2019-09-18T18:00:24Z</time>
      </trkpt>
      <trkpt lat="45.72192" lon="6.18495">
        <ele>1415</ele>
        <time>2019-09-18T18:00:35Z</time>
      </trkpt>
      <trkpt lat="45.72205" lon="6.18501">
        <ele>1416</ele>
        <time>2019-09-18T18:00:42Z</time>
      </trkpt>
      <trkpt lat="45.72236" lon="6.18508">
        <ele>1417</ele>
        <time>2019-09-18T18:00:58Z</time>
      </trkpt>
      <trkpt lat="45.72264" lon="6.18522">
        <ele>1417</ele>
        <time>2019-09-18T18:01:12Z</time>
      </trkpt>
      <trkpt lat="45.72287" lon="6.18527">
        <ele>1412</ele>
        <time>2019-09-18T18:01:24Z</time>
      </trkpt>
      <trkpt lat="45.72311" lon="6.18541">
        <ele>1409</ele>
        <time>2019-09-18T18:01:37Z</time>
      </trkpt>
      <trkpt lat="45.72342" lon="6.18581">
        <ele>1413</ele>
        <time>2019-09-18T18:01:58Z</time>
      </trkpt>
      <trkpt lat="45.72356" lon="6.18586">
        <ele>1413</ele>
        <time>2019-09-18T18:02:05Z</time>
      </trkpt>
      <trkpt lat="45.72375" lon="6.18604">
        <ele>1417</ele>
        <time>2019-09-18T18:02:16Z</time>
      </trkpt>
      <trkpt lat="45.72378" lon="6.18605">
        <ele>1417</ele>
        <time>2019-09-18T18:02:18Z</time>
      </trkpt>
      <trkpt lat="45.72392" lon="6.186">
        <ele>1414</ele>
        <time>2019-09-18T18:02:25Z</time>
      </trkpt>
      <trkpt lat="45.724" lon="6.18602">
        <ele>1414</ele>
        <time>2019-09-18T18:02:29Z</time>
      </trkpt>
      <trkpt lat="45.7245" lon="6.18642">
        <ele>1422</ele>
        <time>2019-09-18T18:02:58Z</time>
      </trkpt>
      <trkpt lat="45.72459" lon="6.18646">
        <ele>1422</ele>
        <time>2019-09-18T18:03:03Z</time>
      </trkpt>
      <trkpt lat="45.72478" lon="6.18666">
        <ele>1426</ele>
        <time>2019-09-18T18:03:14Z</time>
      </trkpt>
      <trkpt lat="45.72491" lon="6.18668">
        <ele>1425</ele>
        <time>2019-09-18T18:03:21Z</time>
      </trkpt>
      <trkpt lat="45.72517" lon="6.18665">
        <ele>1421</ele>
        <time>2019-09-18T18:03:34Z</time>
      </trkpt>
      <trkpt lat="45.72538" lon="6.18672">
        <ele>1422</ele>
        <time>2019-09-18T18:03:45Z</time>
      </trkpt>
      <trkpt lat="45.7256" lon="6.18686">
        <ele>1427</ele>
        <time>2019-09-18T18:03:57Z</time>
      </trkpt>
      <trkpt lat="45.72584" lon="6.18707">
        <ele>1434</ele>
        <time>2019-09-18T18:04:11Z</time>
      </trkpt>
      <trkpt lat="45.72586" lon="6.18705">
        <ele>1433</ele>
        <time>2019-09-18T18:04:12Z</time>
      </trkpt>
      <trkpt lat="45.7259" lon="6.18706">
        <ele>1433</ele>
        <time>2019-09-18T18:04:14Z</time>
      </trkpt>
      <trkpt lat="45.72622" lon="6.18716">
        <ele>1433</ele>
        <time>2019-09-18T18:04:31Z</time>
      </trkpt>
      <trkpt lat="45.72645" lon="6.18726">
        <ele>1434</ele>
        <time>2019-09-18T18:04:43Z</time>
      </trkpt>
      <trkpt lat="45.72671" lon="6.18714">
        <ele>1426</ele>
        <time>2019-09-18T18:04:56Z</time>
      </trkpt>
      <trkpt lat="45.72703" lon="6.18712">
        <ele>1426</ele>
        <time>2019-09-18T18:05:12Z</time>
      </trkpt>
      <trkpt lat="45.72737" lon="6.18701">
        <ele>1422</ele>
        <time>2019-09-18T18:05:30Z</time>
      </trkpt>
      <trkpt lat="45.72773" lon="6.18683">
        <ele>1417</ele>
        <time>2019-09-18T18:05:49Z</time>
      </trkpt>
      <trkpt lat="45.72805" lon="6.18676">
        <ele>1417</ele>
        <time>2019-09-18T18:06:05Z</time>
      </trkpt>
      <trkpt lat="45.72825" lon="6.18665">
        <ele>1414</ele>
        <time>2019-09-18T18:06:16Z</time>
      </trkpt>
      <trkpt lat="45.7285" lon="6.18645">
        <ele>1410</ele>
        <time>2019-09-18T18:06:30Z</time>
      </trkpt>
      <trkpt lat="45.72862" lon="6.18631">
        <ele>1406</ele>
        <time>2019-09-18T18:06:38Z</time>
      </trkpt>
      <trkpt lat="45.72905" lon="6.18598">
        <ele>1399</ele>
        <time>2019-09-18T18:07:02Z</time>
      </trkpt>
      <trkpt lat="45.72938" lon="6.18585">
        <ele>1392</ele>
        <time>2019-09-18T18:07:19Z</time>
      </trkpt>
      <trkpt lat="45.72972" lon="6.18577">
        <ele>1384</ele>
        <time>2019-09-18T18:07:37Z</time>
      </trkpt>
      <trkpt lat="45.73025" lon="6.18587">
        <ele>1379</ele>
        <time>2019-09-18T18:08:03Z</time>
      </trkpt>
      <trkpt lat="45.73034" lon="6.1859">
        <ele>1379</ele>
        <time>2019-09-18T18:08:08Z</time>
      </trkpt>
      <trkpt lat="45.73033" lon="6.18593">
        <ele>1381</ele>
        <time>2019-09-18T18:08:09Z</time>
      </trkpt>
      <trkpt lat="45.73036" lon="6.18594">
        <ele>1381</ele>
        <time>2019-09-18T18:08:11Z</time>
      </trkpt>
      <trkpt lat="45.73061" lon="6.18588">
        <ele>1375</ele>
        <time>2019-09-18T18:08:23Z</time>
      </trkpt>
      <trkpt lat="45.73098" lon="6.18593">
        <ele>1372</ele>
        <time>2019-09-18T18:08:42Z</time>
      </trkpt>
      <trkpt lat="45.73129" lon="6.18593">
        <ele>1367</ele>
        <time>2019-09-18T18:08:58Z</time>
      </trkpt>
      <trkpt lat="45.73151" lon="6.18598">
        <ele>1365</ele>
        <time>2019-09-18T18:09:09Z</time>
      </trkpt>
      <trkpt lat="45.73199" lon="6.18597">
        <ele>1356</ele>
        <time>2019-09-18T18:09:33Z</time>
      </trkpt>
      <trkpt lat="45.73232" lon="6.18605">
        <ele>1352</ele>
        <time>2019-09-18T18:09:49Z</time>
      </trkpt>
      <trkpt lat="45.73267" lon="6.18607">
        <ele>1347</ele>
        <time>2019-09-18T18:10:07Z</time>
      </trkpt>
      <trkpt lat="45.733" lon="6.18617">
        <ele>1345</ele>
        <time>2019-09-18T18:10:24Z</time>
      </trkpt>
      <trkpt lat="45.73309" lon="6.18616">
        <ele>1343</ele>
        <time>2019-09-18T18:10:28Z</time>
      </trkpt>
      <trkpt lat="45.73342" lon="6.18624">
        <ele>1340</ele>
        <time>2019-09-18T18:10:45Z</time>
      </trkpt>
      <trkpt lat="45.73343" lon="6.18631">
        <ele>1342</ele>
        <time>2019-09-18T18:10:48Z</time>
      </trkpt>
      <trkpt lat="45.73358" lon="6.18641">
        <ele>1342</ele>
        <time>2019-09-18T18:10:56Z</time>
      </trkpt>
      <trkpt lat="45.734" lon="6.18638">
        <ele>1333</ele>
        <time>2019-09-18T18:11:17Z</time>
      </trkpt>
      <trkpt lat="45.73425" lon="6.18646">
        <ele>1330</ele>
        <time>2019-09-18T18:11:30Z</time>
      </trkpt>
      <trkpt lat="45.73445" lon="6.1865">
        <ele>1327</ele>
        <time>2019-09-18T18:11:40Z</time>
      </trkpt>
      <trkpt lat="45.73459" lon="6.1865">
        <ele>1324</ele>
        <time>2019-09-18T18:11:47Z</time>
      </trkpt>
      <trkpt lat="45.73488" lon="6.18661">
        <ele>1320</ele>
        <time>2019-09-18T18:12:02Z</time>
      </trkpt>
      <trkpt lat="45.73493" lon="6.1866">
        <ele>1319</ele>
        <time>2019-09-18T18:12:04Z</time>
      </trkpt>
      <trkpt lat="45.73507" lon="6.18664">
        <ele>1317</ele>
        <time>2019-09-18T18:12:12Z</time>
      </trkpt>
      <trkpt lat="45.73515" lon="6.18673">
        <ele>1317</ele>
        <time>2019-09-18T18:12:17Z</time>
      </trkpt>
      <trkpt lat="45.73536" lon="6.18681">
        <ele>1315</ele>
        <time>2019-09-18T18:12:28Z</time>
      </trkpt>
      <trkpt lat="45.73545" lon="6.18687">
        <ele>1314</ele>
        <time>2019-09-18T18:12:32Z</time>
      </trkpt>
      <trkpt lat="45.73555" lon="6.18712">
        <ele>1318</ele>
        <time>2019-09-18T18:12:43Z</time>
      </trkpt>
      <trkpt lat="45.73562" lon="6.1874">
        <ele>1322</ele>
        <time>2019-09-18T18:12:53Z</time>
      </trkpt>
      <trkpt lat="45.73583" lon="6.18771">
        <ele>1326</ele>
        <time>2019-09-18T18:13:08Z</time>
      </trkpt>
      <trkpt lat="45.73606" lon="6.18764">
        <ele>1321</ele>
        <time>2019-09-18T18:13:20Z</time>
      </trkpt>
      <trkpt lat="45.73622" lon="6.18777">
        <ele>1322</ele>
        <time>2019-09-18T18:13:29Z</time>
      </trkpt>
      <trkpt lat="45.73649" lon="6.18791">
        <ele>1323</ele>
        <time>2019-09-18T18:13:43Z</time>
      </trkpt>
      <trkpt lat="45.73668" lon="6.18789">
        <ele>1319</ele>
        <time>2019-09-18T18:13:53Z</time>
      </trkpt>
      <trkpt lat="45.73698" lon="6.18801">
        <ele>1316</ele>
        <time>2019-09-18T18:14:08Z</time>
      </trkpt>
      <trkpt lat="45.73706" lon="6.188">
        <ele>1314</ele>
        <time>2019-09-18T18:14:12Z</time>
      </trkpt>
      <trkpt lat="45.73714" lon="6.18791">
        <ele>1310</ele>
        <time>2019-09-18T18:14:18Z</time>
      </trkpt>
      <trkpt lat="45.73725" lon="6.18785">
        <ele>1306</ele>
        <time>2019-09-18T18:14:23Z</time>
      </trkpt>
      <trkpt lat="45.73737" lon="6.18784">
        <ele>1303</ele>
        <time>2019-09-18T18:14:29Z</time>
      </trkpt>
      <trkpt lat="45.73746" lon="6.18786">
        <ele>1302</ele>
        <time>2019-09-18T18:14:34Z</time>
      </trkpt>
      <trkpt lat="45.73764" lon="6.18801">
        <ele>1300</ele>
        <time>2019-09-18T18:14:44Z</time>
      </trkpt>
      <trkpt lat="45.73774" lon="6.18802">
        <ele>1297</ele>
        <time>2019-09-18T18:14:49Z</time>
      </trkpt>
      <trkpt lat="45.73831" lon="6.18838">
        <ele>1288</ele>
        <time>2019-09-18T18:15:21Z</time>
      </trkpt>
      <trkpt lat="45.73871" lon="6.18874">
        <ele>1283</ele>
        <time>2019-09-18T18:15:44Z</time>
      </trkpt>
      <trkpt lat="45.7388" lon="6.18877">
        <ele>1280</ele>
        <time>2019-09-18T18:15:49Z</time>
      </trkpt>
      <trkpt lat="45.73889" lon="6.18884">
        <ele>1278</ele>
        <time>2019-09-18T18:15:54Z</time>
      </trkpt>
      <trkpt lat="45.73895" lon="6.18894">
        <ele>1278</ele>
        <time>2019-09-18T18:15:59Z</time>
      </trkpt>
      <trkpt lat="45.7392" lon="6.1892">
        <ele>1274</ele>
        <time>2019-09-18T18:16:14Z</time>
      </trkpt>
      <trkpt lat="45.73926" lon="6.18932">
        <ele>1275</ele>
        <time>2019-09-18T18:16:19Z</time>
      </trkpt>
      <trkpt lat="45.73942" lon="6.18917">
        <ele>1268</ele>
        <time>2019-09-18T18:16:29Z</time>
      </trkpt>
      <trkpt lat="45.73954" lon="6.18918">
        <ele>1265</ele>
        <time>2019-09-18T18:16:35Z</time>
      </trkpt>
      <trkpt lat="45.73985" lon="6.18946">
        <ele>1264</ele>
        <time>2019-09-18T18:16:53Z</time>
      </trkpt>
      <trkpt lat="45.7401" lon="6.18975">
        <ele>1264</ele>
        <time>2019-09-18T18:17:09Z</time>
      </trkpt>
      <trkpt lat="45.74037" lon="6.18993">
        <ele>1261</ele>
        <time>2019-09-18T18:17:24Z</time>
      </trkpt>
      <trkpt lat="45.74048" lon="6.18994">
        <ele>1258</ele>
        <time>2019-09-18T18:17:30Z</time>
      </trkpt>
      <trkpt lat="45.74082" lon="6.19025">
        <ele>1257</ele>
        <time>2019-09-18T18:17:50Z</time>
      </trkpt>
      <trkpt lat="45.74108" lon="6.19043">
        <ele>1256</ele>
        <time>2019-09-18T18:18:04Z</time>
      </trkpt>
      <trkpt lat="45.74119" lon="6.19048">
        <ele>1255</ele>
        <time>2019-09-18T18:18:10Z</time>
      </trkpt>
      <trkpt lat="45.74137" lon="6.19062">
        <ele>1254</ele>
        <time>2019-09-18T18:18:20Z</time>
      </trkpt>
      <trkpt lat="45.74143" lon="6.19075">
        <ele>1256</ele>
        <time>2019-09-18T18:18:26Z</time>
      </trkpt>
      <trkpt lat="45.74152" lon="6.19084">
        <ele>1256</ele>
        <time>2019-09-18T18:18:31Z</time>
      </trkpt>
      <trkpt lat="45.74162" lon="6.19088">
        <ele>1255</ele>
        <time>2019-09-18T18:18:36Z</time>
      </trkpt>
      <trkpt lat="45.7417" lon="6.19096">
        <ele>1255</ele>
        <time>2019-09-18T18:18:41Z</time>
      </trkpt>
      <trkpt lat="45.74184" lon="6.19121">
        <ele>1256</ele>
        <time>2019-09-18T18:18:53Z</time>
      </trkpt>
      <trkpt lat="45.74204" lon="6.19129">
        <ele>1251</ele>
        <time>2019-09-18T18:19:03Z</time>
      </trkpt>
      <trkpt lat="45.74222" lon="6.19141">
        <ele>1248</ele>
        <time>2019-09-18T18:19:13Z</time>
      </trkpt>
      <trkpt lat="45.74239" lon="6.1916">
        <ele>1246</ele>
        <time>2019-09-18T18:19:24Z</time>
      </trkpt>
      <trkpt lat="45.74255" lon="6.19185">
        <ele>1247</ele>
        <time>2019-09-18T18:19:36Z</time>
      </trkpt>
      <trkpt lat="45.74263" lon="6.19193">
        <ele>1246</ele>
        <time>2019-09-18T18:19:40Z</time>
      </trkpt>
      <trkpt lat="45.74268" lon="6.19206">
        <ele>1248</ele>
        <time>2019-09-18T18:19:46Z</time>
      </trkpt>
      <trkpt lat="45.74269" lon="6.19221">
        <ele>1251</ele>
        <time>2019-09-18T18:19:51Z</time>
      </trkpt>
      <trkpt lat="45.74277" lon="6.19231">
        <ele>1250</ele>
        <time>2019-09-18T18:19:56Z</time>
      </trkpt>
      <trkpt lat="45.74282" lon="6.19245">
        <ele>1252</ele>
        <time>2019-09-18T18:20:02Z</time>
      </trkpt>
      <trkpt lat="45.74282" lon="6.19259">
        <ele>1255</ele>
        <time>2019-09-18T18:20:07Z</time>
      </trkpt>
      <trkpt lat="45.74291" lon="6.19262">
        <ele>1252</ele>
        <time>2019-09-18T18:20:11Z</time>
      </trkpt>
      <trkpt lat="45.74295" lon="6.19276">
        <ele>1254</ele>
        <time>2019-09-18T18:20:16Z</time>
      </trkpt>
      <trkpt lat="45.74315" lon="6.19281">
        <ele>1246</ele>
        <time>2019-09-18T18:20:27Z</time>
      </trkpt>
      <trkpt lat="45.74317" lon="6.19294">
        <ele>1249</ele>
        <time>2019-09-18T18:20:31Z</time>
      </trkpt>
      <trkpt lat="45.74317" lon="6.19338">
        <ele>1261</ele>
        <time>2019-09-18T18:20:47Z</time>
      </trkpt>
      <trkpt lat="45.74328" lon="6.19335">
        <ele>1255</ele>
        <time>2019-09-18T18:20:52Z</time>
      </trkpt>
      <trkpt lat="45.74336" lon="6.1934">
        <ele>1253</ele>
        <time>2019-09-18T18:20:57Z</time>
      </trkpt>
      <trkpt lat="45.74344" lon="6.1935">
        <ele>1253</ele>
        <time>2019-09-18T18:21:02Z</time>
      </trkpt>
      <trkpt lat="45.74351" lon="6.19377">
        <ele>1258</ele>
        <time>2019-09-18T18:21:12Z</time>
      </trkpt>
      <trkpt lat="45.7435" lon="6.19392">
        <ele>1263</ele>
        <time>2019-09-18T18:21:17Z</time>
      </trkpt>
      <trkpt lat="45.74366" lon="6.1944">
        <ele>1273</ele>
        <time>2019-09-18T18:21:36Z</time>
      </trkpt>
      <trkpt lat="45.74366" lon="6.19469">
        <ele>1283</ele>
        <time>2019-09-18T18:21:46Z</time>
      </trkpt>
      <trkpt lat="45.7437" lon="6.19495">
        <ele>1290</ele>
        <time>2019-09-18T18:21:55Z</time>
      </trkpt>
      <trkpt lat="45.74389" lon="6.19494">
        <ele>1283</ele>
        <time>2019-09-18T18:22:05Z</time>
      </trkpt>
      <trkpt lat="45.74399" lon="6.19499">
        <ele>1282</ele>
        <time>2019-09-18T18:22:10Z</time>
      </trkpt>
      <trkpt lat="45.74421" lon="6.19499">
        <ele>1274</ele>
        <time>2019-09-18T18:22:21Z</time>
      </trkpt>
      <trkpt lat="45.74439" lon="6.19506">
        <ele>1273</ele>
        <time>2019-09-18T18:22:30Z</time>
      </trkpt>
      <trkpt lat="45.74461" lon="6.19502">
        <ele>1265</ele>
        <time>2019-09-18T18:22:41Z</time>
      </trkpt>
      <trkpt lat="45.7448" lon="6.19511">
        <ele>1264</ele>
        <time>2019-09-18T18:22:51Z</time>
      </trkpt>
      <trkpt lat="45.74489" lon="6.1951">
        <ele>1261</ele>
        <time>2019-09-18T18:22:56Z</time>
      </trkpt>
      <trkpt lat="45.74521" lon="6.19517">
        <ele>1254</ele>
        <time>2019-09-18T18:23:12Z</time>
      </trkpt>
      <trkpt lat="45.7454" lon="6.19527">
        <ele>1252</ele>
        <time>2019-09-18T18:23:22Z</time>
      </trkpt>
      <trkpt lat="45.74559" lon="6.1952">
        <ele>1243</ele>
        <time>2019-09-18T18:23:32Z</time>
      </trkpt>
      <trkpt lat="45.74577" lon="6.19535">
        <ele>1243</ele>
        <time>2019-09-18T18:23:43Z</time>
      </trkpt>
      <trkpt lat="45.74602" lon="6.19544">
        <ele>1238</ele>
        <time>2019-09-18T18:23:55Z</time>
      </trkpt>
      <trkpt lat="45.74633" lon="6.19562">
        <ele>1234</ele>
        <time>2019-09-18T18:24:12Z</time>
      </trkpt>
      <trkpt lat="45.74642" lon="6.19565">
        <ele>1231</ele>
        <time>2019-09-18T18:24:17Z</time>
      </trkpt>
      <trkpt lat="45.74674" lon="6.19563">
        <ele>1219</ele>
        <time>2019-09-18T18:24:33Z</time>
      </trkpt>
      <trkpt lat="45.74687" lon="6.19567">
        <ele>1216</ele>
        <time>2019-09-18T18:24:40Z</time>
      </trkpt>
      <trkpt lat="45.74705" lon="6.19584">
        <ele>1216</ele>
        <time>2019-09-18T18:24:50Z</time>
      </trkpt>
      <trkpt lat="45.74727" lon="6.19596">
        <ele>1213</ele>
        <time>2019-09-18T18:25:02Z</time>
      </trkpt>
      <trkpt lat="45.74737" lon="6.19599">
        <ele>1211</ele>
        <time>2019-09-18T18:25:07Z</time>
      </trkpt>
      <trkpt lat="45.74756" lon="6.19613">
        <ele>1210</ele>
        <time>2019-09-18T18:25:18Z</time>
      </trkpt>
      <trkpt lat="45.74767" lon="6.19616">
        <ele>1207</ele>
        <time>2019-09-18T18:25:23Z</time>
      </trkpt>
      <trkpt lat="45.74785" lon="6.19628">
        <ele>1205</ele>
        <time>2019-09-18T18:25:33Z</time>
      </trkpt>
      <trkpt lat="45.74792" lon="6.19618">
        <ele>1199</ele>
        <time>2019-09-18T18:25:38Z</time>
      </trkpt>
      <trkpt lat="45.74797" lon="6.19634">
        <ele>1203</ele>
        <time>2019-09-18T18:25:45Z</time>
      </trkpt>
      <trkpt lat="45.74806" lon="6.19633">
        <ele>1200</ele>
        <time>2019-09-18T18:25:49Z</time>
      </trkpt>
      <trkpt lat="45.74814" lon="6.19644">
        <ele>1201</ele>
        <time>2019-09-18T18:25:55Z</time>
      </trkpt>
      <trkpt lat="45.74817" lon="6.19672">
        <ele>1210</ele>
        <time>2019-09-18T18:26:04Z</time>
      </trkpt>
      <trkpt lat="45.74821" lon="6.19684">
        <ele>1212</ele>
        <time>2019-09-18T18:26:09Z</time>
      </trkpt>
      <trkpt lat="45.74829" lon="6.19692">
        <ele>1211</ele>
        <time>2019-09-18T18:26:14Z</time>
      </trkpt>
      <trkpt lat="45.74837" lon="6.19719">
        <ele>1214</ele>
        <time>2019-09-18T18:26:24Z</time>
      </trkpt>
      <trkpt lat="45.74843" lon="6.1973">
        <ele>1213</ele>
        <time>2019-09-18T18:26:29Z</time>
      </trkpt>
      <trkpt lat="45.74849" lon="6.19755">
        <ele>1216</ele>
        <time>2019-09-18T18:26:38Z</time>
      </trkpt>
      <trkpt lat="45.74852" lon="6.19786">
        <ele>1222</ele>
        <time>2019-09-18T18:26:49Z</time>
      </trkpt>
      <trkpt lat="45.74851" lon="6.19814">
        <ele>1229</ele>
        <time>2019-09-18T18:26:59Z</time>
      </trkpt>
      <trkpt lat="45.74842" lon="6.19809">
        <ele>1233</ele>
        <time>2019-09-18T18:27:04Z</time>
      </trkpt>
      <trkpt lat="45.74837" lon="6.19798">
        <ele>1233</ele>
        <time>2019-09-18T18:27:08Z</time>
      </trkpt>
      <trkpt lat="45.74829" lon="6.19788">
        <ele>1235</ele>
        <time>2019-09-18T18:27:14Z</time>
      </trkpt>
      <trkpt lat="45.74795" lon="6.19762">
        <ele>1243</ele>
        <time>2019-09-18T18:27:33Z</time>
      </trkpt>
      <trkpt lat="45.74776" lon="6.19752">
        <ele>1248</ele>
        <time>2019-09-18T18:27:43Z</time>
      </trkpt>
      <trkpt lat="45.74762" lon="6.19732">
        <ele>1248</ele>
        <time>2019-09-18T18:27:53Z</time>
      </trkpt>
      <trkpt lat="45.74753" lon="6.19727">
        <ele>1250</ele>
        <time>2019-09-18T18:27:58Z</time>
      </trkpt>
      <trkpt lat="45.74742" lon="6.19726">
        <ele>1254</ele>
        <time>2019-09-18T18:28:03Z</time>
      </trkpt>
      <trkpt lat="45.74725" lon="6.19719">
        <ele>1259</ele>
        <time>2019-09-18T18:28:12Z</time>
      </trkpt>
      <trkpt lat="45.74716" lon="6.19712">
        <ele>1260</ele>
        <time>2019-09-18T18:28:17Z</time>
      </trkpt>
      <trkpt lat="45.74697" lon="6.1971">
        <ele>1267</ele>
        <time>2019-09-18T18:28:27Z</time>
      </trkpt>
      <trkpt lat="45.74675" lon="6.19683">
        <ele>1265</ele>
        <time>2019-09-18T18:28:41Z</time>
      </trkpt>
      <trkpt lat="45.74666" lon="6.19678">
        <ele>1267</ele>
        <time>2019-09-18T18:28:46Z</time>
      </trkpt>
      <trkpt lat="45.74656" lon="6.19677">
        <ele>1270</ele>
        <time>2019-09-18T18:28:51Z</time>
      </trkpt>
      <trkpt lat="45.74662" lon="6.19704">
        <ele>1278</ele>
        <time>2019-09-18T18:29:01Z</time>
      </trkpt>
      <trkpt lat="45.74667" lon="6.19716">
        <ele>1281</ele>
        <time>2019-09-18T18:29:06Z</time>
      </trkpt>
      <trkpt lat="45.74667" lon="6.1973">
        <ele>1286</ele>
        <time>2019-09-18T18:29:11Z</time>
      </trkpt>
      <trkpt lat="45.74672" lon="6.19741">
        <ele>1288</ele>
        <time>2019-09-18T18:29:16Z</time>
      </trkpt>
      <trkpt lat="45.74681" lon="6.19748">
        <ele>1287</ele>
        <time>2019-09-18T18:29:21Z</time>
      </trkpt>
      <trkpt lat="45.74694" lon="6.19769">
        <ele>1289</ele>
        <time>2019-09-18T18:29:30Z</time>
      </trkpt>
      <trkpt lat="45.74712" lon="6.19783">
        <ele>1285</ele>
        <time>2019-09-18T18:29:41Z</time>
      </trkpt>
      <trkpt lat="45.74719" lon="6.19794">
        <ele>1285</ele>
        <time>2019-09-18T18:29:46Z</time>
      </trkpt>
      <trkpt lat="45.74728" lon="6.19822">
        <ele>1290</ele>
        <time>2019-09-18T18:29:57Z</time>
      </trkpt>
      <trkpt lat="45.74719" lon="6.19819">
        <ele>1293</ele>
        <time>2019-09-18T18:30:01Z</time>
      </trkpt>
      <trkpt lat="45.74702" lon="6.19804">
        <ele>1296</ele>
        <time>2019-09-18T18:30:11Z</time>
      </trkpt>
      <trkpt lat="45.74683" lon="6.19801">
        <ele>1304</ele>
        <time>2019-09-18T18:30:21Z</time>
      </trkpt>
      <trkpt lat="45.74646" lon="6.19783">
        <ele>1313</ele>
        <time>2019-09-18T18:30:40Z</time>
      </trkpt>
      <trkpt lat="45.74653" lon="6.19792">
        <ele>1313</ele>
        <time>2019-09-18T18:30:45Z</time>
      </trkpt>
      <trkpt lat="45.74666" lon="6.19829">
        <ele>1321</ele>
        <time>2019-09-18T18:31:00Z</time>
      </trkpt>
      <trkpt lat="45.74673" lon="6.19839">
        <ele>1321</ele>
        <time>2019-09-18T18:31:05Z</time>
      </trkpt>
      <trkpt lat="45.74681" lon="6.19845">
        <ele>1319</ele>
        <time>2019-09-18T18:31:09Z</time>
      </trkpt>
      <trkpt lat="45.74691" lon="6.1987">
        <ele>1322</ele>
        <time>2019-09-18T18:31:19Z</time>
      </trkpt>
      <trkpt lat="45.74698" lon="6.1988">
        <ele>1321</ele>
        <time>2019-09-18T18:31:24Z</time>
      </trkpt>
      <trkpt lat="45.74693" lon="6.19892">
        <ele>1327</ele>
        <time>2019-09-18T18:31:29Z</time>
      </trkpt>
      <trkpt lat="45.74662" lon="6.19886">
        <ele>1340</ele>
        <time>2019-09-18T18:31:45Z</time>
      </trkpt>
      <trkpt lat="45.74616" lon="6.19856">
        <ele>1350</ele>
        <time>2019-09-18T18:32:10Z</time>
      </trkpt>
      <trkpt lat="45.74621" lon="6.19882">
        <ele>1357</ele>
        <time>2019-09-18T18:32:19Z</time>
      </trkpt>
      <trkpt lat="45.74629" lon="6.19891">
        <ele>1356</ele>
        <time>2019-09-18T18:32:24Z</time>
      </trkpt>
      <trkpt lat="45.74641" lon="6.19913">
        <ele>1358</ele>
        <time>2019-09-18T18:32:34Z</time>
      </trkpt>
      <trkpt lat="45.74659" lon="6.19927">
        <ele>1355</ele>
        <time>2019-09-18T18:32:44Z</time>
      </trkpt>
      <trkpt lat="45.74665" lon="6.1994">
        <ele>1357</ele>
        <time>2019-09-18T18:32:50Z</time>
      </trkpt>
      <trkpt lat="45.74659" lon="6.19949">
        <ele>1363</ele>
        <time>2019-09-18T18:32:54Z</time>
      </trkpt>
      <trkpt lat="45.7464" lon="6.19946">
        <ele>1371</ele>
        <time>2019-09-18T18:33:04Z</time>
      </trkpt>
      <trkpt lat="45.74623" lon="6.1993">
        <ele>1373</ele>
        <time>2019-09-18T18:33:14Z</time>
      </trkpt>
      <trkpt lat="45.74605" lon="6.19918">
        <ele>1377</ele>
        <time>2019-09-18T18:33:24Z</time>
      </trkpt>
      <trkpt lat="45.74604" lon="6.19932">
        <ele>1383</ele>
        <time>2019-09-18T18:33:29Z</time>
      </trkpt>
      <trkpt lat="45.74618" lon="6.19982">
        <ele>1396</ele>
        <time>2019-09-18T18:33:48Z</time>
      </trkpt>
      <trkpt lat="45.74621" lon="6.2001">
        <ele>1410</ele>
        <time>2019-09-18T18:33:57Z</time>
      </trkpt>
      <trkpt lat="45.74628" lon="6.2002">
        <ele>1415</ele>
        <time>2019-09-18T18:34:02Z</time>
      </trkpt>
      <trkpt lat="45.74637" lon="6.20045">
        <ele>1429</ele>
        <time>2019-09-18T18:34:12Z</time>
      </trkpt>
      <trkpt lat="45.74628" lon="6.20049">
        <ele>1438</ele>
        <time>2019-09-18T18:34:17Z</time>
      </trkpt>
      <trkpt lat="45.74631" lon="6.20061">
        <ele>1446</ele>
        <time>2019-09-18T18:34:21Z</time>
      </trkpt>
      <trkpt lat="45.74641" lon="6.20064">
        <ele>1441</ele>
        <time>2019-09-18T18:34:27Z</time>
      </trkpt>
      <trkpt lat="45.74641" lon="6.20077">
        <ele>1451</ele>
        <time>2019-09-18T18:34:31Z</time>
      </trkpt>
      <trkpt lat="45.74637" lon="6.20091">
        <ele>1464</ele>
        <time>2019-09-18T18:34:36Z</time>
      </trkpt>
      <trkpt lat="45.74644" lon="6.201">
        <ele>1465</ele>
        <time>2019-09-18T18:34:41Z</time>
      </trkpt>
      <trkpt lat="45.74637" lon="6.20109">
        <ele>1477</ele>
        <time>2019-09-18T18:34:46Z</time>
      </trkpt>
      <trkpt lat="45.74627" lon="6.20112">
        <ele>1486</ele>
        <time>2019-09-18T18:34:51Z</time>
      </trkpt>
      <trkpt lat="45.74618" lon="6.2011">
        <ele>1491</ele>
        <time>2019-09-18T18:34:55Z</time>
      </trkpt>
      <trkpt lat="45.74591" lon="6.20088">
        <ele>1498</ele>
        <time>2019-09-18T18:35:11Z</time>
      </trkpt>
      <trkpt lat="45.74588" lon="6.20076">
        <ele>1491</ele>
        <time>2019-09-18T18:35:15Z</time>
      </trkpt>
      <trkpt lat="45.74589" lon="6.20062">
        <ele>1477</ele>
        <time>2019-09-18T18:35:20Z</time>
      </trkpt>
      <trkpt lat="45.7458" lon="6.20055">
        <ele>1477</ele>
        <time>2019-09-18T18:35:25Z</time>
      </trkpt>
      <trkpt lat="45.74565" lon="6.20035">
        <ele>1468</ele>
        <time>2019-09-18T18:35:36Z</time>
      </trkpt>
      <trkpt lat="45.74562" lon="6.20048">
        <ele>1482</ele>
        <time>2019-09-18T18:35:41Z</time>
      </trkpt>
      <trkpt lat="45.74563" lon="6.20062">
        <ele>1494</ele>
        <time>2019-09-18T18:35:45Z</time>
      </trkpt>
      <trkpt lat="45.74579" lon="6.20075">
        <ele>1497</ele>
        <time>2019-09-18T18:35:55Z</time>
      </trkpt>
      <trkpt lat="45.74589" lon="6.2008">
        <ele>1494</ele>
        <time>2019-09-18T18:36:00Z</time>
      </trkpt>
      <trkpt lat="45.74595" lon="6.2009">
        <ele>1496</ele>
        <time>2019-09-18T18:36:05Z</time>
      </trkpt>
      <trkpt lat="45.74604" lon="6.2009">
        <ele>1489</ele>
        <time>2019-09-18T18:36:09Z</time>
      </trkpt>
      <trkpt lat="45.74612" lon="6.201">
        <ele>1489</ele>
        <time>2019-09-18T18:36:14Z</time>
      </trkpt>
      <trkpt lat="45.74614" lon="6.20114">
        <ele>1497</ele>
        <time>2019-09-18T18:36:19Z</time>
      </trkpt>
      <trkpt lat="45.74622" lon="6.2012">
        <ele>1495</ele>
        <time>2019-09-18T18:36:24Z</time>
      </trkpt>
      <trkpt lat="45.74632" lon="6.20118">
        <ele>1487</ele>
        <time>2019-09-18T18:36:29Z</time>
      </trkpt>
      <trkpt lat="45.7465" lon="6.20129">
        <ele>1483</ele>
        <time>2019-09-18T18:36:39Z</time>
      </trkpt>
      <trkpt lat="45.74668" lon="6.20135">
        <ele>1476</ele>
        <time>2019-09-18T18:36:48Z</time>
      </trkpt>
      <trkpt lat="45.74672" lon="6.20148">
        <ele>1484</ele>
        <time>2019-09-18T18:36:53Z</time>
      </trkpt>
      <trkpt lat="45.74669" lon="6.20174">
        <ele>1503</ele>
        <time>2019-09-18T18:37:02Z</time>
      </trkpt>
      <trkpt lat="45.7467" lon="6.20214">
        <ele>1516</ele>
        <time>2019-09-18T18:37:16Z</time>
      </trkpt>
      <trkpt lat="45.74674" lon="6.20226">
        <ele>1518</ele>
        <time>2019-09-18T18:37:21Z</time>
      </trkpt>
      <trkpt lat="45.74674" lon="6.20269">
        <ele>1526</ele>
        <time>2019-09-18T18:37:36Z</time>
      </trkpt>
      <trkpt lat="45.74676" lon="6.20282">
        <ele>1525</ele>
        <time>2019-09-18T18:37:40Z</time>
      </trkpt>
      <trkpt lat="45.74682" lon="6.20295">
        <ele>1524</ele>
        <time>2019-09-18T18:37:46Z</time>
      </trkpt>
      <trkpt lat="45.74675" lon="6.20305">
        <ele>1525</ele>
        <time>2019-09-18T18:37:51Z</time>
      </trkpt>
      <trkpt lat="45.74657" lon="6.20319">
        <ele>1527</ele>
        <time>2019-09-18T18:38:01Z</time>
      </trkpt>
      <trkpt lat="45.74646" lon="6.20323">
        <ele>1527</ele>
        <time>2019-09-18T18:38:07Z</time>
      </trkpt>
      <trkpt lat="45.74621" lon="6.20325">
        <ele>1527</ele>
        <time>2019-09-18T18:38:19Z</time>
      </trkpt>
      <trkpt lat="45.74591" lon="6.20322">
        <ele>1528</ele>
        <time>2019-09-18T18:38:34Z</time>
      </trkpt>
      <trkpt lat="45.74581" lon="6.20324">
        <ele>1527</ele>
        <time>2019-09-18T18:38:39Z</time>
      </trkpt>
      <trkpt lat="45.74573" lon="6.20333">
        <ele>1525</ele>
        <time>2019-09-18T18:38:44Z</time>
      </trkpt>
      <trkpt lat="45.74569" lon="6.20348">
        <ele>1522</ele>
        <time>2019-09-18T18:38:50Z</time>
      </trkpt>
      <trkpt lat="45.74562" lon="6.2036">
        <ele>1520</ele>
        <time>2019-09-18T18:38:56Z</time>
      </trkpt>
      <trkpt lat="45.74541" lon="6.20367">
        <ele>1520</ele>
        <time>2019-09-18T18:39:06Z</time>
      </trkpt>
      <trkpt lat="45.74533" lon="6.20377">
        <ele>1518</ele>
        <time>2019-09-18T18:39:12Z</time>
      </trkpt>
      <trkpt lat="45.74515" lon="6.20378">
        <ele>1519</ele>
        <time>2019-09-18T18:39:21Z</time>
      </trkpt>
      <trkpt lat="45.74506" lon="6.20385">
        <ele>1518</ele>
        <time>2019-09-18T18:39:26Z</time>
      </trkpt>
      <trkpt lat="45.74503" lon="6.20399">
        <ele>1517</ele>
        <time>2019-09-18T18:39:31Z</time>
      </trkpt>
      <trkpt lat="45.74491" lon="6.20422">
        <ele>1515</ele>
        <time>2019-09-18T18:39:41Z</time>
      </trkpt>
      <trkpt lat="45.74468" lon="6.20425">
        <ele>1514</ele>
        <time>2019-09-18T18:39:52Z</time>
      </trkpt>
      <trkpt lat="45.74445" lon="6.20423">
        <ele>1513</ele>
        <time>2019-09-18T18:40:04Z</time>
      </trkpt>
      <trkpt lat="45.74427" lon="6.20413">
        <ele>1513</ele>
        <time>2019-09-18T18:40:14Z</time>
      </trkpt>
      <trkpt lat="45.74393" lon="6.20401">
        <ele>1514</ele>
        <time>2019-09-18T18:40:31Z</time>
      </trkpt>
      <trkpt lat="45.74381" lon="6.20401">
        <ele>1514</ele>
        <time>2019-09-18T18:40:37Z</time>
      </trkpt>
      <trkpt lat="45.74346" lon="6.20408">
        <ele>1514</ele>
        <time>2019-09-18T18:40:55Z</time>
      </trkpt>
      <trkpt lat="45.74335" lon="6.20423">
        <ele>1514</ele>
        <time>2019-09-18T18:41:02Z</time>
      </trkpt>
      <trkpt lat="45.74322" lon="6.20419">
        <ele>1514</ele>
        <time>2019-09-18T18:41:09Z</time>
      </trkpt>
      <trkpt lat="45.74311" lon="6.20419">
        <ele>1515</ele>
        <time>2019-09-18T18:41:15Z</time>
      </trkpt>
      <trkpt lat="45.7428" lon="6.20405">
        <ele>1516</ele>
        <time>2019-09-18T18:41:31Z</time>
      </trkpt>
      <trkpt lat="45.74274" lon="6.20406">
        <ele>1516</ele>
        <time>2019-09-18T18:41:34Z</time>
      </trkpt>
      <trkpt lat="45.74258" lon="6.20413">
        <ele>1517</ele>
        <time>2019-09-18T18:41:42Z</time>
      </trkpt>
      <trkpt lat="45.74243" lon="6.20426">
        <ele>1518</ele>
        <time>2019-09-18T18:41:51Z</time>
      </trkpt>
      <trkpt lat="45.74217" lon="6.20442">
        <ele>1522</ele>
        <time>2019-09-18T18:42:05Z</time>
      </trkpt>
      <trkpt lat="45.74203" lon="6.20456">
        <ele>1524</ele>
        <time>2019-09-18T18:42:14Z</time>
      </trkpt>
      <trkpt lat="45.74192" lon="6.20457">
        <ele>1525</ele>
        <time>2019-09-18T18:42:19Z</time>
      </trkpt>
      <trkpt lat="45.74181" lon="6.20462">
        <ele>1526</ele>
        <time>2019-09-18T18:42:25Z</time>
      </trkpt>
      <trkpt lat="45.74169" lon="6.20475">
        <ele>1528</ele>
        <time>2019-09-18T18:42:33Z</time>
      </trkpt>
      <trkpt lat="45.7416" lon="6.20476">
        <ele>1529</ele>
        <time>2019-09-18T18:42:37Z</time>
      </trkpt>
      <trkpt lat="45.74136" lon="6.20492">
        <ele>1531</ele>
        <time>2019-09-18T18:42:50Z</time>
      </trkpt>
      <trkpt lat="45.74121" lon="6.20507">
        <ele>1533</ele>
        <time>2019-09-18T18:42:59Z</time>
      </trkpt>
      <trkpt lat="45.74092" lon="6.20515">
        <ele>1533</ele>
        <time>2019-09-18T18:43:14Z</time>
      </trkpt>
      <trkpt lat="45.74029" lon="6.20541">
        <ele>1535</ele>
        <time>2019-09-18T18:43:47Z</time>
      </trkpt>
      <trkpt lat="45.74022" lon="6.20542">
        <ele>1535</ele>
        <time>2019-09-18T18:43:51Z</time>
      </trkpt>
      <trkpt lat="45.73987" lon="6.20536">
        <ele>1536</ele>
        <time>2019-09-18T18:44:08Z</time>
      </trkpt>
      <trkpt lat="45.73958" lon="6.20534">
        <ele>1533</ele>
        <time>2019-09-18T18:44:23Z</time>
      </trkpt>
      <trkpt lat="45.73927" lon="6.20545">
        <ele>1531</ele>
        <time>2019-09-18T18:44:39Z</time>
      </trkpt>
      <trkpt lat="45.73906" lon="6.20546">
        <ele>1533</ele>
        <time>2019-09-18T18:44:49Z</time>
      </trkpt>
      <trkpt lat="45.73877" lon="6.20523">
        <ele>1536</ele>
        <time>2019-09-18T18:45:06Z</time>
      </trkpt>
      <trkpt lat="45.73858" lon="6.20512">
        <ele>1538</ele>
        <time>2019-09-18T18:45:16Z</time>
      </trkpt>
      <trkpt lat="45.7385" lon="6.20504">
        <ele>1537</ele>
        <time>2019-09-18T18:45:21Z</time>
      </trkpt>
      <trkpt lat="45.73776" lon="6.20488">
        <ele>1548</ele>
        <time>2019-09-18T18:45:58Z</time>
      </trkpt>
      <trkpt lat="45.73766" lon="6.20491">
        <ele>1550</ele>
        <time>2019-09-18T18:46:04Z</time>
      </trkpt>
      <trkpt lat="45.73746" lon="6.2049">
        <ele>1554</ele>
        <time>2019-09-18T18:46:14Z</time>
      </trkpt>
      <trkpt lat="45.73683" lon="6.20473">
        <ele>1566</ele>
        <time>2019-09-18T18:46:46Z</time>
      </trkpt>
      <trkpt lat="45.73666" lon="6.20463">
        <ele>1567</ele>
        <time>2019-09-18T18:46:55Z</time>
      </trkpt>
      <trkpt lat="45.73621" lon="6.20422">
        <ele>1573</ele>
        <time>2019-09-18T18:47:22Z</time>
      </trkpt>
      <trkpt lat="45.73603" lon="6.20414">
        <ele>1579</ele>
        <time>2019-09-18T18:47:31Z</time>
      </trkpt>
      <trkpt lat="45.73569" lon="6.20384">
        <ele>1595</ele>
        <time>2019-09-18T18:47:51Z</time>
      </trkpt>
      <trkpt lat="45.73559" lon="6.2038">
        <ele>1603</ele>
        <time>2019-09-18T18:47:56Z</time>
      </trkpt>
      <trkpt lat="45.73521" lon="6.20339">
        <ele>1629</ele>
        <time>2019-09-18T18:48:20Z</time>
      </trkpt>
      <trkpt lat="45.73514" lon="6.2033">
        <ele>1633</ele>
        <time>2019-09-18T18:48:25Z</time>
      </trkpt>
      <trkpt lat="45.7351" lon="6.20318">
        <ele>1635</ele>
        <time>2019-09-18T18:48:29Z</time>
      </trkpt>
      <trkpt lat="45.73502" lon="6.20308">
        <ele>1639</ele>
        <time>2019-09-18T18:48:35Z</time>
      </trkpt>
      <trkpt lat="45.73498" lon="6.20296">
        <ele>1640</ele>
        <time>2019-09-18T18:48:39Z</time>
      </trkpt>
      <trkpt lat="45.7349" lon="6.2029">
        <ele>1643</ele>
        <time>2019-09-18T18:48:44Z</time>
      </trkpt>
      <trkpt lat="45.73486" lon="6.20279">
        <ele>1644</ele>
        <time>2019-09-18T18:48:48Z</time>
      </trkpt>
      <trkpt lat="45.73478" lon="6.20272">
        <ele>1647</ele>
        <time>2019-09-18T18:48:53Z</time>
      </trkpt>
      <trkpt lat="45.7347" lon="6.20248">
        <ele>1648</ele>
        <time>2019-09-18T18:49:02Z</time>
      </trkpt>
      <trkpt lat="45.73464" lon="6.20238">
        <ele>1651</ele>
        <time>2019-09-18T18:49:07Z</time>
      </trkpt>
      <trkpt lat="45.73441" lon="6.20214">
        <ele>1661</ele>
        <time>2019-09-18T18:49:21Z</time>
      </trkpt>
      <trkpt lat="45.73435" lon="6.20204">
        <ele>1663</ele>
        <time>2019-09-18T18:49:26Z</time>
      </trkpt>
      <trkpt lat="45.73427" lon="6.202">
        <ele>1668</ele>
        <time>2019-09-18T18:49:30Z</time>
      </trkpt>
      <trkpt lat="45.73422" lon="6.20182">
        <ele>1668</ele>
        <time>2019-09-18T18:49:37Z</time>
      </trkpt>
      <trkpt lat="45.73412" lon="6.2016">
        <ele>1668</ele>
        <time>2019-09-18T18:49:46Z</time>
      </trkpt>
      <trkpt lat="45.73403" lon="6.20156">
        <ele>1670</ele>
        <time>2019-09-18T18:49:50Z</time>
      </trkpt>
      <trkpt lat="45.73393" lon="6.20155">
        <ele>1674</ele>
        <time>2019-09-18T18:49:55Z</time>
      </trkpt>
      <trkpt lat="45.73381" lon="6.20165">
        <ele>1681</ele>
        <time>2019-09-18T18:50:02Z</time>
      </trkpt>
      <trkpt lat="45.73368" lon="6.20158">
        <ele>1684</ele>
        <time>2019-09-18T18:50:09Z</time>
      </trkpt>
      <trkpt lat="45.7335" lon="6.20154">
        <ele>1691</ele>
        <time>2019-09-18T18:50:18Z</time>
      </trkpt>
      <trkpt lat="45.73345" lon="6.20145">
        <ele>1691</ele>
        <time>2019-09-18T18:50:22Z</time>
      </trkpt>
      <trkpt lat="45.7334" lon="6.20144">
        <ele>1693</ele>
        <time>2019-09-18T18:50:25Z</time>
      </trkpt>
      <trkpt lat="45.73293" lon="6.20152">
        <ele>1702</ele>
        <time>2019-09-18T18:50:49Z</time>
      </trkpt>
      <trkpt lat="45.73277" lon="6.20163">
        <ele>1703</ele>
        <time>2019-09-18T18:50:58Z</time>
      </trkpt>
      <trkpt lat="45.73262" lon="6.20186">
        <ele>1702</ele>
        <time>2019-09-18T18:51:09Z</time>
      </trkpt>
      <trkpt lat="45.73261" lon="6.20192">
        <ele>1701</ele>
        <time>2019-09-18T18:51:11Z</time>
      </trkpt>
      <trkpt lat="45.73275" lon="6.20223">
        <ele>1698</ele>
        <time>2019-09-18T18:51:24Z</time>
      </trkpt>
      <trkpt lat="45.73296" lon="6.20247">
        <ele>1697</ele>
        <time>2019-09-18T18:51:37Z</time>
      </trkpt>
      <trkpt lat="45.73301" lon="6.20259">
        <ele>1696</ele>
        <time>2019-09-18T18:51:42Z</time>
      </trkpt>
      <trkpt lat="45.73306" lon="6.20299">
        <ele>1692</ele>
        <time>2019-09-18T18:51:56Z</time>
      </trkpt>
      <trkpt lat="45.73297" lon="6.20316">
        <ele>1688</ele>
        <time>2019-09-18T18:52:04Z</time>
      </trkpt>
      <trkpt lat="45.73293" lon="6.20317">
        <ele>1687</ele>
        <time>2019-09-18T18:52:06Z</time>
      </trkpt>
      <trkpt lat="45.73276" lon="6.20311">
        <ele>1685</ele>
        <time>2019-09-18T18:52:14Z</time>
      </trkpt>
      <trkpt lat="45.73252" lon="6.20307">
        <ele>1682</ele>
        <time>2019-09-18T18:52:26Z</time>
      </trkpt>
      <trkpt lat="45.73228" lon="6.2029">
        <ele>1681</ele>
        <time>2019-09-18T18:52:40Z</time>
      </trkpt>
      <trkpt lat="45.73179" lon="6.20276">
        <ele>1674</ele>
        <time>2019-09-18T18:53:05Z</time>
      </trkpt>
      <trkpt lat="45.73174" lon="6.2027">
        <ele>1674</ele>
        <time>2019-09-18T18:53:08Z</time>
      </trkpt>
      <trkpt lat="45.73171" lon="6.20261">
        <ele>1675</ele>
        <time>2019-09-18T18:53:12Z</time>
      </trkpt>
      <trkpt lat="45.73167" lon="6.2023">
        <ele>1679</ele>
        <time>2019-09-18T18:53:23Z</time>
      </trkpt>
      <trkpt lat="45.73139" lon="6.20198">
        <ele>1682</ele>
        <time>2019-09-18T18:53:41Z</time>
      </trkpt>
      <trkpt lat="45.73144" lon="6.20211">
        <ele>1681</ele>
        <time>2019-09-18T18:53:46Z</time>
      </trkpt>
      <trkpt lat="45.73159" lon="6.20226">
        <ele>1680</ele>
        <time>2019-09-18T18:53:55Z</time>
      </trkpt>
      <trkpt lat="45.73165" lon="6.20238">
        <ele>1678</ele>
        <time>2019-09-18T18:54:00Z</time>
      </trkpt>
      <trkpt lat="45.73168" lon="6.2025">
        <ele>1676</ele>
        <time>2019-09-18T18:54:04Z</time>
      </trkpt>
      <trkpt lat="45.73167" lon="6.20264">
        <ele>1674</ele>
        <time>2019-09-18T18:54:09Z</time>
      </trkpt>
      <trkpt lat="45.73172" lon="6.20294">
        <ele>1669</ele>
        <time>2019-09-18T18:54:20Z</time>
      </trkpt>
      <trkpt lat="45.73172" lon="6.20311">
        <ele>1666</ele>
        <time>2019-09-18T18:54:26Z</time>
      </trkpt>
      <trkpt lat="45.7318" lon="6.20318">
        <ele>1666</ele>
        <time>2019-09-18T18:54:31Z</time>
      </trkpt>
      <trkpt lat="45.732" lon="6.20347">
        <ele>1662</ele>
        <time>2019-09-18T18:54:45Z</time>
      </trkpt>
      <trkpt lat="45.73208" lon="6.2036">
        <ele>1659</ele>
        <time>2019-09-18T18:54:51Z</time>
      </trkpt>
      <trkpt lat="45.73218" lon="6.20386">
        <ele>1653</ele>
        <time>2019-09-18T18:55:01Z</time>
      </trkpt>
      <trkpt lat="45.73243" lon="6.20418">
        <ele>1647</ele>
        <time>2019-09-18T18:55:18Z</time>
      </trkpt>
      <trkpt lat="45.73249" lon="6.2043">
        <ele>1647</ele>
        <time>2019-09-18T18:55:23Z</time>
      </trkpt>
      <trkpt lat="45.73249" lon="6.20443">
        <ele>1645</ele>
        <time>2019-09-18T18:55:28Z</time>
      </trkpt>
      <trkpt lat="45.73236" lon="6.2044">
        <ele>1643</ele>
        <time>2019-09-18T18:55:35Z</time>
      </trkpt>
      <trkpt lat="45.73225" lon="6.20432">
        <ele>1642</ele>
        <time>2019-09-18T18:55:41Z</time>
      </trkpt>
      <trkpt lat="45.73197" lon="6.20426">
        <ele>1637</ele>
        <time>2019-09-18T18:55:55Z</time>
      </trkpt>
      <trkpt lat="45.73169" lon="6.20413">
        <ele>1635</ele>
        <time>2019-09-18T18:56:10Z</time>
      </trkpt>
      <trkpt lat="45.73162" lon="6.20418">
        <ele>1632</ele>
        <time>2019-09-18T18:56:14Z</time>
      </trkpt>
      <trkpt lat="45.73159" lon="6.20427">
        <ele>1631</ele>
        <time>2019-09-18T18:56:17Z</time>
      </trkpt>
      <trkpt lat="45.73153" lon="6.20433">
        <ele>1630</ele>
        <time>2019-09-18T18:56:21Z</time>
      </trkpt>
      <trkpt lat="45.73136" lon="6.20464">
        <ele>1624</ele>
        <time>2019-09-18T18:56:34Z</time>
      </trkpt>
      <trkpt lat="45.73128" lon="6.20472">
        <ele>1622</ele>
        <time>2019-09-18T18:56:39Z</time>
      </trkpt>
      <trkpt lat="45.7312" lon="6.20488">
        <ele>1618</ele>
        <time>2019-09-18T18:56:46Z</time>
      </trkpt>
      <trkpt lat="45.73115" lon="6.20542">
        <ele>1613</ele>
        <time>2019-09-18T18:57:05Z</time>
      </trkpt>
      <trkpt lat="45.73113" lon="6.206">
        <ele>1607</ele>
        <time>2019-09-18T18:57:26Z</time>
      </trkpt>
      <trkpt lat="45.73117" lon="6.20627">
        <ele>1603</ele>
        <time>2019-09-18T18:57:35Z</time>
      </trkpt>
      <trkpt lat="45.73102" lon="6.20671">
        <ele>1594</ele>
        <time>2019-09-18T18:57:52Z</time>
      </trkpt>
      <trkpt lat="45.73102" lon="6.20698">
        <ele>1593</ele>
        <time>2019-09-18T18:58:02Z</time>
      </trkpt>
      <trkpt lat="45.73099" lon="6.20714">
        <ele>1592</ele>
        <time>2019-09-18T18:58:07Z</time>
      </trkpt>
      <trkpt lat="45.73093" lon="6.20724">
        <ele>1590</ele>
        <time>2019-09-18T18:58:12Z</time>
      </trkpt>
      <trkpt lat="45.73083" lon="6.2073">
        <ele>1588</ele>
        <time>2019-09-18T18:58:18Z</time>
      </trkpt>
      <trkpt lat="45.73072" lon="6.20755">
        <ele>1587</ele>
        <time>2019-09-18T18:58:28Z</time>
      </trkpt>
      <trkpt lat="45.73037" lon="6.20805">
        <ele>1581</ele>
        <time>2019-09-18T18:58:53Z</time>
      </trkpt>
      <trkpt lat="45.7302" lon="6.20808">
        <ele>1578</ele>
        <time>2019-09-18T18:59:01Z</time>
      </trkpt>
      <trkpt lat="45.73001" lon="6.20799">
        <ele>1576</ele>
        <time>2019-09-18T18:59:11Z</time>
      </trkpt>
      <trkpt lat="45.72992" lon="6.20798">
        <ele>1575</ele>
        <time>2019-09-18T18:59:16Z</time>
      </trkpt>
      <trkpt lat="45.72958" lon="6.20811">
        <ele>1566</ele>
        <time>2019-09-18T18:59:33Z</time>
      </trkpt>
      <trkpt lat="45.72948" lon="6.20817">
        <ele>1563</ele>
        <time>2019-09-18T18:59:39Z</time>
      </trkpt>
      <trkpt lat="45.72937" lon="6.20819">
        <ele>1560</ele>
        <time>2019-09-18T18:59:44Z</time>
      </trkpt>
      <trkpt lat="45.72926" lon="6.20816">
        <ele>1559</ele>
        <time>2019-09-18T18:59:50Z</time>
      </trkpt>
      <trkpt lat="45.72912" lon="6.20805">
        <ele>1561</ele>
        <time>2019-09-18T18:59:58Z</time>
      </trkpt>
      <trkpt lat="45.72892" lon="6.20852">
        <ele>1549</ele>
        <time>2019-09-18T19:00:17Z</time>
      </trkpt>
      <trkpt lat="45.72884" lon="6.20867">
        <ele>1545</ele>
        <time>2019-09-18T19:00:24Z</time>
      </trkpt>
      <trkpt lat="45.72865" lon="6.20893">
        <ele>1537</ele>
        <time>2019-09-18T19:00:37Z</time>
      </trkpt>
      <trkpt lat="45.7286" lon="6.20904">
        <ele>1534</ele>
        <time>2019-09-18T19:00:41Z</time>
      </trkpt>
      <trkpt lat="45.72863" lon="6.2092">
        <ele>1529</ele>
        <time>2019-09-18T19:00:47Z</time>
      </trkpt>
      <trkpt lat="45.72857" lon="6.20931">
        <ele>1526</ele>
        <time>2019-09-18T19:00:52Z</time>
      </trkpt>
      <trkpt lat="45.72844" lon="6.20945">
        <ele>1523</ele>
        <time>2019-09-18T19:01:00Z</time>
      </trkpt>
      <trkpt lat="45.72819" lon="6.20961">
        <ele>1523</ele>
        <time>2019-09-18T19:01:14Z</time>
      </trkpt>
      <trkpt lat="45.72812" lon="6.20971">
        <ele>1522</ele>
        <time>2019-09-18T19:01:19Z</time>
      </trkpt>
      <trkpt lat="45.72812" lon="6.20986">
        <ele>1518</ele>
        <time>2019-09-18T19:01:24Z</time>
      </trkpt>
      <trkpt lat="45.72809" lon="6.21">
        <ele>1515</ele>
        <time>2019-09-18T19:01:29Z</time>
      </trkpt>
      <trkpt lat="45.72814" lon="6.21013">
        <ele>1511</ele>
        <time>2019-09-18T19:01:34Z</time>
      </trkpt>
      <trkpt lat="45.72816" lon="6.21027">
        <ele>1507</ele>
        <time>2019-09-18T19:01:39Z</time>
      </trkpt>
      <trkpt lat="45.72813" lon="6.21054">
        <ele>1501</ele>
        <time>2019-09-18T19:01:49Z</time>
      </trkpt>
      <trkpt lat="45.72802" lon="6.21057">
        <ele>1501</ele>
        <time>2019-09-18T19:01:55Z</time>
      </trkpt>
      <trkpt lat="45.72767" lon="6.21077">
        <ele>1498</ele>
        <time>2019-09-18T19:02:13Z</time>
      </trkpt>
      <trkpt lat="45.72745" lon="6.21081">
        <ele>1497</ele>
        <time>2019-09-18T19:02:24Z</time>
      </trkpt>
      <trkpt lat="45.72725" lon="6.21077">
        <ele>1493</ele>
        <time>2019-09-18T19:02:35Z</time>
      </trkpt>
      <trkpt lat="45.727" lon="6.21067">
        <ele>1489</ele>
        <time>2019-09-18T19:02:48Z</time>
      </trkpt>
      <trkpt lat="45.72653" lon="6.21032">
        <ele>1484</ele>
        <time>2019-09-18T19:03:14Z</time>
      </trkpt>
      <trkpt lat="45.72639" lon="6.21014">
        <ele>1485</ele>
        <time>2019-09-18T19:03:24Z</time>
      </trkpt>
      <trkpt lat="45.72602" lon="6.2099">
        <ele>1483</ele>
        <time>2019-09-18T19:03:44Z</time>
      </trkpt>
      <trkpt lat="45.72561" lon="6.20983">
        <ele>1480</ele>
        <time>2019-09-18T19:04:04Z</time>
      </trkpt>
      <trkpt lat="45.72544" lon="6.20997">
        <ele>1473</ele>
        <time>2019-09-18T19:04:14Z</time>
      </trkpt>
      <trkpt lat="45.72532" lon="6.21">
        <ele>1472</ele>
        <time>2019-09-18T19:04:20Z</time>
      </trkpt>
      <trkpt lat="45.72513" lon="6.20998">
        <ele>1472</ele>
        <time>2019-09-18T19:04:30Z</time>
      </trkpt>
      <trkpt lat="45.7248" lon="6.21006">
        <ele>1469</ele>
        <time>2019-09-18T19:04:47Z</time>
      </trkpt>
      <trkpt lat="45.72431" lon="6.21037">
        <ele>1465</ele>
        <time>2019-09-18T19:05:13Z</time>
      </trkpt>
      <trkpt lat="45.72422" lon="6.21038">
        <ele>1466</ele>
        <time>2019-09-18T19:05:18Z</time>
      </trkpt>
      <trkpt lat="45.72373" lon="6.2103">
        <ele>1467</ele>
        <time>2019-09-18T19:05:43Z</time>
      </trkpt>
      <trkpt lat="45.72365" lon="6.21023">
        <ele>1467</ele>
        <time>2019-09-18T19:05:47Z</time>
      </trkpt>
      <trkpt lat="45.7236" lon="6.21022">
        <ele>1467</ele>
        <time>2019-09-18T19:05:50Z</time>
      </trkpt>
      <trkpt lat="45.7234" lon="6.21037">
        <ele>1465</ele>
        <time>2019-09-18T19:06:01Z</time>
      </trkpt>
      <trkpt lat="45.7228" lon="6.21073">
        <ele>1457</ele>
        <time>2019-09-18T19:06:34Z</time>
      </trkpt>
      <trkpt lat="45.72262" lon="6.21091">
        <ele>1454</ele>
        <time>2019-09-18T19:06:45Z</time>
      </trkpt>
      <trkpt lat="45.72254" lon="6.21092">
        <ele>1453</ele>
        <time>2019-09-18T19:06:49Z</time>
      </trkpt>
      <trkpt lat="45.72233" lon="6.21101">
        <ele>1446</ele>
        <time>2019-09-18T19:07:00Z</time>
      </trkpt>
      <trkpt lat="45.72217" lon="6.21099">
        <ele>1443</ele>
        <time>2019-09-18T19:07:08Z</time>
      </trkpt>
      <trkpt lat="45.72214" lon="6.21096">
        <ele>1442</ele>
        <time>2019-09-18T19:07:10Z</time>
      </trkpt>
      <trkpt lat="45.72219" lon="6.21068">
        <ele>1443</ele>
        <time>2019-09-18T19:07:20Z</time>
      </trkpt>
      <trkpt lat="45.7225" lon="6.21015">
        <ele>1445</ele>
        <time>2019-09-18T19:07:44Z</time>
      </trkpt>
      <trkpt lat="45.72262" lon="6.20977">
        <ele>1442</ele>
        <time>2019-09-18T19:07:58Z</time>
      </trkpt>
      <trkpt lat="45.72267" lon="6.20947">
        <ele>1438</ele>
        <time>2019-09-18T19:08:09Z</time>
      </trkpt>
      <trkpt lat="45.72266" lon="6.20932">
        <ele>1435</ele>
        <time>2019-09-18T19:08:14Z</time>
      </trkpt>
      <trkpt lat="45.72268" lon="6.20919">
        <ele>1434</ele>
        <time>2019-09-18T19:08:19Z</time>
      </trkpt>
      <trkpt lat="45.72256" lon="6.20897">
        <ele>1427</ele>
        <time>2019-09-18T19:08:29Z</time>
      </trkpt>
      <trkpt lat="45.72254" lon="6.20868">
        <ele>1426</ele>
        <time>2019-09-18T19:08:39Z</time>
      </trkpt>
      <trkpt lat="45.7224" lon="6.20849">
        <ele>1418</ele>
        <time>2019-09-18T19:08:49Z</time>
      </trkpt>
      <trkpt lat="45.72221" lon="6.20837">
        <ele>1407</ele>
        <time>2019-09-18T19:08:59Z</time>
      </trkpt>
      <trkpt lat="45.72206" lon="6.20816">
        <ele>1397</ele>
        <time>2019-09-18T19:09:10Z</time>
      </trkpt>
      <trkpt lat="45.72189" lon="6.2078">
        <ele>1384</ele>
        <time>2019-09-18T19:09:25Z</time>
      </trkpt>
      <trkpt lat="45.7219" lon="6.20766">
        <ele>1384</ele>
        <time>2019-09-18T19:09:30Z</time>
      </trkpt>
      <trkpt lat="45.72196" lon="6.20747">
        <ele>1386</ele>
        <time>2019-09-18T19:09:37Z</time>
      </trkpt>
      <trkpt lat="45.72213" lon="6.20732">
        <ele>1393</ele>
        <time>2019-09-18T19:09:47Z</time>
      </trkpt>
      <trkpt lat="45.72221" lon="6.2072">
        <ele>1397</ele>
        <time>2019-09-18T19:09:53Z</time>
      </trkpt>
      <trkpt lat="45.72222" lon="6.20666">
        <ele>1393</ele>
        <time>2019-09-18T19:10:12Z</time>
      </trkpt>
      <trkpt lat="45.72223" lon="6.20682">
        <ele>1394</ele>
        <time>2019-09-18T19:10:17Z</time>
      </trkpt>
      <trkpt lat="45.7222" lon="6.20696">
        <ele>1394</ele>
        <time>2019-09-18T19:10:22Z</time>
      </trkpt>
      <trkpt lat="45.72206" lon="6.20697">
        <ele>1386</ele>
        <time>2019-09-18T19:10:29Z</time>
      </trkpt>
      <trkpt lat="45.72174" lon="6.20694">
        <ele>1369</ele>
        <time>2019-09-18T19:10:45Z</time>
      </trkpt>
      <trkpt lat="45.72163" lon="6.20696">
        <ele>1363</ele>
        <time>2019-09-18T19:10:51Z</time>
      </trkpt>
      <trkpt lat="45.72153" lon="6.20699">
        <ele>1359</ele>
        <time>2019-09-18T19:10:56Z</time>
      </trkpt>
      <trkpt lat="45.72136" lon="6.20713">
        <ele>1352</ele>
        <time>2019-09-18T19:11:06Z</time>
      </trkpt>
      <trkpt lat="45.72131" lon="6.20724">
        <ele>1350</ele>
        <time>2019-09-18T19:11:10Z</time>
      </trkpt>
      <trkpt lat="45.72125" lon="6.20751">
        <ele>1347</ele>
        <time>2019-09-18T19:11:20Z</time>
      </trkpt>
      <trkpt lat="45.72133" lon="6.20779">
        <ele>1353</ele>
        <time>2019-09-18T19:11:31Z</time>
      </trkpt>
      <trkpt lat="45.72128" lon="6.20811">
        <ele>1351</ele>
        <time>2019-09-18T19:11:42Z</time>
      </trkpt>
      <trkpt lat="45.72129" lon="6.2084">
        <ele>1354</ele>
        <time>2019-09-18T19:11:53Z</time>
      </trkpt>
      <trkpt lat="45.72139" lon="6.20863">
        <ele>1362</ele>
        <time>2019-09-18T19:12:02Z</time>
      </trkpt>
      <trkpt lat="45.7213" lon="6.20863">
        <ele>1357</ele>
        <time>2019-09-18T19:12:07Z</time>
      </trkpt>
      <trkpt lat="45.72117" lon="6.2087">
        <ele>1351</ele>
        <time>2019-09-18T19:12:13Z</time>
      </trkpt>
      <trkpt lat="45.72091" lon="6.20896">
        <ele>1341</ele>
        <time>2019-09-18T19:12:29Z</time>
      </trkpt>
      <trkpt lat="45.72073" lon="6.20908">
        <ele>1334</ele>
        <time>2019-09-18T19:12:39Z</time>
      </trkpt>
      <trkpt lat="45.72051" lon="6.2091">
        <ele>1322</ele>
        <time>2019-09-18T19:12:50Z</time>
      </trkpt>
      <trkpt lat="45.7204" lon="6.20917">
        <ele>1317</ele>
        <time>2019-09-18T19:12:56Z</time>
      </trkpt>
      <trkpt lat="45.72014" lon="6.2095">
        <ele>1311</ele>
        <time>2019-09-18T19:13:14Z</time>
      </trkpt>
      <trkpt lat="45.7201" lon="6.20964">
        <ele>1312</ele>
        <time>2019-09-18T19:13:19Z</time>
      </trkpt>
      <trkpt lat="45.72001" lon="6.20979">
        <ele>1310</ele>
        <time>2019-09-18T19:13:26Z</time>
      </trkpt>
      <trkpt lat="45.71997" lon="6.21004">
        <ele>1314</ele>
        <time>2019-09-18T19:13:35Z</time>
      </trkpt>
      <trkpt lat="45.71987" lon="6.21006">
        <ele>1308</ele>
        <time>2019-09-18T19:13:40Z</time>
      </trkpt>
      <trkpt lat="45.71986" lon="6.2099">
        <ele>1303</ele>
        <time>2019-09-18T19:13:46Z</time>
      </trkpt>
      <trkpt lat="45.72003" lon="6.20952">
        <ele>1305</ele>
        <time>2019-09-18T19:14:01Z</time>
      </trkpt>
      <trkpt lat="45.72006" lon="6.20924">
        <ele>1299</ele>
        <time>2019-09-18T19:14:11Z</time>
      </trkpt>
      <trkpt lat="45.71988" lon="6.20937">
        <ele>1291</ele>
        <time>2019-09-18T19:14:21Z</time>
      </trkpt>
      <trkpt lat="45.7198" lon="6.20949">
        <ele>1289</ele>
        <time>2019-09-18T19:14:27Z</time>
      </trkpt>
      <trkpt lat="45.71968" lon="6.2099">
        <ele>1291</ele>
        <time>2019-09-18T19:14:43Z</time>
      </trkpt>
      <trkpt lat="45.71962" lon="6.20978">
        <ele>1284</ele>
        <time>2019-09-18T19:14:48Z</time>
      </trkpt>
      <trkpt lat="45.71963" lon="6.20964">
        <ele>1282</ele>
        <time>2019-09-18T19:14:53Z</time>
      </trkpt>
      <trkpt lat="45.7197" lon="6.20937">
        <ele>1280</ele>
        <time>2019-09-18T19:15:03Z</time>
      </trkpt>
      <trkpt lat="45.7197" lon="6.2092">
        <ele>1276</ele>
        <time>2019-09-18T19:15:09Z</time>
      </trkpt>
      <trkpt lat="45.71949" lon="6.20957">
        <ele>1271</ele>
        <time>2019-09-18T19:15:25Z</time>
      </trkpt>
      <trkpt lat="45.71939" lon="6.20953">
        <ele>1263</ele>
        <time>2019-09-18T19:15:31Z</time>
      </trkpt>
      <trkpt lat="45.71935" lon="6.20941">
        <ele>1258</ele>
        <time>2019-09-18T19:15:35Z</time>
      </trkpt>
      <trkpt lat="45.71934" lon="6.20928">
        <ele>1255</ele>
        <time>2019-09-18T19:15:40Z</time>
      </trkpt>
      <trkpt lat="45.71942" lon="6.20871">
        <ele>1250</ele>
        <time>2019-09-18T19:16:00Z</time>
      </trkpt>
      <trkpt lat="45.71931" lon="6.20876">
        <ele>1244</ele>
        <time>2019-09-18T19:16:06Z</time>
      </trkpt>
      <trkpt lat="45.71926" lon="6.20887">
        <ele>1243</ele>
        <time>2019-09-18T19:16:10Z</time>
      </trkpt>
      <trkpt lat="45.71921" lon="6.20914">
        <ele>1244</ele>
        <time>2019-09-18T19:16:20Z</time>
      </trkpt>
      <trkpt lat="45.71914" lon="6.20922">
        <ele>1241</ele>
        <time>2019-09-18T19:16:25Z</time>
      </trkpt>
      <trkpt lat="45.71908" lon="6.20934">
        <ele>1240</ele>
        <time>2019-09-18T19:16:30Z</time>
      </trkpt>
      <trkpt lat="45.71906" lon="6.20949">
        <ele>1242</ele>
        <time>2019-09-18T19:16:35Z</time>
      </trkpt>
      <trkpt lat="45.71897" lon="6.20959">
        <ele>1237</ele>
        <time>2019-09-18T19:16:41Z</time>
      </trkpt>
      <trkpt lat="45.71878" lon="6.20973">
        <ele>1227</ele>
        <time>2019-09-18T19:16:52Z</time>
      </trkpt>
      <trkpt lat="45.71872" lon="6.20984">
        <ele>1224</ele>
        <time>2019-09-18T19:16:56Z</time>
      </trkpt>
      <trkpt lat="45.71864" lon="6.2099">
        <ele>1219</ele>
        <time>2019-09-18T19:17:01Z</time>
      </trkpt>
      <trkpt lat="45.71866" lon="6.20963">
        <ele>1218</ele>
        <time>2019-09-18T19:17:10Z</time>
      </trkpt>
      <trkpt lat="45.71865" lon="6.20933">
        <ele>1214</ele>
        <time>2019-09-18T19:17:21Z</time>
      </trkpt>
      <trkpt lat="45.71875" lon="6.20919">
        <ele>1219</ele>
        <time>2019-09-18T19:17:28Z</time>
      </trkpt>
      <trkpt lat="45.71884" lon="6.20914">
        <ele>1223</ele>
        <time>2019-09-18T19:17:33Z</time>
      </trkpt>
      <trkpt lat="45.71886" lon="6.209">
        <ele>1223</ele>
        <time>2019-09-18T19:17:38Z</time>
      </trkpt>
      <trkpt lat="45.71883" lon="6.20852">
        <ele>1216</ele>
        <time>2019-09-18T19:17:55Z</time>
      </trkpt>
      <trkpt lat="45.71886" lon="6.20835">
        <ele>1215</ele>
        <time>2019-09-18T19:18:01Z</time>
      </trkpt>
      <trkpt lat="45.7188" lon="6.20805">
        <ele>1214</ele>
        <time>2019-09-18T19:18:12Z</time>
      </trkpt>
      <trkpt lat="45.71884" lon="6.20817">
        <ele>1215</ele>
        <time>2019-09-18T19:18:16Z</time>
      </trkpt>
      <trkpt lat="45.71884" lon="6.2083">
        <ele>1214</ele>
        <time>2019-09-18T19:18:21Z</time>
      </trkpt>
      <trkpt lat="45.7189" lon="6.20842">
        <ele>1218</ele>
        <time>2019-09-18T19:18:26Z</time>
      </trkpt>
      <trkpt lat="45.7189" lon="6.20855">
        <ele>1219</ele>
        <time>2019-09-18T19:18:31Z</time>
      </trkpt>
      <trkpt lat="45.71876" lon="6.20875">
        <ele>1215</ele>
        <time>2019-09-18T19:18:40Z</time>
      </trkpt>
      <trkpt lat="45.71857" lon="6.2091">
        <ele>1208</ele>
        <time>2019-09-18T19:18:56Z</time>
      </trkpt>
      <trkpt lat="45.71847" lon="6.20915">
        <ele>1203</ele>
        <time>2019-09-18T19:19:01Z</time>
      </trkpt>
      <trkpt lat="45.71837" lon="6.20926">
        <ele>1197</ele>
        <time>2019-09-18T19:19:08Z</time>
      </trkpt>
      <trkpt lat="45.71823" lon="6.20967">
        <ele>1193</ele>
        <time>2019-09-18T19:19:23Z</time>
      </trkpt>
      <trkpt lat="45.71825" lon="6.20993">
        <ele>1194</ele>
        <time>2019-09-18T19:19:33Z</time>
      </trkpt>
      <trkpt lat="45.71825" lon="6.20963">
        <ele>1194</ele>
        <time>2019-09-18T19:19:43Z</time>
      </trkpt>
      <trkpt lat="45.71822" lon="6.20945">
        <ele>1193</ele>
        <time>2019-09-18T19:19:50Z</time>
      </trkpt>
      <trkpt lat="45.71804" lon="6.20905">
        <ele>1189</ele>
        <time>2019-09-18T19:20:06Z</time>
      </trkpt>
      <trkpt lat="45.71789" lon="6.20884">
        <ele>1190</ele>
        <time>2019-09-18T19:20:17Z</time>
      </trkpt>
      <trkpt lat="45.71798" lon="6.2089">
        <ele>1190</ele>
        <time>2019-09-18T19:20:22Z</time>
      </trkpt>
      <trkpt lat="45.71804" lon="6.20904">
        <ele>1189</ele>
        <time>2019-09-18T19:20:27Z</time>
      </trkpt>
      <trkpt lat="45.71803" lon="6.20919">
        <ele>1188</ele>
        <time>2019-09-18T19:20:33Z</time>
      </trkpt>
      <trkpt lat="45.71793" lon="6.20946">
        <ele>1184</ele>
        <time>2019-09-18T19:20:43Z</time>
      </trkpt>
      <trkpt lat="45.71786" lon="6.20957">
        <ele>1181</ele>
        <time>2019-09-18T19:20:49Z</time>
      </trkpt>
      <trkpt lat="45.71781" lon="6.20997">
        <ele>1176</ele>
        <time>2019-09-18T19:21:03Z</time>
      </trkpt>
      <trkpt lat="45.7177" lon="6.21019">
        <ele>1167</ele>
        <time>2019-09-18T19:21:12Z</time>
      </trkpt>
      <trkpt lat="45.71763" lon="6.21094">
        <ele>1147</ele>
        <time>2019-09-18T19:21:39Z</time>
      </trkpt>
      <trkpt lat="45.71767" lon="6.2111">
        <ele>1151</ele>
        <time>2019-09-18T19:21:45Z</time>
      </trkpt>
      <trkpt lat="45.71763" lon="6.2118">
        <ele>1142</ele>
        <time>2019-09-18T19:22:09Z</time>
      </trkpt>
      <trkpt lat="45.71766" lon="6.21196">
        <ele>1141</ele>
        <time>2019-09-18T19:22:15Z</time>
      </trkpt>
      <trkpt lat="45.71765" lon="6.21213">
        <ele>1136</ele>
        <time>2019-09-18T19:22:21Z</time>
      </trkpt>
      <trkpt lat="45.7177" lon="6.21242">
        <ele>1133</ele>
        <time>2019-09-18T19:22:31Z</time>
      </trkpt>
      <trkpt lat="45.71766" lon="6.21257">
        <ele>1124</ele>
        <time>2019-09-18T19:22:37Z</time>
      </trkpt>
      <trkpt lat="45.71773" lon="6.21331">
        <ele>1106</ele>
        <time>2019-09-18T19:23:03Z</time>
      </trkpt>
      <trkpt lat="45.71778" lon="6.21344">
        <ele>1104</ele>
        <time>2019-09-18T19:23:08Z</time>
      </trkpt>
      <trkpt lat="45.71777" lon="6.21357">
        <ele>1098</ele>
        <time>2019-09-18T19:23:13Z</time>
      </trkpt>
      <trkpt lat="45.71784" lon="6.21398">
        <ele>1084</ele>
        <time>2019-09-18T19:23:27Z</time>
      </trkpt>
      <trkpt lat="45.71791" lon="6.21423">
        <ele>1077</ele>
        <time>2019-09-18T19:23:37Z</time>
      </trkpt>
      <trkpt lat="45.71807" lon="6.21442">
        <ele>1075</ele>
        <time>2019-09-18T19:23:47Z</time>
      </trkpt>
      <trkpt lat="45.71828" lon="6.21477">
        <ele>1067</ele>
        <time>2019-09-18T19:24:03Z</time>
      </trkpt>
      <trkpt lat="45.71845" lon="6.21495">
        <ele>1063</ele>
        <time>2019-09-18T19:24:14Z</time>
      </trkpt>
      <trkpt lat="45.7186" lon="6.21531">
        <ele>1049</ele>
        <time>2019-09-18T19:24:29Z</time>
      </trkpt>
      <trkpt lat="45.71867" lon="6.2154">
        <ele>1046</ele>
        <time>2019-09-18T19:24:33Z</time>
      </trkpt>
      <trkpt lat="45.71884" lon="6.21575">
        <ele>1032</ele>
        <time>2019-09-18T19:24:48Z</time>
      </trkpt>
      <trkpt lat="45.7192" lon="6.21615">
        <ele>1024</ele>
        <time>2019-09-18T19:25:11Z</time>
      </trkpt>
      <trkpt lat="45.71936" lon="6.21629">
        <ele>1021</ele>
        <time>2019-09-18T19:25:20Z</time>
      </trkpt>
      <trkpt lat="45.71942" lon="6.2164">
        <ele>1018</ele>
        <time>2019-09-18T19:25:25Z</time>
      </trkpt>
      <trkpt lat="45.71958" lon="6.21659">
        <ele>1011</ele>
        <time>2019-09-18T19:25:36Z</time>
      </trkpt>
      <trkpt lat="45.71994" lon="6.21681">
        <ele>1006</ele>
        <time>2019-09-18T19:25:55Z</time>
      </trkpt>
      <trkpt lat="45.72048" lon="6.21754">
        <ele>981</ele>
        <time>2019-09-18T19:26:32Z</time>
      </trkpt>
      <trkpt lat="45.72057" lon="6.21762">
        <ele>978</ele>
        <time>2019-09-18T19:26:38Z</time>
      </trkpt>
      <trkpt lat="45.72074" lon="6.21784">
        <ele>971</ele>
        <time>2019-09-18T19:26:49Z</time>
      </trkpt>
      <trkpt lat="45.72092" lon="6.218">
        <ele>966</ele>
        <time>2019-09-18T19:27:00Z</time>
      </trkpt>
      <trkpt lat="45.72096" lon="6.21813">
        <ele>961</ele>
        <time>2019-09-18T19:27:05Z</time>
      </trkpt>
      <trkpt lat="45.72111" lon="6.21835">
        <ele>952</ele>
        <time>2019-09-18T19:27:16Z</time>
      </trkpt>
      <trkpt lat="45.72151" lon="6.21869">
        <ele>942</ele>
        <time>2019-09-18T19:27:39Z</time>
      </trkpt>
      <trkpt lat="45.72172" lon="6.21879">
        <ele>940</ele>
        <time>2019-09-18T19:27:50Z</time>
      </trkpt>
      <trkpt lat="45.72182" lon="6.2189">
        <ele>938</ele>
        <time>2019-09-18T19:27:56Z</time>
      </trkpt>
      <trkpt lat="45.72209" lon="6.21909">
        <ele>937</ele>
        <time>2019-09-18T19:28:11Z</time>
      </trkpt>
      <trkpt lat="45.72211" lon="6.21923">
        <ele>932</ele>
        <time>2019-09-18T19:28:16Z</time>
      </trkpt>
      <trkpt lat="45.72244" lon="6.21954">
        <ele>927</ele>
        <time>2019-09-18T19:28:36Z</time>
      </trkpt>
      <trkpt lat="45.72306" lon="6.21942">
        <ele>937</ele>
        <time>2019-09-18T19:29:07Z</time>
      </trkpt>
      <trkpt lat="45.72344" lon="6.21966">
        <ele>932</ele>
        <time>2019-09-18T19:29:28Z</time>
      </trkpt>
      <trkpt lat="45.72362" lon="6.22022">
        <ele>914</ele>
        <time>2019-09-18T19:29:50Z</time>
      </trkpt>
      <trkpt lat="45.72408" lon="6.22115">
        <ele>885</ele>
        <time>2019-09-18T19:30:29Z</time>
      </trkpt>
      <trkpt lat="45.72407" lon="6.22145">
        <ele>871</ele>
        <time>2019-09-18T19:30:40Z</time>
      </trkpt>
      <trkpt lat="45.72419" lon="6.22138">
        <ele>875</ele>
        <time>2019-09-18T19:30:46Z</time>
      </trkpt>
      <trkpt lat="45.72445" lon="6.22134">
        <ele>876</ele>
        <time>2019-09-18T19:30:59Z</time>
      </trkpt>
      <trkpt lat="45.72455" lon="6.22135">
        <ele>875</ele>
        <time>2019-09-18T19:31:05Z</time>
      </trkpt>
      <trkpt lat="45.72463" lon="6.22143">
        <ele>871</ele>
        <time>2019-09-18T19:31:09Z</time>
      </trkpt>
      <trkpt lat="45.72485" lon="6.22154">
        <ele>865</ele>
        <time>2019-09-18T19:31:21Z</time>
      </trkpt>
      <trkpt lat="45.72497" lon="6.22155">
        <ele>864</ele>
        <time>2019-09-18T19:31:27Z</time>
      </trkpt>
      <trkpt lat="45.72509" lon="6.22151">
        <ele>866</ele>
        <time>2019-09-18T19:31:33Z</time>
      </trkpt>
      <trkpt lat="45.72531" lon="6.22155">
        <ele>864</ele>
        <time>2019-09-18T19:31:44Z</time>
      </trkpt>
      <trkpt lat="45.72527" lon="6.22179">
        <ele>854</ele>
        <time>2019-09-18T19:31:53Z</time>
      </trkpt>
      <trkpt lat="45.72598" lon="6.22203">
        <ele>842</ele>
        <time>2019-09-18T19:32:29Z</time>
      </trkpt>
      <trkpt lat="45.72641" lon="6.2223">
        <ele>831</ele>
        <time>2019-09-18T19:32:53Z</time>
      </trkpt>
      <trkpt lat="45.7267" lon="6.22294">
        <ele>809</ele>
        <time>2019-09-18T19:33:20Z</time>
      </trkpt>
      <trkpt lat="45.72718" lon="6.22357">
        <ele>804</ele>
        <time>2019-09-18T19:33:52Z</time>
      </trkpt>
      <trkpt lat="45.72799" lon="6.22394">
        <ele>801</ele>
        <time>2019-09-18T19:34:35Z</time>
      </trkpt>
      <trkpt lat="45.72817" lon="6.2238">
        <ele>804</ele>
        <time>2019-09-18T19:34:45Z</time>
      </trkpt>
      <trkpt lat="45.72828" lon="6.22381">
        <ele>804</ele>
        <time>2019-09-18T19:34:50Z</time>
      </trkpt>
      <trkpt lat="45.72838" lon="6.22384">
        <ele>803</ele>
        <time>2019-09-18T19:34:56Z</time>
      </trkpt>
      <trkpt lat="45.72845" lon="6.22393">
        <ele>802</ele>
        <time>2019-09-18T19:35:00Z</time>
      </trkpt>
      <trkpt lat="45.72854" lon="6.22399">
        <ele>800</ele>
        <time>2019-09-18T19:35:05Z</time>
      </trkpt>
      <trkpt lat="45.72863" lon="6.22401">
        <ele>799</ele>
        <time>2019-09-18T19:35:10Z</time>
      </trkpt>
      <trkpt lat="45.72876" lon="6.22387">
        <ele>802</ele>
        <time>2019-09-18T19:35:18Z</time>
      </trkpt>
      <trkpt lat="45.72883" lon="6.22386">
        <ele>802</ele>
        <time>2019-09-18T19:35:22Z</time>
      </trkpt>
      <trkpt lat="45.72891" lon="6.22417">
        <ele>793</ele>
        <time>2019-09-18T19:35:33Z</time>
      </trkpt>
      <trkpt lat="45.72876" lon="6.22429">
        <ele>797</ele>
        <time>2019-09-18T19:35:42Z</time>
      </trkpt>
      <trkpt lat="45.72879" lon="6.22451">
        <ele>801</ele>
        <time>2019-09-18T19:35:49Z</time>
      </trkpt>
      <trkpt lat="45.72941" lon="6.22476">
        <ele>797</ele>
        <time>2019-09-18T19:36:22Z</time>
      </trkpt>
      <trkpt lat="45.73079" lon="6.22558">
        <ele>802</ele>
        <time>2019-09-18T19:37:36Z</time>
      </trkpt>
      <trkpt lat="45.73115" lon="6.22585">
        <ele>807</ele>
        <time>2019-09-18T19:37:57Z</time>
      </trkpt>
      <trkpt lat="45.73179" lon="6.22623">
        <ele>814</ele>
        <time>2019-09-18T19:38:31Z</time>
      </trkpt>
      <trkpt lat="45.73224" lon="6.22639">
        <ele>811</ele>
        <time>2019-09-18T19:38:55Z</time>
      </trkpt>
      <trkpt lat="45.73168" lon="6.22682">
        <ele>838</ele>
        <time>2019-09-18T19:39:26Z</time>
      </trkpt>
      <trkpt lat="45.73159" lon="6.22685">
        <ele>840</ele>
        <time>2019-09-18T19:39:31Z</time>
      </trkpt>
      <trkpt lat="45.7315" lon="6.2268">
        <ele>839</ele>
        <time>2019-09-18T19:39:36Z</time>
      </trkpt>
      <trkpt lat="45.73141" lon="6.22688">
        <ele>842</ele>
        <time>2019-09-18T19:39:41Z</time>
      </trkpt>
      <trkpt lat="45.7313" lon="6.22689">
        <ele>844</ele>
        <time>2019-09-18T19:39:47Z</time>
      </trkpt>
      <trkpt lat="45.73111" lon="6.22686">
        <ele>844</ele>
        <time>2019-09-18T19:39:56Z</time>
      </trkpt>
      <trkpt lat="45.73086" lon="6.22688">
        <ele>846</ele>
        <time>2019-09-18T19:40:09Z</time>
      </trkpt>
      <trkpt lat="45.73053" lon="6.22685">
        <ele>850</ele>
        <time>2019-09-18T19:40:25Z</time>
      </trkpt>
      <trkpt lat="45.73045" lon="6.22693">
        <ele>855</ele>
        <time>2019-09-18T19:40:30Z</time>
      </trkpt>
      <trkpt lat="45.73042" lon="6.22705">
        <ele>859</ele>
        <time>2019-09-18T19:40:35Z</time>
      </trkpt>
      <trkpt lat="45.73025" lon="6.22722">
        <ele>868</ele>
        <time>2019-09-18T19:40:45Z</time>
      </trkpt>
      <trkpt lat="45.73006" lon="6.22721">
        <ele>870</ele>
        <time>2019-09-18T19:40:55Z</time>
      </trkpt>
      <trkpt lat="45.72999" lon="6.22729">
        <ele>874</ele>
        <time>2019-09-18T19:40:59Z</time>
      </trkpt>
      <trkpt lat="45.73011" lon="6.22748">
        <ele>878</ele>
        <time>2019-09-18T19:41:08Z</time>
      </trkpt>
      <trkpt lat="45.73014" lon="6.2276">
        <ele>882</ele>
        <time>2019-09-18T19:41:12Z</time>
      </trkpt>
      <trkpt lat="45.73034" lon="6.22764">
        <ele>881</ele>
        <time>2019-09-18T19:41:23Z</time>
      </trkpt>
      <trkpt lat="45.73053" lon="6.22762">
        <ele>879</ele>
        <time>2019-09-18T19:41:32Z</time>
      </trkpt>
      <trkpt lat="45.73061" lon="6.22768">
        <ele>880</ele>
        <time>2019-09-18T19:41:37Z</time>
      </trkpt>
      <trkpt lat="45.73066" lon="6.2278">
        <ele>885</ele>
        <time>2019-09-18T19:41:42Z</time>
      </trkpt>
      <trkpt lat="45.73076" lon="6.22785">
        <ele>886</ele>
        <time>2019-09-18T19:41:47Z</time>
      </trkpt>
      <trkpt lat="45.73085" lon="6.22786">
        <ele>885</ele>
        <time>2019-09-18T19:41:51Z</time>
      </trkpt>
      <trkpt lat="45.73095" lon="6.22793">
        <ele>888</ele>
        <time>2019-09-18T19:41:57Z</time>
      </trkpt>
      <trkpt lat="45.731" lon="6.22804">
        <ele>893</ele>
        <time>2019-09-18T19:42:02Z</time>
      </trkpt>
      <trkpt lat="45.73109" lon="6.22814">
        <ele>896</ele>
        <time>2019-09-18T19:42:07Z</time>
      </trkpt>
      <trkpt lat="45.73118" lon="6.22816">
        <ele>897</ele>
        <time>2019-09-18T19:42:12Z</time>
      </trkpt>
      <trkpt lat="45.73125" lon="6.22826">
        <ele>901</ele>
        <time>2019-09-18T19:42:17Z</time>
      </trkpt>
      <trkpt lat="45.73134" lon="6.2283">
        <ele>902</ele>
        <time>2019-09-18T19:42:21Z</time>
      </trkpt>
      <trkpt lat="45.73162" lon="6.22833">
        <ele>902</ele>
        <time>2019-09-18T19:42:35Z</time>
      </trkpt>
      <trkpt lat="45.73171" lon="6.22838">
        <ele>903</ele>
        <time>2019-09-18T19:42:40Z</time>
      </trkpt>
      <trkpt lat="45.73184" lon="6.2286">
        <ele>910</ele>
        <time>2019-09-18T19:42:50Z</time>
      </trkpt>
      <trkpt lat="45.73214" lon="6.22876">
        <ele>914</ele>
        <time>2019-09-18T19:43:06Z</time>
      </trkpt>
      <trkpt lat="45.73245" lon="6.22882">
        <ele>916</ele>
        <time>2019-09-18T19:43:22Z</time>
      </trkpt>
      <trkpt lat="45.73274" lon="6.22883">
        <ele>916</ele>
        <time>2019-09-18T19:43:37Z</time>
      </trkpt>
      <trkpt lat="45.73283" lon="6.22889">
        <ele>919</ele>
        <time>2019-09-18T19:43:42Z</time>
      </trkpt>
      <trkpt lat="45.73314" lon="6.22895">
        <ele>923</ele>
        <time>2019-09-18T19:43:57Z</time>
      </trkpt>
      <trkpt lat="45.73335" lon="6.22881">
        <ele>915</ele>
        <time>2019-09-18T19:44:09Z</time>
      </trkpt>
      <trkpt lat="45.73365" lon="6.22873">
        <ele>912</ele>
        <time>2019-09-18T19:44:24Z</time>
      </trkpt>
      <trkpt lat="45.73403" lon="6.22879">
        <ele>917</ele>
        <time>2019-09-18T19:44:43Z</time>
      </trkpt>
      <trkpt lat="45.73421" lon="6.2287">
        <ele>912</ele>
        <time>2019-09-18T19:44:53Z</time>
      </trkpt>
      <trkpt lat="45.73451" lon="6.22869">
        <ele>912</ele>
        <time>2019-09-18T19:45:08Z</time>
      </trkpt>
      <trkpt lat="45.7345" lon="6.22882">
        <ele>920</ele>
        <time>2019-09-18T19:45:12Z</time>
      </trkpt>
      <trkpt lat="45.73481" lon="6.22881">
        <ele>920</ele>
        <time>2019-09-18T19:45:28Z</time>
      </trkpt>
      <trkpt lat="45.73505" lon="6.22901">
        <ele>933</ele>
        <time>2019-09-18T19:45:42Z</time>
      </trkpt>
      <trkpt lat="45.73514" lon="6.22902">
        <ele>932</ele>
        <time>2019-09-18T19:45:46Z</time>
      </trkpt>
      <trkpt lat="45.73533" lon="6.22909">
        <ele>935</ele>
        <time>2019-09-18T19:45:56Z</time>
      </trkpt>
      <trkpt lat="45.73542" lon="6.22907">
        <ele>932</ele>
        <time>2019-09-18T19:46:01Z</time>
      </trkpt>
      <trkpt lat="45.73549" lon="6.22897">
        <ele>926</ele>
        <time>2019-09-18T19:46:06Z</time>
      </trkpt>
      <trkpt lat="45.73566" lon="6.22909">
        <ele>931</ele>
        <time>2019-09-18T19:46:15Z</time>
      </trkpt>
      <trkpt lat="45.73586" lon="6.22912">
        <ele>931</ele>
        <time>2019-09-18T19:46:25Z</time>
      </trkpt>
      <trkpt lat="45.73605" lon="6.22921">
        <ele>935</ele>
        <time>2019-09-18T19:46:35Z</time>
      </trkpt>
      <trkpt lat="45.73631" lon="6.22938">
        <ele>946</ele>
        <time>2019-09-18T19:46:49Z</time>
      </trkpt>
      <trkpt lat="45.7364" lon="6.22939">
        <ele>946</ele>
        <time>2019-09-18T19:46:54Z</time>
      </trkpt>
      <trkpt lat="45.73666" lon="6.22961">
        <ele>960</ele>
        <time>2019-09-18T19:47:09Z</time>
      </trkpt>
      <trkpt lat="45.73673" lon="6.2297">
        <ele>966</ele>
        <time>2019-09-18T19:47:14Z</time>
      </trkpt>
      <trkpt lat="45.73672" lon="6.22984">
        <ele>976</ele>
        <time>2019-09-18T19:47:19Z</time>
      </trkpt>
      <trkpt lat="45.73679" lon="6.22975">
        <ele>969</ele>
        <time>2019-09-18T19:47:23Z</time>
      </trkpt>
      <trkpt lat="45.73711" lon="6.22979">
        <ele>970</ele>
        <time>2019-09-18T19:47:39Z</time>
      </trkpt>
      <trkpt lat="45.73719" lon="6.22985">
        <ele>973</ele>
        <time>2019-09-18T19:47:44Z</time>
      </trkpt>
      <trkpt lat="45.7373" lon="6.22983">
        <ele>971</ele>
        <time>2019-09-18T19:47:50Z</time>
      </trkpt>
      <trkpt lat="45.73765" lon="6.22961">
        <ele>955</ele>
        <time>2019-09-18T19:48:09Z</time>
      </trkpt>
      <trkpt lat="45.73774" lon="6.22964">
        <ele>957</ele>
        <time>2019-09-18T19:48:13Z</time>
      </trkpt>
      <trkpt lat="45.73785" lon="6.22959">
        <ele>955</ele>
        <time>2019-09-18T19:48:19Z</time>
      </trkpt>
      <trkpt lat="45.73804" lon="6.22965">
        <ele>958</ele>
        <time>2019-09-18T19:48:29Z</time>
      </trkpt>
      <trkpt lat="45.73824" lon="6.22954">
        <ele>952</ele>
        <time>2019-09-18T19:48:39Z</time>
      </trkpt>
      <trkpt lat="45.73839" lon="6.22939">
        <ele>944</ele>
        <time>2019-09-18T19:48:49Z</time>
      </trkpt>
      <trkpt lat="45.7385" lon="6.22936">
        <ele>941</ele>
        <time>2019-09-18T19:48:54Z</time>
      </trkpt>
      <trkpt lat="45.73883" lon="6.22938">
        <ele>938</ele>
        <time>2019-09-18T19:49:11Z</time>
      </trkpt>
      <trkpt lat="45.73903" lon="6.22935">
        <ele>934</ele>
        <time>2019-09-18T19:49:21Z</time>
      </trkpt>
      <trkpt lat="45.73911" lon="6.22931">
        <ele>931</ele>
        <time>2019-09-18T19:49:25Z</time>
      </trkpt>
      <trkpt lat="45.73931" lon="6.22932">
        <ele>926</ele>
        <time>2019-09-18T19:49:35Z</time>
      </trkpt>
      <trkpt lat="45.73941" lon="6.22929">
        <ele>922</ele>
        <time>2019-09-18T19:49:40Z</time>
      </trkpt>
      <trkpt lat="45.73961" lon="6.22928">
        <ele>915</ele>
        <time>2019-09-18T19:49:50Z</time>
      </trkpt>
      <trkpt lat="45.7398" lon="6.22937">
        <ele>914</ele>
        <time>2019-09-18T19:50:00Z</time>
      </trkpt>
      <trkpt lat="45.74011" lon="6.22937">
        <ele>906</ele>
        <time>2019-09-18T19:50:16Z</time>
      </trkpt>
      <trkpt lat="45.74023" lon="6.22941">
        <ele>905</ele>
        <time>2019-09-18T19:50:22Z</time>
      </trkpt>
      <trkpt lat="45.74053" lon="6.22945">
        <ele>902</ele>
        <time>2019-09-18T19:50:37Z</time>
      </trkpt>
      <trkpt lat="45.74069" lon="6.22958">
        <ele>906</ele>
        <time>2019-09-18T19:50:46Z</time>
      </trkpt>
      <trkpt lat="45.74078" lon="6.22962">
        <ele>906</ele>
        <time>2019-09-18T19:50:51Z</time>
      </trkpt>
      <trkpt lat="45.74118" lon="6.22998">
        <ele>924</ele>
        <time>2019-09-18T19:51:15Z</time>
      </trkpt>
      <trkpt lat="45.74136" lon="6.23008">
        <ele>929</ele>
        <time>2019-09-18T19:51:24Z</time>
      </trkpt>
      <trkpt lat="45.74154" lon="6.23013">
        <ele>930</ele>
        <time>2019-09-18T19:51:33Z</time>
      </trkpt>
      <trkpt lat="45.74164" lon="6.23008">
        <ele>928</ele>
        <time>2019-09-18T19:51:39Z</time>
      </trkpt>
      <trkpt lat="45.74179" lon="6.22994">
        <ele>921</ele>
        <time>2019-09-18T19:51:48Z</time>
      </trkpt>
      <trkpt lat="45.74202" lon="6.22994">
        <ele>921</ele>
        <time>2019-09-18T19:51:59Z</time>
      </trkpt>
      <trkpt lat="45.74226" lon="6.23006">
        <ele>925</ele>
        <time>2019-09-18T19:52:12Z</time>
      </trkpt>
      <trkpt lat="45.74261" lon="6.23037">
        <ele>933</ele>
        <time>2019-09-18T19:52:32Z</time>
      </trkpt>
      <trkpt lat="45.74264" lon="6.23051">
        <ele>938</ele>
        <time>2019-09-18T19:52:38Z</time>
      </trkpt>
      <trkpt lat="45.7425" lon="6.23087">
        <ele>950</ele>
        <time>2019-09-18T19:52:52Z</time>
      </trkpt>
      <trkpt lat="45.7424" lon="6.23089">
        <ele>952</ele>
        <time>2019-09-18T19:52:57Z</time>
      </trkpt>
      <trkpt lat="45.74211" lon="6.23085">
        <ele>953</ele>
        <time>2019-09-18T19:53:12Z</time>
      </trkpt>
      <trkpt lat="45.74187" lon="6.23106">
        <ele>965</ele>
        <time>2019-09-18T19:53:26Z</time>
      </trkpt>
      <trkpt lat="45.74173" lon="6.23125">
        <ele>976</ele>
        <time>2019-09-18T19:53:35Z</time>
      </trkpt>
      <trkpt lat="45.74164" lon="6.23129">
        <ele>979</ele>
        <time>2019-09-18T19:53:40Z</time>
      </trkpt>
      <trkpt lat="45.74155" lon="6.2313">
        <ele>980</ele>
        <time>2019-09-18T19:53:45Z</time>
      </trkpt>
      <trkpt lat="45.74146" lon="6.23127">
        <ele>980</ele>
        <time>2019-09-18T19:53:49Z</time>
      </trkpt>
      <trkpt lat="45.74116" lon="6.23131">
        <ele>985</ele>
        <time>2019-09-18T19:54:04Z</time>
      </trkpt>
      <trkpt lat="45.74107" lon="6.23136">
        <ele>988</ele>
        <time>2019-09-18T19:54:09Z</time>
      </trkpt>
      <trkpt lat="45.74098" lon="6.2313">
        <ele>986</ele>
        <time>2019-09-18T19:54:14Z</time>
      </trkpt>
      <trkpt lat="45.74089" lon="6.23132">
        <ele>988</ele>
        <time>2019-09-18T19:54:19Z</time>
      </trkpt>
      <trkpt lat="45.74069" lon="6.23129">
        <ele>991</ele>
        <time>2019-09-18T19:54:29Z</time>
      </trkpt>
      <trkpt lat="45.7406" lon="6.23125">
        <ele>991</ele>
        <time>2019-09-18T19:54:33Z</time>
      </trkpt>
      <trkpt lat="45.74041" lon="6.23126">
        <ele>996</ele>
        <time>2019-09-18T19:54:43Z</time>
      </trkpt>
      <trkpt lat="45.74031" lon="6.23123">
        <ele>997</ele>
        <time>2019-09-18T19:54:48Z</time>
      </trkpt>
      <trkpt lat="45.73993" lon="6.23124">
        <ele>1008</ele>
        <time>2019-09-18T19:55:07Z</time>
      </trkpt>
      <trkpt lat="45.73984" lon="6.23129">
        <ele>1014</ele>
        <time>2019-09-18T19:55:12Z</time>
      </trkpt>
      <trkpt lat="45.73976" lon="6.23123">
        <ele>1014</ele>
        <time>2019-09-18T19:55:16Z</time>
      </trkpt>
      <trkpt lat="45.73956" lon="6.23123">
        <ele>1021</ele>
        <time>2019-09-18T19:55:26Z</time>
      </trkpt>
      <trkpt lat="45.73946" lon="6.2312">
        <ele>1023</ele>
        <time>2019-09-18T19:55:32Z</time>
      </trkpt>
      <trkpt lat="45.73931" lon="6.23105">
        <ele>1020</ele>
        <time>2019-09-18T19:55:41Z</time>
      </trkpt>
      <trkpt lat="45.73922" lon="6.23109">
        <ele>1025</ele>
        <time>2019-09-18T19:55:45Z</time>
      </trkpt>
      <trkpt lat="45.73905" lon="6.23098">
        <ele>1022</ele>
        <time>2019-09-18T19:55:55Z</time>
      </trkpt>
      <trkpt lat="45.73869" lon="6.23108">
        <ele>1034</ele>
        <time>2019-09-18T19:56:13Z</time>
      </trkpt>
      <trkpt lat="45.73849" lon="6.23109">
        <ele>1038</ele>
        <time>2019-09-18T19:56:23Z</time>
      </trkpt>
      <trkpt lat="45.7384" lon="6.23112">
        <ele>1041</ele>
        <time>2019-09-18T19:56:28Z</time>
      </trkpt>
      <trkpt lat="45.73822" lon="6.23124">
        <ele>1050</ele>
        <time>2019-09-18T19:56:38Z</time>
      </trkpt>
      <trkpt lat="45.73803" lon="6.23128">
        <ele>1053</ele>
        <time>2019-09-18T19:56:47Z</time>
      </trkpt>
      <trkpt lat="45.73794" lon="6.23126">
        <ele>1052</ele>
        <time>2019-09-18T19:56:52Z</time>
      </trkpt>
      <trkpt lat="45.73784" lon="6.23129">
        <ele>1054</ele>
        <time>2019-09-18T19:56:57Z</time>
      </trkpt>
      <trkpt lat="45.73768" lon="6.23143">
        <ele>1064</ele>
        <time>2019-09-18T19:57:06Z</time>
      </trkpt>
      <trkpt lat="45.73747" lon="6.23147">
        <ele>1068</ele>
        <time>2019-09-18T19:57:17Z</time>
      </trkpt>
      <trkpt lat="45.73739" lon="6.23153">
        <ele>1073</ele>
        <time>2019-09-18T19:57:21Z</time>
      </trkpt>
      <trkpt lat="45.73729" lon="6.23155">
        <ele>1077</ele>
        <time>2019-09-18T19:57:26Z</time>
      </trkpt>
      <trkpt lat="45.73721" lon="6.2316">
        <ele>1082</ele>
        <time>2019-09-18T19:57:31Z</time>
      </trkpt>
      <trkpt lat="45.737" lon="6.23165">
        <ele>1090</ele>
        <time>2019-09-18T19:57:42Z</time>
      </trkpt>
      <trkpt lat="45.7368" lon="6.23166">
        <ele>1095</ele>
        <time>2019-09-18T19:57:52Z</time>
      </trkpt>
      <trkpt lat="45.73662" lon="6.2316">
        <ele>1094</ele>
        <time>2019-09-18T19:58:01Z</time>
      </trkpt>
      <trkpt lat="45.73653" lon="6.23161">
        <ele>1096</ele>
        <time>2019-09-18T19:58:05Z</time>
      </trkpt>
      <trkpt lat="45.73643" lon="6.23158">
        <ele>1094</ele>
        <time>2019-09-18T19:58:10Z</time>
      </trkpt>
      <trkpt lat="45.73633" lon="6.23159">
        <ele>1096</ele>
        <time>2019-09-18T19:58:15Z</time>
      </trkpt>
      <trkpt lat="45.73624" lon="6.23157">
        <ele>1096</ele>
        <time>2019-09-18T19:58:20Z</time>
      </trkpt>
      <trkpt lat="45.73609" lon="6.23138">
        <ele>1084</ele>
        <time>2019-09-18T19:58:30Z</time>
      </trkpt>
      <trkpt lat="45.73589" lon="6.23141">
        <ele>1088</ele>
        <time>2019-09-18T19:58:40Z</time>
      </trkpt>
      <trkpt lat="45.73579" lon="6.2314">
        <ele>1088</ele>
        <time>2019-09-18T19:58:45Z</time>
      </trkpt>
      <trkpt lat="45.73571" lon="6.23146">
        <ele>1091</ele>
        <time>2019-09-18T19:58:50Z</time>
      </trkpt>
      <trkpt lat="45.73562" lon="6.23149">
        <ele>1091</ele>
        <time>2019-09-18T19:58:54Z</time>
      </trkpt>
      <trkpt lat="45.73554" lon="6.23156">
        <ele>1095</ele>
        <time>2019-09-18T19:58:59Z</time>
      </trkpt>
      <trkpt lat="45.73544" lon="6.23158">
        <ele>1095</ele>
        <time>2019-09-18T19:59:04Z</time>
      </trkpt>
      <trkpt lat="45.73534" lon="6.23179">
        <ele>1105</ele>
        <time>2019-09-18T19:59:13Z</time>
      </trkpt>
      <trkpt lat="45.73524" lon="6.23183">
        <ele>1105</ele>
        <time>2019-09-18T19:59:18Z</time>
      </trkpt>
      <trkpt lat="45.73523" lon="6.23196">
        <ele>1111</ele>
        <time>2019-09-18T19:59:23Z</time>
      </trkpt>
      <trkpt lat="45.73516" lon="6.23221">
        <ele>1122</ele>
        <time>2019-09-18T19:59:32Z</time>
      </trkpt>
      <trkpt lat="45.73507" lon="6.23227">
        <ele>1123</ele>
        <time>2019-09-18T19:59:37Z</time>
      </trkpt>
      <trkpt lat="45.73487" lon="6.23232">
        <ele>1124</ele>
        <time>2019-09-18T19:59:47Z</time>
      </trkpt>
      <trkpt lat="45.73458" lon="6.2323">
        <ele>1124</ele>
        <time>2019-09-18T20:00:02Z</time>
      </trkpt>
      <trkpt lat="45.73449" lon="6.23226">
        <ele>1122</ele>
        <time>2019-09-18T20:00:06Z</time>
      </trkpt>
      <trkpt lat="45.7344" lon="6.23234">
        <ele>1126</ele>
        <time>2019-09-18T20:00:12Z</time>
      </trkpt>
      <trkpt lat="45.73431" lon="6.23232">
        <ele>1125</ele>
        <time>2019-09-18T20:00:16Z</time>
      </trkpt>
      <trkpt lat="45.7342" lon="6.23233">
        <ele>1126</ele>
        <time>2019-09-18T20:00:22Z</time>
      </trkpt>
      <trkpt lat="45.7341" lon="6.23237">
        <ele>1127</ele>
        <time>2019-09-18T20:00:27Z</time>
      </trkpt>
      <trkpt lat="45.73394" lon="6.23253">
        <ele>1135</ele>
        <time>2019-09-18T20:00:37Z</time>
      </trkpt>
      <trkpt lat="45.73376" lon="6.2326">
        <ele>1136</ele>
        <time>2019-09-18T20:00:46Z</time>
      </trkpt>
      <trkpt lat="45.7336" lon="6.23276">
        <ele>1143</ele>
        <time>2019-09-18T20:00:56Z</time>
      </trkpt>
      <trkpt lat="45.73335" lon="6.23293">
        <ele>1150</ele>
        <time>2019-09-18T20:01:10Z</time>
      </trkpt>
      <trkpt lat="45.73332" lon="6.23305">
        <ele>1156</ele>
        <time>2019-09-18T20:01:14Z</time>
      </trkpt>
      <trkpt lat="45.73326" lon="6.23315">
        <ele>1162</ele>
        <time>2019-09-18T20:01:19Z</time>
      </trkpt>
      <trkpt lat="45.73317" lon="6.2332">
        <ele>1166</ele>
        <time>2019-09-18T20:01:24Z</time>
      </trkpt>
      <trkpt lat="45.7331" lon="6.23329">
        <ele>1172</ele>
        <time>2019-09-18T20:01:28Z</time>
      </trkpt>
      <trkpt lat="45.73297" lon="6.23327">
        <ele>1172</ele>
        <time>2019-09-18T20:01:35Z</time>
      </trkpt>
      <trkpt lat="45.73272" lon="6.23303">
        <ele>1162</ele>
        <time>2019-09-18T20:01:50Z</time>
      </trkpt>
      <trkpt lat="45.73262" lon="6.23298">
        <ele>1160</ele>
        <time>2019-09-18T20:01:55Z</time>
      </trkpt>
      <trkpt lat="45.73254" lon="6.23303">
        <ele>1164</ele>
        <time>2019-09-18T20:02:00Z</time>
      </trkpt>
      <trkpt lat="45.73233" lon="6.23301">
        <ele>1164</ele>
        <time>2019-09-18T20:02:10Z</time>
      </trkpt>
      <trkpt lat="45.73215" lon="6.23313">
        <ele>1171</ele>
        <time>2019-09-18T20:02:20Z</time>
      </trkpt>
      <trkpt lat="45.73196" lon="6.23305">
        <ele>1168</ele>
        <time>2019-09-18T20:02:30Z</time>
      </trkpt>
      <trkpt lat="45.73187" lon="6.23307">
        <ele>1170</ele>
        <time>2019-09-18T20:02:34Z</time>
      </trkpt>
      <trkpt lat="45.73178" lon="6.23314">
        <ele>1174</ele>
        <time>2019-09-18T20:02:40Z</time>
      </trkpt>
      <trkpt lat="45.73188" lon="6.23314">
        <ele>1173</ele>
        <time>2019-09-18T20:02:45Z</time>
      </trkpt>
      <trkpt lat="45.73207" lon="6.23321">
        <ele>1176</ele>
        <time>2019-09-18T20:02:54Z</time>
      </trkpt>
      <trkpt lat="45.73216" lon="6.23328">
        <ele>1179</ele>
        <time>2019-09-18T20:03:00Z</time>
      </trkpt>
      <trkpt lat="45.73252" lon="6.23344">
        <ele>1185</ele>
        <time>2019-09-18T20:03:18Z</time>
      </trkpt>
      <trkpt lat="45.73234" lon="6.2335">
        <ele>1188</ele>
        <time>2019-09-18T20:03:28Z</time>
      </trkpt>
      <trkpt lat="45.73214" lon="6.23348">
        <ele>1189</ele>
        <time>2019-09-18T20:03:38Z</time>
      </trkpt>
      <trkpt lat="45.73205" lon="6.2335">
        <ele>1190</ele>
        <time>2019-09-18T20:03:42Z</time>
      </trkpt>
      <trkpt lat="45.73196" lon="6.23347">
        <ele>1189</ele>
        <time>2019-09-18T20:03:47Z</time>
      </trkpt>
      <trkpt lat="45.73187" lon="6.23349">
        <ele>1191</ele>
        <time>2019-09-18T20:03:51Z</time>
      </trkpt>
      <trkpt lat="45.7316" lon="6.23367">
        <ele>1200</ele>
        <time>2019-09-18T20:04:06Z</time>
      </trkpt>
      <trkpt lat="45.73152" lon="6.23376">
        <ele>1204</ele>
        <time>2019-09-18T20:04:11Z</time>
      </trkpt>
      <trkpt lat="45.73116" lon="6.23399">
        <ele>1214</ele>
        <time>2019-09-18T20:04:31Z</time>
      </trkpt>
      <trkpt lat="45.73108" lon="6.23408">
        <ele>1218</ele>
        <time>2019-09-18T20:04:36Z</time>
      </trkpt>
      <trkpt lat="45.73089" lon="6.2341">
        <ele>1219</ele>
        <time>2019-09-18T20:04:46Z</time>
      </trkpt>
      <trkpt lat="45.73081" lon="6.23405">
        <ele>1216</ele>
        <time>2019-09-18T20:04:50Z</time>
      </trkpt>
      <trkpt lat="45.73044" lon="6.2342">
        <ele>1222</ele>
        <time>2019-09-18T20:05:09Z</time>
      </trkpt>
      <trkpt lat="45.73035" lon="6.2342">
        <ele>1222</ele>
        <time>2019-09-18T20:05:14Z</time>
      </trkpt>
      <trkpt lat="45.73026" lon="6.23426">
        <ele>1225</ele>
        <time>2019-09-18T20:05:19Z</time>
      </trkpt>
      <trkpt lat="45.73016" lon="6.23428">
        <ele>1225</ele>
        <time>2019-09-18T20:05:24Z</time>
      </trkpt>
      <trkpt lat="45.72988" lon="6.23445">
        <ele>1234</ele>
        <time>2019-09-18T20:05:39Z</time>
      </trkpt>
      <trkpt lat="45.72979" lon="6.23445">
        <ele>1235</ele>
        <time>2019-09-18T20:05:44Z</time>
      </trkpt>
      <trkpt lat="45.72962" lon="6.23456">
        <ele>1242</ele>
        <time>2019-09-18T20:05:53Z</time>
      </trkpt>
      <trkpt lat="45.72955" lon="6.23465">
        <ele>1247</ele>
        <time>2019-09-18T20:05:58Z</time>
      </trkpt>
      <trkpt lat="45.72934" lon="6.23473">
        <ele>1253</ele>
        <time>2019-09-18T20:06:09Z</time>
      </trkpt>
      <trkpt lat="45.72917" lon="6.23484">
        <ele>1259</ele>
        <time>2019-09-18T20:06:18Z</time>
      </trkpt>
      <trkpt lat="45.72908" lon="6.23487">
        <ele>1261</ele>
        <time>2019-09-18T20:06:22Z</time>
      </trkpt>
      <trkpt lat="45.72889" lon="6.23488">
        <ele>1263</ele>
        <time>2019-09-18T20:06:32Z</time>
      </trkpt>
      <trkpt lat="45.7287" lon="6.23475">
        <ele>1258</ele>
        <time>2019-09-18T20:06:43Z</time>
      </trkpt>
      <trkpt lat="45.72863" lon="6.23485">
        <ele>1263</ele>
        <time>2019-09-18T20:06:47Z</time>
      </trkpt>
      <trkpt lat="45.72854" lon="6.2349">
        <ele>1266</ele>
        <time>2019-09-18T20:06:52Z</time>
      </trkpt>
      <trkpt lat="45.7287" lon="6.23507">
        <ele>1273</ele>
        <time>2019-09-18T20:07:02Z</time>
      </trkpt>
      <trkpt lat="45.72879" lon="6.23512">
        <ele>1275</ele>
        <time>2019-09-18T20:07:07Z</time>
      </trkpt>
      <trkpt lat="45.7291" lon="6.23516">
        <ele>1275</ele>
        <time>2019-09-18T20:07:23Z</time>
      </trkpt>
      <trkpt lat="45.72919" lon="6.23522">
        <ele>1277</ele>
        <time>2019-09-18T20:07:28Z</time>
      </trkpt>
      <trkpt lat="45.72949" lon="6.23527">
        <ele>1277</ele>
        <time>2019-09-18T20:07:43Z</time>
      </trkpt>
      <trkpt lat="45.72958" lon="6.23535">
        <ele>1280</ele>
        <time>2019-09-18T20:07:48Z</time>
      </trkpt>
      <trkpt lat="45.72976" lon="6.23535">
        <ele>1279</ele>
        <time>2019-09-18T20:07:57Z</time>
      </trkpt>
      <trkpt lat="45.73003" lon="6.23551">
        <ele>1285</ele>
        <time>2019-09-18T20:08:12Z</time>
      </trkpt>
      <trkpt lat="45.73013" lon="6.23553">
        <ele>1286</ele>
        <time>2019-09-18T20:08:17Z</time>
      </trkpt>
      <trkpt lat="45.73035" lon="6.23565">
        <ele>1291</ele>
        <time>2019-09-18T20:08:29Z</time>
      </trkpt>
      <trkpt lat="45.73044" lon="6.2356">
        <ele>1289</ele>
        <time>2019-09-18T20:08:33Z</time>
      </trkpt>
      <trkpt lat="45.73076" lon="6.23556">
        <ele>1287</ele>
        <time>2019-09-18T20:08:49Z</time>
      </trkpt>
      <trkpt lat="45.73114" lon="6.23561">
        <ele>1289</ele>
        <time>2019-09-18T20:09:09Z</time>
      </trkpt>
      <trkpt lat="45.73123" lon="6.23569">
        <ele>1292</ele>
        <time>2019-09-18T20:09:14Z</time>
      </trkpt>
      <trkpt lat="45.7314" lon="6.23604">
        <ele>1299</ele>
        <time>2019-09-18T20:09:29Z</time>
      </trkpt>
      <trkpt lat="45.73149" lon="6.2361">
        <ele>1300</ele>
        <time>2019-09-18T20:09:34Z</time>
      </trkpt>
      <trkpt lat="45.73158" lon="6.23612">
        <ele>1300</ele>
        <time>2019-09-18T20:09:38Z</time>
      </trkpt>
      <trkpt lat="45.73167" lon="6.2362">
        <ele>1300</ele>
        <time>2019-09-18T20:09:44Z</time>
      </trkpt>
      <trkpt lat="45.73174" lon="6.23631">
        <ele>1299</ele>
        <time>2019-09-18T20:09:49Z</time>
      </trkpt>
      <trkpt lat="45.73177" lon="6.23644">
        <ele>1300</ele>
        <time>2019-09-18T20:09:54Z</time>
      </trkpt>
      <trkpt lat="45.73159" lon="6.23684">
        <ele>1306</ele>
        <time>2019-09-18T20:10:10Z</time>
      </trkpt>
      <trkpt lat="45.73126" lon="6.23674">
        <ele>1311</ele>
        <time>2019-09-18T20:10:27Z</time>
      </trkpt>
      <trkpt lat="45.73108" lon="6.23828">
        <ele>1326</ele>
        <time>2019-09-18T20:11:22Z</time>
      </trkpt>
      <trkpt lat="45.73111" lon="6.23851">
        <ele>1326</ele>
        <time>2019-09-18T20:11:30Z</time>
      </trkpt>
      <trkpt lat="45.73106" lon="6.23847">
        <ele>1328</ele>
        <time>2019-09-18T20:11:33Z</time>
      </trkpt>
      <trkpt lat="45.73153" lon="6.23869">
        <ele>1314</ele>
        <time>2019-09-18T20:11:57Z</time>
      </trkpt>
      <trkpt lat="45.7322" lon="6.23892">
        <ele>1294</ele>
        <time>2019-09-18T20:12:32Z</time>
      </trkpt>
      <trkpt lat="45.73284" lon="6.23887">
        <ele>1278</ele>
        <time>2019-09-18T20:13:04Z</time>
      </trkpt>
      <trkpt lat="45.73392" lon="6.23883">
        <ele>1258</ele>
        <time>2019-09-18T20:13:58Z</time>
      </trkpt>
      <trkpt lat="45.73447" lon="6.23895">
        <ele>1248</ele>
        <time>2019-09-18T20:14:26Z</time>
      </trkpt>
      <trkpt lat="45.73482" lon="6.23928">
        <ele>1242</ele>
        <time>2019-09-18T20:14:47Z</time>
      </trkpt>
      <trkpt lat="45.73522" lon="6.23954">
        <ele>1231</ele>
        <time>2019-09-18T20:15:09Z</time>
      </trkpt>
      <trkpt lat="45.7361" lon="6.23995">
        <ele>1209</ele>
        <time>2019-09-18T20:15:55Z</time>
      </trkpt>
      <trkpt lat="45.73667" lon="6.23998">
        <ele>1201</ele>
        <time>2019-09-18T20:16:24Z</time>
      </trkpt>
      <trkpt lat="45.73667" lon="6.24031">
        <ele>1193</ele>
        <time>2019-09-18T20:16:35Z</time>
      </trkpt>
      <trkpt lat="45.73638" lon="6.2405">
        <ele>1193</ele>
        <time>2019-09-18T20:16:51Z</time>
      </trkpt>
      <trkpt lat="45.73611" lon="6.24087">
        <ele>1187</ele>
        <time>2019-09-18T20:17:10Z</time>
      </trkpt>
      <trkpt lat="45.73578" lon="6.24118">
        <ele>1185</ele>
        <time>2019-09-18T20:17:30Z</time>
      </trkpt>
      <trkpt lat="45.73579" lon="6.2418">
        <ele>1170</ele>
        <time>2019-09-18T20:17:51Z</time>
      </trkpt>
      <trkpt lat="45.73522" lon="6.24285">
        <ele>1150</ele>
        <time>2019-09-18T20:18:38Z</time>
      </trkpt>
      <trkpt lat="45.73492" lon="6.24319">
        <ele>1144</ele>
        <time>2019-09-18T20:18:57Z</time>
      </trkpt>
      <trkpt lat="45.73467" lon="6.2436">
        <ele>1136</ele>
        <time>2019-09-18T20:19:16Z</time>
      </trkpt>
      <trkpt lat="45.73473" lon="6.244">
        <ele>1120</ele>
        <time>2019-09-18T20:19:30Z</time>
      </trkpt>
      <trkpt lat="45.73506" lon="6.24395">
        <ele>1114</ele>
        <time>2019-09-18T20:19:47Z</time>
      </trkpt>
      <trkpt lat="45.73546" lon="6.24432">
        <ele>1092</ele>
        <time>2019-09-18T20:20:11Z</time>
      </trkpt>
      <trkpt lat="45.73594" lon="6.24446">
        <ele>1080</ele>
        <time>2019-09-18T20:20:35Z</time>
      </trkpt>
      <trkpt lat="45.73681" lon="6.24457">
        <ele>1057</ele>
        <time>2019-09-18T20:21:19Z</time>
      </trkpt>
      <trkpt lat="45.73704" lon="6.24472">
        <ele>1047</ele>
        <time>2019-09-18T20:21:31Z</time>
      </trkpt>
      <trkpt lat="45.7379" lon="6.24482">
        <ele>1020</ele>
        <time>2019-09-18T20:22:15Z</time>
      </trkpt>
      <trkpt lat="45.73918" lon="6.24596">
        <ele>989</ele>
        <time>2019-09-18T20:23:30Z</time>
      </trkpt>
      <trkpt lat="45.73955" lon="6.24662">
        <ele>971</ele>
        <time>2019-09-18T20:24:00Z</time>
      </trkpt>
      <trkpt lat="45.73984" lon="6.24726">
        <ele>953</ele>
        <time>2019-09-18T20:24:26Z</time>
      </trkpt>
      <trkpt lat="45.73994" lon="6.24764">
        <ele>943</ele>
        <time>2019-09-18T20:24:40Z</time>
      </trkpt>
      <trkpt lat="45.73984" lon="6.24846">
        <ele>929</ele>
        <time>2019-09-18T20:25:09Z</time>
      </trkpt>
      <trkpt lat="45.74" lon="6.24896">
        <ele>910</ele>
        <time>2019-09-18T20:25:29Z</time>
      </trkpt>
      <trkpt lat="45.74034" lon="6.24891">
        <ele>900</ele>
        <time>2019-09-18T20:25:46Z</time>
      </trkpt>
      <trkpt lat="45.74069" lon="6.24855">
        <ele>895</ele>
        <time>2019-09-18T20:26:07Z</time>
      </trkpt>
      <trkpt lat="45.741" lon="6.24798">
        <ele>892</ele>
        <time>2019-09-18T20:26:33Z</time>
      </trkpt>
      <trkpt lat="45.74105" lon="6.24867">
        <ele>878</ele>
        <time>2019-09-18T20:26:57Z</time>
      </trkpt>
      <trkpt lat="45.74123" lon="6.24877">
        <ele>869</ele>
        <time>2019-09-18T20:27:06Z</time>
      </trkpt>
      <trkpt lat="45.74143" lon="6.24894">
        <ele>858</ele>
        <time>2019-09-18T20:27:18Z</time>
      </trkpt>
      <trkpt lat="45.7414" lon="6.24922">
        <ele>855</ele>
        <time>2019-09-18T20:27:28Z</time>
      </trkpt>
      <trkpt lat="45.74124" lon="6.24953">
        <ele>855</ele>
        <time>2019-09-18T20:27:41Z</time>
      </trkpt>
      <trkpt lat="45.74116" lon="6.24977">
        <ele>853</ele>
        <time>2019-09-18T20:27:51Z</time>
      </trkpt>
      <trkpt lat="45.74202" lon="6.24934">
        <ele>827</ele>
        <time>2019-09-18T20:28:36Z</time>
      </trkpt>
      <trkpt lat="45.74203" lon="6.2497">
        <ele>820</ele>
        <time>2019-09-18T20:28:49Z</time>
      </trkpt>
      <trkpt lat="45.74214" lon="6.25023">
        <ele>809</ele>
        <time>2019-09-18T20:29:08Z</time>
      </trkpt>
      <trkpt lat="45.74214" lon="6.25119">
        <ele>794</ele>
        <time>2019-09-18T20:29:42Z</time>
      </trkpt>
      <trkpt lat="45.7422" lon="6.25152">
        <ele>786</ele>
        <time>2019-09-18T20:29:54Z</time>
      </trkpt>
      <trkpt lat="45.74199" lon="6.25176">
        <ele>784</ele>
        <time>2019-09-18T20:30:07Z</time>
      </trkpt>
      <trkpt lat="45.74185" lon="6.25214">
        <ele>776</ele>
        <time>2019-09-18T20:30:22Z</time>
      </trkpt>
      <trkpt lat="45.7417" lon="6.25241">
        <ele>771</ele>
        <time>2019-09-18T20:30:34Z</time>
      </trkpt>
      <trkpt lat="45.74173" lon="6.25363">
        <ele>735</ele>
        <time>2019-09-18T20:31:17Z</time>
      </trkpt>
      <trkpt lat="45.74179" lon="6.25396">
        <ele>725</ele>
        <time>2019-09-18T20:31:29Z</time>
      </trkpt>
      <trkpt lat="45.7417" lon="6.25414">
        <ele>722</ele>
        <time>2019-09-18T20:31:36Z</time>
      </trkpt>
      <trkpt lat="45.74176" lon="6.25457">
        <ele>712</ele>
        <time>2019-09-18T20:31:52Z</time>
      </trkpt>
      <trkpt lat="45.74206" lon="6.25533">
        <ele>694</ele>
        <time>2019-09-18T20:32:22Z</time>
      </trkpt>
      <trkpt lat="45.74241" lon="6.25583">
        <ele>683</ele>
        <time>2019-09-18T20:32:47Z</time>
      </trkpt>
      <trkpt lat="45.74309" lon="6.25658">
        <ele>664</ele>
        <time>2019-09-18T20:33:30Z</time>
      </trkpt>
      <trkpt lat="45.74369" lon="6.25734">
        <ele>644</ele>
        <time>2019-09-18T20:34:10Z</time>
      </trkpt>
      <trkpt lat="45.74505" lon="6.25787">
        <ele>616</ele>
        <time>2019-09-18T20:35:21Z</time>
      </trkpt>
      <trkpt lat="45.74569" lon="6.25802">
        <ele>600</ele>
        <time>2019-09-18T20:35:53Z</time>
      </trkpt>
      <trkpt lat="45.74683" lon="6.25866">
        <ele>566</ele>
        <time>2019-09-18T20:36:54Z</time>
      </trkpt>
      <trkpt lat="45.74715" lon="6.2588">
        <ele>560</ele>
        <time>2019-09-18T20:37:11Z</time>
      </trkpt>
      <trkpt lat="45.74739" lon="6.25885">
        <ele>554</ele>
        <time>2019-09-18T20:37:23Z</time>
      </trkpt>
      <trkpt lat="45.74757" lon="6.25886">
        <ele>551</ele>
        <time>2019-09-18T20:37:32Z</time>
      </trkpt>
      <trkpt lat="45.74778" lon="6.25879">
        <ele>547</ele>
        <time>2019-09-18T20:37:43Z</time>
      </trkpt>
      <trkpt lat="45.74828" lon="6.2588">
        <ele>539</ele>
        <time>2019-09-18T20:38:08Z</time>
      </trkpt>
      <trkpt lat="45.74854" lon="6.25883">
        <ele>536</ele>
        <time>2019-09-18T20:38:21Z</time>
      </trkpt>
      <trkpt lat="45.74868" lon="6.25878">
        <ele>534</ele>
        <time>2019-09-18T20:38:28Z</time>
      </trkpt>
      <trkpt lat="45.74901" lon="6.25844">
        <ele>530</ele>
        <time>2019-09-18T20:38:49Z</time>
      </trkpt>
      <trkpt lat="45.74908" lon="6.25834">
        <ele>530</ele>
        <time>2019-09-18T20:38:54Z</time>
      </trkpt>
      <trkpt lat="45.74922" lon="6.25795">
        <ele>527</ele>
        <time>2019-09-18T20:39:09Z</time>
      </trkpt>
      <trkpt lat="45.74965" lon="6.25638">
        <ele>517</ele>
        <time>2019-09-18T20:40:08Z</time>
      </trkpt>
      <trkpt lat="45.74965" lon="6.25621">
        <ele>517</ele>
        <time>2019-09-18T20:40:14Z</time>
      </trkpt>
      <trkpt lat="45.74959" lon="6.25599">
        <ele>518</ele>
        <time>2019-09-18T20:40:22Z</time>
      </trkpt>
      <trkpt lat="45.74957" lon="6.25559">
        <ele>518</ele>
        <time>2019-09-18T20:40:36Z</time>
      </trkpt>
      <trkpt lat="45.74959" lon="6.2554">
        <ele>518</ele>
        <time>2019-09-18T20:40:43Z</time>
      </trkpt>
      <trkpt lat="45.74962" lon="6.25537">
        <ele>517</ele>
        <time>2019-09-18T20:40:44Z</time>
      </trkpt>
      <trkpt lat="45.7497" lon="6.25539">
        <ele>516</ele>
        <time>2019-09-18T20:40:49Z</time>
      </trkpt>
      <trkpt lat="45.74992" lon="6.25557">
        <ele>512</ele>
        <time>2019-09-18T20:41:01Z</time>
      </trkpt>
      <trkpt lat="45.75018" lon="6.25569">
        <ele>509</ele>
        <time>2019-09-18T20:41:15Z</time>
      </trkpt>
      <trkpt lat="45.75031" lon="6.25567">
        <ele>508</ele>
        <time>2019-09-18T20:41:21Z</time>
      </trkpt>
      <trkpt lat="45.7504" lon="6.25557">
        <ele>507</ele>
        <time>2019-09-18T20:41:27Z</time>
      </trkpt>
      <trkpt lat="45.75063" lon="6.25575">
        <ele>505</ele>
        <time>2019-09-18T20:41:40Z</time>
      </trkpt>
      <trkpt lat="45.75088" lon="6.25589">
        <ele>504</ele>
        <time>2019-09-18T20:41:54Z</time>
      </trkpt>
      <trkpt lat="45.75097" lon="6.25598">
        <ele>504</ele>
        <time>2019-09-18T20:41:59Z</time>
      </trkpt>
      <trkpt lat="45.75101" lon="6.25611">
        <ele>504</ele>
        <time>2019-09-18T20:42:04Z</time>
      </trkpt>
      <trkpt lat="45.75095" lon="6.25635">
        <ele>505</ele>
        <time>2019-09-18T20:42:13Z</time>
      </trkpt>
      <trkpt lat="45.75104" lon="6.25625">
        <ele>504</ele>
        <time>2019-09-18T20:42:19Z</time>
      </trkpt>
      <trkpt lat="45.75124" lon="6.25631">
        <ele>503</ele>
        <time>2019-09-18T20:42:29Z</time>
      </trkpt>
      <trkpt lat="45.75171" lon="6.25637">
        <ele>499</ele>
        <time>2019-09-18T20:42:53Z</time>
      </trkpt>
      <trkpt lat="45.7518" lon="6.25641">
        <ele>499</ele>
        <time>2019-09-18T20:42:57Z</time>
      </trkpt>
      <trkpt lat="45.75226" lon="6.25679">
        <ele>497</ele>
        <time>2019-09-18T20:43:24Z</time>
      </trkpt>
      <trkpt lat="45.75237" lon="6.25684">
        <ele>496</ele>
        <time>2019-09-18T20:43:30Z</time>
      </trkpt>
      <trkpt lat="45.75249" lon="6.25685">
        <ele>496</ele>
        <time>2019-09-18T20:43:36Z</time>
      </trkpt>
      <trkpt lat="45.75261" lon="6.25681">
        <ele>494</ele>
        <time>2019-09-18T20:43:42Z</time>
      </trkpt>
      <trkpt lat="45.75264" lon="6.25667">
        <ele>494</ele>
        <time>2019-09-18T20:43:47Z</time>
      </trkpt>
      <trkpt lat="45.75268" lon="6.25603">
        <ele>491</ele>
        <time>2019-09-18T20:44:09Z</time>
      </trkpt>
      <trkpt lat="45.75266" lon="6.25498">
        <ele>488</ele>
        <time>2019-09-18T20:44:46Z</time>
      </trkpt>
      <trkpt lat="45.75261" lon="6.25455">
        <ele>487</ele>
        <time>2019-09-18T20:45:01Z</time>
      </trkpt>
      <trkpt lat="45.7527" lon="6.25376">
        <ele>483</ele>
        <time>2019-09-18T20:45:29Z</time>
      </trkpt>
      <trkpt lat="45.75281" lon="6.25306">
        <ele>481</ele>
        <time>2019-09-18T20:45:54Z</time>
      </trkpt>
      <trkpt lat="45.75281" lon="6.25289">
        <ele>481</ele>
        <time>2019-09-18T20:46:00Z</time>
      </trkpt>
      <trkpt lat="45.75312" lon="6.25214">
        <ele>478</ele>
        <time>2019-09-18T20:46:31Z</time>
      </trkpt>
      <trkpt lat="45.75328" lon="6.25148">
        <ele>479</ele>
        <time>2019-09-18T20:46:55Z</time>
      </trkpt>
      <trkpt lat="45.75345" lon="6.25106">
        <ele>479</ele>
        <time>2019-09-18T20:47:12Z</time>
      </trkpt>
      <trkpt lat="45.75365" lon="6.25043">
        <ele>479</ele>
        <time>2019-09-18T20:47:36Z</time>
      </trkpt>
      <trkpt lat="45.75392" lon="6.24971">
        <ele>477</ele>
        <time>2019-09-18T20:48:05Z</time>
      </trkpt>
      <trkpt lat="45.7544" lon="6.24818">
        <ele>482</ele>
        <time>2019-09-18T20:49:03Z</time>
      </trkpt>
      <trkpt lat="45.75445" lon="6.24809">
        <ele>482</ele>
        <time>2019-09-18T20:49:07Z</time>
      </trkpt>
      <trkpt lat="45.75448" lon="6.24809">
        <ele>481</ele>
        <time>2019-09-18T20:49:09Z</time>
      </trkpt>
      <trkpt lat="45.75464" lon="6.24816">
        <ele>479</ele>
        <time>2019-09-18T20:49:17Z</time>
      </trkpt>
      <trkpt lat="45.75544" lon="6.24864">
        <ele>474</ele>
        <time>2019-09-18T20:50:01Z</time>
      </trkpt>
      <trkpt lat="45.75563" lon="6.2487">
        <ele>474</ele>
        <time>2019-09-18T20:50:10Z</time>
      </trkpt>
      <trkpt lat="45.75592" lon="6.24889">
        <ele>474</ele>
        <time>2019-09-18T20:50:26Z</time>
      </trkpt>
      <trkpt lat="45.75617" lon="6.24913">
        <ele>473</ele>
        <time>2019-09-18T20:50:41Z</time>
      </trkpt>
      <trkpt lat="45.75644" lon="6.24943">
        <ele>473</ele>
        <time>2019-09-18T20:50:58Z</time>
      </trkpt>
      <trkpt lat="45.75659" lon="6.24965">
        <ele>473</ele>
        <time>2019-09-18T20:51:09Z</time>
      </trkpt>
      <trkpt lat="45.75678" lon="6.24998">
        <ele>473</ele>
        <time>2019-09-18T20:51:24Z</time>
      </trkpt>
      <trkpt lat="45.75686" lon="6.25031">
        <ele>473</ele>
        <time>2019-09-18T20:51:36Z</time>
      </trkpt>
      <trkpt lat="45.75703" lon="6.25073">
        <ele>474</ele>
        <time>2019-09-18T20:51:53Z</time>
      </trkpt>
      <trkpt lat="45.75738" lon="6.25128">
        <ele>473</ele>
        <time>2019-09-18T20:52:19Z</time>
      </trkpt>
      <trkpt lat="45.75761" lon="6.25155">
        <ele>473</ele>
        <time>2019-09-18T20:52:34Z</time>
      </trkpt>
      <trkpt lat="45.75776" lon="6.25167">
        <ele>474</ele>
        <time>2019-09-18T20:52:43Z</time>
      </trkpt>
      <trkpt lat="45.75799" lon="6.25178">
        <ele>474</ele>
        <time>2019-09-18T20:52:55Z</time>
      </trkpt>
      <trkpt lat="45.75801" lon="6.25177">
        <ele>474</ele>
        <time>2019-09-18T20:52:56Z</time>
      </trkpt>
      <trkpt lat="45.7582" lon="6.25189">
        <ele>474</ele>
        <time>2019-09-18T20:53:06Z</time>
      </trkpt>
      <trkpt lat="45.75845" lon="6.2521">
        <ele>475</ele>
        <time>2019-09-18T20:53:21Z</time>
      </trkpt>
      <trkpt lat="45.75869" lon="6.25244">
        <ele>475</ele>
        <time>2019-09-18T20:53:38Z</time>
      </trkpt>
      <trkpt lat="45.75898" lon="6.25266">
        <ele>474</ele>
        <time>2019-09-18T20:53:54Z</time>
      </trkpt>
      <trkpt lat="45.75922" lon="6.25272">
        <ele>474</ele>
        <time>2019-09-18T20:54:06Z</time>
      </trkpt>
      <trkpt lat="45.75943" lon="6.25296">
        <ele>473</ele>
        <time>2019-09-18T20:54:20Z</time>
      </trkpt>
      <trkpt lat="45.75973" lon="6.25316">
        <ele>473</ele>
        <time>2019-09-18T20:54:36Z</time>
      </trkpt>
      <trkpt lat="45.75996" lon="6.25345">
        <ele>474</ele>
        <time>2019-09-18T20:54:52Z</time>
      </trkpt>
      <trkpt lat="45.76038" lon="6.25359">
        <ele>474</ele>
        <time>2019-09-18T20:55:13Z</time>
      </trkpt>
      <trkpt lat="45.76098" lon="6.25416">
        <ele>476</ele>
        <time>2019-09-18T20:55:49Z</time>
      </trkpt>
      <trkpt lat="45.7614" lon="6.25445">
        <ele>477</ele>
        <time>2019-09-18T20:56:13Z</time>
      </trkpt>
      <trkpt lat="45.76184" lon="6.25496">
        <ele>479</ele>
        <time>2019-09-18T20:56:41Z</time>
      </trkpt>
      <trkpt lat="45.76219" lon="6.25508">
        <ele>480</ele>
        <time>2019-09-18T20:56:59Z</time>
      </trkpt>
      <trkpt lat="45.76245" lon="6.25533">
        <ele>481</ele>
        <time>2019-09-18T20:57:15Z</time>
      </trkpt>
      <trkpt lat="45.76239" lon="6.2554">
        <ele>481</ele>
        <time>2019-09-18T20:57:18Z</time>
      </trkpt>
      <trkpt lat="45.76223" lon="6.25551">
        <ele>480</ele>
        <time>2019-09-18T20:57:27Z</time>
      </trkpt>
      <trkpt lat="45.76219" lon="6.2556">
        <ele>480</ele>
        <time>2019-09-18T20:57:31Z</time>
      </trkpt>
      <trkpt lat="45.76219" lon="6.25574">
        <ele>480</ele>
        <time>2019-09-18T20:57:36Z</time>
      </trkpt>
      <trkpt lat="45.76239" lon="6.25607">
        <ele>480</ele>
        <time>2019-09-18T20:57:51Z</time>
      </trkpt>
      <trkpt lat="45.7625" lon="6.25633">
        <ele>480</ele>
        <time>2019-09-18T20:58:02Z</time>
      </trkpt>
      <trkpt lat="45.76265" lon="6.25656">
        <ele>480</ele>
        <time>2019-09-18T20:58:13Z</time>
      </trkpt>
      <trkpt lat="45.76271" lon="6.25668">
        <ele>480</ele>
        <time>2019-09-18T20:58:18Z</time>
      </trkpt>
      <trkpt lat="45.76274" lon="6.25682">
        <ele>481</ele>
        <time>2019-09-18T20:58:23Z</time>
      </trkpt>
      <trkpt lat="45.76274" lon="6.25729">
        <ele>481</ele>
        <time>2019-09-18T20:58:39Z</time>
      </trkpt>
      <trkpt lat="45.76269" lon="6.25753">
        <ele>481</ele>
        <time>2019-09-18T20:58:48Z</time>
      </trkpt>
      <trkpt lat="45.76269" lon="6.25765">
        <ele>481</ele>
        <time>2019-09-18T20:58:52Z</time>
      </trkpt>
      <trkpt lat="45.76275" lon="6.25847">
        <ele>482</ele>
        <time>2019-09-18T20:59:21Z</time>
      </trkpt>
      <trkpt lat="45.76273" lon="6.25878">
        <ele>482</ele>
        <time>2019-09-18T20:59:32Z</time>
      </trkpt>
      <trkpt lat="45.76279" lon="6.2599">
        <ele>483</ele>
        <time>2019-09-18T21:00:11Z</time>
      </trkpt>
      <trkpt lat="45.76271" lon="6.26151">
        <ele>482</ele>
        <time>2019-09-18T21:01:08Z</time>
      </trkpt>
      <trkpt lat="45.76296" lon="6.26169">
        <ele>483</ele>
        <time>2019-09-18T21:01:22Z</time>
      </trkpt>
      <trkpt lat="45.76367" lon="6.26211">
        <ele>485</ele>
        <time>2019-09-18T21:02:00Z</time>
      </trkpt>
      <trkpt lat="45.76513" lon="6.26313">
        <ele>490</ele>
        <time>2019-09-18T21:03:21Z</time>
      </trkpt>
      <trkpt lat="45.76529" lon="6.26318">
        <ele>490</ele>
        <time>2019-09-18T21:03:30Z</time>
      </trkpt>
      <trkpt lat="45.76556" lon="6.26322">
        <ele>492</ele>
        <time>2019-09-18T21:03:43Z</time>
      </trkpt>
      <trkpt lat="45.76574" lon="6.2632">
        <ele>493</ele>
        <time>2019-09-18T21:03:52Z</time>
      </trkpt>
      <trkpt lat="45.76595" lon="6.26304">
        <ele>495</ele>
        <time>2019-09-18T21:04:04Z</time>
      </trkpt>
      <trkpt lat="45.76603" lon="6.26303">
        <ele>496</ele>
        <time>2019-09-18T21:04:08Z</time>
      </trkpt>
      <trkpt lat="45.76609" lon="6.26297">
        <ele>497</ele>
        <time>2019-09-18T21:04:12Z</time>
      </trkpt>
      <trkpt lat="45.76638" lon="6.26281">
        <ele>499</ele>
        <time>2019-09-18T21:04:27Z</time>
      </trkpt>
      <trkpt lat="45.76647" lon="6.26272">
        <ele>499</ele>
        <time>2019-09-18T21:04:33Z</time>
      </trkpt>
      <trkpt lat="45.76666" lon="6.26247">
        <ele>497</ele>
        <time>2019-09-18T21:04:46Z</time>
      </trkpt>
      <trkpt lat="45.76697" lon="6.26191">
        <ele>499</ele>
        <time>2019-09-18T21:05:11Z</time>
      </trkpt>
      <trkpt lat="45.76718" lon="6.26166">
        <ele>499</ele>
        <time>2019-09-18T21:05:24Z</time>
      </trkpt>
      <trkpt lat="45.76724" lon="6.26154">
        <ele>499</ele>
        <time>2019-09-18T21:05:29Z</time>
      </trkpt>
      <trkpt lat="45.76733" lon="6.26145">
        <ele>500</ele>
        <time>2019-09-18T21:05:35Z</time>
      </trkpt>
      <trkpt lat="45.76738" lon="6.26132">
        <ele>500</ele>
        <time>2019-09-18T21:05:40Z</time>
      </trkpt>
      <trkpt lat="45.76784" lon="6.26071">
        <ele>503</ele>
        <time>2019-09-18T21:06:11Z</time>
      </trkpt>
      <trkpt lat="45.76802" lon="6.26035">
        <ele>503</ele>
        <time>2019-09-18T21:06:27Z</time>
      </trkpt>
      <trkpt lat="45.76818" lon="6.26013">
        <ele>503</ele>
        <time>2019-09-18T21:06:38Z</time>
      </trkpt>
      <trkpt lat="45.76824" lon="6.2601">
        <ele>503</ele>
        <time>2019-09-18T21:06:41Z</time>
      </trkpt>
      <trkpt lat="45.76838" lon="6.26013">
        <ele>504</ele>
        <time>2019-09-18T21:06:48Z</time>
      </trkpt>
      <trkpt lat="45.76908" lon="6.26061">
        <ele>516</ele>
        <time>2019-09-18T21:07:27Z</time>
      </trkpt>
      <trkpt lat="45.76925" lon="6.26093">
        <ele>525</ele>
        <time>2019-09-18T21:07:41Z</time>
      </trkpt>
      <trkpt lat="45.76934" lon="6.26102">
        <ele>531</ele>
        <time>2019-09-18T21:07:47Z</time>
      </trkpt>
      <trkpt lat="45.76946" lon="6.26107">
        <ele>537</ele>
        <time>2019-09-18T21:07:53Z</time>
      </trkpt>
      <trkpt lat="45.76977" lon="6.26103">
        <ele>543</ele>
        <time>2019-09-18T21:08:08Z</time>
      </trkpt>
      <trkpt lat="45.77007" lon="6.26113">
        <ele>557</ele>
        <time>2019-09-18T21:08:24Z</time>
      </trkpt>
      <trkpt lat="45.77018" lon="6.26106">
        <ele>555</ele>
        <time>2019-09-18T21:08:30Z</time>
      </trkpt>
      <trkpt lat="45.77042" lon="6.26111">
        <ele>564</ele>
        <time>2019-09-18T21:08:42Z</time>
      </trkpt>
      <trkpt lat="45.77052" lon="6.26107">
        <ele>564</ele>
        <time>2019-09-18T21:08:47Z</time>
      </trkpt>
      <trkpt lat="45.77071" lon="6.26108">
        <ele>569</ele>
        <time>2019-09-18T21:08:57Z</time>
      </trkpt>
      <trkpt lat="45.7708" lon="6.26103">
        <ele>568</ele>
        <time>2019-09-18T21:09:02Z</time>
      </trkpt>
      <trkpt lat="45.77094" lon="6.26084">
        <ele>561</ele>
        <time>2019-09-18T21:09:11Z</time>
      </trkpt>
      <trkpt lat="45.77102" lon="6.26092">
        <ele>569</ele>
        <time>2019-09-18T21:09:16Z</time>
      </trkpt>
      <trkpt lat="45.77093" lon="6.26117">
        <ele>581</ele>
        <time>2019-09-18T21:09:26Z</time>
      </trkpt>
      <trkpt lat="45.77079" lon="6.2614">
        <ele>590</ele>
        <time>2019-09-18T21:09:37Z</time>
      </trkpt>
      <trkpt lat="45.77032" lon="6.2615">
        <ele>584</ele>
        <time>2019-09-18T21:10:00Z</time>
      </trkpt>
      <trkpt lat="45.77023" lon="6.26158">
        <ele>586</ele>
        <time>2019-09-18T21:10:06Z</time>
      </trkpt>
      <trkpt lat="45.77016" lon="6.26171">
        <ele>591</ele>
        <time>2019-09-18T21:10:11Z</time>
      </trkpt>
      <trkpt lat="45.76991" lon="6.26197">
        <ele>596</ele>
        <time>2019-09-18T21:10:27Z</time>
      </trkpt>
      <trkpt lat="45.76939" lon="6.26244">
        <ele>603</ele>
        <time>2019-09-18T21:10:58Z</time>
      </trkpt>
      <trkpt lat="45.76932" lon="6.26257">
        <ele>608</ele>
        <time>2019-09-18T21:11:03Z</time>
      </trkpt>
      <trkpt lat="45.76951" lon="6.26251">
        <ele>611</ele>
        <time>2019-09-18T21:11:13Z</time>
      </trkpt>
      <trkpt lat="45.76958" lon="6.26243">
        <ele>609</ele>
        <time>2019-09-18T21:11:18Z</time>
      </trkpt>
      <trkpt lat="45.76969" lon="6.26238">
        <ele>610</ele>
        <time>2019-09-18T21:11:23Z</time>
      </trkpt>
      <trkpt lat="45.76988" lon="6.26236">
        <ele>615</ele>
        <time>2019-09-18T21:11:33Z</time>
      </trkpt>
      <trkpt lat="45.76997" lon="6.26232">
        <ele>616</ele>
        <time>2019-09-18T21:11:38Z</time>
      </trkpt>
      <trkpt lat="45.77027" lon="6.26231">
        <ele>627</ele>
        <time>2019-09-18T21:11:53Z</time>
      </trkpt>
      <trkpt lat="45.77047" lon="6.26227">
        <ele>632</ele>
        <time>2019-09-18T21:12:03Z</time>
      </trkpt>
      <trkpt lat="45.77065" lon="6.2622">
        <ele>635</ele>
        <time>2019-09-18T21:12:12Z</time>
      </trkpt>
      <trkpt lat="45.77083" lon="6.26208">
        <ele>634</ele>
        <time>2019-09-18T21:12:22Z</time>
      </trkpt>
      <trkpt lat="45.77112" lon="6.26208">
        <ele>644</ele>
        <time>2019-09-18T21:12:36Z</time>
      </trkpt>
      <trkpt lat="45.77122" lon="6.26205">
        <ele>646</ele>
        <time>2019-09-18T21:12:42Z</time>
      </trkpt>
      <trkpt lat="45.77131" lon="6.26197">
        <ele>644</ele>
        <time>2019-09-18T21:12:47Z</time>
      </trkpt>
      <trkpt lat="45.77149" lon="6.26187">
        <ele>644</ele>
        <time>2019-09-18T21:12:57Z</time>
      </trkpt>
      <trkpt lat="45.77159" lon="6.26186">
        <ele>647</ele>
        <time>2019-09-18T21:13:02Z</time>
      </trkpt>
      <trkpt lat="45.77198" lon="6.26174">
        <ele>650</ele>
        <time>2019-09-18T21:13:22Z</time>
      </trkpt>
      <trkpt lat="45.77248" lon="6.2617">
        <ele>661</ele>
        <time>2019-09-18T21:13:47Z</time>
      </trkpt>
      <trkpt lat="45.77268" lon="6.26173">
        <ele>668</ele>
        <time>2019-09-18T21:13:57Z</time>
      </trkpt>
      <trkpt lat="45.77287" lon="6.26172">
        <ele>672</ele>
        <time>2019-09-18T21:14:06Z</time>
      </trkpt>
      <trkpt lat="45.77307" lon="6.26168">
        <ele>674</ele>
        <time>2019-09-18T21:14:16Z</time>
      </trkpt>
      <trkpt lat="45.77346" lon="6.26176">
        <ele>685</ele>
        <time>2019-09-18T21:14:36Z</time>
      </trkpt>
      <trkpt lat="45.77365" lon="6.26168">
        <ele>677</ele>
        <time>2019-09-18T21:14:46Z</time>
      </trkpt>
      <trkpt lat="45.77394" lon="6.26178">
        <ele>683</ele>
        <time>2019-09-18T21:15:01Z</time>
      </trkpt>
      <trkpt lat="45.77403" lon="6.26179">
        <ele>683</ele>
        <time>2019-09-18T21:15:05Z</time>
      </trkpt>
      <trkpt lat="45.77487" lon="6.26227">
        <ele>700</ele>
        <time>2019-09-18T21:15:51Z</time>
      </trkpt>
      <trkpt lat="45.77555" lon="6.26278">
        <ele>707</ele>
        <time>2019-09-18T21:16:29Z</time>
      </trkpt>
      <trkpt lat="45.7756" lon="6.26291">
        <ele>711</ele>
        <time>2019-09-18T21:16:34Z</time>
      </trkpt>
      <trkpt lat="45.77567" lon="6.26301">
        <ele>712</ele>
        <time>2019-09-18T21:16:39Z</time>
      </trkpt>
      <trkpt lat="45.77587" lon="6.26352">
        <ele>726</ele>
        <time>2019-09-18T21:17:00Z</time>
      </trkpt>
      <trkpt lat="45.77662" lon="6.26422">
        <ele>734</ele>
        <time>2019-09-18T21:17:44Z</time>
      </trkpt>
      <trkpt lat="45.77681" lon="6.2646">
        <ele>750</ele>
        <time>2019-09-18T21:18:01Z</time>
      </trkpt>
      <trkpt lat="45.77685" lon="6.26475">
        <ele>756</ele>
        <time>2019-09-18T21:18:06Z</time>
      </trkpt>
      <trkpt lat="45.77699" lon="6.26494">
        <ele>762</ele>
        <time>2019-09-18T21:18:16Z</time>
      </trkpt>
      <trkpt lat="45.77704" lon="6.26508">
        <ele>766</ele>
        <time>2019-09-18T21:18:21Z</time>
      </trkpt>
      <trkpt lat="45.77714" lon="6.26522">
        <ele>769</ele>
        <time>2019-09-18T21:18:28Z</time>
      </trkpt>
      <trkpt lat="45.77717" lon="6.2652">
        <ele>768</ele>
        <time>2019-09-18T21:18:30Z</time>
      </trkpt>
      <trkpt lat="45.77723" lon="6.26506">
        <ele>765</ele>
        <time>2019-09-18T21:18:36Z</time>
      </trkpt>
      <trkpt lat="45.77726" lon="6.26478">
        <ele>763</ele>
        <time>2019-09-18T21:18:46Z</time>
      </trkpt>
      <trkpt lat="45.77732" lon="6.26465">
        <ele>763</ele>
        <time>2019-09-18T21:18:51Z</time>
      </trkpt>
      <trkpt lat="45.77729" lon="6.2645">
        <ele>762</ele>
        <time>2019-09-18T21:18:57Z</time>
      </trkpt>
      <trkpt lat="45.77739" lon="6.26426">
        <ele>765</ele>
        <time>2019-09-18T21:19:06Z</time>
      </trkpt>
      <trkpt lat="45.77742" lon="6.26412">
        <ele>766</ele>
        <time>2019-09-18T21:19:11Z</time>
      </trkpt>
      <trkpt lat="45.7774" lon="6.26382">
        <ele>767</ele>
        <time>2019-09-18T21:19:22Z</time>
      </trkpt>
      <trkpt lat="45.77743" lon="6.26396">
        <ele>768</ele>
        <time>2019-09-18T21:19:27Z</time>
      </trkpt>
      <trkpt lat="45.77741" lon="6.26427">
        <ele>766</ele>
        <time>2019-09-18T21:19:38Z</time>
      </trkpt>
      <trkpt lat="45.77746" lon="6.26456">
        <ele>767</ele>
        <time>2019-09-18T21:19:48Z</time>
      </trkpt>
      <trkpt lat="45.77746" lon="6.26469">
        <ele>766</ele>
        <time>2019-09-18T21:19:53Z</time>
      </trkpt>
      <trkpt lat="45.77754" lon="6.26495">
        <ele>768</ele>
        <time>2019-09-18T21:20:03Z</time>
      </trkpt>
      <trkpt lat="45.77764" lon="6.26546">
        <ele>777</ele>
        <time>2019-09-18T21:20:21Z</time>
      </trkpt>
      <trkpt lat="45.77771" lon="6.26559">
        <ele>782</ele>
        <time>2019-09-18T21:20:27Z</time>
      </trkpt>
      <trkpt lat="45.77771" lon="6.26574">
        <ele>783</ele>
        <time>2019-09-18T21:20:32Z</time>
      </trkpt>
      <trkpt lat="45.7778" lon="6.266">
        <ele>790</ele>
        <time>2019-09-18T21:20:42Z</time>
      </trkpt>
      <trkpt lat="45.77786" lon="6.2661">
        <ele>793</ele>
        <time>2019-09-18T21:20:47Z</time>
      </trkpt>
      <trkpt lat="45.77795" lon="6.26618">
        <ele>797</ele>
        <time>2019-09-18T21:20:52Z</time>
      </trkpt>
      <trkpt lat="45.77815" lon="6.26629">
        <ele>803</ele>
        <time>2019-09-18T21:21:03Z</time>
      </trkpt>
      <trkpt lat="45.77834" lon="6.26636">
        <ele>809</ele>
        <time>2019-09-18T21:21:13Z</time>
      </trkpt>
      <trkpt lat="45.77851" lon="6.26647">
        <ele>816</ele>
        <time>2019-09-18T21:21:22Z</time>
      </trkpt>
      <trkpt lat="45.77861" lon="6.26668">
        <ele>819</ele>
        <time>2019-09-18T21:21:31Z</time>
      </trkpt>
      <trkpt lat="45.77882" lon="6.26682">
        <ele>829</ele>
        <time>2019-09-18T21:21:43Z</time>
      </trkpt>
      <trkpt lat="45.77891" lon="6.26679">
        <ele>832</ele>
        <time>2019-09-18T21:21:47Z</time>
      </trkpt>
      <trkpt lat="45.77884" lon="6.2667">
        <ele>829</ele>
        <time>2019-09-18T21:21:52Z</time>
      </trkpt>
      <trkpt lat="45.77875" lon="6.26668">
        <ele>825</ele>
        <time>2019-09-18T21:21:57Z</time>
      </trkpt>
      <trkpt lat="45.77861" lon="6.26651">
        <ele>821</ele>
        <time>2019-09-18T21:22:06Z</time>
      </trkpt>
      <trkpt lat="45.77853" lon="6.26611">
        <ele>821</ele>
        <time>2019-09-18T21:22:20Z</time>
      </trkpt>
      <trkpt lat="45.77853" lon="6.26568">
        <ele>825</ele>
        <time>2019-09-18T21:22:35Z</time>
      </trkpt>
      <trkpt lat="45.77844" lon="6.2653">
        <ele>821</ele>
        <time>2019-09-18T21:22:49Z</time>
      </trkpt>
      <trkpt lat="45.77844" lon="6.26499">
        <ele>823</ele>
        <time>2019-09-18T21:23:00Z</time>
      </trkpt>
      <trkpt lat="45.77852" lon="6.26474">
        <ele>828</ele>
        <time>2019-09-18T21:23:10Z</time>
      </trkpt>
      <trkpt lat="45.77852" lon="6.26458">
        <ele>829</ele>
        <time>2019-09-18T21:23:15Z</time>
      </trkpt>
      <trkpt lat="45.77861" lon="6.26417">
        <ele>834</ele>
        <time>2019-09-18T21:23:30Z</time>
      </trkpt>
      <trkpt lat="45.77871" lon="6.26391">
        <ele>838</ele>
        <time>2019-09-18T21:23:41Z</time>
      </trkpt>
      <trkpt lat="45.77875" lon="6.26361">
        <ele>838</ele>
        <time>2019-09-18T21:23:51Z</time>
      </trkpt>
      <trkpt lat="45.77884" lon="6.26335">
        <ele>840</ele>
        <time>2019-09-18T21:24:01Z</time>
      </trkpt>
      <trkpt lat="45.77911" lon="6.26317">
        <ele>846</ele>
        <time>2019-09-18T21:24:16Z</time>
      </trkpt>
      <trkpt lat="45.77918" lon="6.26309">
        <ele>846</ele>
        <time>2019-09-18T21:24:21Z</time>
      </trkpt>
      <trkpt lat="45.77937" lon="6.26302">
        <ele>848</ele>
        <time>2019-09-18T21:24:31Z</time>
      </trkpt>
      <trkpt lat="45.77947" lon="6.26303">
        <ele>851</ele>
        <time>2019-09-18T21:24:36Z</time>
      </trkpt>
      <trkpt lat="45.77957" lon="6.26298">
        <ele>852</ele>
        <time>2019-09-18T21:24:41Z</time>
      </trkpt>
      <trkpt lat="45.77962" lon="6.26313">
        <ele>858</ele>
        <time>2019-09-18T21:24:47Z</time>
      </trkpt>
      <trkpt lat="45.77956" lon="6.26325">
        <ele>860</ele>
        <time>2019-09-18T21:24:52Z</time>
      </trkpt>
      <trkpt lat="45.77935" lon="6.26333">
        <ele>858</ele>
        <time>2019-09-18T21:25:03Z</time>
      </trkpt>
      <trkpt lat="45.77927" lon="6.26343">
        <ele>858</ele>
        <time>2019-09-18T21:25:08Z</time>
      </trkpt>
      <trkpt lat="45.77924" lon="6.26356">
        <ele>859</ele>
        <time>2019-09-18T21:25:13Z</time>
      </trkpt>
      <trkpt lat="45.77917" lon="6.26396">
        <ele>862</ele>
        <time>2019-09-18T21:25:27Z</time>
      </trkpt>
      <trkpt lat="45.77917" lon="6.26426">
        <ele>865</ele>
        <time>2019-09-18T21:25:38Z</time>
      </trkpt>
      <trkpt lat="45.77924" lon="6.26482">
        <ele>872</ele>
        <time>2019-09-18T21:25:58Z</time>
      </trkpt>
      <trkpt lat="45.77934" lon="6.26509">
        <ele>878</ele>
        <time>2019-09-18T21:26:08Z</time>
      </trkpt>
      <trkpt lat="45.77946" lon="6.26562">
        <ele>882</ele>
        <time>2019-09-18T21:26:28Z</time>
      </trkpt>
      <trkpt lat="45.77952" lon="6.26574">
        <ele>885</ele>
        <time>2019-09-18T21:26:33Z</time>
      </trkpt>
      <trkpt lat="45.77984" lon="6.26608">
        <ele>896</ele>
        <time>2019-09-18T21:26:53Z</time>
      </trkpt>
      <trkpt lat="45.78004" lon="6.26656">
        <ele>893</ele>
        <time>2019-09-18T21:27:12Z</time>
      </trkpt>
      <trkpt lat="45.78012" lon="6.26662">
        <ele>894</ele>
        <time>2019-09-18T21:27:17Z</time>
      </trkpt>
      <trkpt lat="45.78073" lon="6.26656">
        <ele>914</ele>
        <time>2019-09-18T21:27:47Z</time>
      </trkpt>
      <trkpt lat="45.78083" lon="6.26657">
        <ele>917</ele>
        <time>2019-09-18T21:27:52Z</time>
      </trkpt>
      <trkpt lat="45.78099" lon="6.26671">
        <ele>916</ele>
        <time>2019-09-18T21:28:02Z</time>
      </trkpt>
      <trkpt lat="45.78155" lon="6.26696">
        <ele>923</ele>
        <time>2019-09-18T21:28:31Z</time>
      </trkpt>
      <trkpt lat="45.78175" lon="6.26696">
        <ele>928</ele>
        <time>2019-09-18T21:28:41Z</time>
      </trkpt>
      <trkpt lat="45.78196" lon="6.26703">
        <ele>932</ele>
        <time>2019-09-18T21:28:52Z</time>
      </trkpt>
      <trkpt lat="45.78206" lon="6.267">
        <ele>935</ele>
        <time>2019-09-18T21:28:57Z</time>
      </trkpt>
      <trkpt lat="45.78216" lon="6.26701">
        <ele>937</ele>
        <time>2019-09-18T21:29:02Z</time>
      </trkpt>
      <trkpt lat="45.78235" lon="6.26695">
        <ele>942</ele>
        <time>2019-09-18T21:29:12Z</time>
      </trkpt>
      <trkpt lat="45.78264" lon="6.267">
        <ele>948</ele>
        <time>2019-09-18T21:29:26Z</time>
      </trkpt>
      <trkpt lat="45.78334" lon="6.26662">
        <ele>959</ele>
        <time>2019-09-18T21:30:04Z</time>
      </trkpt>
      <trkpt lat="45.78382" lon="6.26626">
        <ele>969</ele>
        <time>2019-09-18T21:30:31Z</time>
      </trkpt>
      <trkpt lat="45.78395" lon="6.26606">
        <ele>971</ele>
        <time>2019-09-18T21:30:41Z</time>
      </trkpt>
      <trkpt lat="45.78406" lon="6.26579">
        <ele>972</ele>
        <time>2019-09-18T21:30:51Z</time>
      </trkpt>
      <trkpt lat="45.78414" lon="6.26573">
        <ele>972</ele>
        <time>2019-09-18T21:30:56Z</time>
      </trkpt>
      <trkpt lat="45.78425" lon="6.26572">
        <ele>973</ele>
        <time>2019-09-18T21:31:01Z</time>
      </trkpt>
      <trkpt lat="45.78441" lon="6.2658">
        <ele>976</ele>
        <time>2019-09-18T21:31:10Z</time>
      </trkpt>
      <trkpt lat="45.78451" lon="6.26582">
        <ele>977</ele>
        <time>2019-09-18T21:31:15Z</time>
      </trkpt>
      <trkpt lat="45.78458" lon="6.26587">
        <ele>978</ele>
        <time>2019-09-18T21:31:19Z</time>
      </trkpt>
      <trkpt lat="45.78502" lon="6.26597">
        <ele>984</ele>
        <time>2019-09-18T21:31:41Z</time>
      </trkpt>
      <trkpt lat="45.7855" lon="6.26582">
        <ele>992</ele>
        <time>2019-09-18T21:32:06Z</time>
      </trkpt>
      <trkpt lat="45.78583" lon="6.26558">
        <ele>995</ele>
        <time>2019-09-18T21:32:24Z</time>
      </trkpt>
      <trkpt lat="45.78615" lon="6.2655">
        <ele>998</ele>
        <time>2019-09-18T21:32:41Z</time>
      </trkpt>
      <trkpt lat="45.78643" lon="6.26538">
        <ele>1001</ele>
        <time>2019-09-18T21:32:55Z</time>
      </trkpt>
      <trkpt lat="45.78667" lon="6.26535">
        <ele>1005</ele>
        <time>2019-09-18T21:33:07Z</time>
      </trkpt>
      <trkpt lat="45.78682" lon="6.26527">
        <ele>1007</ele>
        <time>2019-09-18T21:33:15Z</time>
      </trkpt>
      <trkpt lat="45.78704" lon="6.26523">
        <ele>1011</ele>
        <time>2019-09-18T21:33:26Z</time>
      </trkpt>
      <trkpt lat="45.78734" lon="6.26523">
        <ele>1017</ele>
        <time>2019-09-18T21:33:41Z</time>
      </trkpt>
      <trkpt lat="45.78744" lon="6.26518">
        <ele>1018</ele>
        <time>2019-09-18T21:33:47Z</time>
      </trkpt>
      <trkpt lat="45.78779" lon="6.26513">
        <ele>1023</ele>
        <time>2019-09-18T21:34:04Z</time>
      </trkpt>
      <trkpt lat="45.78817" lon="6.26518">
        <ele>1028</ele>
        <time>2019-09-18T21:34:23Z</time>
      </trkpt>
      <trkpt lat="45.78835" lon="6.26514">
        <ele>1030</ele>
        <time>2019-09-18T21:34:32Z</time>
      </trkpt>
      <trkpt lat="45.78853" lon="6.26516">
        <ele>1031</ele>
        <time>2019-09-18T21:34:41Z</time>
      </trkpt>
      <trkpt lat="45.78866" lon="6.26512">
        <ele>1031</ele>
        <time>2019-09-18T21:34:48Z</time>
      </trkpt>
      <trkpt lat="45.78878" lon="6.26513">
        <ele>1032</ele>
        <time>2019-09-18T21:34:54Z</time>
      </trkpt>
      <trkpt lat="45.78913" lon="6.26524">
        <ele>1036</ele>
        <time>2019-09-18T21:35:12Z</time>
      </trkpt>
      <trkpt lat="45.78961" lon="6.26527">
        <ele>1038</ele>
        <time>2019-09-18T21:35:36Z</time>
      </trkpt>
      <trkpt lat="45.79" lon="6.26538">
        <ele>1041</ele>
        <time>2019-09-18T21:35:56Z</time>
      </trkpt>
      <trkpt lat="45.79014" lon="6.2654">
        <ele>1040</ele>
        <time>2019-09-18T21:36:03Z</time>
      </trkpt>
      <trkpt lat="45.79021" lon="6.26535">
        <ele>1039</ele>
        <time>2019-09-18T21:36:07Z</time>
      </trkpt>
      <trkpt lat="45.79023" lon="6.26537">
        <ele>1039</ele>
        <time>2019-09-18T21:36:08Z</time>
      </trkpt>
      <trkpt lat="45.7902" lon="6.26539">
        <ele>1040</ele>
        <time>2019-09-18T21:36:10Z</time>
      </trkpt>
      <trkpt lat="45.7902" lon="6.26536">
        <ele>1039</ele>
        <time>2019-09-18T21:36:11Z</time>
      </trkpt>
      <trkpt lat="45.79027" lon="6.26536">
        <ele>1039</ele>
        <time>2019-09-18T21:36:14Z</time>
      </trkpt>
      <trkpt lat="45.79098" lon="6.26574">
        <ele>1038</ele>
        <time>2019-09-18T21:36:52Z</time>
      </trkpt>
      <trkpt lat="45.79111" lon="6.26579">
        <ele>1037</ele>
        <time>2019-09-18T21:36:59Z</time>
      </trkpt>
      <trkpt lat="45.79132" lon="6.2658">
        <ele>1035</ele>
        <time>2019-09-18T21:37:10Z</time>
      </trkpt>
      <trkpt lat="45.79153" lon="6.2659">
        <ele>1033</ele>
        <time>2019-09-18T21:37:21Z</time>
      </trkpt>
      <trkpt lat="45.79172" lon="6.26609">
        <ele>1032</ele>
        <time>2019-09-18T21:37:32Z</time>
      </trkpt>
      <trkpt lat="45.79195" lon="6.26638">
        <ele>1031</ele>
        <time>2019-09-18T21:37:48Z</time>
      </trkpt>
      <trkpt lat="45.79214" lon="6.26675">
        <ele>1032</ele>
        <time>2019-09-18T21:38:04Z</time>
      </trkpt>
      <trkpt lat="45.79243" lon="6.26696">
        <ele>1032</ele>
        <time>2019-09-18T21:38:20Z</time>
      </trkpt>
      <trkpt lat="45.7927" lon="6.26744">
        <ele>1047</ele>
        <time>2019-09-18T21:38:41Z</time>
      </trkpt>
      <trkpt lat="45.79278" lon="6.2675">
        <ele>1050</ele>
        <time>2019-09-18T21:38:46Z</time>
      </trkpt>
      <trkpt lat="45.79318" lon="6.26752">
        <ele>1056</ele>
        <time>2019-09-18T21:39:06Z</time>
      </trkpt>
      <trkpt lat="45.79327" lon="6.2675">
        <ele>1057</ele>
        <time>2019-09-18T21:39:10Z</time>
      </trkpt>
      <trkpt lat="45.79338" lon="6.26726">
        <ele>1052</ele>
        <time>2019-09-18T21:39:20Z</time>
      </trkpt>
      <trkpt lat="45.79346" lon="6.26734">
        <ele>1056</ele>
        <time>2019-09-18T21:39:25Z</time>
      </trkpt>
      <trkpt lat="45.79349" lon="6.26749">
        <ele>1061</ele>
        <time>2019-09-18T21:39:31Z</time>
      </trkpt>
      <trkpt lat="45.79373" lon="6.26797">
        <ele>1080</ele>
        <time>2019-09-18T21:39:51Z</time>
      </trkpt>
      <trkpt lat="45.7938" lon="6.26824">
        <ele>1088</ele>
        <time>2019-09-18T21:40:01Z</time>
      </trkpt>
      <trkpt lat="45.7938" lon="6.26851">
        <ele>1096</ele>
        <time>2019-09-18T21:40:11Z</time>
      </trkpt>
      <trkpt lat="45.7939" lon="6.26845">
        <ele>1096</ele>
        <time>2019-09-18T21:40:16Z</time>
      </trkpt>
      <trkpt lat="45.7939" lon="6.26832">
        <ele>1093</ele>
        <time>2019-09-18T21:40:21Z</time>
      </trkpt>
      <trkpt lat="45.79395" lon="6.26819">
        <ele>1090</ele>
        <time>2019-09-18T21:40:26Z</time>
      </trkpt>
      <trkpt lat="45.7941" lon="6.26802">
        <ele>1088</ele>
        <time>2019-09-18T21:40:36Z</time>
      </trkpt>
      <trkpt lat="45.79429" lon="6.26787">
        <ele>1086</ele>
        <time>2019-09-18T21:40:46Z</time>
      </trkpt>
      <trkpt lat="45.79439" lon="6.26788">
        <ele>1086</ele>
        <time>2019-09-18T21:40:51Z</time>
      </trkpt>
      <trkpt lat="45.79466" lon="6.26799">
        <ele>1089</ele>
        <time>2019-09-18T21:41:06Z</time>
      </trkpt>
      <trkpt lat="45.79483" lon="6.26813">
        <ele>1093</ele>
        <time>2019-09-18T21:41:15Z</time>
      </trkpt>
      <trkpt lat="45.79501" lon="6.26833">
        <ele>1098</ele>
        <time>2019-09-18T21:41:27Z</time>
      </trkpt>
      <trkpt lat="45.79522" lon="6.26838">
        <ele>1097</ele>
        <time>2019-09-18T21:41:37Z</time>
      </trkpt>
      <trkpt lat="45.7953" lon="6.26827">
        <ele>1093</ele>
        <time>2019-09-18T21:41:43Z</time>
      </trkpt>
      <trkpt lat="45.79546" lon="6.26812">
        <ele>1088</ele>
        <time>2019-09-18T21:41:52Z</time>
      </trkpt>
      <trkpt lat="45.79557" lon="6.26808">
        <ele>1086</ele>
        <time>2019-09-18T21:41:58Z</time>
      </trkpt>
      <trkpt lat="45.79567" lon="6.26813">
        <ele>1086</ele>
        <time>2019-09-18T21:42:03Z</time>
      </trkpt>
      <trkpt lat="45.79576" lon="6.2682">
        <ele>1086</ele>
        <time>2019-09-18T21:42:09Z</time>
      </trkpt>
      <trkpt lat="45.79583" lon="6.26831">
        <ele>1088</ele>
        <time>2019-09-18T21:42:14Z</time>
      </trkpt>
      <trkpt lat="45.79601" lon="6.2687">
        <ele>1098</ele>
        <time>2019-09-18T21:42:30Z</time>
      </trkpt>
      <trkpt lat="45.79616" lon="6.26891">
        <ele>1102</ele>
        <time>2019-09-18T21:42:41Z</time>
      </trkpt>
      <trkpt lat="45.79626" lon="6.26885">
        <ele>1099</ele>
        <time>2019-09-18T21:42:46Z</time>
      </trkpt>
      <trkpt lat="45.7964" lon="6.26848">
        <ele>1083</ele>
        <time>2019-09-18T21:43:01Z</time>
      </trkpt>
      <trkpt lat="45.79651" lon="6.26807">
        <ele>1069</ele>
        <time>2019-09-18T21:43:16Z</time>
      </trkpt>
      <trkpt lat="45.79656" lon="6.26778">
        <ele>1061</ele>
        <time>2019-09-18T21:43:26Z</time>
      </trkpt>
      <trkpt lat="45.79661" lon="6.26766">
        <ele>1057</ele>
        <time>2019-09-18T21:43:31Z</time>
      </trkpt>
      <trkpt lat="45.7967" lon="6.26759">
        <ele>1054</ele>
        <time>2019-09-18T21:43:36Z</time>
      </trkpt>
      <trkpt lat="45.79679" lon="6.26761">
        <ele>1053</ele>
        <time>2019-09-18T21:43:41Z</time>
      </trkpt>
      <trkpt lat="45.79696" lon="6.26773">
        <ele>1055</ele>
        <time>2019-09-18T21:43:51Z</time>
      </trkpt>
      <trkpt lat="45.79729" lon="6.26769">
        <ele>1051</ele>
        <time>2019-09-18T21:44:07Z</time>
      </trkpt>
      <trkpt lat="45.79763" lon="6.26769">
        <ele>1050</ele>
        <time>2019-09-18T21:44:24Z</time>
      </trkpt>
      <trkpt lat="45.79783" lon="6.26766">
        <ele>1052</ele>
        <time>2019-09-18T21:44:34Z</time>
      </trkpt>
      <trkpt lat="45.79812" lon="6.26757">
        <ele>1053</ele>
        <time>2019-09-18T21:44:49Z</time>
      </trkpt>
      <trkpt lat="45.79838" lon="6.26735">
        <ele>1048</ele>
        <time>2019-09-18T21:45:04Z</time>
      </trkpt>
      <trkpt lat="45.79847" lon="6.26733">
        <ele>1047</ele>
        <time>2019-09-18T21:45:09Z</time>
      </trkpt>
      <trkpt lat="45.79859" lon="6.26734">
        <ele>1046</ele>
        <time>2019-09-18T21:45:15Z</time>
      </trkpt>
      <trkpt lat="45.79868" lon="6.26738">
        <ele>1046</ele>
        <time>2019-09-18T21:45:19Z</time>
      </trkpt>
      <trkpt lat="45.79891" lon="6.26769">
        <ele>1051</ele>
        <time>2019-09-18T21:45:35Z</time>
      </trkpt>
      <trkpt lat="45.79901" lon="6.26776">
        <ele>1052</ele>
        <time>2019-09-18T21:45:41Z</time>
      </trkpt>
      <trkpt lat="45.79941" lon="6.26796">
        <ele>1060</ele>
        <time>2019-09-18T21:46:02Z</time>
      </trkpt>
      <trkpt lat="45.7995" lon="6.26798">
        <ele>1061</ele>
        <time>2019-09-18T21:46:07Z</time>
      </trkpt>
      <trkpt lat="45.7996" lon="6.26795">
        <ele>1062</ele>
        <time>2019-09-18T21:46:12Z</time>
      </trkpt>
      <trkpt lat="45.79955" lon="6.26784">
        <ele>1059</ele>
        <time>2019-09-18T21:46:16Z</time>
      </trkpt>
      <trkpt lat="45.79955" lon="6.26726">
        <ele>1051</ele>
        <time>2019-09-18T21:46:36Z</time>
      </trkpt>
      <trkpt lat="45.79949" lon="6.26682">
        <ele>1046</ele>
        <time>2019-09-18T21:46:52Z</time>
      </trkpt>
      <trkpt lat="45.79924" lon="6.26617">
        <ele>1035</ele>
        <time>2019-09-18T21:47:18Z</time>
      </trkpt>
      <trkpt lat="45.79927" lon="6.26604">
        <ele>1035</ele>
        <time>2019-09-18T21:47:23Z</time>
      </trkpt>
      <trkpt lat="45.79937" lon="6.2659">
        <ele>1036</ele>
        <time>2019-09-18T21:47:30Z</time>
      </trkpt>
      <trkpt lat="45.79946" lon="6.26585">
        <ele>1038</ele>
        <time>2019-09-18T21:47:35Z</time>
      </trkpt>
      <trkpt lat="45.79967" lon="6.26583">
        <ele>1042</ele>
        <time>2019-09-18T21:47:45Z</time>
      </trkpt>
      <trkpt lat="45.80039" lon="6.2653">
        <ele>1046</ele>
        <time>2019-09-18T21:48:26Z</time>
      </trkpt>
      <trkpt lat="45.80068" lon="6.26484">
        <ele>1044</ele>
        <time>2019-09-18T21:48:47Z</time>
      </trkpt>
      <trkpt lat="45.80077" lon="6.26474">
        <ele>1044</ele>
        <time>2019-09-18T21:48:53Z</time>
      </trkpt>
      <trkpt lat="45.80091" lon="6.26464">
        <ele>1044</ele>
        <time>2019-09-18T21:49:01Z</time>
      </trkpt>
      <trkpt lat="45.80103" lon="6.26461">
        <ele>1044</ele>
        <time>2019-09-18T21:49:07Z</time>
      </trkpt>
      <trkpt lat="45.8013" lon="6.26461">
        <ele>1044</ele>
        <time>2019-09-18T21:49:20Z</time>
      </trkpt>
      <trkpt lat="45.80166" lon="6.26467">
        <ele>1044</ele>
        <time>2019-09-18T21:49:39Z</time>
      </trkpt>
      <trkpt lat="45.80176" lon="6.26472">
        <ele>1045</ele>
        <time>2019-09-18T21:49:44Z</time>
      </trkpt>
      <trkpt lat="45.80189" lon="6.2649">
        <ele>1048</ele>
        <time>2019-09-18T21:49:53Z</time>
      </trkpt>
      <trkpt lat="45.80211" lon="6.26494">
        <ele>1049</ele>
        <time>2019-09-18T21:50:04Z</time>
      </trkpt>
      <trkpt lat="45.80221" lon="6.26489">
        <ele>1049</ele>
        <time>2019-09-18T21:50:09Z</time>
      </trkpt>
      <trkpt lat="45.80247" lon="6.26453">
        <ele>1044</ele>
        <time>2019-09-18T21:50:27Z</time>
      </trkpt>
      <trkpt lat="45.80252" lon="6.2645">
        <ele>1044</ele>
        <time>2019-09-18T21:50:30Z</time>
      </trkpt>
      <trkpt lat="45.80263" lon="6.26449">
        <ele>1045</ele>
        <time>2019-09-18T21:50:36Z</time>
      </trkpt>
      <trkpt lat="45.80274" lon="6.26451">
        <ele>1047</ele>
        <time>2019-09-18T21:50:41Z</time>
      </trkpt>
      <trkpt lat="45.80301" lon="6.26466">
        <ele>1052</ele>
        <time>2019-09-18T21:50:56Z</time>
      </trkpt>
      <trkpt lat="45.8033" lon="6.26473">
        <ele>1056</ele>
        <time>2019-09-18T21:51:10Z</time>
      </trkpt>
      <trkpt lat="45.8034" lon="6.26472">
        <ele>1056</ele>
        <time>2019-09-18T21:51:15Z</time>
      </trkpt>
      <trkpt lat="45.80347" lon="6.26493">
        <ele>1059</ele>
        <time>2019-09-18T21:51:23Z</time>
      </trkpt>
      <trkpt lat="45.80347" lon="6.26507">
        <ele>1061</ele>
        <time>2019-09-18T21:51:28Z</time>
      </trkpt>
      <trkpt lat="45.80359" lon="6.26573">
        <ele>1071</ele>
        <time>2019-09-18T21:51:52Z</time>
      </trkpt>
      <trkpt lat="45.80364" lon="6.26574">
        <ele>1071</ele>
        <time>2019-09-18T21:51:55Z</time>
      </trkpt>
      <trkpt lat="45.80375" lon="6.26596">
        <ele>1076</ele>
        <time>2019-09-18T21:52:04Z</time>
      </trkpt>
      <trkpt lat="45.80383" lon="6.26603">
        <ele>1077</ele>
        <time>2019-09-18T21:52:09Z</time>
      </trkpt>
      <trkpt lat="45.804" lon="6.26645">
        <ele>1085</ele>
        <time>2019-09-18T21:52:26Z</time>
      </trkpt>
      <trkpt lat="45.80409" lon="6.26648">
        <ele>1086</ele>
        <time>2019-09-18T21:52:30Z</time>
      </trkpt>
      <trkpt lat="45.80425" lon="6.26666">
        <ele>1090</ele>
        <time>2019-09-18T21:52:41Z</time>
      </trkpt>
      <trkpt lat="45.80459" lon="6.26718">
        <ele>1104</ele>
        <time>2019-09-18T21:53:05Z</time>
      </trkpt>
      <trkpt lat="45.80467" lon="6.26744">
        <ele>1111</ele>
        <time>2019-09-18T21:53:15Z</time>
      </trkpt>
      <trkpt lat="45.80481" lon="6.26762">
        <ele>1117</ele>
        <time>2019-09-18T21:53:25Z</time>
      </trkpt>
      <trkpt lat="45.80498" lon="6.26773">
        <ele>1121</ele>
        <time>2019-09-18T21:53:34Z</time>
      </trkpt>
      <trkpt lat="45.80518" lon="6.26774">
        <ele>1122</ele>
        <time>2019-09-18T21:53:44Z</time>
      </trkpt>
      <trkpt lat="45.80536" lon="6.26782">
        <ele>1125</ele>
        <time>2019-09-18T21:53:54Z</time>
      </trkpt>
      <trkpt lat="45.80562" lon="6.26801">
        <ele>1131</ele>
        <time>2019-09-18T21:54:08Z</time>
      </trkpt>
      <trkpt lat="45.80571" lon="6.26805">
        <ele>1133</ele>
        <time>2019-09-18T21:54:13Z</time>
      </trkpt>
      <trkpt lat="45.80581" lon="6.26806">
        <ele>1134</ele>
        <time>2019-09-18T21:54:18Z</time>
      </trkpt>
      <trkpt lat="45.80606" lon="6.26814">
        <ele>1133</ele>
        <time>2019-09-18T21:54:31Z</time>
      </trkpt>
      <trkpt lat="45.80625" lon="6.26829">
        <ele>1134</ele>
        <time>2019-09-18T21:54:42Z</time>
      </trkpt>
      <trkpt lat="45.80633" lon="6.26839">
        <ele>1135</ele>
        <time>2019-09-18T21:54:47Z</time>
      </trkpt>
      <trkpt lat="45.80645" lon="6.2688">
        <ele>1142</ele>
        <time>2019-09-18T21:55:02Z</time>
      </trkpt>
      <trkpt lat="45.8064" lon="6.26907">
        <ele>1150</ele>
        <time>2019-09-18T21:55:12Z</time>
      </trkpt>
      <trkpt lat="45.80641" lon="6.26921">
        <ele>1154</ele>
        <time>2019-09-18T21:55:17Z</time>
      </trkpt>
      <trkpt lat="45.80645" lon="6.26934">
        <ele>1158</ele>
        <time>2019-09-18T21:55:22Z</time>
      </trkpt>
      <trkpt lat="45.80652" lon="6.26946">
        <ele>1161</ele>
        <time>2019-09-18T21:55:27Z</time>
      </trkpt>
      <trkpt lat="45.8066" lon="6.26953">
        <ele>1162</ele>
        <time>2019-09-18T21:55:32Z</time>
      </trkpt>
      <trkpt lat="45.8068" lon="6.26959">
        <ele>1161</ele>
        <time>2019-09-18T21:55:42Z</time>
      </trkpt>
      <trkpt lat="45.80708" lon="6.26951">
        <ele>1157</ele>
        <time>2019-09-18T21:55:57Z</time>
      </trkpt>
      <trkpt lat="45.80728" lon="6.26951">
        <ele>1156</ele>
        <time>2019-09-18T21:56:07Z</time>
      </trkpt>
      <trkpt lat="45.80739" lon="6.26947">
        <ele>1154</ele>
        <time>2019-09-18T21:56:12Z</time>
      </trkpt>
      <trkpt lat="45.80748" lon="6.26947">
        <ele>1153</ele>
        <time>2019-09-18T21:56:17Z</time>
      </trkpt>
      <trkpt lat="45.80758" lon="6.26952">
        <ele>1154</ele>
        <time>2019-09-18T21:56:22Z</time>
      </trkpt>
      <trkpt lat="45.80792" lon="6.26989">
        <ele>1161</ele>
        <time>2019-09-18T21:56:43Z</time>
      </trkpt>
      <trkpt lat="45.8082" lon="6.27006">
        <ele>1162</ele>
        <time>2019-09-18T21:56:59Z</time>
      </trkpt>
      <trkpt lat="45.80841" lon="6.27015">
        <ele>1164</ele>
        <time>2019-09-18T21:57:10Z</time>
      </trkpt>
      <trkpt lat="45.80852" lon="6.27023">
        <ele>1169</ele>
        <time>2019-09-18T21:57:16Z</time>
      </trkpt>
      <trkpt lat="45.80863" lon="6.27033">
        <ele>1173</ele>
        <time>2019-09-18T21:57:22Z</time>
      </trkpt>
      <trkpt lat="45.80885" lon="6.27064">
        <ele>1181</ele>
        <time>2019-09-18T21:57:38Z</time>
      </trkpt>
      <trkpt lat="45.80892" lon="6.27051">
        <ele>1180</ele>
        <time>2019-09-18T21:57:43Z</time>
      </trkpt>
      <trkpt lat="45.80887" lon="6.27022">
        <ele>1175</ele>
        <time>2019-09-18T21:57:54Z</time>
      </trkpt>
      <trkpt lat="45.80895" lon="6.26965">
        <ele>1170</ele>
        <time>2019-09-18T21:58:14Z</time>
      </trkpt>
      <trkpt lat="45.80909" lon="6.26926">
        <ele>1172</ele>
        <time>2019-09-18T21:58:29Z</time>
      </trkpt>
      <trkpt lat="45.80916" lon="6.26915">
        <ele>1174</ele>
        <time>2019-09-18T21:58:35Z</time>
      </trkpt>
      <trkpt lat="45.80924" lon="6.26905">
        <ele>1177</ele>
        <time>2019-09-18T21:58:40Z</time>
      </trkpt>
      <trkpt lat="45.80941" lon="6.26893">
        <ele>1184</ele>
        <time>2019-09-18T21:58:49Z</time>
      </trkpt>
      <trkpt lat="45.80947" lon="6.26884">
        <ele>1186</ele>
        <time>2019-09-18T21:58:54Z</time>
      </trkpt>
      <trkpt lat="45.8094" lon="6.26859">
        <ele>1183</ele>
        <time>2019-09-18T21:59:03Z</time>
      </trkpt>
      <trkpt lat="45.80941" lon="6.26849">
        <ele>1183</ele>
        <time>2019-09-18T21:59:07Z</time>
      </trkpt>
      <trkpt lat="45.80947" lon="6.26838">
        <ele>1185</ele>
        <time>2019-09-18T21:59:12Z</time>
      </trkpt>
      <trkpt lat="45.80976" lon="6.26834">
        <ele>1194</ele>
        <time>2019-09-18T21:59:26Z</time>
      </trkpt>
      <trkpt lat="45.80986" lon="6.26834">
        <ele>1197</ele>
        <time>2019-09-18T21:59:31Z</time>
      </trkpt>
      <trkpt lat="45.80995" lon="6.26837">
        <ele>1200</ele>
        <time>2019-09-18T21:59:36Z</time>
      </trkpt>
      <trkpt lat="45.81017" lon="6.26835">
        <ele>1207</ele>
        <time>2019-09-18T21:59:47Z</time>
      </trkpt>
      <trkpt lat="45.81025" lon="6.26828">
        <ele>1209</ele>
        <time>2019-09-18T21:59:52Z</time>
      </trkpt>
      <trkpt lat="45.81022" lon="6.26811">
        <ele>1206</ele>
        <time>2019-09-18T21:59:58Z</time>
      </trkpt>
      <trkpt lat="45.81013" lon="6.26784">
        <ele>1200</ele>
        <time>2019-09-18T22:00:08Z</time>
      </trkpt>
      <trkpt lat="45.81012" lon="6.2677">
        <ele>1198</ele>
        <time>2019-09-18T22:00:13Z</time>
      </trkpt>
      <trkpt lat="45.81018" lon="6.26714">
        <ele>1191</ele>
        <time>2019-09-18T22:00:33Z</time>
      </trkpt>
      <trkpt lat="45.81029" lon="6.26688">
        <ele>1189</ele>
        <time>2019-09-18T22:00:43Z</time>
      </trkpt>
      <trkpt lat="45.81038" lon="6.26683">
        <ele>1189</ele>
        <time>2019-09-18T22:00:48Z</time>
      </trkpt>
      <trkpt lat="45.81058" lon="6.26686">
        <ele>1194</ele>
        <time>2019-09-18T22:00:58Z</time>
      </trkpt>
      <trkpt lat="45.81084" lon="6.26711">
        <ele>1207</ele>
        <time>2019-09-18T22:01:14Z</time>
      </trkpt>
      <trkpt lat="45.81093" lon="6.26712">
        <ele>1209</ele>
        <time>2019-09-18T22:01:18Z</time>
      </trkpt>
      <trkpt lat="45.81129" lon="6.26728">
        <ele>1219</ele>
        <time>2019-09-18T22:01:37Z</time>
      </trkpt>
      <trkpt lat="45.81148" lon="6.26741">
        <ele>1227</ele>
        <time>2019-09-18T22:01:48Z</time>
      </trkpt>
      <trkpt lat="45.81157" lon="6.26742">
        <ele>1228</ele>
        <time>2019-09-18T22:01:52Z</time>
      </trkpt>
      <trkpt lat="45.81165" lon="6.2675">
        <ele>1233</ele>
        <time>2019-09-18T22:01:57Z</time>
      </trkpt>
      <trkpt lat="45.81185" lon="6.26759">
        <ele>1239</ele>
        <time>2019-09-18T22:02:08Z</time>
      </trkpt>
      <trkpt lat="45.81198" lon="6.26759">
        <ele>1241</ele>
        <time>2019-09-18T22:02:14Z</time>
      </trkpt>
      <trkpt lat="45.81209" lon="6.26755">
        <ele>1240</ele>
        <time>2019-09-18T22:02:20Z</time>
      </trkpt>
      <trkpt lat="45.81227" lon="6.26743">
        <ele>1238</ele>
        <time>2019-09-18T22:02:30Z</time>
      </trkpt>
      <trkpt lat="45.81238" lon="6.26716">
        <ele>1229</ele>
        <time>2019-09-18T22:02:41Z</time>
      </trkpt>
      <trkpt lat="45.81249" lon="6.26713">
        <ele>1230</ele>
        <time>2019-09-18T22:02:46Z</time>
      </trkpt>
      <trkpt lat="45.81264" lon="6.26693">
        <ele>1225</ele>
        <time>2019-09-18T22:02:57Z</time>
      </trkpt>
      <trkpt lat="45.81293" lon="6.26676">
        <ele>1223</ele>
        <time>2019-09-18T22:03:12Z</time>
      </trkpt>
      <trkpt lat="45.81324" lon="6.26667">
        <ele>1225</ele>
        <time>2019-09-18T22:03:28Z</time>
      </trkpt>
      <trkpt lat="45.81334" lon="6.26672">
        <ele>1228</ele>
        <time>2019-09-18T22:03:33Z</time>
      </trkpt>
      <trkpt lat="45.81341" lon="6.26684">
        <ele>1235</ele>
        <time>2019-09-18T22:03:39Z</time>
      </trkpt>
      <trkpt lat="45.8135" lon="6.26679">
        <ele>1236</ele>
        <time>2019-09-18T22:03:44Z</time>
      </trkpt>
      <trkpt lat="45.81366" lon="6.26655">
        <ele>1232</ele>
        <time>2019-09-18T22:03:55Z</time>
      </trkpt>
      <trkpt lat="45.81383" lon="6.26637">
        <ele>1231</ele>
        <time>2019-09-18T22:04:06Z</time>
      </trkpt>
      <trkpt lat="45.81394" lon="6.26615">
        <ele>1226</ele>
        <time>2019-09-18T22:04:15Z</time>
      </trkpt>
      <trkpt lat="45.81401" lon="6.26572">
        <ele>1213</ele>
        <time>2019-09-18T22:04:31Z</time>
      </trkpt>
      <trkpt lat="45.81415" lon="6.26553">
        <ele>1211</ele>
        <time>2019-09-18T22:04:40Z</time>
      </trkpt>
      <trkpt lat="45.81435" lon="6.26541">
        <ele>1211</ele>
        <time>2019-09-18T22:04:51Z</time>
      </trkpt>
      <trkpt lat="45.81448" lon="6.26539">
        <ele>1213</ele>
        <time>2019-09-18T22:04:58Z</time>
      </trkpt>
      <trkpt lat="45.81485" lon="6.26521">
        <ele>1214</ele>
        <time>2019-09-18T22:05:17Z</time>
      </trkpt>
      <trkpt lat="45.81515" lon="6.26515">
        <ele>1217</ele>
        <time>2019-09-18T22:05:32Z</time>
      </trkpt>
      <trkpt lat="45.81535" lon="6.26523">
        <ele>1223</ele>
        <time>2019-09-18T22:05:43Z</time>
      </trkpt>
      <trkpt lat="45.81559" lon="6.26526">
        <ele>1227</ele>
        <time>2019-09-18T22:05:55Z</time>
      </trkpt>
      <trkpt lat="45.8158" lon="6.26526">
        <ele>1230</ele>
        <time>2019-09-18T22:06:05Z</time>
      </trkpt>
      <trkpt lat="45.81603" lon="6.26518">
        <ele>1230</ele>
        <time>2019-09-18T22:06:17Z</time>
      </trkpt>
      <trkpt lat="45.81614" lon="6.26518">
        <ele>1231</ele>
        <time>2019-09-18T22:06:23Z</time>
      </trkpt>
      <trkpt lat="45.81645" lon="6.26525">
        <ele>1237</ele>
        <time>2019-09-18T22:06:38Z</time>
      </trkpt>
      <trkpt lat="45.81665" lon="6.2652">
        <ele>1238</ele>
        <time>2019-09-18T22:06:49Z</time>
      </trkpt>
      <trkpt lat="45.81674" lon="6.26513">
        <ele>1236</ele>
        <time>2019-09-18T22:06:54Z</time>
      </trkpt>
      <trkpt lat="45.81681" lon="6.26503">
        <ele>1234</ele>
        <time>2019-09-18T22:06:59Z</time>
      </trkpt>
      <trkpt lat="45.81711" lon="6.26489">
        <ele>1233</ele>
        <time>2019-09-18T22:07:14Z</time>
      </trkpt>
      <trkpt lat="45.81721" lon="6.26487">
        <ele>1233</ele>
        <time>2019-09-18T22:07:20Z</time>
      </trkpt>
      <trkpt lat="45.81742" lon="6.26491">
        <ele>1238</ele>
        <time>2019-09-18T22:07:30Z</time>
      </trkpt>
      <trkpt lat="45.81752" lon="6.26487">
        <ele>1238</ele>
        <time>2019-09-18T22:07:35Z</time>
      </trkpt>
      <trkpt lat="45.81771" lon="6.26484">
        <ele>1239</ele>
        <time>2019-09-18T22:07:45Z</time>
      </trkpt>
      <trkpt lat="45.81781" lon="6.26485">
        <ele>1241</ele>
        <time>2019-09-18T22:07:50Z</time>
      </trkpt>
      <trkpt lat="45.81791" lon="6.2648">
        <ele>1240</ele>
        <time>2019-09-18T22:07:55Z</time>
      </trkpt>
      <trkpt lat="45.818" lon="6.2648">
        <ele>1241</ele>
        <time>2019-09-18T22:08:00Z</time>
      </trkpt>
      <trkpt lat="45.81809" lon="6.26474">
        <ele>1240</ele>
        <time>2019-09-18T22:08:05Z</time>
      </trkpt>
      <trkpt lat="45.81831" lon="6.2647">
        <ele>1242</ele>
        <time>2019-09-18T22:08:16Z</time>
      </trkpt>
      <trkpt lat="45.8184" lon="6.26466">
        <ele>1241</ele>
        <time>2019-09-18T22:08:20Z</time>
      </trkpt>
      <trkpt lat="45.81858" lon="6.26465">
        <ele>1243</ele>
        <time>2019-09-18T22:08:30Z</time>
      </trkpt>
      <trkpt lat="45.81867" lon="6.26458">
        <ele>1242</ele>
        <time>2019-09-18T22:08:35Z</time>
      </trkpt>
      <trkpt lat="45.81888" lon="6.2645">
        <ele>1243</ele>
        <time>2019-09-18T22:08:45Z</time>
      </trkpt>
      <trkpt lat="45.81897" lon="6.26439">
        <ele>1240</ele>
        <time>2019-09-18T22:08:51Z</time>
      </trkpt>
      <trkpt lat="45.81907" lon="6.26435">
        <ele>1240</ele>
        <time>2019-09-18T22:08:57Z</time>
      </trkpt>
      <trkpt lat="45.81914" lon="6.26423">
        <ele>1238</ele>
        <time>2019-09-18T22:09:02Z</time>
      </trkpt>
      <trkpt lat="45.81929" lon="6.26383">
        <ele>1228</ele>
        <time>2019-09-18T22:09:18Z</time>
      </trkpt>
      <trkpt lat="45.81949" lon="6.26373">
        <ele>1227</ele>
        <time>2019-09-18T22:09:29Z</time>
      </trkpt>
      <trkpt lat="45.81967" lon="6.26371">
        <ele>1228</ele>
        <time>2019-09-18T22:09:38Z</time>
      </trkpt>
      <trkpt lat="45.81982" lon="6.2635">
        <ele>1223</ele>
        <time>2019-09-18T22:09:48Z</time>
      </trkpt>
      <trkpt lat="45.81999" lon="6.26363">
        <ele>1229</ele>
        <time>2019-09-18T22:09:58Z</time>
      </trkpt>
      <trkpt lat="45.82008" lon="6.26355">
        <ele>1226</ele>
        <time>2019-09-18T22:10:03Z</time>
      </trkpt>
      <trkpt lat="45.82026" lon="6.26347">
        <ele>1224</ele>
        <time>2019-09-18T22:10:12Z</time>
      </trkpt>
      <trkpt lat="45.82051" lon="6.26318">
        <ele>1217</ele>
        <time>2019-09-18T22:10:28Z</time>
      </trkpt>
      <trkpt lat="45.8207" lon="6.26332">
        <ele>1221</ele>
        <time>2019-09-18T22:10:39Z</time>
      </trkpt>
      <trkpt lat="45.82085" lon="6.26348">
        <ele>1226</ele>
        <time>2019-09-18T22:10:49Z</time>
      </trkpt>
      <trkpt lat="45.82103" lon="6.26362">
        <ele>1229</ele>
        <time>2019-09-18T22:10:59Z</time>
      </trkpt>
      <trkpt lat="45.82112" lon="6.26366">
        <ele>1230</ele>
        <time>2019-09-18T22:11:03Z</time>
      </trkpt>
      <trkpt lat="45.8214" lon="6.26367">
        <ele>1229</ele>
        <time>2019-09-18T22:11:18Z</time>
      </trkpt>
      <trkpt lat="45.82156" lon="6.26376">
        <ele>1231</ele>
        <time>2019-09-18T22:11:26Z</time>
      </trkpt>
      <trkpt lat="45.82184" lon="6.26383">
        <ele>1231</ele>
        <time>2019-09-18T22:11:40Z</time>
      </trkpt>
      <trkpt lat="45.82204" lon="6.26395">
        <ele>1232</ele>
        <time>2019-09-18T22:11:51Z</time>
      </trkpt>
      <trkpt lat="45.82225" lon="6.26404">
        <ele>1233</ele>
        <time>2019-09-18T22:12:02Z</time>
      </trkpt>
      <trkpt lat="45.82265" lon="6.2642">
        <ele>1234</ele>
        <time>2019-09-18T22:12:23Z</time>
      </trkpt>
      <trkpt lat="45.82292" lon="6.26428">
        <ele>1235</ele>
        <time>2019-09-18T22:12:37Z</time>
      </trkpt>
      <trkpt lat="45.82314" lon="6.26428">
        <ele>1234</ele>
        <time>2019-09-18T22:12:48Z</time>
      </trkpt>
      <trkpt lat="45.82341" lon="6.26417">
        <ele>1231</ele>
        <time>2019-09-18T22:13:02Z</time>
      </trkpt>
      <trkpt lat="45.8237" lon="6.26422">
        <ele>1237</ele>
        <time>2019-09-18T22:13:16Z</time>
      </trkpt>
      <trkpt lat="45.82381" lon="6.2643">
        <ele>1241</ele>
        <time>2019-09-18T22:13:23Z</time>
      </trkpt>
      <trkpt lat="45.82392" lon="6.26425">
        <ele>1242</ele>
        <time>2019-09-18T22:13:28Z</time>
      </trkpt>
      <trkpt lat="45.82397" lon="6.2641">
        <ele>1241</ele>
        <time>2019-09-18T22:13:34Z</time>
      </trkpt>
      <trkpt lat="45.82416" lon="6.264">
        <ele>1242</ele>
        <time>2019-09-18T22:13:44Z</time>
      </trkpt>
      <trkpt lat="45.82423" lon="6.26386">
        <ele>1242</ele>
        <time>2019-09-18T22:13:50Z</time>
      </trkpt>
      <trkpt lat="45.82423" lon="6.26374">
        <ele>1241</ele>
        <time>2019-09-18T22:13:54Z</time>
      </trkpt>
      <trkpt lat="45.82432" lon="6.26378">
        <ele>1244</ele>
        <time>2019-09-18T22:13:59Z</time>
      </trkpt>
      <trkpt lat="45.82445" lon="6.264">
        <ele>1250</ele>
        <time>2019-09-18T22:14:09Z</time>
      </trkpt>
      <trkpt lat="45.82456" lon="6.26439">
        <ele>1256</ele>
        <time>2019-09-18T22:14:24Z</time>
      </trkpt>
      <trkpt lat="45.82456" lon="6.26466">
        <ele>1258</ele>
        <time>2019-09-18T22:14:33Z</time>
      </trkpt>
      <trkpt lat="45.8247" lon="6.26502">
        <ele>1264</ele>
        <time>2019-09-18T22:14:48Z</time>
      </trkpt>
      <trkpt lat="45.82478" lon="6.26508">
        <ele>1266</ele>
        <time>2019-09-18T22:14:52Z</time>
      </trkpt>
      <trkpt lat="45.8249" lon="6.26499">
        <ele>1268</ele>
        <time>2019-09-18T22:14:59Z</time>
      </trkpt>
      <trkpt lat="45.82498" lon="6.26505">
        <ele>1270</ele>
        <time>2019-09-18T22:15:04Z</time>
      </trkpt>
      <trkpt lat="45.82504" lon="6.26516">
        <ele>1272</ele>
        <time>2019-09-18T22:15:08Z</time>
      </trkpt>
      <trkpt lat="45.82506" lon="6.26528">
        <ele>1274</ele>
        <time>2019-09-18T22:15:13Z</time>
      </trkpt>
      <trkpt lat="45.8252" lon="6.26547">
        <ele>1280</ele>
        <time>2019-09-18T22:15:22Z</time>
      </trkpt>
      <trkpt lat="45.82524" lon="6.26558">
        <ele>1282</ele>
        <time>2019-09-18T22:15:27Z</time>
      </trkpt>
      <trkpt lat="45.82547" lon="6.26584">
        <ele>1292</ele>
        <time>2019-09-18T22:15:41Z</time>
      </trkpt>
      <trkpt lat="45.82555" lon="6.26609">
        <ele>1296</ele>
        <time>2019-09-18T22:15:51Z</time>
      </trkpt>
      <trkpt lat="45.82573" lon="6.26619">
        <ele>1302</ele>
        <time>2019-09-18T22:16:01Z</time>
      </trkpt>
      <trkpt lat="45.826" lon="6.2664">
        <ele>1311</ele>
        <time>2019-09-18T22:16:16Z</time>
      </trkpt>
      <trkpt lat="45.82604" lon="6.2665">
        <ele>1312</ele>
        <time>2019-09-18T22:16:20Z</time>
      </trkpt>
      <trkpt lat="45.82618" lon="6.2667">
        <ele>1318</ele>
        <time>2019-09-18T22:16:30Z</time>
      </trkpt>
      <trkpt lat="45.82633" lon="6.26705">
        <ele>1324</ele>
        <time>2019-09-18T22:16:44Z</time>
      </trkpt>
      <trkpt lat="45.82637" lon="6.26733">
        <ele>1325</ele>
        <time>2019-09-18T22:16:54Z</time>
      </trkpt>
      <trkpt lat="45.82652" lon="6.26767">
        <ele>1331</ele>
        <time>2019-09-18T22:17:08Z</time>
      </trkpt>
      <trkpt lat="45.82658" lon="6.26792">
        <ele>1336</ele>
        <time>2019-09-18T22:17:17Z</time>
      </trkpt>
      <trkpt lat="45.82667" lon="6.2679">
        <ele>1337</ele>
        <time>2019-09-18T22:17:22Z</time>
      </trkpt>
      <trkpt lat="45.82684" lon="6.26798">
        <ele>1345</ele>
        <time>2019-09-18T22:17:31Z</time>
      </trkpt>
      <trkpt lat="45.82693" lon="6.26821">
        <ele>1352</ele>
        <time>2019-09-18T22:17:40Z</time>
      </trkpt>
      <trkpt lat="45.82702" lon="6.2682">
        <ele>1356</ele>
        <time>2019-09-18T22:17:45Z</time>
      </trkpt>
      <trkpt lat="45.82714" lon="6.26824">
        <ele>1361</ele>
        <time>2019-09-18T22:17:51Z</time>
      </trkpt>
      <trkpt lat="45.8272" lon="6.26844">
        <ele>1366</ele>
        <time>2019-09-18T22:17:58Z</time>
      </trkpt>
      <trkpt lat="45.82729" lon="6.26843">
        <ele>1369</ele>
        <time>2019-09-18T22:18:03Z</time>
      </trkpt>
      <trkpt lat="45.82735" lon="6.26847">
        <ele>1372</ele>
        <time>2019-09-18T22:18:06Z</time>
      </trkpt>
      <trkpt lat="45.82745" lon="6.26891">
        <ele>1378</ele>
        <time>2019-09-18T22:18:22Z</time>
      </trkpt>
      <trkpt lat="45.82763" lon="6.26888">
        <ele>1383</ele>
        <time>2019-09-18T22:18:31Z</time>
      </trkpt>
      <trkpt lat="45.82772" lon="6.26881">
        <ele>1386</ele>
        <time>2019-09-18T22:18:37Z</time>
      </trkpt>
      <trkpt lat="45.8279" lon="6.26881">
        <ele>1392</ele>
        <time>2019-09-18T22:18:46Z</time>
      </trkpt>
      <trkpt lat="45.82798" lon="6.2687">
        <ele>1394</ele>
        <time>2019-09-18T22:18:51Z</time>
      </trkpt>
      <trkpt lat="45.82808" lon="6.26845">
        <ele>1395</ele>
        <time>2019-09-18T22:19:01Z</time>
      </trkpt>
      <trkpt lat="45.82822" lon="6.26822">
        <ele>1398</ele>
        <time>2019-09-18T22:19:12Z</time>
      </trkpt>
      <trkpt lat="45.82837" lon="6.26804">
        <ele>1402</ele>
        <time>2019-09-18T22:19:22Z</time>
      </trkpt>
      <trkpt lat="45.82847" lon="6.26765">
        <ele>1404</ele>
        <time>2019-09-18T22:19:36Z</time>
      </trkpt>
      <trkpt lat="45.82858" lon="6.26744">
        <ele>1407</ele>
        <time>2019-09-18T22:19:45Z</time>
      </trkpt>
      <trkpt lat="45.82874" lon="6.26699">
        <ele>1410</ele>
        <time>2019-09-18T22:20:03Z</time>
      </trkpt>
      <trkpt lat="45.82886" lon="6.26677">
        <ele>1414</ele>
        <time>2019-09-18T22:20:13Z</time>
      </trkpt>
      <trkpt lat="45.82895" lon="6.26649">
        <ele>1416</ele>
        <time>2019-09-18T22:20:23Z</time>
      </trkpt>
      <trkpt lat="45.82896" lon="6.26634">
        <ele>1416</ele>
        <time>2019-09-18T22:20:29Z</time>
      </trkpt>
      <trkpt lat="45.82901" lon="6.26617">
        <ele>1417</ele>
        <time>2019-09-18T22:20:35Z</time>
      </trkpt>
      <trkpt lat="45.82911" lon="6.26593">
        <ele>1419</ele>
        <time>2019-09-18T22:20:45Z</time>
      </trkpt>
      <trkpt lat="45.82924" lon="6.2655">
        <ele>1422</ele>
        <time>2019-09-18T22:21:01Z</time>
      </trkpt>
      <trkpt lat="45.82926" lon="6.26531">
        <ele>1422</ele>
        <time>2019-09-18T22:21:08Z</time>
      </trkpt>
      <trkpt lat="45.82937" lon="6.26491">
        <ele>1422</ele>
        <time>2019-09-18T22:21:23Z</time>
      </trkpt>
      <trkpt lat="45.82947" lon="6.26466">
        <ele>1421</ele>
        <time>2019-09-18T22:21:33Z</time>
      </trkpt>
      <trkpt lat="45.82952" lon="6.26459">
        <ele>1421</ele>
        <time>2019-09-18T22:21:36Z</time>
      </trkpt>
      <trkpt lat="45.8296" lon="6.26453">
        <ele>1421</ele>
        <time>2019-09-18T22:21:41Z</time>
      </trkpt>
      <trkpt lat="45.82978" lon="6.26448">
        <ele>1422</ele>
        <time>2019-09-18T22:21:50Z</time>
      </trkpt>
      <trkpt lat="45.8302" lon="6.26455">
        <ele>1428</ele>
        <time>2019-09-18T22:22:11Z</time>
      </trkpt>
      <trkpt lat="45.83034" lon="6.2645">
        <ele>1428</ele>
        <time>2019-09-18T22:22:18Z</time>
      </trkpt>
      <trkpt lat="45.83049" lon="6.26443">
        <ele>1428</ele>
        <time>2019-09-18T22:22:26Z</time>
      </trkpt>
      <trkpt lat="45.83064" lon="6.26425">
        <ele>1424</ele>
        <time>2019-09-18T22:22:36Z</time>
      </trkpt>
      <trkpt lat="45.83101" lon="6.26389">
        <ele>1421</ele>
        <time>2019-09-18T22:22:58Z</time>
      </trkpt>
      <trkpt lat="45.83104" lon="6.2639">
        <ele>1422</ele>
        <time>2019-09-18T22:23:00Z</time>
      </trkpt>
      <trkpt lat="45.83122" lon="6.26382">
        <ele>1424</ele>
        <time>2019-09-18T22:23:09Z</time>
      </trkpt>
      <trkpt lat="45.83134" lon="6.26382">
        <ele>1426</ele>
        <time>2019-09-18T22:23:15Z</time>
      </trkpt>
      <trkpt lat="45.8315" lon="6.26395">
        <ele>1430</ele>
        <time>2019-09-18T22:23:25Z</time>
      </trkpt>
      <trkpt lat="45.83159" lon="6.26393">
        <ele>1431</ele>
        <time>2019-09-18T22:23:29Z</time>
      </trkpt>
      <trkpt lat="45.83174" lon="6.26378">
        <ele>1431</ele>
        <time>2019-09-18T22:23:38Z</time>
      </trkpt>
      <trkpt lat="45.83188" lon="6.26356">
        <ele>1427</ele>
        <time>2019-09-18T22:23:49Z</time>
      </trkpt>
      <trkpt lat="45.83213" lon="6.26304">
        <ele>1420</ele>
        <time>2019-09-18T22:24:11Z</time>
      </trkpt>
      <trkpt lat="45.83224" lon="6.26293">
        <ele>1418</ele>
        <time>2019-09-18T22:24:17Z</time>
      </trkpt>
      <trkpt lat="45.83237" lon="6.26289">
        <ele>1416</ele>
        <time>2019-09-18T22:24:24Z</time>
      </trkpt>
      <trkpt lat="45.83256" lon="6.26295">
        <ele>1414</ele>
        <time>2019-09-18T22:24:34Z</time>
      </trkpt>
      <trkpt lat="45.83265" lon="6.263">
        <ele>1411</ele>
        <time>2019-09-18T22:24:39Z</time>
      </trkpt>
      <trkpt lat="45.83274" lon="6.26309">
        <ele>1409</ele>
        <time>2019-09-18T22:24:44Z</time>
      </trkpt>
      <trkpt lat="45.83305" lon="6.26384">
        <ele>1407</ele>
        <time>2019-09-18T22:25:15Z</time>
      </trkpt>
      <trkpt lat="45.83324" lon="6.26468">
        <ele>1412</ele>
        <time>2019-09-18T22:25:45Z</time>
      </trkpt>
      <trkpt lat="45.83329" lon="6.26481">
        <ele>1411</ele>
        <time>2019-09-18T22:25:51Z</time>
      </trkpt>
      <trkpt lat="45.83341" lon="6.26501">
        <ele>1408</ele>
        <time>2019-09-18T22:26:00Z</time>
      </trkpt>
      <trkpt lat="45.83351" lon="6.26507">
        <ele>1404</ele>
        <time>2019-09-18T22:26:05Z</time>
      </trkpt>
      <trkpt lat="45.83364" lon="6.26547">
        <ele>1406</ele>
        <time>2019-09-18T22:26:21Z</time>
      </trkpt>
      <trkpt lat="45.834" lon="6.26535">
        <ele>1386</ele>
        <time>2019-09-18T22:26:39Z</time>
      </trkpt>
      <trkpt lat="45.83408" lon="6.26528">
        <ele>1380</ele>
        <time>2019-09-18T22:26:44Z</time>
      </trkpt>
      <trkpt lat="45.83419" lon="6.26535">
        <ele>1376</ele>
        <time>2019-09-18T22:26:50Z</time>
      </trkpt>
      <trkpt lat="45.83422" lon="6.26523">
        <ele>1371</ele>
        <time>2019-09-18T22:26:54Z</time>
      </trkpt>
      <trkpt lat="45.8343" lon="6.26514">
        <ele>1364</ele>
        <time>2019-09-18T22:26:59Z</time>
      </trkpt>
      <trkpt lat="45.83454" lon="6.26546">
        <ele>1359</ele>
        <time>2019-09-18T22:27:16Z</time>
      </trkpt>
      <trkpt lat="45.83458" lon="6.26557">
        <ele>1360</ele>
        <time>2019-09-18T22:27:20Z</time>
      </trkpt>
      <trkpt lat="45.83458" lon="6.26571">
        <ele>1364</ele>
        <time>2019-09-18T22:27:25Z</time>
      </trkpt>
      <trkpt lat="45.83466" lon="6.26579">
        <ele>1363</ele>
        <time>2019-09-18T22:27:30Z</time>
      </trkpt>
      <trkpt lat="45.83475" lon="6.26554">
        <ele>1350</ele>
        <time>2019-09-18T22:27:40Z</time>
      </trkpt>
      <trkpt lat="45.83483" lon="6.26543">
        <ele>1342</ele>
        <time>2019-09-18T22:27:45Z</time>
      </trkpt>
      <trkpt lat="45.83492" lon="6.26538">
        <ele>1335</ele>
        <time>2019-09-18T22:27:50Z</time>
      </trkpt>
      <trkpt lat="45.83506" lon="6.26565">
        <ele>1340</ele>
        <time>2019-09-18T22:28:02Z</time>
      </trkpt>
      <trkpt lat="45.83509" lon="6.26552">
        <ele>1335</ele>
        <time>2019-09-18T22:28:06Z</time>
      </trkpt>
      <trkpt lat="45.83504" lon="6.2654">
        <ele>1331</ele>
        <time>2019-09-18T22:28:11Z</time>
      </trkpt>
      <trkpt lat="45.83507" lon="6.26527">
        <ele>1326</ele>
        <time>2019-09-18T22:28:16Z</time>
      </trkpt>
      <trkpt lat="45.83514" lon="6.26517">
        <ele>1323</ele>
        <time>2019-09-18T22:28:21Z</time>
      </trkpt>
      <trkpt lat="45.83523" lon="6.26513">
        <ele>1321</ele>
        <time>2019-09-18T22:28:26Z</time>
      </trkpt>
      <trkpt lat="45.8354" lon="6.26527">
        <ele>1325</ele>
        <time>2019-09-18T22:28:36Z</time>
      </trkpt>
      <trkpt lat="45.83556" lon="6.2657">
        <ele>1338</ele>
        <time>2019-09-18T22:28:53Z</time>
      </trkpt>
      <trkpt lat="45.83549" lon="6.26559">
        <ele>1335</ele>
        <time>2019-09-18T22:28:58Z</time>
      </trkpt>
      <trkpt lat="45.8355" lon="6.26532">
        <ele>1327</ele>
        <time>2019-09-18T22:29:07Z</time>
      </trkpt>
      <trkpt lat="45.83563" lon="6.2651">
        <ele>1319</ele>
        <time>2019-09-18T22:29:17Z</time>
      </trkpt>
      <trkpt lat="45.83588" lon="6.26487">
        <ele>1312</ele>
        <time>2019-09-18T22:29:32Z</time>
      </trkpt>
      <trkpt lat="45.83601" lon="6.26491">
        <ele>1315</ele>
        <time>2019-09-18T22:29:39Z</time>
      </trkpt>
      <trkpt lat="45.83621" lon="6.26493">
        <ele>1318</ele>
        <time>2019-09-18T22:29:49Z</time>
      </trkpt>
      <trkpt lat="45.83632" lon="6.265">
        <ele>1322</ele>
        <time>2019-09-18T22:29:55Z</time>
      </trkpt>
      <trkpt lat="45.83643" lon="6.26513">
        <ele>1327</ele>
        <time>2019-09-18T22:30:02Z</time>
      </trkpt>
      <trkpt lat="45.8366" lon="6.26522">
        <ele>1332</ele>
        <time>2019-09-18T22:30:11Z</time>
      </trkpt>
      <trkpt lat="45.8366" lon="6.26535">
        <ele>1335</ele>
        <time>2019-09-18T22:30:16Z</time>
      </trkpt>
      <trkpt lat="45.83656" lon="6.26546">
        <ele>1338</ele>
        <time>2019-09-18T22:30:20Z</time>
      </trkpt>
      <trkpt lat="45.83655" lon="6.26565">
        <ele>1343</ele>
        <time>2019-09-18T22:30:27Z</time>
      </trkpt>
      <trkpt lat="45.83657" lon="6.26583">
        <ele>1349</ele>
        <time>2019-09-18T22:30:33Z</time>
      </trkpt>
      <trkpt lat="45.83661" lon="6.26583">
        <ele>1349</ele>
        <time>2019-09-18T22:30:35Z</time>
      </trkpt>
      <trkpt lat="45.83661" lon="6.2658">
        <ele>1348</ele>
        <time>2019-09-18T22:30:36Z</time>
      </trkpt>
      <trkpt lat="45.83662" lon="6.26583">
        <ele>1349</ele>
        <time>2019-09-18T22:30:37Z</time>
      </trkpt>
      <trkpt lat="45.83661" lon="6.26576">
        <ele>1347</ele>
        <time>2019-09-18T22:30:40Z</time>
      </trkpt>
      <trkpt lat="45.83667" lon="6.26572">
        <ele>1347</ele>
        <time>2019-09-18T22:30:43Z</time>
      </trkpt>
      <trkpt lat="45.83676" lon="6.26575">
        <ele>1348</ele>
        <time>2019-09-18T22:30:48Z</time>
      </trkpt>
      <trkpt lat="45.83683" lon="6.26589">
        <ele>1352</ele>
        <time>2019-09-18T22:30:54Z</time>
      </trkpt>
      <trkpt lat="45.83702" lon="6.26613">
        <ele>1360</ele>
        <time>2019-09-18T22:31:06Z</time>
      </trkpt>
      <trkpt lat="45.83716" lon="6.26619">
        <ele>1362</ele>
        <time>2019-09-18T22:31:14Z</time>
      </trkpt>
      <trkpt lat="45.8374" lon="6.26646">
        <ele>1369</ele>
        <time>2019-09-18T22:31:29Z</time>
      </trkpt>
      <trkpt lat="45.8376" lon="6.26655">
        <ele>1371</ele>
        <time>2019-09-18T22:31:39Z</time>
      </trkpt>
      <trkpt lat="45.83776" lon="6.26657">
        <ele>1372</ele>
        <time>2019-09-18T22:31:47Z</time>
      </trkpt>
      <trkpt lat="45.83797" lon="6.26674">
        <ele>1378</ele>
        <time>2019-09-18T22:31:59Z</time>
      </trkpt>
      <trkpt lat="45.83804" lon="6.26683">
        <ele>1381</ele>
        <time>2019-09-18T22:32:04Z</time>
      </trkpt>
      <trkpt lat="45.83836" lon="6.26682">
        <ele>1380</ele>
        <time>2019-09-18T22:32:20Z</time>
      </trkpt>
      <trkpt lat="45.83844" lon="6.26684">
        <ele>1382</ele>
        <time>2019-09-18T22:32:24Z</time>
      </trkpt>
      <trkpt lat="45.83852" lon="6.26692">
        <ele>1385</ele>
        <time>2019-09-18T22:32:29Z</time>
      </trkpt>
      <trkpt lat="45.83881" lon="6.26703">
        <ele>1391</ele>
        <time>2019-09-18T22:32:44Z</time>
      </trkpt>
      <trkpt lat="45.83904" lon="6.26726">
        <ele>1398</ele>
        <time>2019-09-18T22:32:58Z</time>
      </trkpt>
      <trkpt lat="45.8391" lon="6.26727">
        <ele>1398</ele>
        <time>2019-09-18T22:33:01Z</time>
      </trkpt>
      <trkpt lat="45.83932" lon="6.26722">
        <ele>1399</ele>
        <time>2019-09-18T22:33:12Z</time>
      </trkpt>
      <trkpt lat="45.8395" lon="6.26739">
        <ele>1403</ele>
        <time>2019-09-18T22:33:23Z</time>
      </trkpt>
      <trkpt lat="45.83954" lon="6.26751">
        <ele>1406</ele>
        <time>2019-09-18T22:33:28Z</time>
      </trkpt>
      <trkpt lat="45.83964" lon="6.26755">
        <ele>1407</ele>
        <time>2019-09-18T22:33:33Z</time>
      </trkpt>
      <trkpt lat="45.83989" lon="6.26775">
        <ele>1412</ele>
        <time>2019-09-18T22:33:47Z</time>
      </trkpt>
      <trkpt lat="45.84" lon="6.2678">
        <ele>1413</ele>
        <time>2019-09-18T22:33:53Z</time>
      </trkpt>
      <trkpt lat="45.8401" lon="6.268">
        <ele>1418</ele>
        <time>2019-09-18T22:34:02Z</time>
      </trkpt>
      <trkpt lat="45.84019" lon="6.26807">
        <ele>1420</ele>
        <time>2019-09-18T22:34:07Z</time>
      </trkpt>
      <trkpt lat="45.84029" lon="6.268">
        <ele>1420</ele>
        <time>2019-09-18T22:34:12Z</time>
      </trkpt>
      <trkpt lat="45.84042" lon="6.26784">
        <ele>1419</ele>
        <time>2019-09-18T22:34:21Z</time>
      </trkpt>
      <trkpt lat="45.84058" lon="6.26741">
        <ele>1421</ele>
        <time>2019-09-18T22:34:38Z</time>
      </trkpt>
      <trkpt lat="45.84064" lon="6.26723">
        <ele>1422</ele>
        <time>2019-09-18T22:34:45Z</time>
      </trkpt>
      <trkpt lat="45.84072" lon="6.2668">
        <ele>1424</ele>
        <time>2019-09-18T22:35:00Z</time>
      </trkpt>
      <trkpt lat="45.84086" lon="6.26651">
        <ele>1428</ele>
        <time>2019-09-18T22:35:13Z</time>
      </trkpt>
      <trkpt lat="45.84087" lon="6.26636">
        <ele>1428</ele>
        <time>2019-09-18T22:35:18Z</time>
      </trkpt>
      <trkpt lat="45.84094" lon="6.2661">
        <ele>1429</ele>
        <time>2019-09-18T22:35:28Z</time>
      </trkpt>
      <trkpt lat="45.84102" lon="6.26597">
        <ele>1430</ele>
        <time>2019-09-18T22:35:34Z</time>
      </trkpt>
      <trkpt lat="45.84103" lon="6.26592">
        <ele>1431</ele>
        <time>2019-09-18T22:35:35Z</time>
      </trkpt>
      <trkpt lat="45.84097" lon="6.26571">
        <ele>1431</ele>
        <time>2019-09-18T22:35:43Z</time>
      </trkpt>
      <trkpt lat="45.84101" lon="6.26534">
        <ele>1436</ele>
        <time>2019-09-18T22:35:56Z</time>
      </trkpt>
      <trkpt lat="45.84118" lon="6.265">
        <ele>1446</ele>
        <time>2019-09-18T22:36:11Z</time>
      </trkpt>
      <trkpt lat="45.84126" lon="6.26491">
        <ele>1451</ele>
        <time>2019-09-18T22:36:16Z</time>
      </trkpt>
      <trkpt lat="45.84127" lon="6.26485">
        <ele>1453</ele>
        <time>2019-09-18T22:36:18Z</time>
      </trkpt>
      <trkpt lat="45.84124" lon="6.26467">
        <ele>1456</ele>
        <time>2019-09-18T22:36:25Z</time>
      </trkpt>
      <trkpt lat="45.84093" lon="6.26396">
        <ele>1455</ele>
        <time>2019-09-18T22:36:54Z</time>
      </trkpt>
      <trkpt lat="45.84095" lon="6.26393">
        <ele>1457</ele>
        <time>2019-09-18T22:36:55Z</time>
      </trkpt>
      <trkpt lat="45.84101" lon="6.26395">
        <ele>1460</ele>
        <time>2019-09-18T22:36:58Z</time>
      </trkpt>
      <trkpt lat="45.84095" lon="6.26375">
        <ele>1461</ele>
        <time>2019-09-18T22:37:06Z</time>
      </trkpt>
      <trkpt lat="45.841" lon="6.26354">
        <ele>1468</ele>
        <time>2019-09-18T22:37:14Z</time>
      </trkpt>
      <trkpt lat="45.84094" lon="6.2632">
        <ele>1469</ele>
        <time>2019-09-18T22:37:26Z</time>
      </trkpt>
      <trkpt lat="45.84099" lon="6.26314">
        <ele>1472</ele>
        <time>2019-09-18T22:37:29Z</time>
      </trkpt>
      <trkpt lat="45.84112" lon="6.26328">
        <ele>1479</ele>
        <time>2019-09-18T22:37:37Z</time>
      </trkpt>
      <trkpt lat="45.84123" lon="6.26306">
        <ele>1485</ele>
        <time>2019-09-18T22:37:47Z</time>
      </trkpt>
      <trkpt lat="45.8413" lon="6.26315">
        <ele>1489</ele>
        <time>2019-09-18T22:37:51Z</time>
      </trkpt>
      <trkpt lat="45.84142" lon="6.26339">
        <ele>1494</ele>
        <time>2019-09-18T22:38:02Z</time>
      </trkpt>
      <trkpt lat="45.84166" lon="6.26351">
        <ele>1503</ele>
        <time>2019-09-18T22:38:14Z</time>
      </trkpt>
      <trkpt lat="45.8418" lon="6.26366">
        <ele>1506</ele>
        <time>2019-09-18T22:38:23Z</time>
      </trkpt>
      <trkpt lat="45.84195" lon="6.26374">
        <ele>1510</ele>
        <time>2019-09-18T22:38:31Z</time>
      </trkpt>
      <trkpt lat="45.84203" lon="6.26383">
        <ele>1512</ele>
        <time>2019-09-18T22:38:36Z</time>
      </trkpt>
      <trkpt lat="45.8423" lon="6.26392">
        <ele>1521</ele>
        <time>2019-09-18T22:38:50Z</time>
      </trkpt>
      <trkpt lat="45.84236" lon="6.26397">
        <ele>1523</ele>
        <time>2019-09-18T22:38:54Z</time>
      </trkpt>
      <trkpt lat="45.8425" lon="6.26402">
        <ele>1528</ele>
        <time>2019-09-18T22:39:01Z</time>
      </trkpt>
      <trkpt lat="45.84265" lon="6.26397">
        <ele>1527</ele>
        <time>2019-09-18T22:39:09Z</time>
      </trkpt>
      <trkpt lat="45.84266" lon="6.26393">
        <ele>1528</ele>
        <time>2019-09-18T22:39:10Z</time>
      </trkpt>
      <trkpt lat="45.84255" lon="6.26377">
        <ele>1532</ele>
        <time>2019-09-18T22:39:18Z</time>
      </trkpt>
      <trkpt lat="45.84251" lon="6.26367">
        <ele>1535</ele>
        <time>2019-09-18T22:39:22Z</time>
      </trkpt>
      <trkpt lat="45.84243" lon="6.26328">
        <ele>1540</ele>
        <time>2019-09-18T22:39:36Z</time>
      </trkpt>
      <trkpt lat="45.8425" lon="6.26322">
        <ele>1544</ele>
        <time>2019-09-18T22:39:40Z</time>
      </trkpt>
      <trkpt lat="45.84256" lon="6.26325">
        <ele>1543</ele>
        <time>2019-09-18T22:39:43Z</time>
      </trkpt>
      <trkpt lat="45.84268" lon="6.26324">
        <ele>1542</ele>
        <time>2019-09-18T22:39:49Z</time>
      </trkpt>
      <trkpt lat="45.84272" lon="6.26328">
        <ele>1541</ele>
        <time>2019-09-18T22:39:52Z</time>
      </trkpt>
      <trkpt lat="45.84263" lon="6.26296">
        <ele>1547</ele>
        <time>2019-09-18T22:40:04Z</time>
      </trkpt>
      <trkpt lat="45.84264" lon="6.2629">
        <ele>1548</ele>
        <time>2019-09-18T22:40:06Z</time>
      </trkpt>
      <trkpt lat="45.84273" lon="6.2627">
        <ele>1552</ele>
        <time>2019-09-18T22:40:14Z</time>
      </trkpt>
      <trkpt lat="45.84288" lon="6.26254">
        <ele>1556</ele>
        <time>2019-09-18T22:40:24Z</time>
      </trkpt>
      <trkpt lat="45.84305" lon="6.26226">
        <ele>1564</ele>
        <time>2019-09-18T22:40:37Z</time>
      </trkpt>
      <trkpt lat="45.84318" lon="6.26213">
        <ele>1570</ele>
        <time>2019-09-18T22:40:45Z</time>
      </trkpt>
      <trkpt lat="45.84322" lon="6.26193">
        <ele>1576</ele>
        <time>2019-09-18T22:40:52Z</time>
      </trkpt>
      <trkpt lat="45.84336" lon="6.26173">
        <ele>1587</ele>
        <time>2019-09-18T22:41:02Z</time>
      </trkpt>
      <trkpt lat="45.84336" lon="6.26169">
        <ele>1588</ele>
        <time>2019-09-18T22:41:03Z</time>
      </trkpt>
      <trkpt lat="45.84346" lon="6.26165">
        <ele>1591</ele>
        <time>2019-09-18T22:41:08Z</time>
      </trkpt>
      <trkpt lat="45.84352" lon="6.26154">
        <ele>1591</ele>
        <time>2019-09-18T22:41:13Z</time>
      </trkpt>
      <trkpt lat="45.84352" lon="6.26148">
        <ele>1589</ele>
        <time>2019-09-18T22:41:15Z</time>
      </trkpt>
      <trkpt lat="45.84359" lon="6.26144">
        <ele>1591</ele>
        <time>2019-09-18T22:41:19Z</time>
      </trkpt>
      <trkpt lat="45.84359" lon="6.26125">
        <ele>1588</ele>
        <time>2019-09-18T22:41:26Z</time>
      </trkpt>
      <trkpt lat="45.84362" lon="6.26125">
        <ele>1589</ele>
        <time>2019-09-18T22:41:27Z</time>
      </trkpt>
      <trkpt lat="45.84368" lon="6.26118">
        <ele>1592</ele>
        <time>2019-09-18T22:41:31Z</time>
      </trkpt>
      <trkpt lat="45.84371" lon="6.26118">
        <ele>1593</ele>
        <time>2019-09-18T22:41:32Z</time>
      </trkpt>
      <trkpt lat="45.84376" lon="6.26124">
        <ele>1597</ele>
        <time>2019-09-18T22:41:36Z</time>
      </trkpt>
      <trkpt lat="45.84382" lon="6.26115">
        <ele>1600</ele>
        <time>2019-09-18T22:41:40Z</time>
      </trkpt>
      <trkpt lat="45.84403" lon="6.26121">
        <ele>1612</ele>
        <time>2019-09-18T22:41:51Z</time>
      </trkpt>
      <trkpt lat="45.84407" lon="6.26114">
        <ele>1615</ele>
        <time>2019-09-18T22:41:54Z</time>
      </trkpt>
      <trkpt lat="45.84416" lon="6.26118">
        <ele>1620</ele>
        <time>2019-09-18T22:41:59Z</time>
      </trkpt>
      <trkpt lat="45.84416" lon="6.26115">
        <ele>1620</ele>
        <time>2019-09-18T22:42:00Z</time>
      </trkpt>
      <trkpt lat="45.8443" lon="6.26117">
        <ele>1627</ele>
        <time>2019-09-18T22:42:07Z</time>
      </trkpt>
      <trkpt lat="45.84441" lon="6.26113">
        <ele>1633</ele>
        <time>2019-09-18T22:42:12Z</time>
      </trkpt>
      <trkpt lat="45.84443" lon="6.26111">
        <ele>1635</ele>
        <time>2019-09-18T22:42:14Z</time>
      </trkpt>
      <trkpt lat="45.84441" lon="6.26103">
        <ele>1635</ele>
        <time>2019-09-18T22:42:17Z</time>
      </trkpt>
      <trkpt lat="45.84442" lon="6.26089">
        <ele>1639</ele>
        <time>2019-09-18T22:42:22Z</time>
      </trkpt>
      <trkpt lat="45.84459" lon="6.2606">
        <ele>1641</ele>
        <time>2019-09-18T22:42:35Z</time>
      </trkpt>
      <trkpt lat="45.8446" lon="6.26051">
        <ele>1639</ele>
        <time>2019-09-18T22:42:38Z</time>
      </trkpt>
      <trkpt lat="45.84464" lon="6.26048">
        <ele>1641</ele>
        <time>2019-09-18T22:42:40Z</time>
      </trkpt>
      <trkpt lat="45.84481" lon="6.26046">
        <ele>1651</ele>
        <time>2019-09-18T22:42:49Z</time>
      </trkpt>
      <trkpt lat="45.84528" lon="6.26014">
        <ele>1655</ele>
        <time>2019-09-18T22:43:15Z</time>
      </trkpt>
      <trkpt lat="45.84533" lon="6.25998">
        <ele>1651</ele>
        <time>2019-09-18T22:43:21Z</time>
      </trkpt>
      <trkpt lat="45.84538" lon="6.25996">
        <ele>1651</ele>
        <time>2019-09-18T22:43:23Z</time>
      </trkpt>
      <trkpt lat="45.84562" lon="6.25998">
        <ele>1650</ele>
        <time>2019-09-18T22:43:35Z</time>
      </trkpt>
      <trkpt lat="45.84575" lon="6.25993">
        <ele>1650</ele>
        <time>2019-09-18T22:43:42Z</time>
      </trkpt>
      <trkpt lat="45.84621" lon="6.25992">
        <ele>1645</ele>
        <time>2019-09-18T22:44:05Z</time>
      </trkpt>
      <trkpt lat="45.84634" lon="6.25988">
        <ele>1644</ele>
        <time>2019-09-18T22:44:12Z</time>
      </trkpt>
      <trkpt lat="45.84654" lon="6.25987">
        <ele>1641</ele>
        <time>2019-09-18T22:44:22Z</time>
      </trkpt>
      <trkpt lat="45.84677" lon="6.25982">
        <ele>1639</ele>
        <time>2019-09-18T22:44:34Z</time>
      </trkpt>
      <trkpt lat="45.84696" lon="6.25984">
        <ele>1636</ele>
        <time>2019-09-18T22:44:43Z</time>
      </trkpt>
      <trkpt lat="45.8471" lon="6.25976">
        <ele>1634</ele>
        <time>2019-09-18T22:44:51Z</time>
      </trkpt>
      <trkpt lat="45.84733" lon="6.25969">
        <ele>1631</ele>
        <time>2019-09-18T22:45:02Z</time>
      </trkpt>
      <trkpt lat="45.84763" lon="6.25977">
        <ele>1629</ele>
        <time>2019-09-18T22:45:18Z</time>
      </trkpt>
      <trkpt lat="45.84812" lon="6.25967">
        <ele>1625</ele>
        <time>2019-09-18T22:45:42Z</time>
      </trkpt>
      <trkpt lat="45.84854" lon="6.25968">
        <ele>1620</ele>
        <time>2019-09-18T22:46:03Z</time>
      </trkpt>
      <trkpt lat="45.84917" lon="6.25963">
        <ele>1610</ele>
        <time>2019-09-18T22:46:35Z</time>
      </trkpt>
      <trkpt lat="45.84938" lon="6.25953">
        <ele>1608</ele>
        <time>2019-09-18T22:46:46Z</time>
      </trkpt>
      <trkpt lat="45.84969" lon="6.25919">
        <ele>1606</ele>
        <time>2019-09-18T22:47:06Z</time>
      </trkpt>
      <trkpt lat="45.84996" lon="6.25911">
        <ele>1605</ele>
        <time>2019-09-18T22:47:19Z</time>
      </trkpt>
      <trkpt lat="45.85035" lon="6.25889">
        <ele>1606</ele>
        <time>2019-09-18T22:47:40Z</time>
      </trkpt>
      <trkpt lat="45.85064" lon="6.25882">
        <ele>1605</ele>
        <time>2019-09-18T22:47:55Z</time>
      </trkpt>
      <trkpt lat="45.85114" lon="6.25852">
        <ele>1611</ele>
        <time>2019-09-18T22:48:22Z</time>
      </trkpt>
      <trkpt lat="45.8512" lon="6.25841">
        <ele>1613</ele>
        <time>2019-09-18T22:48:27Z</time>
      </trkpt>
      <trkpt lat="45.85121" lon="6.25826">
        <ele>1614</ele>
        <time>2019-09-18T22:48:32Z</time>
      </trkpt>
      <trkpt lat="45.85119" lon="6.25816">
        <ele>1615</ele>
        <time>2019-09-18T22:48:36Z</time>
      </trkpt>
      <trkpt lat="45.85123" lon="6.2581">
        <ele>1616</ele>
        <time>2019-09-18T22:48:39Z</time>
      </trkpt>
      <trkpt lat="45.8513" lon="6.25802">
        <ele>1617</ele>
        <time>2019-09-18T22:48:43Z</time>
      </trkpt>
      <trkpt lat="45.85142" lon="6.25796">
        <ele>1617</ele>
        <time>2019-09-18T22:48:50Z</time>
      </trkpt>
      <trkpt lat="45.85154" lon="6.25797">
        <ele>1617</ele>
        <time>2019-09-18T22:48:56Z</time>
      </trkpt>
      <trkpt lat="45.85163" lon="6.25795">
        <ele>1616</ele>
        <time>2019-09-18T22:49:00Z</time>
      </trkpt>
      <trkpt lat="45.85169" lon="6.25786">
        <ele>1617</ele>
        <time>2019-09-18T22:49:05Z</time>
      </trkpt>
      <trkpt lat="45.85179" lon="6.25779">
        <ele>1618</ele>
        <time>2019-09-18T22:49:10Z</time>
      </trkpt>
      <trkpt lat="45.85187" lon="6.25769">
        <ele>1619</ele>
        <time>2019-09-18T22:49:15Z</time>
      </trkpt>
      <trkpt lat="45.85206" lon="6.25755">
        <ele>1619</ele>
        <time>2019-09-18T22:49:26Z</time>
      </trkpt>
      <trkpt lat="45.85218" lon="6.25737">
        <ele>1618</ele>
        <time>2019-09-18T22:49:35Z</time>
      </trkpt>
      <trkpt lat="45.85227" lon="6.25718">
        <ele>1617</ele>
        <time>2019-09-18T22:49:43Z</time>
      </trkpt>
      <trkpt lat="45.85236" lon="6.25681">
        <ele>1612</ele>
        <time>2019-09-18T22:49:57Z</time>
      </trkpt>
      <trkpt lat="45.85242" lon="6.25672">
        <ele>1609</ele>
        <time>2019-09-18T22:50:01Z</time>
      </trkpt>
      <trkpt lat="45.85253" lon="6.25664">
        <ele>1605</ele>
        <time>2019-09-18T22:50:07Z</time>
      </trkpt>
      <trkpt lat="45.85264" lon="6.25641">
        <ele>1603</ele>
        <time>2019-09-18T22:50:17Z</time>
      </trkpt>
      <trkpt lat="45.85283" lon="6.25636">
        <ele>1602</ele>
        <time>2019-09-18T22:50:26Z</time>
      </trkpt>
      <trkpt lat="45.85289" lon="6.25627">
        <ele>1600</ele>
        <time>2019-09-18T22:50:31Z</time>
      </trkpt>
      <trkpt lat="45.85299" lon="6.25605">
        <ele>1595</ele>
        <time>2019-09-18T22:50:40Z</time>
      </trkpt>
      <trkpt lat="45.85303" lon="6.25589">
        <ele>1590</ele>
        <time>2019-09-18T22:50:46Z</time>
      </trkpt>
      <trkpt lat="45.85304" lon="6.25541">
        <ele>1580</ele>
        <time>2019-09-18T22:51:03Z</time>
      </trkpt>
      <trkpt lat="45.85311" lon="6.25514">
        <ele>1571</ele>
        <time>2019-09-18T22:51:13Z</time>
      </trkpt>
      <trkpt lat="45.85323" lon="6.25491">
        <ele>1560</ele>
        <time>2019-09-18T22:51:23Z</time>
      </trkpt>
      <trkpt lat="45.85334" lon="6.25493">
        <ele>1556</ele>
        <time>2019-09-18T22:51:28Z</time>
      </trkpt>
      <trkpt lat="45.85344" lon="6.25504">
        <ele>1559</ele>
        <time>2019-09-18T22:51:34Z</time>
      </trkpt>
      <trkpt lat="45.85351" lon="6.25506">
        <ele>1560</ele>
        <time>2019-09-18T22:51:38Z</time>
      </trkpt>
      <trkpt lat="45.85355" lon="6.25495">
        <ele>1556</ele>
        <time>2019-09-18T22:51:42Z</time>
      </trkpt>
      <trkpt lat="45.85337" lon="6.25477">
        <ele>1551</ele>
        <time>2019-09-18T22:51:53Z</time>
      </trkpt>
      <trkpt lat="45.85338" lon="6.2545">
        <ele>1543</ele>
        <time>2019-09-18T22:52:03Z</time>
      </trkpt>
      <trkpt lat="45.85348" lon="6.2545">
        <ele>1542</ele>
        <time>2019-09-18T22:52:08Z</time>
      </trkpt>
      <trkpt lat="45.85361" lon="6.25454">
        <ele>1542</ele>
        <time>2019-09-18T22:52:14Z</time>
      </trkpt>
      <trkpt lat="45.8538" lon="6.25449">
        <ele>1538</ele>
        <time>2019-09-18T22:52:24Z</time>
      </trkpt>
      <trkpt lat="45.85415" lon="6.25388">
        <ele>1512</ele>
        <time>2019-09-18T22:52:52Z</time>
      </trkpt>
      <trkpt lat="45.85431" lon="6.25368">
        <ele>1506</ele>
        <time>2019-09-18T22:53:02Z</time>
      </trkpt>
      <trkpt lat="45.8546" lon="6.25354">
        <ele>1503</ele>
        <time>2019-09-18T22:53:18Z</time>
      </trkpt>
      <trkpt lat="45.85477" lon="6.25343">
        <ele>1499</ele>
        <time>2019-09-18T22:53:27Z</time>
      </trkpt>
      <trkpt lat="45.85502" lon="6.25321">
        <ele>1494</ele>
        <time>2019-09-18T22:53:42Z</time>
      </trkpt>
      <trkpt lat="45.85509" lon="6.25311">
        <ele>1494</ele>
        <time>2019-09-18T22:53:47Z</time>
      </trkpt>
      <trkpt lat="45.85564" lon="6.25275">
        <ele>1492</ele>
        <time>2019-09-18T22:54:17Z</time>
      </trkpt>
      <trkpt lat="45.85596" lon="6.25242">
        <ele>1483</ele>
        <time>2019-09-18T22:54:36Z</time>
      </trkpt>
      <trkpt lat="45.85605" lon="6.25237">
        <ele>1482</ele>
        <time>2019-09-18T22:54:41Z</time>
      </trkpt>
      <trkpt lat="45.85648" lon="6.252">
        <ele>1472</ele>
        <time>2019-09-18T22:55:06Z</time>
      </trkpt>
      <trkpt lat="45.85748" lon="6.25148">
        <ele>1450</ele>
        <time>2019-09-18T22:56:00Z</time>
      </trkpt>
      <trkpt lat="45.85777" lon="6.25129">
        <ele>1447</ele>
        <time>2019-09-18T22:56:16Z</time>
      </trkpt>
      <trkpt lat="45.85813" lon="6.25112">
        <ele>1445</ele>
        <time>2019-09-18T22:56:35Z</time>
      </trkpt>
      <trkpt lat="45.85843" lon="6.25088">
        <ele>1441</ele>
        <time>2019-09-18T22:56:52Z</time>
      </trkpt>
      <trkpt lat="45.859" lon="6.25035">
        <ele>1442</ele>
        <time>2019-09-18T22:57:26Z</time>
      </trkpt>
      <trkpt lat="45.85909" lon="6.25034">
        <ele>1439</ele>
        <time>2019-09-18T22:57:30Z</time>
      </trkpt>
      <trkpt lat="45.85924" lon="6.25039">
        <ele>1434</ele>
        <time>2019-09-18T22:57:38Z</time>
      </trkpt>
      <trkpt lat="45.85933" lon="6.25039">
        <ele>1431</ele>
        <time>2019-09-18T22:57:42Z</time>
      </trkpt>
      <trkpt lat="45.85943" lon="6.25033">
        <ele>1428</ele>
        <time>2019-09-18T22:57:48Z</time>
      </trkpt>
      <trkpt lat="45.85952" lon="6.25019">
        <ele>1425</ele>
        <time>2019-09-18T22:57:55Z</time>
      </trkpt>
      <trkpt lat="45.85989" lon="6.2501">
        <ele>1411</ele>
        <time>2019-09-18T22:58:13Z</time>
      </trkpt>
      <trkpt lat="45.86021" lon="6.24992">
        <ele>1400</ele>
        <time>2019-09-18T22:58:30Z</time>
      </trkpt>
      <trkpt lat="45.86045" lon="6.24967">
        <ele>1396</ele>
        <time>2019-09-18T22:58:45Z</time>
      </trkpt>
      <trkpt lat="45.86058" lon="6.24927">
        <ele>1394</ele>
        <time>2019-09-18T22:59:01Z</time>
      </trkpt>
      <trkpt lat="45.86064" lon="6.24898">
        <ele>1395</ele>
        <time>2019-09-18T22:59:11Z</time>
      </trkpt>
      <trkpt lat="45.86073" lon="6.24903">
        <ele>1391</ele>
        <time>2019-09-18T22:59:16Z</time>
      </trkpt>
      <trkpt lat="45.86088" lon="6.24954">
        <ele>1381</ele>
        <time>2019-09-18T22:59:35Z</time>
      </trkpt>
      <trkpt lat="45.86097" lon="6.24964">
        <ele>1375</ele>
        <time>2019-09-18T22:59:41Z</time>
      </trkpt>
      <trkpt lat="45.86101" lon="6.24974">
        <ele>1373</ele>
        <time>2019-09-18T22:59:45Z</time>
      </trkpt>
      <trkpt lat="45.86109" lon="6.24984">
        <ele>1368</ele>
        <time>2019-09-18T22:59:50Z</time>
      </trkpt>
      <trkpt lat="45.86116" lon="6.24974">
        <ele>1364</ele>
        <time>2019-09-18T22:59:55Z</time>
      </trkpt>
      <trkpt lat="45.86123" lon="6.24945">
        <ele>1361</ele>
        <time>2019-09-18T23:00:06Z</time>
      </trkpt>
      <trkpt lat="45.86139" lon="6.24911">
        <ele>1353</ele>
        <time>2019-09-18T23:00:20Z</time>
      </trkpt>
      <trkpt lat="45.86146" lon="6.24902">
        <ele>1350</ele>
        <time>2019-09-18T23:00:25Z</time>
      </trkpt>
      <trkpt lat="45.86173" lon="6.24882">
        <ele>1338</ele>
        <time>2019-09-18T23:00:40Z</time>
      </trkpt>
      <trkpt lat="45.86181" lon="6.24871">
        <ele>1337</ele>
        <time>2019-09-18T23:00:46Z</time>
      </trkpt>
      <trkpt lat="45.86189" lon="6.24867">
        <ele>1334</ele>
        <time>2019-09-18T23:00:50Z</time>
      </trkpt>
      <trkpt lat="45.8623" lon="6.24861">
        <ele>1317</ele>
        <time>2019-09-18T23:01:11Z</time>
      </trkpt>
      <trkpt lat="45.86241" lon="6.2487">
        <ele>1312</ele>
        <time>2019-09-18T23:01:17Z</time>
      </trkpt>
      <trkpt lat="45.86263" lon="6.24917">
        <ele>1298</ele>
        <time>2019-09-18T23:01:37Z</time>
      </trkpt>
      <trkpt lat="45.86264" lon="6.24932">
        <ele>1298</ele>
        <time>2019-09-18T23:01:42Z</time>
      </trkpt>
      <trkpt lat="45.86259" lon="6.24943">
        <ele>1302</ele>
        <time>2019-09-18T23:01:47Z</time>
      </trkpt>
      <trkpt lat="45.86263" lon="6.24928">
        <ele>1299</ele>
        <time>2019-09-18T23:01:52Z</time>
      </trkpt>
      <trkpt lat="45.8629" lon="6.24908">
        <ele>1286</ele>
        <time>2019-09-18T23:02:07Z</time>
      </trkpt>
      <trkpt lat="45.86298" lon="6.24886">
        <ele>1285</ele>
        <time>2019-09-18T23:02:16Z</time>
      </trkpt>
      <trkpt lat="45.86295" lon="6.24873">
        <ele>1288</ele>
        <time>2019-09-18T23:02:21Z</time>
      </trkpt>
      <trkpt lat="45.86301" lon="6.2486">
        <ele>1287</ele>
        <time>2019-09-18T23:02:26Z</time>
      </trkpt>
      <trkpt lat="45.86311" lon="6.24855">
        <ele>1284</ele>
        <time>2019-09-18T23:02:32Z</time>
      </trkpt>
      <trkpt lat="45.86324" lon="6.24877">
        <ele>1275</ele>
        <time>2019-09-18T23:02:42Z</time>
      </trkpt>
      <trkpt lat="45.86355" lon="6.249">
        <ele>1261</ele>
        <time>2019-09-18T23:02:59Z</time>
      </trkpt>
      <trkpt lat="45.8637" lon="6.24899">
        <ele>1257</ele>
        <time>2019-09-18T23:03:07Z</time>
      </trkpt>
      <trkpt lat="45.86382" lon="6.24895">
        <ele>1255</ele>
        <time>2019-09-18T23:03:13Z</time>
      </trkpt>
      <trkpt lat="45.86399" lon="6.24885">
        <ele>1252</ele>
        <time>2019-09-18T23:03:22Z</time>
      </trkpt>
      <trkpt lat="45.86407" lon="6.24876">
        <ele>1251</ele>
        <time>2019-09-18T23:03:27Z</time>
      </trkpt>
      <trkpt lat="45.86415" lon="6.24846">
        <ele>1253</ele>
        <time>2019-09-18T23:03:38Z</time>
      </trkpt>
      <trkpt lat="45.86423" lon="6.24836">
        <ele>1252</ele>
        <time>2019-09-18T23:03:43Z</time>
      </trkpt>
      <trkpt lat="45.86473" lon="6.24841">
        <ele>1238</ele>
        <time>2019-09-18T23:04:09Z</time>
      </trkpt>
      <trkpt lat="45.86495" lon="6.24846">
        <ele>1231</ele>
        <time>2019-09-18T23:04:20Z</time>
      </trkpt>
      <trkpt lat="45.86504" lon="6.24844">
        <ele>1228</ele>
        <time>2019-09-18T23:04:24Z</time>
      </trkpt>
      <trkpt lat="45.86515" lon="6.24854">
        <ele>1223</ele>
        <time>2019-09-18T23:04:31Z</time>
      </trkpt>
      <trkpt lat="45.86519" lon="6.24867">
        <ele>1219</ele>
        <time>2019-09-18T23:04:36Z</time>
      </trkpt>
      <trkpt lat="45.8652" lon="6.24897">
        <ele>1213</ele>
        <time>2019-09-18T23:04:46Z</time>
      </trkpt>
      <trkpt lat="45.86525" lon="6.24928">
        <ele>1208</ele>
        <time>2019-09-18T23:04:57Z</time>
      </trkpt>
      <trkpt lat="45.86524" lon="6.24941">
        <ele>1208</ele>
        <time>2019-09-18T23:05:02Z</time>
      </trkpt>
      <trkpt lat="45.8652" lon="6.24953">
        <ele>1209</ele>
        <time>2019-09-18T23:05:06Z</time>
      </trkpt>
      <trkpt lat="45.86529" lon="6.24959">
        <ele>1207</ele>
        <time>2019-09-18T23:05:11Z</time>
      </trkpt>
      <trkpt lat="45.86536" lon="6.2495">
        <ele>1206</ele>
        <time>2019-09-18T23:05:16Z</time>
      </trkpt>
      <trkpt lat="45.86562" lon="6.24899">
        <ele>1199</ele>
        <time>2019-09-18T23:05:38Z</time>
      </trkpt>
      <trkpt lat="45.86572" lon="6.24894">
        <ele>1197</ele>
        <time>2019-09-18T23:05:43Z</time>
      </trkpt>
      <trkpt lat="45.86622" lon="6.24891">
        <ele>1181</ele>
        <time>2019-09-18T23:06:09Z</time>
      </trkpt>
      <trkpt lat="45.8663" lon="6.24883">
        <ele>1179</ele>
        <time>2019-09-18T23:06:13Z</time>
      </trkpt>
      <trkpt lat="45.86641" lon="6.24879">
        <ele>1177</ele>
        <time>2019-09-18T23:06:19Z</time>
      </trkpt>
      <trkpt lat="45.86647" lon="6.2487">
        <ele>1176</ele>
        <time>2019-09-18T23:06:23Z</time>
      </trkpt>
      <trkpt lat="45.86668" lon="6.24862">
        <ele>1171</ele>
        <time>2019-09-18T23:06:34Z</time>
      </trkpt>
      <trkpt lat="45.86709" lon="6.24839">
        <ele>1160</ele>
        <time>2019-09-18T23:06:56Z</time>
      </trkpt>
      <trkpt lat="45.86716" lon="6.24838">
        <ele>1158</ele>
        <time>2019-09-18T23:07:00Z</time>
      </trkpt>
      <trkpt lat="45.86748" lon="6.24845">
        <ele>1146</ele>
        <time>2019-09-18T23:07:16Z</time>
      </trkpt>
      <trkpt lat="45.86778" lon="6.24839">
        <ele>1134</ele>
        <time>2019-09-18T23:07:31Z</time>
      </trkpt>
      <trkpt lat="45.8679" lon="6.24839">
        <ele>1129</ele>
        <time>2019-09-18T23:07:37Z</time>
      </trkpt>
      <trkpt lat="45.86799" lon="6.24843">
        <ele>1125</ele>
        <time>2019-09-18T23:07:42Z</time>
      </trkpt>
      <trkpt lat="45.8683" lon="6.24808">
        <ele>1117</ele>
        <time>2019-09-18T23:08:02Z</time>
      </trkpt>
      <trkpt lat="45.86858" lon="6.24782">
        <ele>1112</ele>
        <time>2019-09-18T23:08:18Z</time>
      </trkpt>
      <trkpt lat="45.86879" lon="6.24748">
        <ele>1109</ele>
        <time>2019-09-18T23:08:34Z</time>
      </trkpt>
      <trkpt lat="45.86897" lon="6.24733">
        <ele>1106</ele>
        <time>2019-09-18T23:08:45Z</time>
      </trkpt>
      <trkpt lat="45.86919" lon="6.24743">
        <ele>1093</ele>
        <time>2019-09-18T23:08:56Z</time>
      </trkpt>
      <trkpt lat="45.8693" lon="6.24751">
        <ele>1087</ele>
        <time>2019-09-18T23:09:02Z</time>
      </trkpt>
      <trkpt lat="45.8694" lon="6.24749">
        <ele>1083</ele>
        <time>2019-09-18T23:09:07Z</time>
      </trkpt>
      <trkpt lat="45.86965" lon="6.2473">
        <ele>1079</ele>
        <time>2019-09-18T23:09:22Z</time>
      </trkpt>
      <trkpt lat="45.86974" lon="6.24725">
        <ele>1076</ele>
        <time>2019-09-18T23:09:26Z</time>
      </trkpt>
      <trkpt lat="45.86986" lon="6.24723">
        <ele>1072</ele>
        <time>2019-09-18T23:09:32Z</time>
      </trkpt>
      <trkpt lat="45.87007" lon="6.24709">
        <ele>1067</ele>
        <time>2019-09-18T23:09:44Z</time>
      </trkpt>
      <trkpt lat="45.87026" lon="6.2471">
        <ele>1057</ele>
        <time>2019-09-18T23:09:53Z</time>
      </trkpt>
      <trkpt lat="45.87071" lon="6.24679">
        <ele>1041</ele>
        <time>2019-09-18T23:10:18Z</time>
      </trkpt>
      <trkpt lat="45.87098" lon="6.24634">
        <ele>1039</ele>
        <time>2019-09-18T23:10:39Z</time>
      </trkpt>
      <trkpt lat="45.87116" lon="6.24625">
        <ele>1031</ele>
        <time>2019-09-18T23:10:49Z</time>
      </trkpt>
      <trkpt lat="45.87123" lon="6.24616">
        <ele>1030</ele>
        <time>2019-09-18T23:10:53Z</time>
      </trkpt>
      <trkpt lat="45.87133" lon="6.24615">
        <ele>1025</ele>
        <time>2019-09-18T23:10:58Z</time>
      </trkpt>
      <trkpt lat="45.87161" lon="6.24594">
        <ele>1014</ele>
        <time>2019-09-18T23:11:14Z</time>
      </trkpt>
      <trkpt lat="45.87172" lon="6.24592">
        <ele>1008</ele>
        <time>2019-09-18T23:11:20Z</time>
      </trkpt>
      <trkpt lat="45.87181" lon="6.24582">
        <ele>1005</ele>
        <time>2019-09-18T23:11:25Z</time>
      </trkpt>
      <trkpt lat="45.87198" lon="6.24571">
        <ele>997</ele>
        <time>2019-09-18T23:11:35Z</time>
      </trkpt>
      <trkpt lat="45.87206" lon="6.2456">
        <ele>995</ele>
        <time>2019-09-18T23:11:40Z</time>
      </trkpt>
      <trkpt lat="45.87225" lon="6.24545">
        <ele>986</ele>
        <time>2019-09-18T23:11:51Z</time>
      </trkpt>
      <trkpt lat="45.87245" lon="6.24536">
        <ele>975</ele>
        <time>2019-09-18T23:12:02Z</time>
      </trkpt>
      <trkpt lat="45.87275" lon="6.24496">
        <ele>962</ele>
        <time>2019-09-18T23:12:22Z</time>
      </trkpt>
      <trkpt lat="45.87304" lon="6.24479">
        <ele>948</ele>
        <time>2019-09-18T23:12:38Z</time>
      </trkpt>
      <trkpt lat="45.87323" lon="6.24473">
        <ele>937</ele>
        <time>2019-09-18T23:12:48Z</time>
      </trkpt>
      <trkpt lat="45.87358" lon="6.24446">
        <ele>923</ele>
        <time>2019-09-18T23:13:07Z</time>
      </trkpt>
      <trkpt lat="45.87366" lon="6.24437">
        <ele>920</ele>
        <time>2019-09-18T23:13:13Z</time>
      </trkpt>
      <trkpt lat="45.87371" lon="6.2441">
        <ele>923</ele>
        <time>2019-09-18T23:13:22Z</time>
      </trkpt>
      <trkpt lat="45.87377" lon="6.24398">
        <ele>923</ele>
        <time>2019-09-18T23:13:27Z</time>
      </trkpt>
      <trkpt lat="45.87386" lon="6.2439">
        <ele>920</ele>
        <time>2019-09-18T23:13:33Z</time>
      </trkpt>
      <trkpt lat="45.87395" lon="6.24395">
        <ele>913</ele>
        <time>2019-09-18T23:13:38Z</time>
      </trkpt>
      <trkpt lat="45.87405" lon="6.24395">
        <ele>907</ele>
        <time>2019-09-18T23:13:43Z</time>
      </trkpt>
      <trkpt lat="45.87417" lon="6.24389">
        <ele>900</ele>
        <time>2019-09-18T23:13:49Z</time>
      </trkpt>
      <trkpt lat="45.87429" lon="6.24363">
        <ele>899</ele>
        <time>2019-09-18T23:14:00Z</time>
      </trkpt>
      <trkpt lat="45.87452" lon="6.2433">
        <ele>893</ele>
        <time>2019-09-18T23:14:16Z</time>
      </trkpt>
      <trkpt lat="45.87462" lon="6.24327">
        <ele>888</ele>
        <time>2019-09-18T23:14:21Z</time>
      </trkpt>
      <trkpt lat="45.87471" lon="6.24321">
        <ele>885</ele>
        <time>2019-09-18T23:14:26Z</time>
      </trkpt>
      <trkpt lat="45.8749" lon="6.24305">
        <ele>878</ele>
        <time>2019-09-18T23:14:37Z</time>
      </trkpt>
      <trkpt lat="45.87497" lon="6.24296">
        <ele>876</ele>
        <time>2019-09-18T23:14:42Z</time>
      </trkpt>
      <trkpt lat="45.87506" lon="6.24292">
        <ele>873</ele>
        <time>2019-09-18T23:14:47Z</time>
      </trkpt>
      <trkpt lat="45.87514" lon="6.24303">
        <ele>867</ele>
        <time>2019-09-18T23:14:52Z</time>
      </trkpt>
      <trkpt lat="45.87546" lon="6.24289">
        <ele>859</ele>
        <time>2019-09-18T23:15:09Z</time>
      </trkpt>
      <trkpt lat="45.87565" lon="6.24273">
        <ele>855</ele>
        <time>2019-09-18T23:15:20Z</time>
      </trkpt>
      <trkpt lat="45.87572" lon="6.24264">
        <ele>855</ele>
        <time>2019-09-18T23:15:25Z</time>
      </trkpt>
      <trkpt lat="45.87589" lon="6.24252">
        <ele>850</ele>
        <time>2019-09-18T23:15:34Z</time>
      </trkpt>
      <trkpt lat="45.87598" lon="6.24249">
        <ele>846</ele>
        <time>2019-09-18T23:15:39Z</time>
      </trkpt>
      <trkpt lat="45.87614" lon="6.24233">
        <ele>843</ele>
        <time>2019-09-18T23:15:48Z</time>
      </trkpt>
      <trkpt lat="45.87633" lon="6.24219">
        <ele>836</ele>
        <time>2019-09-18T23:15:59Z</time>
      </trkpt>
      <trkpt lat="45.87637" lon="6.24205">
        <ele>837</ele>
        <time>2019-09-18T23:16:04Z</time>
      </trkpt>
      <trkpt lat="45.87663" lon="6.24175">
        <ele>830</ele>
        <time>2019-09-18T23:16:21Z</time>
      </trkpt>
      <trkpt lat="45.87673" lon="6.24168">
        <ele>827</ele>
        <time>2019-09-18T23:16:27Z</time>
      </trkpt>
      <trkpt lat="45.87677" lon="6.24156">
        <ele>827</ele>
        <time>2019-09-18T23:16:31Z</time>
      </trkpt>
      <trkpt lat="45.87693" lon="6.24137">
        <ele>823</ele>
        <time>2019-09-18T23:16:42Z</time>
      </trkpt>
      <trkpt lat="45.87708" lon="6.24114">
        <ele>820</ele>
        <time>2019-09-18T23:16:53Z</time>
      </trkpt>
      <trkpt lat="45.87713" lon="6.24102">
        <ele>820</ele>
        <time>2019-09-18T23:16:58Z</time>
      </trkpt>
      <trkpt lat="45.8772" lon="6.24059">
        <ele>824</ele>
        <time>2019-09-18T23:17:13Z</time>
      </trkpt>
      <trkpt lat="45.8773" lon="6.24028">
        <ele>825</ele>
        <time>2019-09-18T23:17:25Z</time>
      </trkpt>
      <trkpt lat="45.87776" lon="6.23957">
        <ele>811</ele>
        <time>2019-09-18T23:17:59Z</time>
      </trkpt>
      <trkpt lat="45.87785" lon="6.23869">
        <ele>805</ele>
        <time>2019-09-18T23:18:30Z</time>
      </trkpt>
      <trkpt lat="45.87785" lon="6.2381">
        <ele>799</ele>
        <time>2019-09-18T23:18:50Z</time>
      </trkpt>
      <trkpt lat="45.8778" lon="6.23779">
        <ele>796</ele>
        <time>2019-09-18T23:19:01Z</time>
      </trkpt>
      <trkpt lat="45.87764" lon="6.23739">
        <ele>798</ele>
        <time>2019-09-18T23:19:17Z</time>
      </trkpt>
      <trkpt lat="45.87766" lon="6.23726">
        <ele>798</ele>
        <time>2019-09-18T23:19:22Z</time>
      </trkpt>
      <trkpt lat="45.87776" lon="6.23701">
        <ele>795</ele>
        <time>2019-09-18T23:19:32Z</time>
      </trkpt>
      <trkpt lat="45.87785" lon="6.23697">
        <ele>792</ele>
        <time>2019-09-18T23:19:37Z</time>
      </trkpt>
      <trkpt lat="45.87804" lon="6.23697">
        <ele>785</ele>
        <time>2019-09-18T23:19:46Z</time>
      </trkpt>
      <trkpt lat="45.87827" lon="6.2368">
        <ele>775</ele>
        <time>2019-09-18T23:19:59Z</time>
      </trkpt>
      <trkpt lat="45.87834" lon="6.23668">
        <ele>772</ele>
        <time>2019-09-18T23:20:05Z</time>
      </trkpt>
      <trkpt lat="45.87835" lon="6.23653">
        <ele>771</ele>
        <time>2019-09-18T23:20:10Z</time>
      </trkpt>
      <trkpt lat="45.87825" lon="6.23605">
        <ele>775</ele>
        <time>2019-09-18T23:20:27Z</time>
      </trkpt>
      <trkpt lat="45.87825" lon="6.23591">
        <ele>775</ele>
        <time>2019-09-18T23:20:32Z</time>
      </trkpt>
      <trkpt lat="45.87818" lon="6.23582">
        <ele>778</ele>
        <time>2019-09-18T23:20:37Z</time>
      </trkpt>
      <trkpt lat="45.87813" lon="6.23569">
        <ele>780</ele>
        <time>2019-09-18T23:20:42Z</time>
      </trkpt>
      <trkpt lat="45.87806" lon="6.2354">
        <ele>782</ele>
        <time>2019-09-18T23:20:53Z</time>
      </trkpt>
      <trkpt lat="45.878" lon="6.23527">
        <ele>783</ele>
        <time>2019-09-18T23:20:58Z</time>
      </trkpt>
      <trkpt lat="45.87791" lon="6.23495">
        <ele>785</ele>
        <time>2019-09-18T23:21:10Z</time>
      </trkpt>
      <trkpt lat="45.87794" lon="6.23452">
        <ele>784</ele>
        <time>2019-09-18T23:21:25Z</time>
      </trkpt>
      <trkpt lat="45.87801" lon="6.23438">
        <ele>782</ele>
        <time>2019-09-18T23:21:31Z</time>
      </trkpt>
      <trkpt lat="45.87838" lon="6.23385">
        <ele>773</ele>
        <time>2019-09-18T23:21:57Z</time>
      </trkpt>
      <trkpt lat="45.87859" lon="6.23347">
        <ele>769</ele>
        <time>2019-09-18T23:22:14Z</time>
      </trkpt>
      <trkpt lat="45.87875" lon="6.23304">
        <ele>767</ele>
        <time>2019-09-18T23:22:31Z</time>
      </trkpt>
      <trkpt lat="45.87876" lon="6.23291">
        <ele>767</ele>
        <time>2019-09-18T23:22:36Z</time>
      </trkpt>
      <trkpt lat="45.8789" lon="6.2325">
        <ele>765</ele>
        <time>2019-09-18T23:22:52Z</time>
      </trkpt>
      <trkpt lat="45.87895" lon="6.23211">
        <ele>767</ele>
        <time>2019-09-18T23:23:06Z</time>
      </trkpt>
      <trkpt lat="45.87927" lon="6.23154">
        <ele>764</ele>
        <time>2019-09-18T23:23:31Z</time>
      </trkpt>
      <trkpt lat="45.87934" lon="6.23125">
        <ele>766</ele>
        <time>2019-09-18T23:23:42Z</time>
      </trkpt>
      <trkpt lat="45.8794" lon="6.23113">
        <ele>767</ele>
        <time>2019-09-18T23:23:47Z</time>
      </trkpt>
      <trkpt lat="45.8796" lon="6.2308">
        <ele>767</ele>
        <time>2019-09-18T23:24:02Z</time>
      </trkpt>
      <trkpt lat="45.87976" lon="6.23062">
        <ele>765</ele>
        <time>2019-09-18T23:24:12Z</time>
      </trkpt>
      <trkpt lat="45.87996" lon="6.23003">
        <ele>765</ele>
        <time>2019-09-18T23:24:35Z</time>
      </trkpt>
      <trkpt lat="45.88013" lon="6.22971">
        <ele>764</ele>
        <time>2019-09-18T23:24:49Z</time>
      </trkpt>
      <trkpt lat="45.88009" lon="6.22956">
        <ele>765</ele>
        <time>2019-09-18T23:24:55Z</time>
      </trkpt>
      <trkpt lat="45.88012" lon="6.2294">
        <ele>766</ele>
        <time>2019-09-18T23:25:01Z</time>
      </trkpt>
      <trkpt lat="45.88009" lon="6.22911">
        <ele>767</ele>
        <time>2019-09-18T23:25:11Z</time>
      </trkpt>
      <trkpt lat="45.87996" lon="6.2289">
        <ele>769</ele>
        <time>2019-09-18T23:25:21Z</time>
      </trkpt>
      <trkpt lat="45.87977" lon="6.22844">
        <ele>770</ele>
        <time>2019-09-18T23:25:39Z</time>
      </trkpt>
      <trkpt lat="45.8797" lon="6.22835">
        <ele>771</ele>
        <time>2019-09-18T23:25:44Z</time>
      </trkpt>
      <trkpt lat="45.87959" lon="6.22832">
        <ele>774</ele>
        <time>2019-09-18T23:25:50Z</time>
      </trkpt>
      <trkpt lat="45.87941" lon="6.22834">
        <ele>779</ele>
        <time>2019-09-18T23:25:59Z</time>
      </trkpt>
      <trkpt lat="45.87932" lon="6.22827">
        <ele>781</ele>
        <time>2019-09-18T23:26:04Z</time>
      </trkpt>
      <trkpt lat="45.87928" lon="6.22816">
        <ele>782</ele>
        <time>2019-09-18T23:26:08Z</time>
      </trkpt>
      <trkpt lat="45.8791" lon="6.22802">
        <ele>785</ele>
        <time>2019-09-18T23:26:18Z</time>
      </trkpt>
      <trkpt lat="45.87888" lon="6.22778">
        <ele>787</ele>
        <time>2019-09-18T23:26:32Z</time>
      </trkpt>
      <trkpt lat="45.87868" lon="6.22774">
        <ele>790</ele>
        <time>2019-09-18T23:26:42Z</time>
      </trkpt>
      <trkpt lat="45.8786" lon="6.22778">
        <ele>791</ele>
        <time>2019-09-18T23:26:46Z</time>
      </trkpt>
      <trkpt lat="45.87848" lon="6.22777">
        <ele>793</ele>
        <time>2019-09-18T23:26:52Z</time>
      </trkpt>
      <trkpt lat="45.87837" lon="6.22773">
        <ele>794</ele>
        <time>2019-09-18T23:26:58Z</time>
      </trkpt>
      <trkpt lat="45.87803" lon="6.22744">
        <ele>799</ele>
        <time>2019-09-18T23:27:18Z</time>
      </trkpt>
      <trkpt lat="45.87794" lon="6.22734">
        <ele>800</ele>
        <time>2019-09-18T23:27:24Z</time>
      </trkpt>
      <trkpt lat="45.87781" lon="6.22711">
        <ele>802</ele>
        <time>2019-09-18T23:27:34Z</time>
      </trkpt>
      <trkpt lat="45.87775" lon="6.22694">
        <ele>802</ele>
        <time>2019-09-18T23:27:41Z</time>
      </trkpt>
      <trkpt lat="45.87771" lon="6.22667">
        <ele>801</ele>
        <time>2019-09-18T23:27:50Z</time>
      </trkpt>
      <trkpt lat="45.87765" lon="6.22655">
        <ele>800</ele>
        <time>2019-09-18T23:27:55Z</time>
      </trkpt>
      <trkpt lat="45.8775" lon="6.2264">
        <ele>801</ele>
        <time>2019-09-18T23:28:04Z</time>
      </trkpt>
      <trkpt lat="45.87735" lon="6.22617">
        <ele>802</ele>
        <time>2019-09-18T23:28:15Z</time>
      </trkpt>
      <trkpt lat="45.87709" lon="6.22594">
        <ele>804</ele>
        <time>2019-09-18T23:28:31Z</time>
      </trkpt>
      <trkpt lat="45.87662" lon="6.22579">
        <ele>811</ele>
        <time>2019-09-18T23:28:55Z</time>
      </trkpt>
      <trkpt lat="45.87653" lon="6.22574">
        <ele>812</ele>
        <time>2019-09-18T23:29:00Z</time>
      </trkpt>
      <trkpt lat="45.87643" lon="6.22574">
        <ele>814</ele>
        <time>2019-09-18T23:29:05Z</time>
      </trkpt>
      <trkpt lat="45.87608" lon="6.22548">
        <ele>817</ele>
        <time>2019-09-18T23:29:24Z</time>
      </trkpt>
      <trkpt lat="45.87572" lon="6.22526">
        <ele>821</ele>
        <time>2019-09-18T23:29:44Z</time>
      </trkpt>
      <trkpt lat="45.87547" lon="6.22504">
        <ele>821</ele>
        <time>2019-09-18T23:29:59Z</time>
      </trkpt>
      <trkpt lat="45.87496" lon="6.2247">
        <ele>820</ele>
        <time>2019-09-18T23:30:27Z</time>
      </trkpt>
      <trkpt lat="45.87469" lon="6.22448">
        <ele>815</ele>
        <time>2019-09-18T23:30:42Z</time>
      </trkpt>
      <trkpt lat="45.87448" lon="6.2244">
        <ele>814</ele>
        <time>2019-09-18T23:30:53Z</time>
      </trkpt>
      <trkpt lat="45.87437" lon="6.2244">
        <ele>814</ele>
        <time>2019-09-18T23:30:59Z</time>
      </trkpt>
      <trkpt lat="45.87385" lon="6.22454">
        <ele>817</ele>
        <time>2019-09-18T23:31:25Z</time>
      </trkpt>
      <trkpt lat="45.87354" lon="6.22442">
        <ele>815</ele>
        <time>2019-09-18T23:31:41Z</time>
      </trkpt>
      <trkpt lat="45.8734" lon="6.22443">
        <ele>815</ele>
        <time>2019-09-18T23:31:48Z</time>
      </trkpt>
      <trkpt lat="45.87298" lon="6.22378">
        <ele>810</ele>
        <time>2019-09-18T23:32:19Z</time>
      </trkpt>
      <trkpt lat="45.87293" lon="6.22365">
        <ele>809</ele>
        <time>2019-09-18T23:32:24Z</time>
      </trkpt>
      <trkpt lat="45.87288" lon="6.22322">
        <ele>803</ele>
        <time>2019-09-18T23:32:40Z</time>
      </trkpt>
      <trkpt lat="45.8728" lon="6.22296">
        <ele>801</ele>
        <time>2019-09-18T23:32:49Z</time>
      </trkpt>
      <trkpt lat="45.87279" lon="6.22253">
        <ele>794</ele>
        <time>2019-09-18T23:33:04Z</time>
      </trkpt>
      <trkpt lat="45.87274" lon="6.22227">
        <ele>792</ele>
        <time>2019-09-18T23:33:14Z</time>
      </trkpt>
      <trkpt lat="45.87252" lon="6.22173">
        <ele>785</ele>
        <time>2019-09-18T23:33:36Z</time>
      </trkpt>
      <trkpt lat="45.87233" lon="6.22162">
        <ele>782</ele>
        <time>2019-09-18T23:33:46Z</time>
      </trkpt>
      <trkpt lat="45.8719" lon="6.22152">
        <ele>775</ele>
        <time>2019-09-18T23:34:08Z</time>
      </trkpt>
      <trkpt lat="45.87163" lon="6.22143">
        <ele>770</ele>
        <time>2019-09-18T23:34:22Z</time>
      </trkpt>
      <trkpt lat="45.87132" lon="6.22128">
        <ele>764</ele>
        <time>2019-09-18T23:34:38Z</time>
      </trkpt>
      <trkpt lat="45.87097" lon="6.22099">
        <ele>750</ele>
        <time>2019-09-18T23:34:58Z</time>
      </trkpt>
      <trkpt lat="45.87095" lon="6.22085">
        <ele>743</ele>
        <time>2019-09-18T23:35:03Z</time>
      </trkpt>
      <trkpt lat="45.87086" lon="6.22075">
        <ele>739</ele>
        <time>2019-09-18T23:35:09Z</time>
      </trkpt>
      <trkpt lat="45.87043" lon="6.22047">
        <ele>731</ele>
        <time>2019-09-18T23:35:32Z</time>
      </trkpt>
      <trkpt lat="45.87038" lon="6.22037">
        <ele>728</ele>
        <time>2019-09-18T23:35:37Z</time>
      </trkpt>
      <trkpt lat="45.86972" lon="6.21968">
        <ele>710</ele>
        <time>2019-09-18T23:36:18Z</time>
      </trkpt>
      <trkpt lat="45.86935" lon="6.21935">
        <ele>702</ele>
        <time>2019-09-18T23:36:39Z</time>
      </trkpt>
      <trkpt lat="45.86916" lon="6.21922">
        <ele>700</ele>
        <time>2019-09-18T23:36:50Z</time>
      </trkpt>
      <trkpt lat="45.86909" lon="6.21919">
        <ele>699</ele>
        <time>2019-09-18T23:36:54Z</time>
      </trkpt>
      <trkpt lat="45.86882" lon="6.21922">
        <ele>699</ele>
        <time>2019-09-18T23:37:07Z</time>
      </trkpt>
      <trkpt lat="45.86865" lon="6.21918">
        <ele>698</ele>
        <time>2019-09-18T23:37:16Z</time>
      </trkpt>
      <trkpt lat="45.86836" lon="6.21899">
        <ele>694</ele>
        <time>2019-09-18T23:37:32Z</time>
      </trkpt>
      <trkpt lat="45.86787" lon="6.21874">
        <ele>687</ele>
        <time>2019-09-18T23:37:58Z</time>
      </trkpt>
      <trkpt lat="45.86776" lon="6.21865">
        <ele>684</ele>
        <time>2019-09-18T23:38:04Z</time>
      </trkpt>
      <trkpt lat="45.86816" lon="6.2185">
        <ele>682</ele>
        <time>2019-09-18T23:38:25Z</time>
      </trkpt>
      <trkpt lat="45.8684" lon="6.2185">
        <ele>683</ele>
        <time>2019-09-18T23:38:37Z</time>
      </trkpt>
      <trkpt lat="45.86849" lon="6.21846">
        <ele>682</ele>
        <time>2019-09-18T23:38:41Z</time>
      </trkpt>
      <trkpt lat="45.86846" lon="6.21833">
        <ele>679</ele>
        <time>2019-09-18T23:38:46Z</time>
      </trkpt>
      <trkpt lat="45.86834" lon="6.21825">
        <ele>678</ele>
        <time>2019-09-18T23:38:53Z</time>
      </trkpt>
      <trkpt lat="45.86813" lon="6.21816">
        <ele>676</ele>
        <time>2019-09-18T23:39:04Z</time>
      </trkpt>
      <trkpt lat="45.8681" lon="6.21812">
        <ele>675</ele>
        <time>2019-09-18T23:39:06Z</time>
      </trkpt>
      <trkpt lat="45.8681" lon="6.21724">
        <ele>662</ele>
        <time>2019-09-18T23:39:36Z</time>
      </trkpt>
      <trkpt lat="45.86817" lon="6.21645">
        <ele>653</ele>
        <time>2019-09-18T23:40:04Z</time>
      </trkpt>
      <trkpt lat="45.86812" lon="6.21608">
        <ele>649</ele>
        <time>2019-09-18T23:40:17Z</time>
      </trkpt>
      <trkpt lat="45.86806" lon="6.21516">
        <ele>637</ele>
        <time>2019-09-18T23:40:50Z</time>
      </trkpt>
      <trkpt lat="45.86795" lon="6.21405">
        <ele>624</ele>
        <time>2019-09-18T23:41:29Z</time>
      </trkpt>
      <trkpt lat="45.86791" lon="6.21378">
        <ele>622</ele>
        <time>2019-09-18T23:41:38Z</time>
      </trkpt>
      <trkpt lat="45.8678" lon="6.21342">
        <ele>618</ele>
        <time>2019-09-18T23:41:52Z</time>
      </trkpt>
      <trkpt lat="45.86782" lon="6.2132">
        <ele>616</ele>
        <time>2019-09-18T23:42:00Z</time>
      </trkpt>
      <trkpt lat="45.8678" lon="6.21281">
        <ele>613</ele>
        <time>2019-09-18T23:42:13Z</time>
      </trkpt>
      <trkpt lat="45.86779" lon="6.21269">
        <ele>612</ele>
        <time>2019-09-18T23:42:18Z</time>
      </trkpt>
      <trkpt lat="45.86776" lon="6.21263">
        <ele>611</ele>
        <time>2019-09-18T23:42:20Z</time>
      </trkpt>
      <trkpt lat="45.86773" lon="6.21222">
        <ele>607</ele>
        <time>2019-09-18T23:42:34Z</time>
      </trkpt>
      <trkpt lat="45.86757" lon="6.21173">
        <ele>602</ele>
        <time>2019-09-18T23:42:53Z</time>
      </trkpt>
      <trkpt lat="45.86751" lon="6.21144">
        <ele>599</ele>
        <time>2019-09-18T23:43:04Z</time>
      </trkpt>
      <trkpt lat="45.86726" lon="6.21075">
        <ele>593</ele>
        <time>2019-09-18T23:43:31Z</time>
      </trkpt>
      <trkpt lat="45.86719" lon="6.21014">
        <ele>590</ele>
        <time>2019-09-18T23:43:53Z</time>
      </trkpt>
      <trkpt lat="45.86733" lon="6.21003">
        <ele>590</ele>
        <time>2019-09-18T23:44:01Z</time>
      </trkpt>
      <trkpt lat="45.86745" lon="6.21015">
        <ele>591</ele>
        <time>2019-09-18T23:44:08Z</time>
      </trkpt>
      <trkpt lat="45.8676" lon="6.21011">
        <ele>592</ele>
        <time>2019-09-18T23:44:15Z</time>
      </trkpt>
      <trkpt lat="45.86765" lon="6.20998">
        <ele>592</ele>
        <time>2019-09-18T23:44:21Z</time>
      </trkpt>
      <trkpt lat="45.86832" lon="6.20986">
        <ele>599</ele>
        <time>2019-09-18T23:44:54Z</time>
      </trkpt>
      <trkpt lat="45.86948" lon="6.21054">
        <ele>607</ele>
        <time>2019-09-18T23:45:57Z</time>
      </trkpt>
      <trkpt lat="45.86969" lon="6.21062">
        <ele>609</ele>
        <time>2019-09-18T23:46:08Z</time>
      </trkpt>
      <trkpt lat="45.86999" lon="6.21022">
        <ele>611</ele>
        <time>2019-09-18T23:46:28Z</time>
      </trkpt>
      <trkpt lat="45.87025" lon="6.21009">
        <ele>613</ele>
        <time>2019-09-18T23:46:42Z</time>
      </trkpt>
      <trkpt lat="45.87042" lon="6.20986">
        <ele>616</ele>
        <time>2019-09-18T23:46:54Z</time>
      </trkpt>
      <trkpt lat="45.87042" lon="6.20943">
        <ele>617</ele>
        <time>2019-09-18T23:47:09Z</time>
      </trkpt>
      <trkpt lat="45.87031" lon="6.20818">
        <ele>627</ele>
        <time>2019-09-18T23:47:53Z</time>
      </trkpt>
      <trkpt lat="45.87005" lon="6.20769">
        <ele>629</ele>
        <time>2019-09-18T23:48:14Z</time>
      </trkpt>
      <trkpt lat="45.8701" lon="6.20715">
        <ele>634</ele>
        <time>2019-09-18T23:48:33Z</time>
      </trkpt>
      <trkpt lat="45.87016" lon="6.20714">
        <ele>635</ele>
        <time>2019-09-18T23:48:36Z</time>
      </trkpt>
      <trkpt lat="45.87035" lon="6.20737">
        <ele>636</ele>
        <time>2019-09-18T23:48:49Z</time>
      </trkpt>
      <trkpt lat="45.87056" lon="6.20729">
        <ele>639</ele>
        <time>2019-09-18T23:49:00Z</time>
      </trkpt>
      <trkpt lat="45.87083" lon="6.2078">
        <ele>638</ele>
        <time>2019-09-18T23:49:22Z</time>
      </trkpt>
      <trkpt lat="45.87166" lon="6.20857">
        <ele>641</ele>
        <time>2019-09-18T23:50:11Z</time>
      </trkpt>
      <trkpt lat="45.87245" lon="6.21007">
        <ele>635</ele>
        <time>2019-09-18T23:51:17Z</time>
      </trkpt>
      <trkpt lat="45.87271" lon="6.2104">
        <ele>635</ele>
        <time>2019-09-18T23:51:34Z</time>
      </trkpt>
      <trkpt lat="45.87274" lon="6.21081">
        <ele>632</ele>
        <time>2019-09-18T23:51:49Z</time>
      </trkpt>
      <trkpt lat="45.87319" lon="6.21033">
        <ele>638</ele>
        <time>2019-09-18T23:52:17Z</time>
      </trkpt>
      <trkpt lat="45.87334" lon="6.21004">
        <ele>642</ele>
        <time>2019-09-18T23:52:29Z</time>
      </trkpt>
      <trkpt lat="45.87319" lon="6.20966">
        <ele>644</ele>
        <time>2019-09-18T23:52:44Z</time>
      </trkpt>
      <trkpt lat="45.87277" lon="6.209">
        <ele>648</ele>
        <time>2019-09-18T23:53:16Z</time>
      </trkpt>
      <trkpt lat="45.87183" lon="6.20723">
        <ele>659</ele>
        <time>2019-09-18T23:54:33Z</time>
      </trkpt>
      <trkpt lat="45.87186" lon="6.20705">
        <ele>661</ele>
        <time>2019-09-18T23:54:40Z</time>
      </trkpt>
      <trkpt lat="45.87197" lon="6.20704">
        <ele>663</ele>
        <time>2019-09-18T23:54:45Z</time>
      </trkpt>
      <trkpt lat="45.87226" lon="6.20716">
        <ele>667</ele>
        <time>2019-09-18T23:55:00Z</time>
      </trkpt>
      <trkpt lat="45.87311" lon="6.207">
        <ele>684</ele>
        <time>2019-09-18T23:55:43Z</time>
      </trkpt>
      <trkpt lat="45.87347" lon="6.20703">
        <ele>689</ele>
        <time>2019-09-18T23:56:01Z</time>
      </trkpt>
      <trkpt lat="45.87344" lon="6.20684">
        <ele>692</ele>
        <time>2019-09-18T23:56:08Z</time>
      </trkpt>
      <trkpt lat="45.87334" lon="6.20662">
        <ele>695</ele>
        <time>2019-09-18T23:56:17Z</time>
      </trkpt>
      <trkpt lat="45.87315" lon="6.20642">
        <ele>697</ele>
        <time>2019-09-18T23:56:29Z</time>
      </trkpt>
      <trkpt lat="45.8727" lon="6.20612">
        <ele>694</ele>
        <time>2019-09-18T23:56:54Z</time>
      </trkpt>
      <trkpt lat="45.87151" lon="6.20504">
        <ele>696</ele>
        <time>2019-09-18T23:58:04Z</time>
      </trkpt>
      <trkpt lat="45.87128" lon="6.20486">
        <ele>698</ele>
        <time>2019-09-18T23:58:17Z</time>
      </trkpt>
      <trkpt lat="45.87106" lon="6.20446">
        <ele>708</ele>
        <time>2019-09-18T23:58:35Z</time>
      </trkpt>
      <trkpt lat="45.87146" lon="6.20437">
        <ele>727</ele>
        <time>2019-09-18T23:58:55Z</time>
      </trkpt>
      <trkpt lat="45.87184" lon="6.20447">
        <ele>735</ele>
        <time>2019-09-18T23:59:15Z</time>
      </trkpt>
      <trkpt lat="45.87242" lon="6.20439">
        <ele>758</ele>
        <time>2019-09-18T23:59:44Z</time>
      </trkpt>
      <trkpt lat="45.87292" lon="6.20438">
        <ele>768</ele>
        <time>2019-09-19T00:00:09Z</time>
      </trkpt>
      <trkpt lat="45.87337" lon="6.20429">
        <ele>780</ele>
        <time>2019-09-19T00:00:32Z</time>
      </trkpt>
      <trkpt lat="45.87405" lon="6.20447">
        <ele>785</ele>
        <time>2019-09-19T00:01:06Z</time>
      </trkpt>
      <trkpt lat="45.8745" lon="6.2044">
        <ele>795</ele>
        <time>2019-09-19T00:01:29Z</time>
      </trkpt>
      <trkpt lat="45.87481" lon="6.20432">
        <ele>803</ele>
        <time>2019-09-19T00:01:45Z</time>
      </trkpt>
      <trkpt lat="45.87495" lon="6.2042">
        <ele>810</ele>
        <time>2019-09-19T00:01:53Z</time>
      </trkpt>
      <trkpt lat="45.87563" lon="6.20421">
        <ele>819</ele>
        <time>2019-09-19T00:02:27Z</time>
      </trkpt>
      <trkpt lat="45.87613" lon="6.2041">
        <ele>830</ele>
        <time>2019-09-19T00:02:52Z</time>
      </trkpt>
      <trkpt lat="45.87635" lon="6.20402">
        <ele>836</ele>
        <time>2019-09-19T00:03:03Z</time>
      </trkpt>
      <trkpt lat="45.87659" lon="6.20403">
        <ele>837</ele>
        <time>2019-09-19T00:03:15Z</time>
      </trkpt>
      <trkpt lat="45.8769" lon="6.20386">
        <ele>848</ele>
        <time>2019-09-19T00:03:32Z</time>
      </trkpt>
      <trkpt lat="45.87739" lon="6.20373">
        <ele>854</ele>
        <time>2019-09-19T00:03:57Z</time>
      </trkpt>
      <trkpt lat="45.87765" lon="6.20354">
        <ele>861</ele>
        <time>2019-09-19T00:04:12Z</time>
      </trkpt>
      <trkpt lat="45.87785" lon="6.20328">
        <ele>868</ele>
        <time>2019-09-19T00:04:25Z</time>
      </trkpt>
      <trkpt lat="45.87804" lon="6.20284">
        <ele>876</ele>
        <time>2019-09-19T00:04:43Z</time>
      </trkpt>
      <trkpt lat="45.878" lon="6.20262">
        <ele>884</ele>
        <time>2019-09-19T00:04:51Z</time>
      </trkpt>
      <trkpt lat="45.8781" lon="6.20246">
        <ele>887</ele>
        <time>2019-09-19T00:04:59Z</time>
      </trkpt>
      <trkpt lat="45.87836" lon="6.20232">
        <ele>888</ele>
        <time>2019-09-19T00:05:12Z</time>
      </trkpt>
      <trkpt lat="45.87902" lon="6.20246">
        <ele>878</ele>
        <time>2019-09-19T00:05:46Z</time>
      </trkpt>
      <trkpt lat="45.88016" lon="6.20233">
        <ele>877</ele>
        <time>2019-09-19T00:06:43Z</time>
      </trkpt>
      <trkpt lat="45.88072" lon="6.20232">
        <ele>871</ele>
        <time>2019-09-19T00:07:11Z</time>
      </trkpt>
      <trkpt lat="45.88096" lon="6.20218">
        <ele>875</ele>
        <time>2019-09-19T00:07:24Z</time>
      </trkpt>
      <trkpt lat="45.88164" lon="6.20141">
        <ele>899</ele>
        <time>2019-09-19T00:08:07Z</time>
      </trkpt>
      <trkpt lat="45.8817" lon="6.20154">
        <ele>895</ele>
        <time>2019-09-19T00:08:13Z</time>
      </trkpt>
      <trkpt lat="45.88178" lon="6.20198">
        <ele>880</ele>
        <time>2019-09-19T00:08:29Z</time>
      </trkpt>
      <trkpt lat="45.88195" lon="6.20221">
        <ele>876</ele>
        <time>2019-09-19T00:08:40Z</time>
      </trkpt>
      <trkpt lat="45.88235" lon="6.20255">
        <ele>873</ele>
        <time>2019-09-19T00:09:04Z</time>
      </trkpt>
      <trkpt lat="45.88352" lon="6.20289">
        <ele>877</ele>
        <time>2019-09-19T00:10:03Z</time>
      </trkpt>
      <trkpt lat="45.88412" lon="6.20287">
        <ele>879</ele>
        <time>2019-09-19T00:10:33Z</time>
      </trkpt>
      <trkpt lat="45.88456" lon="6.20264">
        <ele>892</ele>
        <time>2019-09-19T00:10:57Z</time>
      </trkpt>
      <trkpt lat="45.88492" lon="6.20258">
        <ele>898</ele>
        <time>2019-09-19T00:11:15Z</time>
      </trkpt>
      <trkpt lat="45.88526" lon="6.20264">
        <ele>900</ele>
        <time>2019-09-19T00:11:32Z</time>
      </trkpt>
      <trkpt lat="45.88548" lon="6.20247">
        <ele>912</ele>
        <time>2019-09-19T00:11:45Z</time>
      </trkpt>
      <trkpt lat="45.8858" lon="6.20242">
        <ele>919</ele>
        <time>2019-09-19T00:12:01Z</time>
      </trkpt>
      <trkpt lat="45.88644" lon="6.20209">
        <ele>942</ele>
        <time>2019-09-19T00:12:35Z</time>
      </trkpt>
      <trkpt lat="45.88673" lon="6.20216">
        <ele>942</ele>
        <time>2019-09-19T00:12:49Z</time>
      </trkpt>
      <trkpt lat="45.88709" lon="6.20208">
        <ele>950</ele>
        <time>2019-09-19T00:13:08Z</time>
      </trkpt>
      <trkpt lat="45.88762" lon="6.20179">
        <ele>967</ele>
        <time>2019-09-19T00:13:36Z</time>
      </trkpt>
      <trkpt lat="45.888" lon="6.20198">
        <ele>962</ele>
        <time>2019-09-19T00:13:56Z</time>
      </trkpt>
      <trkpt lat="45.88824" lon="6.202">
        <ele>963</ele>
        <time>2019-09-19T00:14:08Z</time>
      </trkpt>
      <trkpt lat="45.88858" lon="6.2018">
        <ele>978</ele>
        <time>2019-09-19T00:14:27Z</time>
      </trkpt>
      <trkpt lat="45.88874" lon="6.20163">
        <ele>989</ele>
        <time>2019-09-19T00:14:37Z</time>
      </trkpt>
      <trkpt lat="45.88923" lon="6.20182">
        <ele>988</ele>
        <time>2019-09-19T00:15:02Z</time>
      </trkpt>
      <trkpt lat="45.88994" lon="6.20198">
        <ele>992</ele>
        <time>2019-09-19T00:15:38Z</time>
      </trkpt>
      <trkpt lat="45.89119" lon="6.20177">
        <ele>1020</ele>
        <time>2019-09-19T00:16:41Z</time>
      </trkpt>
      <trkpt lat="45.89168" lon="6.20175">
        <ele>1030</ele>
        <time>2019-09-19T00:17:05Z</time>
      </trkpt>
      <trkpt lat="45.89277" lon="6.20179">
        <ele>1053</ele>
        <time>2019-09-19T00:18:00Z</time>
      </trkpt>
      <trkpt lat="45.89311" lon="6.20195">
        <ele>1051</ele>
        <time>2019-09-19T00:18:18Z</time>
      </trkpt>
      <trkpt lat="45.89333" lon="6.20193">
        <ele>1056</ele>
        <time>2019-09-19T00:18:29Z</time>
      </trkpt>
      <trkpt lat="45.89376" lon="6.2018">
        <ele>1064</ele>
        <time>2019-09-19T00:18:51Z</time>
      </trkpt>
      <trkpt lat="45.89451" lon="6.2014">
        <ele>1085</ele>
        <time>2019-09-19T00:19:31Z</time>
      </trkpt>
      <trkpt lat="45.89517" lon="6.20117">
        <ele>1083</ele>
        <time>2019-09-19T00:20:05Z</time>
      </trkpt>
      <trkpt lat="45.8954" lon="6.201">
        <ele>1080</ele>
        <time>2019-09-19T00:20:18Z</time>
      </trkpt>
      <trkpt lat="45.8952" lon="6.20007">
        <ele>1075</ele>
        <time>2019-09-19T00:20:52Z</time>
      </trkpt>
      <trkpt lat="45.89497" lon="6.19973">
        <ele>1073</ele>
        <time>2019-09-19T00:21:08Z</time>
      </trkpt>
      <trkpt lat="45.89448" lon="6.19934">
        <ele>1070</ele>
        <time>2019-09-19T00:21:36Z</time>
      </trkpt>
      <trkpt lat="45.89378" lon="6.19899">
        <ele>1070</ele>
        <time>2019-09-19T00:22:13Z</time>
      </trkpt>
      <trkpt lat="45.89337" lon="6.19869">
        <ele>1065</ele>
        <time>2019-09-19T00:22:36Z</time>
      </trkpt>
      <trkpt lat="45.89283" lon="6.19781">
        <ele>1058</ele>
        <time>2019-09-19T00:23:17Z</time>
      </trkpt>
      <trkpt lat="45.89267" lon="6.19745">
        <ele>1051</ele>
        <time>2019-09-19T00:23:32Z</time>
      </trkpt>
      <trkpt lat="45.89257" lon="6.19697">
        <ele>1039</ele>
        <time>2019-09-19T00:23:50Z</time>
      </trkpt>
      <trkpt lat="45.89219" lon="6.19653">
        <ele>1041</ele>
        <time>2019-09-19T00:24:14Z</time>
      </trkpt>
      <trkpt lat="45.89167" lon="6.19612">
        <ele>1051</ele>
        <time>2019-09-19T00:24:44Z</time>
      </trkpt>
      <trkpt lat="45.89142" lon="6.19588">
        <ele>1056</ele>
        <time>2019-09-19T00:24:59Z</time>
      </trkpt>
      <trkpt lat="45.89105" lon="6.19524">
        <ele>1058</ele>
        <time>2019-09-19T00:25:28Z</time>
      </trkpt>
      <trkpt lat="45.89076" lon="6.19454">
        <ele>1058</ele>
        <time>2019-09-19T00:25:56Z</time>
      </trkpt>
      <trkpt lat="45.89038" lon="6.19395">
        <ele>1064</ele>
        <time>2019-09-19T00:26:24Z</time>
      </trkpt>
      <trkpt lat="45.89026" lon="6.1938">
        <ele>1067</ele>
        <time>2019-09-19T00:26:32Z</time>
      </trkpt>
      <trkpt lat="45.89017" lon="6.19373">
        <ele>1068</ele>
        <time>2019-09-19T00:26:37Z</time>
      </trkpt>
      <trkpt lat="45.89013" lon="6.1936">
        <ele>1069</ele>
        <time>2019-09-19T00:26:42Z</time>
      </trkpt>
      <trkpt lat="45.89025" lon="6.19364">
        <ele>1069</ele>
        <time>2019-09-19T00:26:48Z</time>
      </trkpt>
      <trkpt lat="45.89036" lon="6.19364">
        <ele>1068</ele>
        <time>2019-09-19T00:26:54Z</time>
      </trkpt>
      <trkpt lat="45.89055" lon="6.19353">
        <ele>1070</ele>
        <time>2019-09-19T00:27:04Z</time>
      </trkpt>
      <trkpt lat="45.89078" lon="6.19346">
        <ele>1072</ele>
        <time>2019-09-19T00:27:16Z</time>
      </trkpt>
      <trkpt lat="45.89099" lon="6.19345">
        <ele>1069</ele>
        <time>2019-09-19T00:27:26Z</time>
      </trkpt>
      <trkpt lat="45.89128" lon="6.19333">
        <ele>1068</ele>
        <time>2019-09-19T00:27:41Z</time>
      </trkpt>
      <trkpt lat="45.89136" lon="6.19327">
        <ele>1070</ele>
        <time>2019-09-19T00:27:46Z</time>
      </trkpt>
      <trkpt lat="45.89146" lon="6.19328">
        <ele>1068</ele>
        <time>2019-09-19T00:27:51Z</time>
      </trkpt>
      <trkpt lat="45.89164" lon="6.19319">
        <ele>1069</ele>
        <time>2019-09-19T00:28:01Z</time>
      </trkpt>
      <trkpt lat="45.89171" lon="6.19308">
        <ele>1073</ele>
        <time>2019-09-19T00:28:06Z</time>
      </trkpt>
      <trkpt lat="45.8918" lon="6.19301">
        <ele>1074</ele>
        <time>2019-09-19T00:28:11Z</time>
      </trkpt>
      <trkpt lat="45.89223" lon="6.19276">
        <ele>1079</ele>
        <time>2019-09-19T00:28:34Z</time>
      </trkpt>
      <trkpt lat="45.8924" lon="6.1926">
        <ele>1084</ele>
        <time>2019-09-19T00:28:44Z</time>
      </trkpt>
      <trkpt lat="45.89249" lon="6.19258">
        <ele>1083</ele>
        <time>2019-09-19T00:28:49Z</time>
      </trkpt>
      <trkpt lat="45.89268" lon="6.19227">
        <ele>1095</ele>
        <time>2019-09-19T00:29:03Z</time>
      </trkpt>
      <trkpt lat="45.89258" lon="6.19226">
        <ele>1098</ele>
        <time>2019-09-19T00:29:08Z</time>
      </trkpt>
      <trkpt lat="45.8924" lon="6.19239">
        <ele>1094</ele>
        <time>2019-09-19T00:29:18Z</time>
      </trkpt>
      <trkpt lat="45.89233" lon="6.19247">
        <ele>1091</ele>
        <time>2019-09-19T00:29:23Z</time>
      </trkpt>
      <trkpt lat="45.89224" lon="6.19242">
        <ele>1095</ele>
        <time>2019-09-19T00:29:28Z</time>
      </trkpt>
      <trkpt lat="45.89219" lon="6.19231">
        <ele>1102</ele>
        <time>2019-09-19T00:29:32Z</time>
      </trkpt>
      <trkpt lat="45.89224" lon="6.1922">
        <ele>1107</ele>
        <time>2019-09-19T00:29:37Z</time>
      </trkpt>
      <trkpt lat="45.89223" lon="6.19207">
        <ele>1114</ele>
        <time>2019-09-19T00:29:41Z</time>
      </trkpt>
      <trkpt lat="45.89219" lon="6.19219">
        <ele>1108</ele>
        <time>2019-09-19T00:29:46Z</time>
      </trkpt>
      <trkpt lat="45.89211" lon="6.19224">
        <ele>1107</ele>
        <time>2019-09-19T00:29:50Z</time>
      </trkpt>
      <trkpt lat="45.89201" lon="6.19226">
        <ele>1107</ele>
        <time>2019-09-19T00:29:55Z</time>
      </trkpt>
      <trkpt lat="45.89193" lon="6.19231">
        <ele>1106</ele>
        <time>2019-09-19T00:30:00Z</time>
      </trkpt>
      <trkpt lat="45.89184" lon="6.19231">
        <ele>1107</ele>
        <time>2019-09-19T00:30:04Z</time>
      </trkpt>
      <trkpt lat="45.89167" lon="6.19219">
        <ele>1116</ele>
        <time>2019-09-19T00:30:14Z</time>
      </trkpt>
      <trkpt lat="45.89157" lon="6.19224">
        <ele>1114</ele>
        <time>2019-09-19T00:30:19Z</time>
      </trkpt>
      <trkpt lat="45.89147" lon="6.19221">
        <ele>1116</ele>
        <time>2019-09-19T00:30:24Z</time>
      </trkpt>
      <trkpt lat="45.89123" lon="6.19203">
        <ele>1126</ele>
        <time>2019-09-19T00:30:38Z</time>
      </trkpt>
      <trkpt lat="45.89114" lon="6.19205">
        <ele>1126</ele>
        <time>2019-09-19T00:30:42Z</time>
      </trkpt>
      <trkpt lat="45.89104" lon="6.19204">
        <ele>1127</ele>
        <time>2019-09-19T00:30:47Z</time>
      </trkpt>
      <trkpt lat="45.89095" lon="6.19199">
        <ele>1130</ele>
        <time>2019-09-19T00:30:52Z</time>
      </trkpt>
      <trkpt lat="45.89086" lon="6.19202">
        <ele>1129</ele>
        <time>2019-09-19T00:30:57Z</time>
      </trkpt>
      <trkpt lat="45.89077" lon="6.19199">
        <ele>1129</ele>
        <time>2019-09-19T00:31:01Z</time>
      </trkpt>
      <trkpt lat="45.8906" lon="6.19187">
        <ele>1128</ele>
        <time>2019-09-19T00:31:11Z</time>
      </trkpt>
      <trkpt lat="45.89056" lon="6.19175">
        <ele>1132</ele>
        <time>2019-09-19T00:31:15Z</time>
      </trkpt>
      <trkpt lat="45.89054" lon="6.19149">
        <ele>1142</ele>
        <time>2019-09-19T00:31:25Z</time>
      </trkpt>
      <trkpt lat="45.89058" lon="6.19137">
        <ele>1148</ele>
        <time>2019-09-19T00:31:29Z</time>
      </trkpt>
      <trkpt lat="45.89066" lon="6.19128">
        <ele>1154</ele>
        <time>2019-09-19T00:31:34Z</time>
      </trkpt>
      <trkpt lat="45.89092" lon="6.19109">
        <ele>1169</ele>
        <time>2019-09-19T00:31:49Z</time>
      </trkpt>
      <trkpt lat="45.89094" lon="6.19096">
        <ele>1174</ele>
        <time>2019-09-19T00:31:53Z</time>
      </trkpt>
      <trkpt lat="45.891" lon="6.19086">
        <ele>1179</ele>
        <time>2019-09-19T00:31:58Z</time>
      </trkpt>
      <trkpt lat="45.89108" lon="6.19078">
        <ele>1183</ele>
        <time>2019-09-19T00:32:03Z</time>
      </trkpt>
      <trkpt lat="45.89117" lon="6.19075">
        <ele>1185</ele>
        <time>2019-09-19T00:32:08Z</time>
      </trkpt>
      <trkpt lat="45.89107" lon="6.19075">
        <ele>1184</ele>
        <time>2019-09-19T00:32:13Z</time>
      </trkpt>
      <trkpt lat="45.89082" lon="6.19069">
        <ele>1183</ele>
        <time>2019-09-19T00:32:25Z</time>
      </trkpt>
      <trkpt lat="45.8907" lon="6.1906">
        <ele>1180</ele>
        <time>2019-09-19T00:32:32Z</time>
      </trkpt>
      <trkpt lat="45.89057" lon="6.19044">
        <ele>1177</ele>
        <time>2019-09-19T00:32:41Z</time>
      </trkpt>
      <trkpt lat="45.89055" lon="6.19032">
        <ele>1179</ele>
        <time>2019-09-19T00:32:45Z</time>
      </trkpt>
      <trkpt lat="45.89058" lon="6.19025">
        <ele>1182</ele>
        <time>2019-09-19T00:32:48Z</time>
      </trkpt>
      <trkpt lat="45.89066" lon="6.19029">
        <ele>1186</ele>
        <time>2019-09-19T00:32:52Z</time>
      </trkpt>
      <trkpt lat="45.89072" lon="6.19025">
        <ele>1191</ele>
        <time>2019-09-19T00:32:55Z</time>
      </trkpt>
      <trkpt lat="45.8908" lon="6.1901">
        <ele>1201</ele>
        <time>2019-09-19T00:33:02Z</time>
      </trkpt>
      <trkpt lat="45.89085" lon="6.19008">
        <ele>1205</ele>
        <time>2019-09-19T00:33:05Z</time>
      </trkpt>
      <trkpt lat="45.8908" lon="6.19003">
        <ele>1204</ele>
        <time>2019-09-19T00:33:08Z</time>
      </trkpt>
      <trkpt lat="45.89079" lon="6.18998">
        <ele>1202</ele>
        <time>2019-09-19T00:33:09Z</time>
      </trkpt>
      <trkpt lat="45.89083" lon="6.18997">
        <ele>1205</ele>
        <time>2019-09-19T00:33:11Z</time>
      </trkpt>
      <trkpt lat="45.89088" lon="6.1899">
        <ele>1202</ele>
        <time>2019-09-19T00:33:15Z</time>
      </trkpt>
      <trkpt lat="45.89096" lon="6.1897">
        <ele>1193</ele>
        <time>2019-09-19T00:33:23Z</time>
      </trkpt>
      <trkpt lat="45.89096" lon="6.18962">
        <ele>1189</ele>
        <time>2019-09-19T00:33:26Z</time>
      </trkpt>
      <trkpt lat="45.89099" lon="6.18964">
        <ele>1192</ele>
        <time>2019-09-19T00:33:27Z</time>
      </trkpt>
      <trkpt lat="45.89103" lon="6.18957">
        <ele>1191</ele>
        <time>2019-09-19T00:33:31Z</time>
      </trkpt>
      <trkpt lat="45.89117" lon="6.1895">
        <ele>1199</ele>
        <time>2019-09-19T00:33:38Z</time>
      </trkpt>
      <trkpt lat="45.8913" lon="6.18947">
        <ele>1209</ele>
        <time>2019-09-19T00:33:45Z</time>
      </trkpt>
      <trkpt lat="45.89135" lon="6.18958">
        <ele>1215</ele>
        <time>2019-09-19T00:33:49Z</time>
      </trkpt>
      <trkpt lat="45.89161" lon="6.18939">
        <ele>1236</ele>
        <time>2019-09-19T00:34:04Z</time>
      </trkpt>
      <trkpt lat="45.89177" lon="6.18936">
        <ele>1241</ele>
        <time>2019-09-19T00:34:12Z</time>
      </trkpt>
      <trkpt lat="45.89186" lon="6.18929">
        <ele>1242</ele>
        <time>2019-09-19T00:34:17Z</time>
      </trkpt>
      <trkpt lat="45.89205" lon="6.18922">
        <ele>1243</ele>
        <time>2019-09-19T00:34:27Z</time>
      </trkpt>
      <trkpt lat="45.89211" lon="6.18917">
        <ele>1244</ele>
        <time>2019-09-19T00:34:30Z</time>
      </trkpt>
      <trkpt lat="45.89227" lon="6.18913">
        <ele>1242</ele>
        <time>2019-09-19T00:34:38Z</time>
      </trkpt>
      <trkpt lat="45.89238" lon="6.18898">
        <ele>1237</ele>
        <time>2019-09-19T00:34:46Z</time>
      </trkpt>
      <trkpt lat="45.89267" lon="6.18898">
        <ele>1238</ele>
        <time>2019-09-19T00:35:00Z</time>
      </trkpt>
      <trkpt lat="45.89276" lon="6.18894">
        <ele>1236</ele>
        <time>2019-09-19T00:35:05Z</time>
      </trkpt>
      <trkpt lat="45.89331" lon="6.18859">
        <ele>1233</ele>
        <time>2019-09-19T00:35:35Z</time>
      </trkpt>
      <trkpt lat="45.89342" lon="6.18855">
        <ele>1233</ele>
        <time>2019-09-19T00:35:41Z</time>
      </trkpt>
      <trkpt lat="45.89357" lon="6.18854">
        <ele>1235</ele>
        <time>2019-09-19T00:35:48Z</time>
      </trkpt>
      <trkpt lat="45.89386" lon="6.18837">
        <ele>1240</ele>
        <time>2019-09-19T00:36:04Z</time>
      </trkpt>
      <trkpt lat="45.89403" lon="6.18831">
        <ele>1242</ele>
        <time>2019-09-19T00:36:13Z</time>
      </trkpt>
      <trkpt lat="45.89409" lon="6.18825">
        <ele>1240</ele>
        <time>2019-09-19T00:36:17Z</time>
      </trkpt>
      <trkpt lat="45.89428" lon="6.18817">
        <ele>1239</ele>
        <time>2019-09-19T00:36:26Z</time>
      </trkpt>
      <trkpt lat="45.89456" lon="6.188">
        <ele>1237</ele>
        <time>2019-09-19T00:36:42Z</time>
      </trkpt>
      <trkpt lat="45.89468" lon="6.188">
        <ele>1239</ele>
        <time>2019-09-19T00:36:48Z</time>
      </trkpt>
      <trkpt lat="45.89479" lon="6.18793">
        <ele>1239</ele>
        <time>2019-09-19T00:36:54Z</time>
      </trkpt>
      <trkpt lat="45.89488" lon="6.18791">
        <ele>1241</ele>
        <time>2019-09-19T00:36:58Z</time>
      </trkpt>
      <trkpt lat="45.89496" lon="6.18783">
        <ele>1242</ele>
        <time>2019-09-19T00:37:03Z</time>
      </trkpt>
      <trkpt lat="45.89492" lon="6.18779">
        <ele>1241</ele>
        <time>2019-09-19T00:37:06Z</time>
      </trkpt>
      <trkpt lat="45.89494" lon="6.18767">
        <ele>1241</ele>
        <time>2019-09-19T00:37:10Z</time>
      </trkpt>
      <trkpt lat="45.89499" lon="6.18768">
        <ele>1242</ele>
        <time>2019-09-19T00:37:12Z</time>
      </trkpt>
      <trkpt lat="45.89512" lon="6.18759">
        <ele>1245</ele>
        <time>2019-09-19T00:37:20Z</time>
      </trkpt>
      <trkpt lat="45.89532" lon="6.18762">
        <ele>1249</ele>
        <time>2019-09-19T00:37:30Z</time>
      </trkpt>
      <trkpt lat="45.89549" lon="6.18756">
        <ele>1253</ele>
        <time>2019-09-19T00:37:38Z</time>
      </trkpt>
      <trkpt lat="45.89557" lon="6.18749">
        <ele>1256</ele>
        <time>2019-09-19T00:37:43Z</time>
      </trkpt>
      <trkpt lat="45.8956" lon="6.18751">
        <ele>1257</ele>
        <time>2019-09-19T00:37:45Z</time>
      </trkpt>
      <trkpt lat="45.89577" lon="6.18728">
        <ele>1251</ele>
        <time>2019-09-19T00:37:56Z</time>
      </trkpt>
      <trkpt lat="45.89592" lon="6.18726">
        <ele>1256</ele>
        <time>2019-09-19T00:38:04Z</time>
      </trkpt>
      <trkpt lat="45.89595" lon="6.1873">
        <ele>1258</ele>
        <time>2019-09-19T00:38:06Z</time>
      </trkpt>
      <trkpt lat="45.89603" lon="6.18729">
        <ele>1260</ele>
        <time>2019-09-19T00:38:10Z</time>
      </trkpt>
      <trkpt lat="45.89631" lon="6.18697">
        <ele>1263</ele>
        <time>2019-09-19T00:38:28Z</time>
      </trkpt>
      <trkpt lat="45.89652" lon="6.18693">
        <ele>1272</ele>
        <time>2019-09-19T00:38:39Z</time>
      </trkpt>
      <trkpt lat="45.8967" lon="6.18679">
        <ele>1281</ele>
        <time>2019-09-19T00:38:49Z</time>
      </trkpt>
      <trkpt lat="45.89676" lon="6.18653">
        <ele>1273</ele>
        <time>2019-09-19T00:38:58Z</time>
      </trkpt>
      <trkpt lat="45.89684" lon="6.18645">
        <ele>1270</ele>
        <time>2019-09-19T00:39:03Z</time>
      </trkpt>
      <trkpt lat="45.89683" lon="6.18635">
        <ele>1263</ele>
        <time>2019-09-19T00:39:07Z</time>
      </trkpt>
      <trkpt lat="45.89675" lon="6.18637">
        <ele>1262</ele>
        <time>2019-09-19T00:39:11Z</time>
      </trkpt>
      <trkpt lat="45.89674" lon="6.18622">
        <ele>1251</ele>
        <time>2019-09-19T00:39:16Z</time>
      </trkpt>
      <trkpt lat="45.89682" lon="6.186">
        <ele>1241</ele>
        <time>2019-09-19T00:39:25Z</time>
      </trkpt>
      <trkpt lat="45.89693" lon="6.18596">
        <ele>1245</ele>
        <time>2019-09-19T00:39:30Z</time>
      </trkpt>
      <trkpt lat="45.89702" lon="6.18601">
        <ele>1253</ele>
        <time>2019-09-19T00:39:35Z</time>
      </trkpt>
      <trkpt lat="45.89708" lon="6.1861">
        <ele>1261</ele>
        <time>2019-09-19T00:39:40Z</time>
      </trkpt>
      <trkpt lat="45.89716" lon="6.18613">
        <ele>1266</ele>
        <time>2019-09-19T00:39:44Z</time>
      </trkpt>
      <trkpt lat="45.89762" lon="6.186">
        <ele>1281</ele>
        <time>2019-09-19T00:40:07Z</time>
      </trkpt>
      <trkpt lat="45.89773" lon="6.18593">
        <ele>1281</ele>
        <time>2019-09-19T00:40:13Z</time>
      </trkpt>
      <trkpt lat="45.89793" lon="6.1859">
        <ele>1281</ele>
        <time>2019-09-19T00:40:23Z</time>
      </trkpt>
      <trkpt lat="45.89812" lon="6.18592">
        <ele>1281</ele>
        <time>2019-09-19T00:40:33Z</time>
      </trkpt>
      <trkpt lat="45.89859" lon="6.18587">
        <ele>1278</ele>
        <time>2019-09-19T00:40:56Z</time>
      </trkpt>
      <trkpt lat="45.89877" lon="6.18596">
        <ele>1275</ele>
        <time>2019-09-19T00:41:06Z</time>
      </trkpt>
      <trkpt lat="45.89884" lon="6.18586">
        <ele>1275</ele>
        <time>2019-09-19T00:41:11Z</time>
      </trkpt>
      <trkpt lat="45.8992" lon="6.18565">
        <ele>1271</ele>
        <time>2019-09-19T00:41:30Z</time>
      </trkpt>
      <trkpt lat="45.89941" lon="6.18563">
        <ele>1265</ele>
        <time>2019-09-19T00:41:41Z</time>
      </trkpt>
      <trkpt lat="45.89963" lon="6.18555">
        <ele>1259</ele>
        <time>2019-09-19T00:41:52Z</time>
      </trkpt>
      <trkpt lat="45.89973" lon="6.18555">
        <ele>1256</ele>
        <time>2019-09-19T00:41:57Z</time>
      </trkpt>
      <trkpt lat="45.89993" lon="6.18561">
        <ele>1249</ele>
        <time>2019-09-19T00:42:07Z</time>
      </trkpt>
      <trkpt lat="45.90002" lon="6.18566">
        <ele>1246</ele>
        <time>2019-09-19T00:42:12Z</time>
      </trkpt>
      <trkpt lat="45.90011" lon="6.18576">
        <ele>1242</ele>
        <time>2019-09-19T00:42:18Z</time>
      </trkpt>
      <trkpt lat="45.9002" lon="6.18573">
        <ele>1239</ele>
        <time>2019-09-19T00:42:23Z</time>
      </trkpt>
      <trkpt lat="45.90024" lon="6.18586">
        <ele>1236</ele>
        <time>2019-09-19T00:42:27Z</time>
      </trkpt>
      <trkpt lat="45.90038" lon="6.18603">
        <ele>1228</ele>
        <time>2019-09-19T00:42:37Z</time>
      </trkpt>
      <trkpt lat="45.90048" lon="6.18602">
        <ele>1225</ele>
        <time>2019-09-19T00:42:42Z</time>
      </trkpt>
      <trkpt lat="45.90057" lon="6.18594">
        <ele>1223</ele>
        <time>2019-09-19T00:42:47Z</time>
      </trkpt>
      <trkpt lat="45.90066" lon="6.18601">
        <ele>1219</ele>
        <time>2019-09-19T00:42:52Z</time>
      </trkpt>
      <trkpt lat="45.9007" lon="6.18613">
        <ele>1216</ele>
        <time>2019-09-19T00:42:57Z</time>
      </trkpt>
      <trkpt lat="45.9008" lon="6.18617">
        <ele>1211</ele>
        <time>2019-09-19T00:43:02Z</time>
      </trkpt>
      <trkpt lat="45.9009" lon="6.18618">
        <ele>1208</ele>
        <time>2019-09-19T00:43:07Z</time>
      </trkpt>
      <trkpt lat="45.90106" lon="6.18604">
        <ele>1205</ele>
        <time>2019-09-19T00:43:16Z</time>
      </trkpt>
      <trkpt lat="45.90126" lon="6.18613">
        <ele>1197</ele>
        <time>2019-09-19T00:43:27Z</time>
      </trkpt>
      <trkpt lat="45.90134" lon="6.18603">
        <ele>1196</ele>
        <time>2019-09-19T00:43:32Z</time>
      </trkpt>
      <trkpt lat="45.90149" lon="6.18563">
        <ele>1197</ele>
        <time>2019-09-19T00:43:48Z</time>
      </trkpt>
      <trkpt lat="45.90156" lon="6.18555">
        <ele>1196</ele>
        <time>2019-09-19T00:43:52Z</time>
      </trkpt>
      <trkpt lat="45.90167" lon="6.18551">
        <ele>1193</ele>
        <time>2019-09-19T00:43:58Z</time>
      </trkpt>
      <trkpt lat="45.90186" lon="6.18535">
        <ele>1191</ele>
        <time>2019-09-19T00:44:09Z</time>
      </trkpt>
      <trkpt lat="45.90197" lon="6.18529">
        <ele>1189</ele>
        <time>2019-09-19T00:44:15Z</time>
      </trkpt>
      <trkpt lat="45.90208" lon="6.1853">
        <ele>1187</ele>
        <time>2019-09-19T00:44:20Z</time>
      </trkpt>
      <trkpt lat="45.90238" lon="6.18526">
        <ele>1181</ele>
        <time>2019-09-19T00:44:36Z</time>
      </trkpt>
      <trkpt lat="45.90273" lon="6.185">
        <ele>1174</ele>
        <time>2019-09-19T00:44:55Z</time>
      </trkpt>
      <trkpt lat="45.90292" lon="6.18499">
        <ele>1169</ele>
        <time>2019-09-19T00:45:05Z</time>
      </trkpt>
      <trkpt lat="45.90322" lon="6.18488">
        <ele>1163</ele>
        <time>2019-09-19T00:45:20Z</time>
      </trkpt>
      <trkpt lat="45.90352" lon="6.185">
        <ele>1151</ele>
        <time>2019-09-19T00:45:36Z</time>
      </trkpt>
      <trkpt lat="45.90361" lon="6.18497">
        <ele>1150</ele>
        <time>2019-09-19T00:45:40Z</time>
      </trkpt>
      <trkpt lat="45.9037" lon="6.185">
        <ele>1147</ele>
        <time>2019-09-19T00:45:45Z</time>
      </trkpt>
      <trkpt lat="45.9038" lon="6.18496">
        <ele>1145</ele>
        <time>2019-09-19T00:45:50Z</time>
      </trkpt>
      <trkpt lat="45.90399" lon="6.18494">
        <ele>1141</ele>
        <time>2019-09-19T00:46:00Z</time>
      </trkpt>
      <trkpt lat="45.90419" lon="6.18495">
        <ele>1136</ele>
        <time>2019-09-19T00:46:10Z</time>
      </trkpt>
      <trkpt lat="45.90431" lon="6.18492">
        <ele>1133</ele>
        <time>2019-09-19T00:46:16Z</time>
      </trkpt>
      <trkpt lat="45.9044" lon="6.18485">
        <ele>1131</ele>
        <time>2019-09-19T00:46:21Z</time>
      </trkpt>
      <trkpt lat="45.9047" lon="6.1847">
        <ele>1125</ele>
        <time>2019-09-19T00:46:37Z</time>
      </trkpt>
      <trkpt lat="45.90489" lon="6.18455">
        <ele>1121</ele>
        <time>2019-09-19T00:46:48Z</time>
      </trkpt>
      <trkpt lat="45.90507" lon="6.18445">
        <ele>1117</ele>
        <time>2019-09-19T00:46:57Z</time>
      </trkpt>
      <trkpt lat="45.90531" lon="6.18423">
        <ele>1112</ele>
        <time>2019-09-19T00:47:12Z</time>
      </trkpt>
      <trkpt lat="45.90554" lon="6.18389">
        <ele>1108</ele>
        <time>2019-09-19T00:47:28Z</time>
      </trkpt>
      <trkpt lat="45.90573" lon="6.18384">
        <ele>1101</ele>
        <time>2019-09-19T00:47:38Z</time>
      </trkpt>
      <trkpt lat="45.90595" lon="6.18357">
        <ele>1095</ele>
        <time>2019-09-19T00:47:52Z</time>
      </trkpt>
      <trkpt lat="45.90621" lon="6.18298">
        <ele>1090</ele>
        <time>2019-09-19T00:48:17Z</time>
      </trkpt>
      <trkpt lat="45.90638" lon="6.18204">
        <ele>1091</ele>
        <time>2019-09-19T00:48:51Z</time>
      </trkpt>
      <trkpt lat="45.9065" lon="6.18166">
        <ele>1088</ele>
        <time>2019-09-19T00:49:05Z</time>
      </trkpt>
      <trkpt lat="45.90651" lon="6.18151">
        <ele>1089</ele>
        <time>2019-09-19T00:49:10Z</time>
      </trkpt>
      <trkpt lat="45.9066" lon="6.18109">
        <ele>1087</ele>
        <time>2019-09-19T00:49:26Z</time>
      </trkpt>
      <trkpt lat="45.90659" lon="6.18096">
        <ele>1088</ele>
        <time>2019-09-19T00:49:30Z</time>
      </trkpt>
      <trkpt lat="45.90679" lon="6.18041">
        <ele>1081</ele>
        <time>2019-09-19T00:49:52Z</time>
      </trkpt>
      <trkpt lat="45.9069" lon="6.18019">
        <ele>1076</ele>
        <time>2019-09-19T00:50:01Z</time>
      </trkpt>
      <trkpt lat="45.90696" lon="6.17991">
        <ele>1073</ele>
        <time>2019-09-19T00:50:11Z</time>
      </trkpt>
      <trkpt lat="45.90699" lon="6.17974">
        <ele>1071</ele>
        <time>2019-09-19T00:50:17Z</time>
      </trkpt>
      <trkpt lat="45.90698" lon="6.17928">
        <ele>1071</ele>
        <time>2019-09-19T00:50:34Z</time>
      </trkpt>
      <trkpt lat="45.90694" lon="6.17915">
        <ele>1073</ele>
        <time>2019-09-19T00:50:38Z</time>
      </trkpt>
      <trkpt lat="45.90695" lon="6.17885">
        <ele>1069</ele>
        <time>2019-09-19T00:50:49Z</time>
      </trkpt>
      <trkpt lat="45.90697" lon="6.17872">
        <ele>1067</ele>
        <time>2019-09-19T00:50:54Z</time>
      </trkpt>
      <trkpt lat="45.90714" lon="6.17816">
        <ele>1053</ele>
        <time>2019-09-19T00:51:15Z</time>
      </trkpt>
      <trkpt lat="45.90713" lon="6.17801">
        <ele>1052</ele>
        <time>2019-09-19T00:51:20Z</time>
      </trkpt>
      <trkpt lat="45.9072" lon="6.17775">
        <ele>1046</ele>
        <time>2019-09-19T00:51:30Z</time>
      </trkpt>
      <trkpt lat="45.90725" lon="6.1773">
        <ele>1039</ele>
        <time>2019-09-19T00:51:46Z</time>
      </trkpt>
      <trkpt lat="45.90725" lon="6.17715">
        <ele>1037</ele>
        <time>2019-09-19T00:51:51Z</time>
      </trkpt>
      <trkpt lat="45.90721" lon="6.17701">
        <ele>1038</ele>
        <time>2019-09-19T00:51:56Z</time>
      </trkpt>
      <trkpt lat="45.90722" lon="6.17687">
        <ele>1036</ele>
        <time>2019-09-19T00:52:01Z</time>
      </trkpt>
      <trkpt lat="45.9074" lon="6.17669">
        <ele>1024</ele>
        <time>2019-09-19T00:52:12Z</time>
      </trkpt>
      <trkpt lat="45.90747" lon="6.1764">
        <ele>1017</ele>
        <time>2019-09-19T00:52:23Z</time>
      </trkpt>
      <trkpt lat="45.90748" lon="6.17613">
        <ele>1014</ele>
        <time>2019-09-19T00:52:32Z</time>
      </trkpt>
      <trkpt lat="45.90753" lon="6.17601">
        <ele>1010</ele>
        <time>2019-09-19T00:52:37Z</time>
      </trkpt>
      <trkpt lat="45.90762" lon="6.17556">
        <ele>1001</ele>
        <time>2019-09-19T00:52:53Z</time>
      </trkpt>
      <trkpt lat="45.90762" lon="6.17542">
        <ele>999</ele>
        <time>2019-09-19T00:52:58Z</time>
      </trkpt>
      <trkpt lat="45.90753" lon="6.17516">
        <ele>999</ele>
        <time>2019-09-19T00:53:08Z</time>
      </trkpt>
      <trkpt lat="45.90757" lon="6.17488">
        <ele>992</ele>
        <time>2019-09-19T00:53:18Z</time>
      </trkpt>
      <trkpt lat="45.90761" lon="6.17476">
        <ele>988</ele>
        <time>2019-09-19T00:53:23Z</time>
      </trkpt>
      <trkpt lat="45.90759" lon="6.17432">
        <ele>980</ele>
        <time>2019-09-19T00:53:38Z</time>
      </trkpt>
      <trkpt lat="45.90763" lon="6.17419">
        <ele>976</ele>
        <time>2019-09-19T00:53:43Z</time>
      </trkpt>
      <trkpt lat="45.90781" lon="6.17383">
        <ele>963</ele>
        <time>2019-09-19T00:53:59Z</time>
      </trkpt>
      <trkpt lat="45.9079" lon="6.17388">
        <ele>960</ele>
        <time>2019-09-19T00:54:03Z</time>
      </trkpt>
      <trkpt lat="45.90798" lon="6.17382">
        <ele>956</ele>
        <time>2019-09-19T00:54:08Z</time>
      </trkpt>
      <trkpt lat="45.90801" lon="6.17368">
        <ele>952</ele>
        <time>2019-09-19T00:54:13Z</time>
      </trkpt>
      <trkpt lat="45.90804" lon="6.17325">
        <ele>945</ele>
        <time>2019-09-19T00:54:28Z</time>
      </trkpt>
      <trkpt lat="45.90805" lon="6.17294">
        <ele>942</ele>
        <time>2019-09-19T00:54:39Z</time>
      </trkpt>
      <trkpt lat="45.90802" lon="6.17281">
        <ele>941</ele>
        <time>2019-09-19T00:54:44Z</time>
      </trkpt>
      <trkpt lat="45.90803" lon="6.17268">
        <ele>940</ele>
        <time>2019-09-19T00:54:48Z</time>
      </trkpt>
      <trkpt lat="45.90826" lon="6.17258">
        <ele>934</ele>
        <time>2019-09-19T00:55:00Z</time>
      </trkpt>
      <trkpt lat="45.90851" lon="6.17261">
        <ele>932</ele>
        <time>2019-09-19T00:55:13Z</time>
      </trkpt>
      <trkpt lat="45.90877" lon="6.17299">
        <ele>930</ele>
        <time>2019-09-19T00:55:31Z</time>
      </trkpt>
      <trkpt lat="45.90895" lon="6.17333">
        <ele>925</ele>
        <time>2019-09-19T00:55:46Z</time>
      </trkpt>
      <trkpt lat="45.90957" lon="6.17411">
        <ele>909</ele>
        <time>2019-09-19T00:56:27Z</time>
      </trkpt>
      <trkpt lat="45.90981" lon="6.17456">
        <ele>898</ele>
        <time>2019-09-19T00:56:47Z</time>
      </trkpt>
      <trkpt lat="45.91011" lon="6.1749">
        <ele>885</ele>
        <time>2019-09-19T00:57:06Z</time>
      </trkpt>
      <trkpt lat="45.91021" lon="6.17505">
        <ele>881</ele>
        <time>2019-09-19T00:57:14Z</time>
      </trkpt>
      <trkpt lat="45.91057" lon="6.17603">
        <ele>869</ele>
        <time>2019-09-19T00:57:52Z</time>
      </trkpt>
      <trkpt lat="45.91059" lon="6.17669">
        <ele>871</ele>
        <time>2019-09-19T00:58:15Z</time>
      </trkpt>
      <trkpt lat="45.91075" lon="6.17726">
        <ele>869</ele>
        <time>2019-09-19T00:58:37Z</time>
      </trkpt>
      <trkpt lat="45.91122" lon="6.17797">
        <ele>860</ele>
        <time>2019-09-19T00:59:11Z</time>
      </trkpt>
      <trkpt lat="45.91172" lon="6.17835">
        <ele>845</ele>
        <time>2019-09-19T00:59:39Z</time>
      </trkpt>
      <trkpt lat="45.91187" lon="6.1784">
        <ele>845</ele>
        <time>2019-09-19T00:59:47Z</time>
      </trkpt>
      <trkpt lat="45.91197" lon="6.1783">
        <ele>846</ele>
        <time>2019-09-19T00:59:53Z</time>
      </trkpt>
      <trkpt lat="45.91206" lon="6.17828">
        <ele>846</ele>
        <time>2019-09-19T00:59:57Z</time>
      </trkpt>
      <trkpt lat="45.91221" lon="6.17849">
        <ele>843</ele>
        <time>2019-09-19T01:00:08Z</time>
      </trkpt>
      <trkpt lat="45.91227" lon="6.17863">
        <ele>840</ele>
        <time>2019-09-19T01:00:14Z</time>
      </trkpt>
      <trkpt lat="45.91252" lon="6.17887">
        <ele>832</ele>
        <time>2019-09-19T01:00:29Z</time>
      </trkpt>
      <trkpt lat="45.91273" lon="6.17894">
        <ele>830</ele>
        <time>2019-09-19T01:00:39Z</time>
      </trkpt>
      <trkpt lat="45.91319" lon="6.1792">
        <ele>822</ele>
        <time>2019-09-19T01:01:04Z</time>
      </trkpt>
      <trkpt lat="45.91328" lon="6.17922">
        <ele>822</ele>
        <time>2019-09-19T01:01:09Z</time>
      </trkpt>
      <trkpt lat="45.91362" lon="6.1792">
        <ele>818</ele>
        <time>2019-09-19T01:01:26Z</time>
      </trkpt>
      <trkpt lat="45.914" lon="6.17892">
        <ele>817</ele>
        <time>2019-09-19T01:01:47Z</time>
      </trkpt>
      <trkpt lat="45.91409" lon="6.17899">
        <ele>814</ele>
        <time>2019-09-19T01:01:52Z</time>
      </trkpt>
      <trkpt lat="45.9142" lon="6.179">
        <ele>811</ele>
        <time>2019-09-19T01:01:58Z</time>
      </trkpt>
      <trkpt lat="45.91429" lon="6.17909">
        <ele>807</ele>
        <time>2019-09-19T01:02:03Z</time>
      </trkpt>
      <trkpt lat="45.91446" lon="6.17944">
        <ele>795</ele>
        <time>2019-09-19T01:02:18Z</time>
      </trkpt>
      <trkpt lat="45.91444" lon="6.17973">
        <ele>791</ele>
        <time>2019-09-19T01:02:28Z</time>
      </trkpt>
      <trkpt lat="45.91437" lon="6.17982">
        <ele>791</ele>
        <time>2019-09-19T01:02:33Z</time>
      </trkpt>
      <trkpt lat="45.91441" lon="6.17994">
        <ele>788</ele>
        <time>2019-09-19T01:02:38Z</time>
      </trkpt>
      <trkpt lat="45.91438" lon="6.18008">
        <ele>786</ele>
        <time>2019-09-19T01:02:43Z</time>
      </trkpt>
      <trkpt lat="45.91424" lon="6.18026">
        <ele>787</ele>
        <time>2019-09-19T01:02:52Z</time>
      </trkpt>
      <trkpt lat="45.91414" lon="6.18027">
        <ele>788</ele>
        <time>2019-09-19T01:02:57Z</time>
      </trkpt>
      <trkpt lat="45.91406" lon="6.18036">
        <ele>788</ele>
        <time>2019-09-19T01:03:02Z</time>
      </trkpt>
      <trkpt lat="45.91395" lon="6.1806">
        <ele>786</ele>
        <time>2019-09-19T01:03:12Z</time>
      </trkpt>
      <trkpt lat="45.91381" lon="6.18083">
        <ele>784</ele>
        <time>2019-09-19T01:03:23Z</time>
      </trkpt>
      <trkpt lat="45.91391" lon="6.1808">
        <ele>784</ele>
        <time>2019-09-19T01:03:28Z</time>
      </trkpt>
      <trkpt lat="45.91405" lon="6.18061">
        <ele>785</ele>
        <time>2019-09-19T01:03:38Z</time>
      </trkpt>
      <trkpt lat="45.91429" lon="6.18037">
        <ele>784</ele>
        <time>2019-09-19T01:03:52Z</time>
      </trkpt>
      <trkpt lat="45.91438" lon="6.18032">
        <ele>782</ele>
        <time>2019-09-19T01:03:57Z</time>
      </trkpt>
      <trkpt lat="45.91458" lon="6.18032">
        <ele>778</ele>
        <time>2019-09-19T01:04:07Z</time>
      </trkpt>
      <trkpt lat="45.91467" lon="6.18024">
        <ele>777</ele>
        <time>2019-09-19T01:04:12Z</time>
      </trkpt>
      <trkpt lat="45.91483" lon="6.18002">
        <ele>777</ele>
        <time>2019-09-19T01:04:23Z</time>
      </trkpt>
      <trkpt lat="45.91495" lon="6.17978">
        <ele>777</ele>
        <time>2019-09-19T01:04:34Z</time>
      </trkpt>
      <trkpt lat="45.91516" lon="6.17907">
        <ele>774</ele>
        <time>2019-09-19T01:05:01Z</time>
      </trkpt>
      <trkpt lat="45.91513" lon="6.17895">
        <ele>776</ele>
        <time>2019-09-19T01:05:05Z</time>
      </trkpt>
      <trkpt lat="45.9151" lon="6.17849">
        <ele>779</ele>
        <time>2019-09-19T01:05:21Z</time>
      </trkpt>
      <trkpt lat="45.91516" lon="6.17791">
        <ele>778</ele>
        <time>2019-09-19T01:05:41Z</time>
      </trkpt>
      <trkpt lat="45.91528" lon="6.17768">
        <ele>773</ele>
        <time>2019-09-19T01:05:51Z</time>
      </trkpt>
      <trkpt lat="45.9154" lon="6.17723">
        <ele>770</ele>
        <time>2019-09-19T01:06:08Z</time>
      </trkpt>
      <trkpt lat="45.91552" lon="6.17697">
        <ele>766</ele>
        <time>2019-09-19T01:06:19Z</time>
      </trkpt>
      <trkpt lat="45.91551" lon="6.17671">
        <ele>767</ele>
        <time>2019-09-19T01:06:28Z</time>
      </trkpt>
      <trkpt lat="45.91564" lon="6.17631">
        <ele>762</ele>
        <time>2019-09-19T01:06:44Z</time>
      </trkpt>
      <trkpt lat="45.91585" lon="6.17584">
        <ele>752</ele>
        <time>2019-09-19T01:07:03Z</time>
      </trkpt>
      <trkpt lat="45.91597" lon="6.17547">
        <ele>748</ele>
        <time>2019-09-19T01:07:17Z</time>
      </trkpt>
      <trkpt lat="45.91619" lon="6.17515">
        <ele>736</ele>
        <time>2019-09-19T01:07:33Z</time>
      </trkpt>
      <trkpt lat="45.91624" lon="6.175">
        <ele>733</ele>
        <time>2019-09-19T01:07:39Z</time>
      </trkpt>
      <trkpt lat="45.91625" lon="6.17483">
        <ele>730</ele>
        <time>2019-09-19T01:07:45Z</time>
      </trkpt>
      <trkpt lat="45.91621" lon="6.17442">
        <ele>725</ele>
        <time>2019-09-19T01:07:59Z</time>
      </trkpt>
      <trkpt lat="45.91602" lon="6.17389">
        <ele>722</ele>
        <time>2019-09-19T01:08:20Z</time>
      </trkpt>
      <trkpt lat="45.91581" lon="6.17359">
        <ele>724</ele>
        <time>2019-09-19T01:08:35Z</time>
      </trkpt>
      <trkpt lat="45.91572" lon="6.17351">
        <ele>727</ele>
        <time>2019-09-19T01:08:40Z</time>
      </trkpt>
      <trkpt lat="45.91563" lon="6.17349">
        <ele>731</ele>
        <time>2019-09-19T01:08:44Z</time>
      </trkpt>
      <trkpt lat="45.91554" lon="6.17342">
        <ele>733</ele>
        <time>2019-09-19T01:08:50Z</time>
      </trkpt>
      <trkpt lat="45.91539" lon="6.17324">
        <ele>735</ele>
        <time>2019-09-19T01:08:59Z</time>
      </trkpt>
      <trkpt lat="45.9152" lon="6.17312">
        <ele>740</ele>
        <time>2019-09-19T01:09:10Z</time>
      </trkpt>
      <trkpt lat="45.91513" lon="6.17298">
        <ele>738</ele>
        <time>2019-09-19T01:09:16Z</time>
      </trkpt>
      <trkpt lat="45.91502" lon="6.17259">
        <ele>728</ele>
        <time>2019-09-19T01:09:30Z</time>
      </trkpt>
      <trkpt lat="45.91496" lon="6.17248">
        <ele>726</ele>
        <time>2019-09-19T01:09:35Z</time>
      </trkpt>
      <trkpt lat="45.91486" lon="6.1724">
        <ele>728</ele>
        <time>2019-09-19T01:09:41Z</time>
      </trkpt>
      <trkpt lat="45.91476" lon="6.17216">
        <ele>724</ele>
        <time>2019-09-19T01:09:51Z</time>
      </trkpt>
      <trkpt lat="45.91472" lon="6.17202">
        <ele>721</ele>
        <time>2019-09-19T01:09:56Z</time>
      </trkpt>
      <trkpt lat="45.91479" lon="6.17193">
        <ele>714</ele>
        <time>2019-09-19T01:10:01Z</time>
      </trkpt>
      <trkpt lat="45.9148" lon="6.17179">
        <ele>708</ele>
        <time>2019-09-19T01:10:06Z</time>
      </trkpt>
      <trkpt lat="45.91459" lon="6.17144">
        <ele>704</ele>
        <time>2019-09-19T01:10:22Z</time>
      </trkpt>
      <trkpt lat="45.91455" lon="6.17132">
        <ele>701</ele>
        <time>2019-09-19T01:10:26Z</time>
      </trkpt>
      <trkpt lat="45.91465" lon="6.1713">
        <ele>696</ele>
        <time>2019-09-19T01:10:31Z</time>
      </trkpt>
      <trkpt lat="45.91478" lon="6.17148">
        <ele>698</ele>
        <time>2019-09-19T01:10:40Z</time>
      </trkpt>
      <trkpt lat="45.91495" lon="6.1716">
        <ele>695</ele>
        <time>2019-09-19T01:10:50Z</time>
      </trkpt>
      <trkpt lat="45.91543" lon="6.17186">
        <ele>688</ele>
        <time>2019-09-19T01:11:16Z</time>
      </trkpt>
      <trkpt lat="45.91552" lon="6.17186">
        <ele>685</ele>
        <time>2019-09-19T01:11:20Z</time>
      </trkpt>
      <trkpt lat="45.91538" lon="6.17166">
        <ele>683</ele>
        <time>2019-09-19T01:11:30Z</time>
      </trkpt>
      <trkpt lat="45.91499" lon="6.17073">
        <ele>666</ele>
        <time>2019-09-19T01:12:08Z</time>
      </trkpt>
      <trkpt lat="45.91455" lon="6.17032">
        <ele>668</ele>
        <time>2019-09-19T01:12:34Z</time>
      </trkpt>
      <trkpt lat="45.91396" lon="6.17011">
        <ele>676</ele>
        <time>2019-09-19T01:13:04Z</time>
      </trkpt>
      <trkpt lat="45.91377" lon="6.17011">
        <ele>682</ele>
        <time>2019-09-19T01:13:14Z</time>
      </trkpt>
      <trkpt lat="45.91346" lon="6.16972">
        <ele>678</ele>
        <time>2019-09-19T01:13:35Z</time>
      </trkpt>
      <trkpt lat="45.91326" lon="6.16956">
        <ele>678</ele>
        <time>2019-09-19T01:13:46Z</time>
      </trkpt>
      <trkpt lat="45.91305" lon="6.16946">
        <ele>682</ele>
        <time>2019-09-19T01:13:57Z</time>
      </trkpt>
      <trkpt lat="45.91273" lon="6.16917">
        <ele>681</ele>
        <time>2019-09-19T01:14:16Z</time>
      </trkpt>
      <trkpt lat="45.9127" lon="6.16861">
        <ele>664</ele>
        <time>2019-09-19T01:14:36Z</time>
      </trkpt>
      <trkpt lat="45.91259" lon="6.16823">
        <ele>653</ele>
        <time>2019-09-19T01:14:50Z</time>
      </trkpt>
      <trkpt lat="45.91251" lon="6.16812">
        <ele>650</ele>
        <time>2019-09-19T01:14:55Z</time>
      </trkpt>
      <trkpt lat="45.9124" lon="6.16788">
        <ele>644</ele>
        <time>2019-09-19T01:15:05Z</time>
      </trkpt>
      <trkpt lat="45.91206" lon="6.1675">
        <ele>633</ele>
        <time>2019-09-19T01:15:27Z</time>
      </trkpt>
      <trkpt lat="45.91159" lon="6.1672">
        <ele>625</ele>
        <time>2019-09-19T01:15:53Z</time>
      </trkpt>
      <trkpt lat="45.91152" lon="6.16711">
        <ele>622</ele>
        <time>2019-09-19T01:15:57Z</time>
      </trkpt>
      <trkpt lat="45.91141" lon="6.16704">
        <ele>620</ele>
        <time>2019-09-19T01:16:03Z</time>
      </trkpt>
      <trkpt lat="45.91124" lon="6.16687">
        <ele>613</ele>
        <time>2019-09-19T01:16:14Z</time>
      </trkpt>
      <trkpt lat="45.9109" lon="6.1666">
        <ele>603</ele>
        <time>2019-09-19T01:16:33Z</time>
      </trkpt>
      <trkpt lat="45.91084" lon="6.16645">
        <ele>598</ele>
        <time>2019-09-19T01:16:39Z</time>
      </trkpt>
      <trkpt lat="45.91082" lon="6.16616">
        <ele>590</ele>
        <time>2019-09-19T01:16:49Z</time>
      </trkpt>
      <trkpt lat="45.91078" lon="6.16601">
        <ele>585</ele>
        <time>2019-09-19T01:16:55Z</time>
      </trkpt>
      <trkpt lat="45.91069" lon="6.16598">
        <ele>584</ele>
        <time>2019-09-19T01:17:00Z</time>
      </trkpt>
      <trkpt lat="45.91049" lon="6.16599">
        <ele>585</ele>
        <time>2019-09-19T01:17:10Z</time>
      </trkpt>
      <trkpt lat="45.91029" lon="6.16591">
        <ele>582</ele>
        <time>2019-09-19T01:17:20Z</time>
      </trkpt>
      <trkpt lat="45.9099" lon="6.16583">
        <ele>580</ele>
        <time>2019-09-19T01:17:40Z</time>
      </trkpt>
      <trkpt lat="45.9096" lon="6.16592">
        <ele>585</ele>
        <time>2019-09-19T01:17:55Z</time>
      </trkpt>
      <trkpt lat="45.9095" lon="6.16591">
        <ele>585</ele>
        <time>2019-09-19T01:18:00Z</time>
      </trkpt>
      <trkpt lat="45.90943" lon="6.16599">
        <ele>590</ele>
        <time>2019-09-19T01:18:05Z</time>
      </trkpt>
      <trkpt lat="45.90933" lon="6.16605">
        <ele>594</ele>
        <time>2019-09-19T01:18:10Z</time>
      </trkpt>
      <trkpt lat="45.90923" lon="6.16599">
        <ele>591</ele>
        <time>2019-09-19T01:18:15Z</time>
      </trkpt>
      <trkpt lat="45.90891" lon="6.16605">
        <ele>599</ele>
        <time>2019-09-19T01:18:32Z</time>
      </trkpt>
      <trkpt lat="45.90867" lon="6.166">
        <ele>599</ele>
        <time>2019-09-19T01:18:44Z</time>
      </trkpt>
      <trkpt lat="45.90847" lon="6.1659">
        <ele>594</ele>
        <time>2019-09-19T01:18:54Z</time>
      </trkpt>
      <trkpt lat="45.90817" lon="6.1658">
        <ele>593</ele>
        <time>2019-09-19T01:19:10Z</time>
      </trkpt>
      <trkpt lat="45.90798" lon="6.16587">
        <ele>602</ele>
        <time>2019-09-19T01:19:20Z</time>
      </trkpt>
      <trkpt lat="45.90757" lon="6.16583">
        <ele>608</ele>
        <time>2019-09-19T01:19:40Z</time>
      </trkpt>
      <trkpt lat="45.90746" lon="6.16584">
        <ele>611</ele>
        <time>2019-09-19T01:19:46Z</time>
      </trkpt>
      <trkpt lat="45.9071" lon="6.16557">
        <ele>600</ele>
        <time>2019-09-19T01:20:06Z</time>
      </trkpt>
      <trkpt lat="45.90692" lon="6.16536">
        <ele>589</ele>
        <time>2019-09-19T01:20:18Z</time>
      </trkpt>
      <trkpt lat="45.9065" lon="6.16518">
        <ele>583</ele>
        <time>2019-09-19T01:20:39Z</time>
      </trkpt>
      <trkpt lat="45.90641" lon="6.16512">
        <ele>580</ele>
        <time>2019-09-19T01:20:44Z</time>
      </trkpt>
      <trkpt lat="45.90635" lon="6.16499">
        <ele>573</ele>
        <time>2019-09-19T01:20:50Z</time>
      </trkpt>
      <trkpt lat="45.9061" lon="6.16475">
        <ele>563</ele>
        <time>2019-09-19T01:21:05Z</time>
      </trkpt>
      <trkpt lat="45.90592" lon="6.16463">
        <ele>559</ele>
        <time>2019-09-19T01:21:15Z</time>
      </trkpt>
      <trkpt lat="45.90571" lon="6.16455">
        <ele>558</ele>
        <time>2019-09-19T01:21:26Z</time>
      </trkpt>
      <trkpt lat="45.90555" lon="6.16437">
        <ele>550</ele>
        <time>2019-09-19T01:21:36Z</time>
      </trkpt>
      <trkpt lat="45.90546" lon="6.16432">
        <ele>549</ele>
        <time>2019-09-19T01:21:41Z</time>
      </trkpt>
      <trkpt lat="45.90512" lon="6.16394">
        <ele>537</ele>
        <time>2019-09-19T01:22:02Z</time>
      </trkpt>
      <trkpt lat="45.90472" lon="6.16349">
        <ele>523</ele>
        <time>2019-09-19T01:22:28Z</time>
      </trkpt>
      <trkpt lat="45.90456" lon="6.16326">
        <ele>516</ele>
        <time>2019-09-19T01:22:39Z</time>
      </trkpt>
      <trkpt lat="45.90436" lon="6.16309">
        <ele>512</ele>
        <time>2019-09-19T01:22:51Z</time>
      </trkpt>
      <trkpt lat="45.90429" lon="6.16301">
        <ele>510</ele>
        <time>2019-09-19T01:22:55Z</time>
      </trkpt>
      <trkpt lat="45.90423" lon="6.16287">
        <ele>506</ele>
        <time>2019-09-19T01:23:01Z</time>
      </trkpt>
      <trkpt lat="45.90421" lon="6.16229">
        <ele>490</ele>
        <time>2019-09-19T01:23:21Z</time>
      </trkpt>
      <trkpt lat="45.90428" lon="6.16185">
        <ele>480</ele>
        <time>2019-09-19T01:23:37Z</time>
      </trkpt>
      <trkpt lat="45.90426" lon="6.16158">
        <ele>474</ele>
        <time>2019-09-19T01:23:46Z</time>
      </trkpt>
      <trkpt lat="45.9043" lon="6.16143">
        <ele>472</ele>
        <time>2019-09-19T01:23:52Z</time>
      </trkpt>
      <trkpt lat="45.90425" lon="6.16127">
        <ele>470</ele>
        <time>2019-09-19T01:23:58Z</time>
      </trkpt>
      <trkpt lat="45.90409" lon="6.16114">
        <ele>468</ele>
        <time>2019-09-19T01:24:07Z</time>
      </trkpt>
      <trkpt lat="45.90402" lon="6.16104">
        <ele>466</ele>
        <time>2019-09-19T01:24:12Z</time>
      </trkpt>
      <trkpt lat="45.90393" lon="6.16078">
        <ele>462</ele>
        <time>2019-09-19T01:24:22Z</time>
      </trkpt>
      <trkpt lat="45.9039" lon="6.16061">
        <ele>460</ele>
        <time>2019-09-19T01:24:28Z</time>
      </trkpt>
      <trkpt lat="45.90367" lon="6.16014">
        <ele>454</ele>
        <time>2019-09-19T01:24:48Z</time>
      </trkpt>
      <trkpt lat="45.90368" lon="6.15988">
        <ele>452</ele>
        <time>2019-09-19T01:24:57Z</time>
      </trkpt>
      <trkpt lat="45.90372" lon="6.15975">
        <ele>451</ele>
        <time>2019-09-19T01:25:02Z</time>
      </trkpt>
      <trkpt lat="45.90379" lon="6.15966">
        <ele>451</ele>
        <time>2019-09-19T01:25:07Z</time>
      </trkpt>
      <trkpt lat="45.90389" lon="6.15966">
        <ele>451</ele>
        <time>2019-09-19T01:25:12Z</time>
      </trkpt>
      <trkpt lat="45.90395" lon="6.15955">
        <ele>451</ele>
        <time>2019-09-19T01:25:17Z</time>
      </trkpt>
      <trkpt lat="45.90405" lon="6.15952">
        <ele>451</ele>
        <time>2019-09-19T01:25:22Z</time>
      </trkpt>
      <trkpt lat="45.90417" lon="6.1593">
        <ele>450</ele>
        <time>2019-09-19T01:25:32Z</time>
      </trkpt>
      <trkpt lat="45.90445" lon="6.15909">
        <ele>449</ele>
        <time>2019-09-19T01:25:48Z</time>
      </trkpt>
      <trkpt lat="45.90455" lon="6.15904">
        <ele>450</ele>
        <time>2019-09-19T01:25:53Z</time>
      </trkpt>
      <trkpt lat="45.90483" lon="6.15878">
        <ele>449</ele>
        <time>2019-09-19T01:26:09Z</time>
      </trkpt>
      <trkpt lat="45.90499" lon="6.15857">
        <ele>449</ele>
        <time>2019-09-19T01:26:20Z</time>
      </trkpt>
      <trkpt lat="45.90524" lon="6.15786">
        <ele>448</ele>
        <time>2019-09-19T01:26:48Z</time>
      </trkpt>
      <trkpt lat="45.90577" lon="6.15693">
        <ele>449</ele>
        <time>2019-09-19T01:27:30Z</time>
      </trkpt>
      <trkpt lat="45.90586" lon="6.15599">
        <ele>449</ele>
        <time>2019-09-19T01:28:03Z</time>
      </trkpt>
      <trkpt lat="45.90581" lon="6.15546">
        <ele>449</ele>
        <time>2019-09-19T01:28:22Z</time>
      </trkpt>
      <trkpt lat="45.90572" lon="6.15524">
        <ele>449</ele>
        <time>2019-09-19T01:28:30Z</time>
      </trkpt>
      <trkpt lat="45.90561" lon="6.15439">
        <ele>450</ele>
        <time>2019-09-19T01:29:01Z</time>
      </trkpt>
      <trkpt lat="45.90553" lon="6.154">
        <ele>450</ele>
        <time>2019-09-19T01:29:15Z</time>
      </trkpt>
      <trkpt lat="45.90552" lon="6.15369">
        <ele>450</ele>
        <time>2019-09-19T01:29:26Z</time>
      </trkpt>
      <trkpt lat="45.90546" lon="6.15314">
        <ele>450</ele>
        <time>2019-09-19T01:29:45Z</time>
      </trkpt>
      <trkpt lat="45.90533" lon="6.15251">
        <ele>449</ele>
        <time>2019-09-19T01:30:08Z</time>
      </trkpt>
      <trkpt lat="45.90526" lon="6.15192">
        <ele>449</ele>
        <time>2019-09-19T01:30:29Z</time>
      </trkpt>
      <trkpt lat="45.905" lon="6.15165">
        <ele>448</ele>
        <time>2019-09-19T01:30:45Z</time>
      </trkpt>
      <trkpt lat="45.90478" lon="6.1513">
        <ele>448</ele>
        <time>2019-09-19T01:31:01Z</time>
      </trkpt>
      <trkpt lat="45.9046" lon="6.15122">
        <ele>448</ele>
        <time>2019-09-19T01:31:11Z</time>
      </trkpt>
      <trkpt lat="45.90451" lon="6.15111">
        <ele>448</ele>
        <time>2019-09-19T01:31:16Z</time>
      </trkpt>
      <trkpt lat="45.90451" lon="6.15096">
        <ele>448</ele>
        <time>2019-09-19T01:31:22Z</time>
      </trkpt>
      <trkpt lat="45.90462" lon="6.15068">
        <ele>449</ele>
        <time>2019-09-19T01:31:33Z</time>
      </trkpt>
      <trkpt lat="45.90469" lon="6.15035">
        <ele>449</ele>
        <time>2019-09-19T01:31:45Z</time>
      </trkpt>
      <trkpt lat="45.90471" lon="6.14998">
        <ele>450</ele>
        <time>2019-09-19T01:31:58Z</time>
      </trkpt>
      <trkpt lat="45.90467" lon="6.14975">
        <ele>450</ele>
        <time>2019-09-19T01:32:06Z</time>
      </trkpt>
      <trkpt lat="45.90463" lon="6.14967">
        <ele>450</ele>
        <time>2019-09-19T01:32:09Z</time>
      </trkpt>
      <trkpt lat="45.90464" lon="6.1496">
        <ele>450</ele>
        <time>2019-09-19T01:32:12Z</time>
      </trkpt>
      <trkpt lat="45.90466" lon="6.14959">
        <ele>450</ele>
        <time>2019-09-19T01:32:13Z</time>
      </trkpt>
      <trkpt lat="45.90443" lon="6.14808">
        <ele>450</ele>
        <time>2019-09-19T01:33:07Z</time>
      </trkpt>
    </trkseg>
  </trk>
</gpx>